<?xml version='1.0' encoding='UTF-8'?><gpx version="1.1" creator="JPX - https://github.com/jenetics/jpx" xmlns="http://www.topografix.com/GPX/1/1"><trk><trkseg><trkpt lat="45.8655992" lon="8.3886083"><ele>378.0</ele><time>2026-04-03T13:13:48.289Z</time></trkpt><trkpt lat="45.865601" lon="8.3884377"><ele>378.0</ele><time>2026-04-03T13:13:50.276Z</time></trkpt><trkpt lat="45.8656112" lon="8.388337"><ele>378.0</ele><time>2026-04-03T13:13:51.27Z</time></trkpt><trkpt lat="45.865606" lon="8.3882343"><ele>378.0</ele><time>2026-04-03T13:13:52.276Z</time></trkpt><trkpt lat="45.8655791" lon="8.388123"><ele>378.0</ele><time>2026-04-03T13:13:53.273Z</time></trkpt><trkpt lat="45.8655184" lon="8.3879866"><ele>375.25</ele><time>2026-04-03T13:13:54.273Z</time></trkpt><trkpt lat="45.8654385" lon="8.3878564"><ele>372.5</ele><time>2026-04-03T13:13:55.276Z</time></trkpt><trkpt lat="45.8653614" lon="8.3877341"><ele>369.75</ele><time>2026-04-03T13:13:56.174Z</time></trkpt><trkpt lat="45.8652927" lon="8.3876145"><ele>367.0</ele><time>2026-04-03T13:13:57.08Z</time></trkpt><trkpt lat="45.8651563" lon="8.3873475"><ele>372.3333333333333</ele><time>2026-04-03T13:13:58.869Z</time></trkpt><trkpt lat="45.8650887" lon="8.387208"><ele>377.6666666666667</ele><time>2026-04-03T13:13:59.772Z</time></trkpt><trkpt lat="45.8649274" lon="8.3869546"><ele>383.0</ele><time>2026-04-03T13:14:01.569Z</time></trkpt><trkpt lat="45.8648343" lon="8.3868406"><ele>383.0</ele><time>2026-04-03T13:14:02.472Z</time></trkpt><trkpt lat="45.8647491" lon="8.3867187"><ele>383.0</ele><time>2026-04-03T13:14:03.4Z</time></trkpt><trkpt lat="45.8646664" lon="8.3865706"><ele>383.0</ele><time>2026-04-03T13:14:04.363Z</time></trkpt><trkpt lat="45.8646005" lon="8.3864245"><ele>383.0</ele><time>2026-04-03T13:14:05.365Z</time></trkpt><trkpt lat="45.8645427" lon="8.3862897"><ele>383.1666666666667</ele><time>2026-04-03T13:14:06.36Z</time></trkpt><trkpt lat="45.8644937" lon="8.3861692"><ele>383.33333333333337</ele><time>2026-04-03T13:14:07.361Z</time></trkpt><trkpt lat="45.8644704" lon="8.3860735"><ele>383.5</ele><time>2026-04-03T13:14:08.358Z</time></trkpt><trkpt lat="45.8644816" lon="8.3859832"><ele>383.6666666666667</ele><time>2026-04-03T13:14:09.362Z</time></trkpt><trkpt lat="45.8645079" lon="8.3858932"><ele>383.8333333333333</ele><time>2026-04-03T13:14:10.366Z</time></trkpt><trkpt lat="45.8645543" lon="8.3857994"><ele>384.0</ele><time>2026-04-03T13:14:11.36Z</time></trkpt><trkpt lat="45.8646131" lon="8.3857114"><ele>384.0</ele><time>2026-04-03T13:14:12.364Z</time></trkpt><trkpt lat="45.8646785" lon="8.3856256"><ele>384.0</ele><time>2026-04-03T13:14:13.364Z</time></trkpt><trkpt lat="45.8647492" lon="8.3855395"><ele>384.0</ele><time>2026-04-03T13:14:14.365Z</time></trkpt><trkpt lat="45.8648232" lon="8.3854566"><ele>384.0</ele><time>2026-04-03T13:14:15.361Z</time></trkpt><trkpt lat="45.8648943" lon="8.3853938"><ele>384.0</ele><time>2026-04-03T13:14:16.363Z</time></trkpt><trkpt lat="45.864968" lon="8.3853373"><ele>384.0</ele><time>2026-04-03T13:14:17.366Z</time></trkpt><trkpt lat="45.8650391" lon="8.3852931"><ele>384.1666666666667</ele><time>2026-04-03T13:14:18.364Z</time></trkpt><trkpt lat="45.8651098" lon="8.3852799"><ele>384.33333333333337</ele><time>2026-04-03T13:14:19.359Z</time></trkpt><trkpt lat="45.8651811" lon="8.3853111"><ele>384.5</ele><time>2026-04-03T13:14:20.364Z</time></trkpt><trkpt lat="45.8652438" lon="8.3853952"><ele>384.6666666666667</ele><time>2026-04-03T13:14:21.366Z</time></trkpt><trkpt lat="45.8653039" lon="8.3855235"><ele>384.83333333333337</ele><time>2026-04-03T13:14:22.36Z</time></trkpt><trkpt lat="45.8653672" lon="8.3856525"><ele>385.0</ele><time>2026-04-03T13:14:23.364Z</time></trkpt><trkpt lat="45.8654269" lon="8.3857716"><ele>382.2</ele><time>2026-04-03T13:14:24.358Z</time></trkpt><trkpt lat="45.8654832" lon="8.3858784"><ele>379.4</ele><time>2026-04-03T13:14:25.362Z</time></trkpt><trkpt lat="45.8655386" lon="8.3859958"><ele>376.6</ele><time>2026-04-03T13:14:26.364Z</time></trkpt><trkpt lat="45.8655855" lon="8.3861256"><ele>373.8</ele><time>2026-04-03T13:14:27.364Z</time></trkpt><trkpt lat="45.8656225" lon="8.3862733"><ele>371.0</ele><time>2026-04-03T13:14:28.359Z</time></trkpt><trkpt lat="45.8656644" lon="8.3864203"><ele>369.0</ele><time>2026-04-03T13:14:29.359Z</time></trkpt><trkpt lat="45.8657145" lon="8.3865476"><ele>367.0</ele><time>2026-04-03T13:14:30.363Z</time></trkpt><trkpt lat="45.865776" lon="8.3866541"><ele>365.0</ele><time>2026-04-03T13:14:31.362Z</time></trkpt><trkpt lat="45.8658497" lon="8.3867316"><ele>363.0</ele><time>2026-04-03T13:14:32.36Z</time></trkpt><trkpt lat="45.8659587" lon="8.3867821"><ele>361.0</ele><time>2026-04-03T13:14:33.374Z</time></trkpt><trkpt lat="45.866083" lon="8.3868049"><ele>358.0</ele><time>2026-04-03T13:14:34.374Z</time></trkpt><trkpt lat="45.8662319" lon="8.3868"><ele>355.0</ele><time>2026-04-03T13:14:35.359Z</time></trkpt><trkpt lat="45.8663849" lon="8.3867893"><ele>352.0</ele><time>2026-04-03T13:14:36.36Z</time></trkpt><trkpt lat="45.8665386" lon="8.3867795"><ele>352.0</ele><time>2026-04-03T13:14:37.359Z</time></trkpt><trkpt lat="45.8666886" lon="8.3867699"><ele>352.0</ele><time>2026-04-03T13:14:38.36Z</time></trkpt><trkpt lat="45.8668392" lon="8.3867547"><ele>352.0</ele><time>2026-04-03T13:14:39.364Z</time></trkpt><trkpt lat="45.866982" lon="8.3867406"><ele>352.0</ele><time>2026-04-03T13:14:40.363Z</time></trkpt><trkpt lat="45.8671179" lon="8.3867328"><ele>352.20000000000005</ele><time>2026-04-03T13:14:41.363Z</time></trkpt><trkpt lat="45.8672375" lon="8.3867272"><ele>352.4</ele><time>2026-04-03T13:14:42.364Z</time></trkpt><trkpt lat="45.8673469" lon="8.3867298"><ele>352.6</ele><time>2026-04-03T13:14:43.367Z</time></trkpt><trkpt lat="45.8674332" lon="8.3867327"><ele>352.79999999999995</ele><time>2026-04-03T13:14:44.366Z</time></trkpt><trkpt lat="45.8675128" lon="8.3867416"><ele>353.0</ele><time>2026-04-03T13:14:45.366Z</time></trkpt><trkpt lat="45.8676006" lon="8.3867426"><ele>352.4</ele><time>2026-04-03T13:14:46.367Z</time></trkpt><trkpt lat="45.8676889" lon="8.3867394"><ele>351.79999999999995</ele><time>2026-04-03T13:14:47.368Z</time></trkpt><trkpt lat="45.8677805" lon="8.3867296"><ele>351.2</ele><time>2026-04-03T13:14:48.366Z</time></trkpt><trkpt lat="45.8678802" lon="8.3867082"><ele>350.6</ele><time>2026-04-03T13:14:49.367Z</time></trkpt><trkpt lat="45.867981" lon="8.3866733"><ele>350.0</ele><time>2026-04-03T13:14:50.366Z</time></trkpt><trkpt lat="45.8680851" lon="8.3866282"><ele>350.0</ele><time>2026-04-03T13:14:51.369Z</time></trkpt><trkpt lat="45.8681922" lon="8.3865737"><ele>350.0</ele><time>2026-04-03T13:14:52.366Z</time></trkpt><trkpt lat="45.8683066" lon="8.3865236"><ele>350.0</ele><time>2026-04-03T13:14:53.366Z</time></trkpt><trkpt lat="45.8684227" lon="8.3864746"><ele>350.0</ele><time>2026-04-03T13:14:54.363Z</time></trkpt><trkpt lat="45.8685435" lon="8.3864304"><ele>349.75</ele><time>2026-04-03T13:14:55.364Z</time></trkpt><trkpt lat="45.8686654" lon="8.3863892"><ele>349.5</ele><time>2026-04-03T13:14:56.363Z</time></trkpt><trkpt lat="45.868789" lon="8.3863479"><ele>349.25</ele><time>2026-04-03T13:14:57.362Z</time></trkpt><trkpt lat="45.8689096" lon="8.3863075"><ele>349.0</ele><time>2026-04-03T13:14:58.363Z</time></trkpt><trkpt lat="45.86902" lon="8.3862681"><ele>349.0</ele><time>2026-04-03T13:14:59.365Z</time></trkpt><trkpt lat="45.8691201" lon="8.3862348"><ele>349.0</ele><time>2026-04-03T13:15:00.362Z</time></trkpt><trkpt lat="45.869213" lon="8.3861978"><ele>349.0</ele><time>2026-04-03T13:15:01.361Z</time></trkpt><trkpt lat="45.869299" lon="8.3861709"><ele>349.0</ele><time>2026-04-03T13:15:02.363Z</time></trkpt><trkpt lat="45.8693789" lon="8.3861478"><ele>349.0</ele><time>2026-04-03T13:15:03.376Z</time></trkpt><trkpt lat="45.8694495" lon="8.386129"><ele>349.0</ele><time>2026-04-03T13:15:04.363Z</time></trkpt><trkpt lat="45.869513" lon="8.386119"><ele>349.4</ele><time>2026-04-03T13:15:05.376Z</time></trkpt><trkpt lat="45.8696373" lon="8.3861452"><ele>349.79999999999995</ele><time>2026-04-03T13:15:07.363Z</time></trkpt><trkpt lat="45.8696977" lon="8.3861986"><ele>350.20000000000005</ele><time>2026-04-03T13:15:08.362Z</time></trkpt><trkpt lat="45.869756" lon="8.3862859"><ele>350.6</ele><time>2026-04-03T13:15:09.361Z</time></trkpt><trkpt lat="45.8698083" lon="8.3863988"><ele>351.0</ele><time>2026-04-03T13:15:10.366Z</time></trkpt><trkpt lat="45.8698587" lon="8.3865214"><ele>351.0</ele><time>2026-04-03T13:15:11.364Z</time></trkpt><trkpt lat="45.8699126" lon="8.3866329"><ele>351.0</ele><time>2026-04-03T13:15:12.362Z</time></trkpt><trkpt lat="45.8699767" lon="8.3867403"><ele>351.0</ele><time>2026-04-03T13:15:13.362Z</time></trkpt><trkpt lat="45.8700513" lon="8.386839"><ele>351.0</ele><time>2026-04-03T13:15:14.362Z</time></trkpt><trkpt lat="45.8701397" lon="8.3869416"><ele>351.0</ele><time>2026-04-03T13:15:15.363Z</time></trkpt><trkpt lat="45.8702298" lon="8.3870471"><ele>351.25</ele><time>2026-04-03T13:15:16.361Z</time></trkpt><trkpt lat="45.8703216" lon="8.3871549"><ele>351.5</ele><time>2026-04-03T13:15:17.362Z</time></trkpt><trkpt lat="45.8704174" lon="8.3872552"><ele>351.75</ele><time>2026-04-03T13:15:18.359Z</time></trkpt><trkpt lat="45.8705094" lon="8.3873517"><ele>352.0</ele><time>2026-04-03T13:15:19.361Z</time></trkpt><trkpt lat="45.8705972" lon="8.3874376"><ele>352.0</ele><time>2026-04-03T13:15:20.359Z</time></trkpt><trkpt lat="45.8706732" lon="8.3875014"><ele>352.0</ele><time>2026-04-03T13:15:21.357Z</time></trkpt><trkpt lat="45.8707395" lon="8.3875454"><ele>352.0</ele><time>2026-04-03T13:15:22.36Z</time></trkpt><trkpt lat="45.8708204" lon="8.3875748"><ele>352.0</ele><time>2026-04-03T13:15:24.363Z</time></trkpt><trkpt lat="45.8708801" lon="8.387606"><ele>352.0</ele><time>2026-04-03T13:15:27.371Z</time></trkpt><trkpt lat="45.8709301" lon="8.3876636"><ele>352.0</ele><time>2026-04-03T13:15:30.368Z</time></trkpt><trkpt lat="45.871058" lon="8.3877178"><ele>355.20000000000005</ele><time>2026-04-03T13:15:32.364Z</time></trkpt><trkpt lat="45.8711473" lon="8.3877463"><ele>358.4</ele><time>2026-04-03T13:15:33.374Z</time></trkpt><trkpt lat="45.8712443" lon="8.3877828"><ele>361.6</ele><time>2026-04-03T13:15:34.356Z</time></trkpt><trkpt lat="45.8713443" lon="8.3878135"><ele>364.79999999999995</ele><time>2026-04-03T13:15:35.361Z</time></trkpt><trkpt lat="45.8714402" lon="8.3878414"><ele>368.0</ele><time>2026-04-03T13:15:36.375Z</time></trkpt><trkpt lat="45.8715238" lon="8.3878646"><ele>368.0</ele><time>2026-04-03T13:15:37.361Z</time></trkpt><trkpt lat="45.8716025" lon="8.3879089"><ele>368.0</ele><time>2026-04-03T13:15:38.361Z</time></trkpt><trkpt lat="45.8716686" lon="8.3879812"><ele>368.0</ele><time>2026-04-03T13:15:39.362Z</time></trkpt><trkpt lat="45.8717213" lon="8.3880868"><ele>368.0</ele><time>2026-04-03T13:15:40.359Z</time></trkpt><trkpt lat="45.8717684" lon="8.3882079"><ele>368.0</ele><time>2026-04-03T13:15:41.359Z</time></trkpt><trkpt lat="45.871807" lon="8.3883231"><ele>368.0</ele><time>2026-04-03T13:15:42.359Z</time></trkpt><trkpt lat="45.8718468" lon="8.388423"><ele>368.83333333333337</ele><time>2026-04-03T13:15:43.359Z</time></trkpt><trkpt lat="45.8718918" lon="8.3885036"><ele>369.6666666666667</ele><time>2026-04-03T13:15:44.358Z</time></trkpt><trkpt lat="45.8719336" lon="8.3885755"><ele>370.5</ele><time>2026-04-03T13:15:45.354Z</time></trkpt><trkpt lat="45.8720047" lon="8.3886734"><ele>371.3333333333333</ele><time>2026-04-03T13:15:47.346Z</time></trkpt><trkpt lat="45.87207" lon="8.3886765"><ele>372.16666666666663</ele><time>2026-04-03T13:16:01.369Z</time></trkpt><trkpt lat="45.872143" lon="8.388761"><ele>373.0</ele><time>2026-04-03T13:16:03.375Z</time></trkpt><trkpt lat="45.8722093" lon="8.388818"><ele>372.66666666666663</ele><time>2026-04-03T13:16:04.366Z</time></trkpt><trkpt lat="45.8722656" lon="8.3888695"><ele>372.3333333333333</ele><time>2026-04-03T13:16:05.354Z</time></trkpt><trkpt lat="45.8723388" lon="8.3889531"><ele>372.0</ele><time>2026-04-03T13:16:07.387Z</time></trkpt><trkpt lat="45.8723437" lon="8.3890796"><ele>371.6666666666667</ele><time>2026-04-03T13:16:09.376Z</time></trkpt><trkpt lat="45.8723421" lon="8.389176"><ele>371.33333333333337</ele><time>2026-04-03T13:16:10.363Z</time></trkpt><trkpt lat="45.8723467" lon="8.3892731"><ele>371.0</ele><time>2026-04-03T13:16:11.357Z</time></trkpt><trkpt lat="45.8723565" lon="8.3893765"><ele>371.0</ele><time>2026-04-03T13:16:12.357Z</time></trkpt><trkpt lat="45.8723805" lon="8.3894873"><ele>371.0</ele><time>2026-04-03T13:16:13.354Z</time></trkpt><trkpt lat="45.8724189" lon="8.3896163"><ele>371.0</ele><time>2026-04-03T13:16:14.352Z</time></trkpt><trkpt lat="45.872443" lon="8.3897545"><ele>371.0</ele><time>2026-04-03T13:16:15.359Z</time></trkpt><trkpt lat="45.8724583" lon="8.3899027"><ele>371.0</ele><time>2026-04-03T13:16:16.357Z</time></trkpt><trkpt lat="45.8724742" lon="8.390063"><ele>371.4</ele><time>2026-04-03T13:16:17.36Z</time></trkpt><trkpt lat="45.8724964" lon="8.3902187"><ele>371.8</ele><time>2026-04-03T13:16:18.356Z</time></trkpt><trkpt lat="45.8725261" lon="8.3903703"><ele>372.2</ele><time>2026-04-03T13:16:19.36Z</time></trkpt><trkpt lat="45.8725609" lon="8.3905238"><ele>372.59999999999997</ele><time>2026-04-03T13:16:20.365Z</time></trkpt><trkpt lat="45.8725982" lon="8.3906758"><ele>373.0</ele><time>2026-04-03T13:16:21.365Z</time></trkpt><trkpt lat="45.8726329" lon="8.3908177"><ele>373.0</ele><time>2026-04-03T13:16:22.366Z</time></trkpt><trkpt lat="45.8726662" lon="8.3909491"><ele>373.0</ele><time>2026-04-03T13:16:23.361Z</time></trkpt><trkpt lat="45.872707" lon="8.3910745"><ele>373.0</ele><time>2026-04-03T13:16:24.365Z</time></trkpt><trkpt lat="45.872754" lon="8.3911905"><ele>373.0</ele><time>2026-04-03T13:16:25.362Z</time></trkpt><trkpt lat="45.8728099" lon="8.3913014"><ele>373.0</ele><time>2026-04-03T13:16:26.362Z</time></trkpt><trkpt lat="45.8728514" lon="8.3914133"><ele>372.66666666666663</ele><time>2026-04-03T13:16:27.361Z</time></trkpt><trkpt lat="45.872873" lon="8.3915252"><ele>372.3333333333333</ele><time>2026-04-03T13:16:28.365Z</time></trkpt><trkpt lat="45.8728755" lon="8.391638"><ele>372.0</ele><time>2026-04-03T13:16:29.361Z</time></trkpt><trkpt lat="45.8728663" lon="8.3917451"><ele>371.6666666666667</ele><time>2026-04-03T13:16:30.363Z</time></trkpt><trkpt lat="45.8728506" lon="8.3918471"><ele>371.33333333333337</ele><time>2026-04-03T13:16:31.361Z</time></trkpt><trkpt lat="45.8728406" lon="8.3919497"><ele>371.0</ele><time>2026-04-03T13:16:32.362Z</time></trkpt><trkpt lat="45.8728376" lon="8.3920587"><ele>371.6</ele><time>2026-04-03T13:16:33.373Z</time></trkpt><trkpt lat="45.8728427" lon="8.3921818"><ele>372.20000000000005</ele><time>2026-04-03T13:16:34.36Z</time></trkpt><trkpt lat="45.8728635" lon="8.3923142"><ele>372.79999999999995</ele><time>2026-04-03T13:16:35.36Z</time></trkpt><trkpt lat="45.8728906" lon="8.39245"><ele>373.4</ele><time>2026-04-03T13:16:36.363Z</time></trkpt><trkpt lat="45.8729256" lon="8.3925831"><ele>374.0</ele><time>2026-04-03T13:16:37.367Z</time></trkpt><trkpt lat="45.8729566" lon="8.3927146"><ele>374.0</ele><time>2026-04-03T13:16:38.378Z</time></trkpt><trkpt lat="45.8729856" lon="8.3928506"><ele>374.0</ele><time>2026-04-03T13:16:39.365Z</time></trkpt><trkpt lat="45.8730124" lon="8.392986"><ele>374.0</ele><time>2026-04-03T13:16:40.365Z</time></trkpt><trkpt lat="45.8730291" lon="8.3931201"><ele>374.0</ele><time>2026-04-03T13:16:41.364Z</time></trkpt><trkpt lat="45.8730391" lon="8.3932537"><ele>374.0</ele><time>2026-04-03T13:16:42.366Z</time></trkpt><trkpt lat="45.8730432" lon="8.3933832"><ele>374.2</ele><time>2026-04-03T13:16:43.365Z</time></trkpt><trkpt lat="45.8730447" lon="8.3935142"><ele>374.4</ele><time>2026-04-03T13:16:44.365Z</time></trkpt><trkpt lat="45.873048" lon="8.3936479"><ele>374.6</ele><time>2026-04-03T13:16:45.365Z</time></trkpt><trkpt lat="45.873051" lon="8.3937908"><ele>374.8</ele><time>2026-04-03T13:16:46.367Z</time></trkpt><trkpt lat="45.8730544" lon="8.3939357"><ele>375.0</ele><time>2026-04-03T13:16:47.365Z</time></trkpt><trkpt lat="45.8730528" lon="8.3940795"><ele>374.6</ele><time>2026-04-03T13:16:48.37Z</time></trkpt><trkpt lat="45.8730523" lon="8.3942195"><ele>374.2</ele><time>2026-04-03T13:16:49.363Z</time></trkpt><trkpt lat="45.8730514" lon="8.3943582"><ele>373.79999999999995</ele><time>2026-04-03T13:16:50.363Z</time></trkpt><trkpt lat="45.8730507" lon="8.3944978"><ele>373.4</ele><time>2026-04-03T13:16:51.362Z</time></trkpt><trkpt lat="45.8730474" lon="8.3946397"><ele>373.0</ele><time>2026-04-03T13:16:52.362Z</time></trkpt><trkpt lat="45.8730468" lon="8.3947809"><ele>373.0</ele><time>2026-04-03T13:16:53.365Z</time></trkpt><trkpt lat="45.8730518" lon="8.3949235"><ele>373.0</ele><time>2026-04-03T13:16:54.363Z</time></trkpt><trkpt lat="45.8730535" lon="8.3950705"><ele>373.0</ele><time>2026-04-03T13:16:55.361Z</time></trkpt><trkpt lat="45.8730577" lon="8.3952179"><ele>373.0</ele><time>2026-04-03T13:16:56.363Z</time></trkpt><trkpt lat="45.8730696" lon="8.3953668"><ele>373.0</ele><time>2026-04-03T13:16:57.36Z</time></trkpt><trkpt lat="45.8730932" lon="8.3955161"><ele>373.0</ele><time>2026-04-03T13:16:58.362Z</time></trkpt><trkpt lat="45.8731283" lon="8.3956533"><ele>373.0</ele><time>2026-04-03T13:16:59.363Z</time></trkpt><trkpt lat="45.8731649" lon="8.3957817"><ele>373.0</ele><time>2026-04-03T13:17:00.362Z</time></trkpt><trkpt lat="45.873203" lon="8.395906"><ele>373.0</ele><time>2026-04-03T13:17:01.367Z</time></trkpt><trkpt lat="45.8732408" lon="8.3960331"><ele>373.0</ele><time>2026-04-03T13:17:02.363Z</time></trkpt><trkpt lat="45.8732764" lon="8.3961605"><ele>373.0</ele><time>2026-04-03T13:17:03.374Z</time></trkpt><trkpt lat="45.8733114" lon="8.3962837"><ele>373.0</ele><time>2026-04-03T13:17:04.363Z</time></trkpt><trkpt lat="45.8733475" lon="8.3964012"><ele>373.0</ele><time>2026-04-03T13:17:05.363Z</time></trkpt><trkpt lat="45.8733824" lon="8.3965179"><ele>373.0</ele><time>2026-04-03T13:17:06.361Z</time></trkpt><trkpt lat="45.8734145" lon="8.3966398"><ele>373.0</ele><time>2026-04-03T13:17:07.361Z</time></trkpt><trkpt lat="45.8734502" lon="8.396769"><ele>373.59999999999997</ele><time>2026-04-03T13:17:08.363Z</time></trkpt><trkpt lat="45.8734829" lon="8.3969024"><ele>374.2</ele><time>2026-04-03T13:17:09.393Z</time></trkpt><trkpt lat="45.8735215" lon="8.397045"><ele>374.8</ele><time>2026-04-03T13:17:10.368Z</time></trkpt><trkpt lat="45.8735613" lon="8.3971953"><ele>375.4</ele><time>2026-04-03T13:17:11.368Z</time></trkpt><trkpt lat="45.8736063" lon="8.3973432"><ele>376.0</ele><time>2026-04-03T13:17:12.369Z</time></trkpt><trkpt lat="45.8736571" lon="8.3974893"><ele>376.0</ele><time>2026-04-03T13:17:13.364Z</time></trkpt><trkpt lat="45.8737149" lon="8.3976282"><ele>376.0</ele><time>2026-04-03T13:17:14.363Z</time></trkpt><trkpt lat="45.8737856" lon="8.3977524"><ele>376.0</ele><time>2026-04-03T13:17:15.365Z</time></trkpt><trkpt lat="45.8738572" lon="8.3978582"><ele>376.0</ele><time>2026-04-03T13:17:16.366Z</time></trkpt><trkpt lat="45.8739204" lon="8.3979594"><ele>376.0</ele><time>2026-04-03T13:17:17.369Z</time></trkpt><trkpt lat="45.8739794" lon="8.3980551"><ele>375.8333333333333</ele><time>2026-04-03T13:17:18.367Z</time></trkpt><trkpt lat="45.8740396" lon="8.3981471"><ele>375.66666666666663</ele><time>2026-04-03T13:17:19.367Z</time></trkpt><trkpt lat="45.874099" lon="8.3982435"><ele>375.5</ele><time>2026-04-03T13:17:20.365Z</time></trkpt><trkpt lat="45.8741577" lon="8.398338"><ele>375.3333333333333</ele><time>2026-04-03T13:17:21.366Z</time></trkpt><trkpt lat="45.8742144" lon="8.3984312"><ele>375.1666666666667</ele><time>2026-04-03T13:17:22.367Z</time></trkpt><trkpt lat="45.8742726" lon="8.3985245"><ele>375.0</ele><time>2026-04-03T13:17:23.371Z</time></trkpt><trkpt lat="45.8743296" lon="8.3986108"><ele>375.0</ele><time>2026-04-03T13:17:24.368Z</time></trkpt><trkpt lat="45.8743826" lon="8.3986957"><ele>375.0</ele><time>2026-04-03T13:17:25.367Z</time></trkpt><trkpt lat="45.87443" lon="8.3987695"><ele>375.0</ele><time>2026-04-03T13:17:26.372Z</time></trkpt><trkpt lat="45.8745056" lon="8.398888"><ele>375.0</ele><time>2026-04-03T13:17:28.37Z</time></trkpt><trkpt lat="45.8745719" lon="8.3989935"><ele>375.0</ele><time>2026-04-03T13:17:30.372Z</time></trkpt><trkpt lat="45.8746754" lon="8.3990865"><ele>374.8571428571429</ele><time>2026-04-03T13:17:32.368Z</time></trkpt><trkpt lat="45.8747338" lon="8.3991205"><ele>374.71428571428567</ele><time>2026-04-03T13:17:33.38Z</time></trkpt><trkpt lat="45.874792" lon="8.3991629"><ele>374.57142857142856</ele><time>2026-04-03T13:17:34.368Z</time></trkpt><trkpt lat="45.8748465" lon="8.3992231"><ele>374.42857142857144</ele><time>2026-04-03T13:17:35.366Z</time></trkpt><trkpt lat="45.8749014" lon="8.3992873"><ele>374.28571428571433</ele><time>2026-04-03T13:17:36.366Z</time></trkpt><trkpt lat="45.8749478" lon="8.3993556"><ele>374.1428571428571</ele><time>2026-04-03T13:17:37.366Z</time></trkpt><trkpt lat="45.8749863" lon="8.3994316"><ele>374.0</ele><time>2026-04-03T13:17:38.365Z</time></trkpt><trkpt lat="45.8750215" lon="8.3995169"><ele>374.0</ele><time>2026-04-03T13:17:39.375Z</time></trkpt><trkpt lat="45.8750488" lon="8.3996168"><ele>374.0</ele><time>2026-04-03T13:17:40.367Z</time></trkpt><trkpt lat="45.8750678" lon="8.3997267"><ele>374.0</ele><time>2026-04-03T13:17:41.369Z</time></trkpt><trkpt lat="45.875075" lon="8.3998354"><ele>374.0</ele><time>2026-04-03T13:17:42.366Z</time></trkpt><trkpt lat="45.8750795" lon="8.3999382"><ele>374.0</ele><time>2026-04-03T13:17:43.368Z</time></trkpt><trkpt lat="45.8750851" lon="8.4000299"><ele>374.0</ele><time>2026-04-03T13:17:44.367Z</time></trkpt><trkpt lat="45.8751049" lon="8.4001172"><ele>374.0</ele><time>2026-04-03T13:17:45.367Z</time></trkpt><trkpt lat="45.8751369" lon="8.4001973"><ele>373.5</ele><time>2026-04-03T13:17:46.367Z</time></trkpt><trkpt lat="45.8752004" lon="8.4002851"><ele>373.0</ele><time>2026-04-03T13:17:47.371Z</time></trkpt><trkpt lat="45.8753047" lon="8.4003779"><ele>372.5</ele><time>2026-04-03T13:17:48.368Z</time></trkpt><trkpt lat="45.8754206" lon="8.4004724"><ele>372.0</ele><time>2026-04-03T13:17:49.366Z</time></trkpt><trkpt lat="45.8755296" lon="8.4005649"><ele>371.1666666666667</ele><time>2026-04-03T13:17:50.368Z</time></trkpt><trkpt lat="45.875624" lon="8.4006439"><ele>370.3333333333333</ele><time>2026-04-03T13:17:51.37Z</time></trkpt><trkpt lat="45.875692" lon="8.400716"><ele>369.5</ele><time>2026-04-03T13:17:52.369Z</time></trkpt><trkpt lat="45.8757169" lon="8.4008014"><ele>368.66666666666663</ele><time>2026-04-03T13:17:53.37Z</time></trkpt><trkpt lat="45.8757055" lon="8.4009023"><ele>367.8333333333333</ele><time>2026-04-03T13:17:54.363Z</time></trkpt><trkpt lat="45.8756982" lon="8.4010496"><ele>367.0</ele><time>2026-04-03T13:17:55.369Z</time></trkpt><trkpt lat="45.8757075" lon="8.4012393"><ele>365.5</ele><time>2026-04-03T13:17:56.364Z</time></trkpt><trkpt lat="45.8757422" lon="8.4014531"><ele>364.0</ele><time>2026-04-03T13:17:57.36Z</time></trkpt><trkpt lat="45.875791" lon="8.4016614"><ele>362.5</ele><time>2026-04-03T13:17:58.361Z</time></trkpt><trkpt lat="45.8758584" lon="8.4018433"><ele>361.0</ele><time>2026-04-03T13:17:59.359Z</time></trkpt><trkpt lat="45.8759578" lon="8.4020018"><ele>356.5</ele><time>2026-04-03T13:18:00.35Z</time></trkpt><trkpt lat="45.8760541" lon="8.4021318"><ele>352.0</ele><time>2026-04-03T13:18:01.36Z</time></trkpt><trkpt lat="45.8761703" lon="8.4022536"><ele>347.5</ele><time>2026-04-03T13:18:02.357Z</time></trkpt><trkpt lat="45.8762971" lon="8.4023591"><ele>343.0</ele><time>2026-04-03T13:18:03.367Z</time></trkpt><trkpt lat="45.8764174" lon="8.4024758"><ele>343.0</ele><time>2026-04-03T13:18:04.359Z</time></trkpt><trkpt lat="45.8765429" lon="8.402581"><ele>343.0</ele><time>2026-04-03T13:18:05.353Z</time></trkpt><trkpt lat="45.8766741" lon="8.40268"><ele>343.0</ele><time>2026-04-03T13:18:06.355Z</time></trkpt><trkpt lat="45.8768219" lon="8.4027551"><ele>333.0</ele><time>2026-04-03T13:18:07.352Z</time></trkpt><trkpt lat="45.8769726" lon="8.402815"><ele>323.0</ele><time>2026-04-03T13:18:08.35Z</time></trkpt><trkpt lat="45.8771313" lon="8.4028303"><ele>313.0</ele><time>2026-04-03T13:18:09.347Z</time></trkpt><trkpt lat="45.877283" lon="8.4028413"><ele>313.0</ele><time>2026-04-03T13:18:10.359Z</time></trkpt><trkpt lat="45.8774074" lon="8.4028593"><ele>313.0</ele><time>2026-04-03T13:18:11.345Z</time></trkpt><trkpt lat="45.8775038" lon="8.4028922"><ele>313.0</ele><time>2026-04-03T13:18:12.348Z</time></trkpt><trkpt lat="45.8776105" lon="8.4029718"><ele>313.0</ele><time>2026-04-03T13:18:13.351Z</time></trkpt><trkpt lat="45.8777357" lon="8.4031033"><ele>311.66666666666663</ele><time>2026-04-03T13:18:14.351Z</time></trkpt><trkpt lat="45.8778635" lon="8.403248"><ele>310.3333333333333</ele><time>2026-04-03T13:18:15.351Z</time></trkpt><trkpt lat="45.8779975" lon="8.4033691"><ele>309.0</ele><time>2026-04-03T13:18:16.354Z</time></trkpt><trkpt lat="45.8781299" lon="8.4034633"><ele>309.0</ele><time>2026-04-03T13:18:17.354Z</time></trkpt><trkpt lat="45.8782616" lon="8.4035433"><ele>309.0</ele><time>2026-04-03T13:18:18.354Z</time></trkpt><trkpt lat="45.8783977" lon="8.4036395"><ele>309.0</ele><time>2026-04-03T13:18:19.354Z</time></trkpt><trkpt lat="45.8785259" lon="8.4037261"><ele>309.0</ele><time>2026-04-03T13:18:20.354Z</time></trkpt><trkpt lat="45.8786238" lon="8.4038167"><ele>309.4</ele><time>2026-04-03T13:18:21.355Z</time></trkpt><trkpt lat="45.8786964" lon="8.4039216"><ele>309.79999999999995</ele><time>2026-04-03T13:18:22.355Z</time></trkpt><trkpt lat="45.8787525" lon="8.4040429"><ele>310.20000000000005</ele><time>2026-04-03T13:18:23.357Z</time></trkpt><trkpt lat="45.8787987" lon="8.4041911"><ele>310.6</ele><time>2026-04-03T13:18:24.353Z</time></trkpt><trkpt lat="45.878841" lon="8.4043474"><ele>311.0</ele><time>2026-04-03T13:18:25.354Z</time></trkpt><trkpt lat="45.8788809" lon="8.4044909"><ele>311.0</ele><time>2026-04-03T13:18:26.352Z</time></trkpt><trkpt lat="45.8789009" lon="8.4046329"><ele>311.0</ele><time>2026-04-03T13:18:27.353Z</time></trkpt><trkpt lat="45.8789311" lon="8.4047507"><ele>311.0</ele><time>2026-04-03T13:18:28.356Z</time></trkpt><trkpt lat="45.8789694" lon="8.4048411"><ele>311.0</ele><time>2026-04-03T13:18:29.356Z</time></trkpt><trkpt lat="45.8790173" lon="8.4049054"><ele>311.0</ele><time>2026-04-03T13:18:30.356Z</time></trkpt><trkpt lat="45.8790793" lon="8.4049548"><ele>311.0</ele><time>2026-04-03T13:18:31.359Z</time></trkpt><trkpt lat="45.8791398" lon="8.4050123"><ele>311.33333333333337</ele><time>2026-04-03T13:18:32.358Z</time></trkpt><trkpt lat="45.8791972" lon="8.4050802"><ele>311.6666666666667</ele><time>2026-04-03T13:18:33.369Z</time></trkpt><trkpt lat="45.8792412" lon="8.4051594"><ele>312.0</ele><time>2026-04-03T13:18:34.356Z</time></trkpt><trkpt lat="45.8792746" lon="8.405252"><ele>312.3333333333333</ele><time>2026-04-03T13:18:35.356Z</time></trkpt><trkpt lat="45.8793039" lon="8.4053732"><ele>312.66666666666663</ele><time>2026-04-03T13:18:36.357Z</time></trkpt><trkpt lat="45.8793328" lon="8.4055113"><ele>313.0</ele><time>2026-04-03T13:18:37.356Z</time></trkpt><trkpt lat="45.8793545" lon="8.405651"><ele>311.8</ele><time>2026-04-03T13:18:38.354Z</time></trkpt><trkpt lat="45.879371" lon="8.4057928"><ele>310.6</ele><time>2026-04-03T13:18:39.355Z</time></trkpt><trkpt lat="45.8793809" lon="8.4059299"><ele>309.4</ele><time>2026-04-03T13:18:40.353Z</time></trkpt><trkpt lat="45.879383" lon="8.4060594"><ele>308.2</ele><time>2026-04-03T13:18:41.364Z</time></trkpt><trkpt lat="45.8793726" lon="8.4061812"><ele>307.0</ele><time>2026-04-03T13:18:42.35Z</time></trkpt><trkpt lat="45.8793501" lon="8.4063047"><ele>306.99999999999994</ele><time>2026-04-03T13:18:43.35Z</time></trkpt><trkpt lat="45.8793251" lon="8.4064177"><ele>307.0</ele><time>2026-04-03T13:18:44.351Z</time></trkpt><trkpt lat="45.879295" lon="8.4065158"><ele>307.0</ele><time>2026-04-03T13:18:45.352Z</time></trkpt><trkpt lat="45.8792572" lon="8.4066022"><ele>307.0</ele><time>2026-04-03T13:18:46.347Z</time></trkpt><trkpt lat="45.8792053" lon="8.4066687"><ele>307.0</ele><time>2026-04-03T13:18:47.347Z</time></trkpt><trkpt lat="45.8791457" lon="8.4067241"><ele>306.99999999999994</ele><time>2026-04-03T13:18:48.35Z</time></trkpt><trkpt lat="45.8790861" lon="8.4067771"><ele>307.0</ele><time>2026-04-03T13:18:49.354Z</time></trkpt><trkpt lat="45.8789997" lon="8.406884"><ele>307.4</ele><time>2026-04-03T13:18:51.351Z</time></trkpt><trkpt lat="45.8789981" lon="8.4070078"><ele>307.79999999999995</ele><time>2026-04-03T13:18:53.355Z</time></trkpt><trkpt lat="45.8790487" lon="8.407145"><ele>308.2</ele><time>2026-04-03T13:18:55.356Z</time></trkpt><trkpt lat="45.8790877" lon="8.4072285"><ele>308.59999999999997</ele><time>2026-04-03T13:18:57.369Z</time></trkpt><trkpt lat="45.879163" lon="8.4072393"><ele>309.0</ele><time>2026-04-03T13:19:03.38Z</time></trkpt><trkpt lat="45.8792521" lon="8.4071406"><ele>308.59999999999997</ele><time>2026-04-03T13:19:05.359Z</time></trkpt><trkpt lat="45.8793097" lon="8.4070536"><ele>308.2</ele><time>2026-04-03T13:19:06.36Z</time></trkpt><trkpt lat="45.8793777" lon="8.4069604"><ele>307.79999999999995</ele><time>2026-04-03T13:19:07.363Z</time></trkpt><trkpt lat="45.8794615" lon="8.4068405"><ele>307.4</ele><time>2026-04-03T13:19:08.36Z</time></trkpt><trkpt lat="45.8795543" lon="8.4067166"><ele>307.0</ele><time>2026-04-03T13:19:09.364Z</time></trkpt><trkpt lat="45.8796451" lon="8.4065888"><ele>307.0</ele><time>2026-04-03T13:19:10.362Z</time></trkpt><trkpt lat="45.8797372" lon="8.406463"><ele>307.0</ele><time>2026-04-03T13:19:11.361Z</time></trkpt><trkpt lat="45.8798299" lon="8.4063405"><ele>307.0</ele><time>2026-04-03T13:19:12.373Z</time></trkpt><trkpt lat="45.8799257" lon="8.4062107"><ele>307.0</ele><time>2026-04-03T13:19:13.361Z</time></trkpt><trkpt lat="45.8800294" lon="8.4060794"><ele>306.0</ele><time>2026-04-03T13:19:14.362Z</time></trkpt><trkpt lat="45.8801343" lon="8.4059435"><ele>305.0</ele><time>2026-04-03T13:19:15.36Z</time></trkpt><trkpt lat="45.8802416" lon="8.4058107"><ele>304.0</ele><time>2026-04-03T13:19:16.362Z</time></trkpt><trkpt lat="45.8803484" lon="8.405677"><ele>303.0</ele><time>2026-04-03T13:19:17.36Z</time></trkpt><trkpt lat="45.8804419" lon="8.4055369"><ele>302.25</ele><time>2026-04-03T13:19:18.359Z</time></trkpt><trkpt lat="45.8805363" lon="8.4054181"><ele>301.5</ele><time>2026-04-03T13:19:19.357Z</time></trkpt><trkpt lat="45.8806303" lon="8.4052928"><ele>300.75</ele><time>2026-04-03T13:19:20.359Z</time></trkpt><trkpt lat="45.8807061" lon="8.4051792"><ele>300.0</ele><time>2026-04-03T13:19:21.363Z</time></trkpt><trkpt lat="45.8807885" lon="8.4050745"><ele>300.0</ele><time>2026-04-03T13:19:22.363Z</time></trkpt><trkpt lat="45.8808639" lon="8.4049924"><ele>300.0</ele><time>2026-04-03T13:19:23.364Z</time></trkpt><trkpt lat="45.8809242" lon="8.4049229"><ele>300.0</ele><time>2026-04-03T13:19:24.363Z</time></trkpt><trkpt lat="45.8809742" lon="8.4048612"><ele>300.0</ele><time>2026-04-03T13:19:25.362Z</time></trkpt><trkpt lat="45.8810575" lon="8.4047904"><ele>300.0</ele><time>2026-04-03T13:19:27.365Z</time></trkpt><trkpt lat="45.8811458" lon="8.404848"><ele>300.0</ele><time>2026-04-03T13:19:29.365Z</time></trkpt><trkpt lat="45.8812322" lon="8.4049519"><ele>301.0</ele><time>2026-04-03T13:19:31.363Z</time></trkpt><trkpt lat="45.8812871" lon="8.4050245"><ele>302.0</ele><time>2026-04-03T13:19:32.365Z</time></trkpt><trkpt lat="45.8813654" lon="8.405155"><ele>303.0</ele><time>2026-04-03T13:19:33.373Z</time></trkpt><trkpt lat="45.8814576" lon="8.4052889"><ele>304.0</ele><time>2026-04-03T13:19:34.36Z</time></trkpt><trkpt lat="45.8815637" lon="8.405431"><ele>303.25</ele><time>2026-04-03T13:19:35.365Z</time></trkpt><trkpt lat="45.8816731" lon="8.40557"><ele>302.5</ele><time>2026-04-03T13:19:36.362Z</time></trkpt><trkpt lat="45.8817818" lon="8.4056979"><ele>301.75</ele><time>2026-04-03T13:19:37.365Z</time></trkpt><trkpt lat="45.8818766" lon="8.405834"><ele>301.0</ele><time>2026-04-03T13:19:38.365Z</time></trkpt><trkpt lat="45.881966" lon="8.4059762"><ele>301.0</ele><time>2026-04-03T13:19:39.364Z</time></trkpt><trkpt lat="45.882039" lon="8.4061244"><ele>301.0</ele><time>2026-04-03T13:19:40.366Z</time></trkpt><trkpt lat="45.8821073" lon="8.4062897"><ele>301.0</ele><time>2026-04-03T13:19:41.367Z</time></trkpt><trkpt lat="45.8821715" lon="8.4064837"><ele>301.0</ele><time>2026-04-03T13:19:42.368Z</time></trkpt><trkpt lat="45.8822246" lon="8.4067125"><ele>299.66666666666663</ele><time>2026-04-03T13:19:43.38Z</time></trkpt><trkpt lat="45.8822924" lon="8.4069472"><ele>298.3333333333333</ele><time>2026-04-03T13:19:44.366Z</time></trkpt><trkpt lat="45.8823469" lon="8.4071743"><ele>297.0</ele><time>2026-04-03T13:19:45.365Z</time></trkpt><trkpt lat="45.8823996" lon="8.4073848"><ele>296.0</ele><time>2026-04-03T13:19:46.366Z</time></trkpt><trkpt lat="45.8824468" lon="8.4075885"><ele>295.0</ele><time>2026-04-03T13:19:47.365Z</time></trkpt><trkpt lat="45.8824931" lon="8.4077811"><ele>294.0</ele><time>2026-04-03T13:19:48.363Z</time></trkpt><trkpt lat="45.8825316" lon="8.4079617"><ele>293.0</ele><time>2026-04-03T13:19:49.364Z</time></trkpt><trkpt lat="45.8825654" lon="8.4081467"><ele>292.75</ele><time>2026-04-03T13:19:50.362Z</time></trkpt><trkpt lat="45.8826071" lon="8.4083139"><ele>292.5</ele><time>2026-04-03T13:19:51.367Z</time></trkpt><trkpt lat="45.8826698" lon="8.408471"><ele>292.25</ele><time>2026-04-03T13:19:52.363Z</time></trkpt><trkpt lat="45.8827266" lon="8.4086072"><ele>292.0</ele><time>2026-04-03T13:19:53.363Z</time></trkpt><trkpt lat="45.8827837" lon="8.4087357"><ele>291.5</ele><time>2026-04-03T13:19:54.365Z</time></trkpt><trkpt lat="45.8828315" lon="8.4088448"><ele>291.0</ele><time>2026-04-03T13:19:55.366Z</time></trkpt><trkpt lat="45.882873" lon="8.4089281"><ele>290.5</ele><time>2026-04-03T13:19:56.361Z</time></trkpt><trkpt lat="45.8829175" lon="8.4090457"><ele>290.0</ele><time>2026-04-03T13:19:58.358Z</time></trkpt><trkpt lat="45.8829251" lon="8.4091361"><ele>289.5</ele><time>2026-04-03T13:20:00.371Z</time></trkpt><trkpt lat="45.8828709" lon="8.4092725"><ele>289.0</ele><time>2026-04-03T13:20:03.385Z</time></trkpt><trkpt lat="45.8828346" lon="8.4093469"><ele>289.0</ele><time>2026-04-03T13:20:04.368Z</time></trkpt><trkpt lat="45.8827779" lon="8.4094325"><ele>289.0</ele><time>2026-04-03T13:20:05.361Z</time></trkpt><trkpt lat="45.8827089" lon="8.4095145"><ele>289.0</ele><time>2026-04-03T13:20:06.361Z</time></trkpt><trkpt lat="45.8826375" lon="8.4095994"><ele>289.0</ele><time>2026-04-03T13:20:07.363Z</time></trkpt><trkpt lat="45.882565" lon="8.4096799"><ele>289.0</ele><time>2026-04-03T13:20:08.362Z</time></trkpt><trkpt lat="45.8825004" lon="8.4097528"><ele>289.0</ele><time>2026-04-03T13:20:09.363Z</time></trkpt><trkpt lat="45.8824411" lon="8.409813"><ele>289.2</ele><time>2026-04-03T13:20:10.363Z</time></trkpt><trkpt lat="45.8823704" lon="8.4099"><ele>289.4</ele><time>2026-04-03T13:20:12.362Z</time></trkpt><trkpt lat="45.8823174" lon="8.4100152"><ele>289.6</ele><time>2026-04-03T13:20:14.376Z</time></trkpt><trkpt lat="45.8823219" lon="8.4101177"><ele>289.8</ele><time>2026-04-03T13:20:16.376Z</time></trkpt><trkpt lat="45.8824087" lon="8.4100843"><ele>290.0</ele><time>2026-04-03T13:20:18.378Z</time></trkpt><trkpt lat="45.8824497" lon="8.4099384"><ele>290.0</ele><time>2026-04-03T13:20:20.36Z</time></trkpt><trkpt lat="45.8824591" lon="8.4097689"><ele>290.0</ele><time>2026-04-03T13:20:22.365Z</time></trkpt><trkpt lat="45.8824884" lon="8.4096783"><ele>290.0</ele><time>2026-04-03T13:20:23.365Z</time></trkpt><trkpt lat="45.8825448" lon="8.4096031"><ele>290.0</ele><time>2026-04-03T13:20:24.363Z</time></trkpt><trkpt lat="45.8826115" lon="8.409531"><ele>290.0</ele><time>2026-04-03T13:20:25.366Z</time></trkpt><trkpt lat="45.8826746" lon="8.4094642"><ele>290.0</ele><time>2026-04-03T13:20:26.365Z</time></trkpt><trkpt lat="45.8827326" lon="8.4093983"><ele>289.83333333333337</ele><time>2026-04-03T13:20:27.364Z</time></trkpt><trkpt lat="45.8827891" lon="8.4093335"><ele>289.6666666666667</ele><time>2026-04-03T13:20:28.36Z</time></trkpt><trkpt lat="45.8828513" lon="8.4092773"><ele>289.5</ele><time>2026-04-03T13:20:29.359Z</time></trkpt><trkpt lat="45.8829219" lon="8.4092192"><ele>289.3333333333333</ele><time>2026-04-03T13:20:30.359Z</time></trkpt><trkpt lat="45.883003" lon="8.4091693"><ele>289.16666666666663</ele><time>2026-04-03T13:20:31.357Z</time></trkpt><trkpt lat="45.8830932" lon="8.4091326"><ele>289.0</ele><time>2026-04-03T13:20:32.36Z</time></trkpt><trkpt lat="45.8831825" lon="8.4091137"><ele>289.0</ele><time>2026-04-03T13:20:33.374Z</time></trkpt><trkpt lat="45.8832796" lon="8.4090961"><ele>289.0</ele><time>2026-04-03T13:20:34.363Z</time></trkpt><trkpt lat="45.8833818" lon="8.409083"><ele>289.0</ele><time>2026-04-03T13:20:35.36Z</time></trkpt><trkpt lat="45.8834844" lon="8.4090719"><ele>289.0</ele><time>2026-04-03T13:20:36.361Z</time></trkpt><trkpt lat="45.8835823" lon="8.4090665"><ele>289.0</ele><time>2026-04-03T13:20:37.361Z</time></trkpt><trkpt lat="45.8836698" lon="8.4090576"><ele>289.0</ele><time>2026-04-03T13:20:38.363Z</time></trkpt><trkpt lat="45.8837609" lon="8.4090516"><ele>289.0</ele><time>2026-04-03T13:20:39.364Z</time></trkpt><trkpt lat="45.8838513" lon="8.4090391"><ele>289.0</ele><time>2026-04-03T13:20:40.359Z</time></trkpt><trkpt lat="45.8839432" lon="8.4090232"><ele>289.0</ele><time>2026-04-03T13:20:41.356Z</time></trkpt><trkpt lat="45.8840355" lon="8.4090067"><ele>289.0</ele><time>2026-04-03T13:20:42.354Z</time></trkpt><trkpt lat="45.8841327" lon="8.4089886"><ele>289.0</ele><time>2026-04-03T13:20:43.353Z</time></trkpt><trkpt lat="45.8842288" lon="8.4089791"><ele>289.0</ele><time>2026-04-03T13:20:44.357Z</time></trkpt><trkpt lat="45.8843305" lon="8.4089597"><ele>289.0</ele><time>2026-04-03T13:20:45.372Z</time></trkpt><trkpt lat="45.884427" lon="8.4089387"><ele>289.0</ele><time>2026-04-03T13:20:46.36Z</time></trkpt><trkpt lat="45.8845253" lon="8.4089275"><ele>289.0</ele><time>2026-04-03T13:20:47.36Z</time></trkpt><trkpt lat="45.8846258" lon="8.4089155"><ele>288.4</ele><time>2026-04-03T13:20:48.363Z</time></trkpt><trkpt lat="45.8847267" lon="8.4088986"><ele>287.79999999999995</ele><time>2026-04-03T13:20:49.361Z</time></trkpt><trkpt lat="45.8848291" lon="8.408886"><ele>287.20000000000005</ele><time>2026-04-03T13:20:50.363Z</time></trkpt><trkpt lat="45.8849317" lon="8.4088695"><ele>286.6</ele><time>2026-04-03T13:20:51.363Z</time></trkpt><trkpt lat="45.8850378" lon="8.4088527"><ele>286.0</ele><time>2026-04-03T13:20:52.368Z</time></trkpt><trkpt lat="45.8851471" lon="8.4088348"><ele>286.5</ele><time>2026-04-03T13:20:53.367Z</time></trkpt><trkpt lat="45.8852628" lon="8.4088183"><ele>287.0</ele><time>2026-04-03T13:20:54.367Z</time></trkpt><trkpt lat="45.885382" lon="8.4087996"><ele>287.5</ele><time>2026-04-03T13:20:55.366Z</time></trkpt><trkpt lat="45.8854961" lon="8.4087771"><ele>288.0</ele><time>2026-04-03T13:20:56.365Z</time></trkpt><trkpt lat="45.8856117" lon="8.4087553"><ele>288.0</ele><time>2026-04-03T13:20:57.36Z</time></trkpt><trkpt lat="45.8857294" lon="8.4087378"><ele>288.0</ele><time>2026-04-03T13:20:58.362Z</time></trkpt><trkpt lat="45.8858418" lon="8.4087147"><ele>288.0</ele><time>2026-04-03T13:20:59.363Z</time></trkpt><trkpt lat="45.8859508" lon="8.4087009"><ele>288.0</ele><time>2026-04-03T13:21:00.359Z</time></trkpt><trkpt lat="45.8860571" lon="8.408685"><ele>288.0</ele><time>2026-04-03T13:21:01.362Z</time></trkpt><trkpt lat="45.8861574" lon="8.4086682"><ele>288.2</ele><time>2026-04-03T13:21:02.361Z</time></trkpt><trkpt lat="45.8862571" lon="8.408661"><ele>288.4</ele><time>2026-04-03T13:21:03.376Z</time></trkpt><trkpt lat="45.886354" lon="8.4086465"><ele>288.59999999999997</ele><time>2026-04-03T13:21:04.366Z</time></trkpt><trkpt lat="45.8864511" lon="8.4086304"><ele>288.8</ele><time>2026-04-03T13:21:05.365Z</time></trkpt><trkpt lat="45.8865444" lon="8.4086115"><ele>289.0</ele><time>2026-04-03T13:21:06.361Z</time></trkpt><trkpt lat="45.8866342" lon="8.4085953"><ele>289.0</ele><time>2026-04-03T13:21:07.364Z</time></trkpt><trkpt lat="45.8867299" lon="8.4085811"><ele>289.0</ele><time>2026-04-03T13:21:08.36Z</time></trkpt><trkpt lat="45.8868282" lon="8.4085669"><ele>289.0</ele><time>2026-04-03T13:21:09.362Z</time></trkpt><trkpt lat="45.8869267" lon="8.4085499"><ele>289.0</ele><time>2026-04-03T13:21:10.364Z</time></trkpt><trkpt lat="45.8870271" lon="8.4085334"><ele>289.0</ele><time>2026-04-03T13:21:11.364Z</time></trkpt><trkpt lat="45.8871306" lon="8.4085174"><ele>289.0</ele><time>2026-04-03T13:21:12.362Z</time></trkpt><trkpt lat="45.8872273" lon="8.4084989"><ele>289.0</ele><time>2026-04-03T13:21:13.364Z</time></trkpt><trkpt lat="45.8873292" lon="8.4084805"><ele>289.0</ele><time>2026-04-03T13:21:14.365Z</time></trkpt><trkpt lat="45.8874329" lon="8.4084603"><ele>289.0</ele><time>2026-04-03T13:21:15.367Z</time></trkpt><trkpt lat="45.8875342" lon="8.4084443"><ele>289.0</ele><time>2026-04-03T13:21:16.379Z</time></trkpt><trkpt lat="45.8876298" lon="8.4084327"><ele>288.66666666666663</ele><time>2026-04-03T13:21:17.367Z</time></trkpt><trkpt lat="45.8877232" lon="8.4084269"><ele>288.3333333333333</ele><time>2026-04-03T13:21:18.365Z</time></trkpt><trkpt lat="45.8878135" lon="8.4084256"><ele>288.0</ele><time>2026-04-03T13:21:19.365Z</time></trkpt><trkpt lat="45.8878952" lon="8.408434"><ele>287.6666666666667</ele><time>2026-04-03T13:21:20.363Z</time></trkpt><trkpt lat="45.8879625" lon="8.4084495"><ele>287.33333333333337</ele><time>2026-04-03T13:21:21.365Z</time></trkpt><trkpt lat="45.8880465" lon="8.4084802"><ele>287.0</ele><time>2026-04-03T13:21:23.366Z</time></trkpt><trkpt lat="45.8881203" lon="8.40847"><ele>287.0</ele><time>2026-04-03T13:21:27.378Z</time></trkpt><trkpt lat="45.8881331" lon="8.4083144"><ele>287.0</ele><time>2026-04-03T13:21:29.367Z</time></trkpt><trkpt lat="45.8881305" lon="8.4082116"><ele>287.0</ele><time>2026-04-03T13:21:30.365Z</time></trkpt><trkpt lat="45.8881299" lon="8.4080952"><ele>287.0</ele><time>2026-04-03T13:21:31.368Z</time></trkpt><trkpt lat="45.8881276" lon="8.4079704"><ele>287.0</ele><time>2026-04-03T13:21:32.375Z</time></trkpt><trkpt lat="45.8881236" lon="8.4078247"><ele>287.8</ele><time>2026-04-03T13:21:33.378Z</time></trkpt><trkpt lat="45.8881228" lon="8.4076759"><ele>288.6</ele><time>2026-04-03T13:21:34.356Z</time></trkpt><trkpt lat="45.8881229" lon="8.4075241"><ele>289.40000000000003</ele><time>2026-04-03T13:21:35.372Z</time></trkpt><trkpt lat="45.8881221" lon="8.4073788"><ele>290.2</ele><time>2026-04-03T13:21:36.365Z</time></trkpt><trkpt lat="45.8881186" lon="8.4072486"><ele>291.0</ele><time>2026-04-03T13:21:37.362Z</time></trkpt><trkpt lat="45.8881213" lon="8.4071263"><ele>291.3333333333333</ele><time>2026-04-03T13:21:38.363Z</time></trkpt><trkpt lat="45.8881286" lon="8.407025"><ele>291.6666666666667</ele><time>2026-04-03T13:21:39.363Z</time></trkpt><trkpt lat="45.888176" lon="8.4068654"><ele>292.0</ele><time>2026-04-03T13:21:41.366Z</time></trkpt><trkpt lat="45.888224" lon="8.4068047"><ele>292.33333333333337</ele><time>2026-04-03T13:21:42.365Z</time></trkpt><trkpt lat="45.8882804" lon="8.4067583"><ele>292.6666666666667</ele><time>2026-04-03T13:21:43.364Z</time></trkpt><trkpt lat="45.8883818" lon="8.4067167"><ele>293.0</ele><time>2026-04-03T13:21:45.362Z</time></trkpt><trkpt lat="45.8884609" lon="8.4067235"><ele>293.8</ele><time>2026-04-03T13:21:47.397Z</time></trkpt><trkpt lat="45.8885558" lon="8.4067332"><ele>294.6</ele><time>2026-04-03T13:21:50.375Z</time></trkpt><trkpt lat="45.8886771" lon="8.4067482"><ele>295.4</ele><time>2026-04-03T13:21:52.366Z</time></trkpt><trkpt lat="45.8887473" lon="8.4067702"><ele>296.2</ele><time>2026-04-03T13:21:53.364Z</time></trkpt><trkpt lat="45.8888282" lon="8.4067884"><ele>297.0</ele><time>2026-04-03T13:21:54.361Z</time></trkpt><trkpt lat="45.8889205" lon="8.4068089"><ele>297.0</ele><time>2026-04-03T13:21:55.357Z</time></trkpt><trkpt lat="45.8890164" lon="8.4068406"><ele>297.0</ele><time>2026-04-03T13:21:56.365Z</time></trkpt><trkpt lat="45.8891102" lon="8.4068784"><ele>297.0</ele><time>2026-04-03T13:21:57.363Z</time></trkpt><trkpt lat="45.8892144" lon="8.4069156"><ele>297.0</ele><time>2026-04-03T13:21:58.366Z</time></trkpt><trkpt lat="45.8893263" lon="8.4069519"><ele>297.0</ele><time>2026-04-03T13:21:59.362Z</time></trkpt><trkpt lat="45.889448" lon="8.4069939"><ele>297.75</ele><time>2026-04-03T13:22:00.362Z</time></trkpt><trkpt lat="45.8895552" lon="8.4070354"><ele>298.5</ele><time>2026-04-03T13:22:01.367Z</time></trkpt><trkpt lat="45.8896671" lon="8.4070806"><ele>299.25</ele><time>2026-04-03T13:22:02.365Z</time></trkpt><trkpt lat="45.889778" lon="8.4071164"><ele>300.0</ele><time>2026-04-03T13:22:03.376Z</time></trkpt><trkpt lat="45.8898833" lon="8.407155"><ele>299.8</ele><time>2026-04-03T13:22:04.363Z</time></trkpt><trkpt lat="45.8899814" lon="8.4071961"><ele>299.6</ele><time>2026-04-03T13:22:05.364Z</time></trkpt><trkpt lat="45.8900811" lon="8.4072384"><ele>299.4</ele><time>2026-04-03T13:22:06.361Z</time></trkpt><trkpt lat="45.8901742" lon="8.4072783"><ele>299.2</ele><time>2026-04-03T13:22:07.362Z</time></trkpt><trkpt lat="45.8902658" lon="8.4073194"><ele>299.0</ele><time>2026-04-03T13:22:08.365Z</time></trkpt><trkpt lat="45.8903505" lon="8.4073601"><ele>299.0</ele><time>2026-04-03T13:22:09.367Z</time></trkpt><trkpt lat="45.8904306" lon="8.4073937"><ele>299.0</ele><time>2026-04-03T13:22:10.365Z</time></trkpt><trkpt lat="45.890514" lon="8.4074245"><ele>299.0</ele><time>2026-04-03T13:22:11.363Z</time></trkpt><trkpt lat="45.8905956" lon="8.407465"><ele>299.0</ele><time>2026-04-03T13:22:12.366Z</time></trkpt><trkpt lat="45.8906828" lon="8.4074982"><ele>299.0</ele><time>2026-04-03T13:22:13.366Z</time></trkpt><trkpt lat="45.8907672" lon="8.4075321"><ele>299.0</ele><time>2026-04-03T13:22:14.366Z</time></trkpt><trkpt lat="45.8908453" lon="8.4075759"><ele>299.0</ele><time>2026-04-03T13:22:15.363Z</time></trkpt><trkpt lat="45.8909137" lon="8.4076181"><ele>299.0</ele><time>2026-04-03T13:22:16.358Z</time></trkpt><trkpt lat="45.8910159" lon="8.4076845"><ele>299.0</ele><time>2026-04-03T13:22:18.36Z</time></trkpt><trkpt lat="45.8911114" lon="8.4076589"><ele>299.0</ele><time>2026-04-03T13:22:20.364Z</time></trkpt><trkpt lat="45.8912231" lon="8.4075565"><ele>299.0</ele><time>2026-04-03T13:22:22.362Z</time></trkpt><trkpt lat="45.8912821" lon="8.4074824"><ele>299.33333333333337</ele><time>2026-04-03T13:22:23.358Z</time></trkpt><trkpt lat="45.8913456" lon="8.4074137"><ele>299.6666666666667</ele><time>2026-04-03T13:22:24.361Z</time></trkpt><trkpt lat="45.8914016" lon="8.4073383"><ele>300.0</ele><time>2026-04-03T13:22:25.365Z</time></trkpt><trkpt lat="45.891449" lon="8.4072565"><ele>300.3333333333333</ele><time>2026-04-03T13:22:26.365Z</time></trkpt><trkpt lat="45.8914954" lon="8.4071677"><ele>300.66666666666663</ele><time>2026-04-03T13:22:27.363Z</time></trkpt><trkpt lat="45.8915251" lon="8.4070711"><ele>301.0</ele><time>2026-04-03T13:22:28.363Z</time></trkpt><trkpt lat="45.8915572" lon="8.4069734"><ele>302.0</ele><time>2026-04-03T13:22:29.36Z</time></trkpt><trkpt lat="45.8915796" lon="8.4068783"><ele>303.0</ele><time>2026-04-03T13:22:30.364Z</time></trkpt><trkpt lat="45.8915998" lon="8.4067824"><ele>304.0</ele><time>2026-04-03T13:22:31.361Z</time></trkpt><trkpt lat="45.8916166" lon="8.4066932"><ele>305.0</ele><time>2026-04-03T13:22:32.361Z</time></trkpt><trkpt lat="45.8916409" lon="8.4065565"><ele>306.0</ele><time>2026-04-03T13:22:34.358Z</time></trkpt><trkpt lat="45.8916657" lon="8.4064636"><ele>307.0</ele><time>2026-04-03T13:22:36.373Z</time></trkpt><trkpt lat="45.8917482" lon="8.4064578"><ele>308.8333333333333</ele><time>2026-04-03T13:22:38.369Z</time></trkpt><trkpt lat="45.8918118" lon="8.4064807"><ele>310.66666666666663</ele><time>2026-04-03T13:22:39.359Z</time></trkpt><trkpt lat="45.8918898" lon="8.4065093"><ele>312.5</ele><time>2026-04-03T13:22:40.361Z</time></trkpt><trkpt lat="45.8919692" lon="8.4065336"><ele>314.3333333333333</ele><time>2026-04-03T13:22:41.36Z</time></trkpt><trkpt lat="45.8920467" lon="8.4065527"><ele>316.1666666666667</ele><time>2026-04-03T13:22:42.366Z</time></trkpt><trkpt lat="45.8921221" lon="8.406572"><ele>318.0</ele><time>2026-04-03T13:22:43.36Z</time></trkpt><trkpt lat="45.8921927" lon="8.4066068"><ele>318.0</ele><time>2026-04-03T13:22:44.365Z</time></trkpt><trkpt lat="45.8922524" lon="8.4066583"><ele>318.0</ele><time>2026-04-03T13:22:45.364Z</time></trkpt><trkpt lat="45.892313" lon="8.4067389"><ele>318.0</ele><time>2026-04-03T13:22:46.365Z</time></trkpt><trkpt lat="45.8923849" lon="8.4068348"><ele>318.0</ele><time>2026-04-03T13:22:47.364Z</time></trkpt><trkpt lat="45.8924534" lon="8.4069368"><ele>318.0</ele><time>2026-04-03T13:22:48.372Z</time></trkpt><trkpt lat="45.8925225" lon="8.4070339"><ele>318.0</ele><time>2026-04-03T13:22:49.361Z</time></trkpt><trkpt lat="45.8925965" lon="8.4071314"><ele>318.6</ele><time>2026-04-03T13:22:50.364Z</time></trkpt><trkpt lat="45.8926769" lon="8.4072175"><ele>319.20000000000005</ele><time>2026-04-03T13:22:51.361Z</time></trkpt><trkpt lat="45.8927561" lon="8.407302"><ele>319.8</ele><time>2026-04-03T13:22:52.362Z</time></trkpt><trkpt lat="45.892831" lon="8.4073819"><ele>320.40000000000003</ele><time>2026-04-03T13:22:53.366Z</time></trkpt><trkpt lat="45.8928967" lon="8.4074769"><ele>321.0</ele><time>2026-04-03T13:22:54.365Z</time></trkpt><trkpt lat="45.8929522" lon="8.4075644"><ele>321.0</ele><time>2026-04-03T13:22:55.364Z</time></trkpt><trkpt lat="45.8930004" lon="8.407648"><ele>321.0</ele><time>2026-04-03T13:22:56.36Z</time></trkpt><trkpt lat="45.8930437" lon="8.4077181"><ele>321.0</ele><time>2026-04-03T13:22:57.363Z</time></trkpt><trkpt lat="45.8931275" lon="8.407791"><ele>321.0</ele><time>2026-04-03T13:22:59.364Z</time></trkpt><trkpt lat="45.8932193" lon="8.4078224"><ele>321.0</ele><time>2026-04-03T13:23:01.364Z</time></trkpt><trkpt lat="45.8933334" lon="8.4078018"><ele>321.0</ele><time>2026-04-03T13:23:03.373Z</time></trkpt><trkpt lat="45.8934063" lon="8.4077734"><ele>322.85714285714283</ele><time>2026-04-03T13:23:04.366Z</time></trkpt><trkpt lat="45.8934753" lon="8.4077423"><ele>324.7142857142857</ele><time>2026-04-03T13:23:05.36Z</time></trkpt><trkpt lat="45.8935428" lon="8.4077084"><ele>326.57142857142856</ele><time>2026-04-03T13:23:06.36Z</time></trkpt><trkpt lat="45.893615" lon="8.4077004"><ele>328.42857142857144</ele><time>2026-04-03T13:23:07.363Z</time></trkpt><trkpt lat="45.8936852" lon="8.4077196"><ele>330.2857142857143</ele><time>2026-04-03T13:23:08.362Z</time></trkpt><trkpt lat="45.8937534" lon="8.4077602"><ele>332.1428571428571</ele><time>2026-04-03T13:23:09.363Z</time></trkpt><trkpt lat="45.8938183" lon="8.4078086"><ele>334.0</ele><time>2026-04-03T13:23:10.362Z</time></trkpt><trkpt lat="45.8938886" lon="8.4078478"><ele>334.0</ele><time>2026-04-03T13:23:11.364Z</time></trkpt><trkpt lat="45.8939598" lon="8.4078631"><ele>334.0</ele><time>2026-04-03T13:23:12.362Z</time></trkpt><trkpt lat="45.8940369" lon="8.407861"><ele>334.0</ele><time>2026-04-03T13:23:13.362Z</time></trkpt><trkpt lat="45.8941099" lon="8.4078338"><ele>334.0</ele><time>2026-04-03T13:23:14.362Z</time></trkpt><trkpt lat="45.894185" lon="8.4078"><ele>334.0</ele><time>2026-04-03T13:23:15.364Z</time></trkpt><trkpt lat="45.8942605" lon="8.4077486"><ele>334.0</ele><time>2026-04-03T13:23:16.364Z</time></trkpt><trkpt lat="45.89433" lon="8.4076988"><ele>336.0</ele><time>2026-04-03T13:23:17.366Z</time></trkpt><trkpt lat="45.8943982" lon="8.407647"><ele>338.0</ele><time>2026-04-03T13:23:18.364Z</time></trkpt><trkpt lat="45.8944612" lon="8.4076154"><ele>340.0</ele><time>2026-04-03T13:23:19.379Z</time></trkpt><trkpt lat="45.8945277" lon="8.4075969"><ele>342.0</ele><time>2026-04-03T13:23:20.361Z</time></trkpt><trkpt lat="45.8945989" lon="8.4075927"><ele>344.0</ele><time>2026-04-03T13:23:21.363Z</time></trkpt><trkpt lat="45.8946732" lon="8.4076027"><ele>346.0</ele><time>2026-04-03T13:23:22.364Z</time></trkpt><trkpt lat="45.8947435" lon="8.4076202"><ele>348.0</ele><time>2026-04-03T13:23:23.361Z</time></trkpt><trkpt lat="45.8948249" lon="8.4076528"><ele>348.0</ele><time>2026-04-03T13:23:24.366Z</time></trkpt><trkpt lat="45.8949006" lon="8.4076933"><ele>348.0</ele><time>2026-04-03T13:23:25.366Z</time></trkpt><trkpt lat="45.8949764" lon="8.4077405"><ele>348.0</ele><time>2026-04-03T13:23:26.367Z</time></trkpt><trkpt lat="45.895049" lon="8.4077907"><ele>348.0</ele><time>2026-04-03T13:23:27.367Z</time></trkpt><trkpt lat="45.8951194" lon="8.4078364"><ele>348.0</ele><time>2026-04-03T13:23:28.368Z</time></trkpt><trkpt lat="45.8951894" lon="8.4078754"><ele>348.0</ele><time>2026-04-03T13:23:29.368Z</time></trkpt><trkpt lat="45.8952583" lon="8.4079076"><ele>349.57142857142856</ele><time>2026-04-03T13:23:30.37Z</time></trkpt><trkpt lat="45.8953242" lon="8.4079289"><ele>351.14285714285717</ele><time>2026-04-03T13:23:31.369Z</time></trkpt><trkpt lat="45.895389" lon="8.407928"><ele>352.7142857142857</ele><time>2026-04-03T13:23:32.366Z</time></trkpt><trkpt lat="45.8954588" lon="8.4079055"><ele>354.2857142857143</ele><time>2026-04-03T13:23:33.376Z</time></trkpt><trkpt lat="45.8955318" lon="8.4078758"><ele>355.8571428571429</ele><time>2026-04-03T13:23:34.369Z</time></trkpt><trkpt lat="45.8956045" lon="8.4078552"><ele>357.42857142857144</ele><time>2026-04-03T13:23:35.368Z</time></trkpt><trkpt lat="45.8956812" lon="8.4078501"><ele>359.0</ele><time>2026-04-03T13:23:36.368Z</time></trkpt><trkpt lat="45.8957582" lon="8.407857"><ele>359.0</ele><time>2026-04-03T13:23:37.367Z</time></trkpt><trkpt lat="45.8958351" lon="8.4078801"><ele>359.0</ele><time>2026-04-03T13:23:38.368Z</time></trkpt><trkpt lat="45.8959088" lon="8.4079156"><ele>359.0</ele><time>2026-04-03T13:23:39.368Z</time></trkpt><trkpt lat="45.8959805" lon="8.4079585"><ele>359.0</ele><time>2026-04-03T13:23:40.366Z</time></trkpt><trkpt lat="45.8960483" lon="8.4080115"><ele>359.0</ele><time>2026-04-03T13:23:41.367Z</time></trkpt><trkpt lat="45.8961032" lon="8.4080761"><ele>359.0</ele><time>2026-04-03T13:23:42.366Z</time></trkpt><trkpt lat="45.8961466" lon="8.4081479"><ele>359.0</ele><time>2026-04-03T13:23:43.367Z</time></trkpt><trkpt lat="45.8962146" lon="8.4082653"><ele>359.1666666666667</ele><time>2026-04-03T13:23:45.366Z</time></trkpt><trkpt lat="45.896268" lon="8.4081974"><ele>359.33333333333337</ele><time>2026-04-03T13:23:48.378Z</time></trkpt><trkpt lat="45.8961987" lon="8.4080334"><ele>359.5</ele><time>2026-04-03T13:23:50.374Z</time></trkpt><trkpt lat="45.8961525" lon="8.4079383"><ele>359.6666666666667</ele><time>2026-04-03T13:23:51.365Z</time></trkpt><trkpt lat="45.8961118" lon="8.4078485"><ele>359.8333333333333</ele><time>2026-04-03T13:23:52.364Z</time></trkpt><trkpt lat="45.896065" lon="8.4077584"><ele>360.0</ele><time>2026-04-03T13:23:53.367Z</time></trkpt><trkpt lat="45.8960007" lon="8.4076677"><ele>359.8</ele><time>2026-04-03T13:23:54.365Z</time></trkpt><trkpt lat="45.8959269" lon="8.4075784"><ele>359.6</ele><time>2026-04-03T13:23:55.368Z</time></trkpt><trkpt lat="45.8958589" lon="8.4075166"><ele>359.4</ele><time>2026-04-03T13:23:56.367Z</time></trkpt><trkpt lat="45.895771" lon="8.4074405"><ele>359.2</ele><time>2026-04-03T13:23:58.367Z</time></trkpt><trkpt lat="45.8957721" lon="8.407338"><ele>359.0</ele><time>2026-04-03T13:24:00.375Z</time></trkpt><trkpt lat="45.8958845" lon="8.4072617"><ele>361.6</ele><time>2026-04-03T13:24:02.362Z</time></trkpt><trkpt lat="45.8959732" lon="8.4072374"><ele>364.2</ele><time>2026-04-03T13:24:03.37Z</time></trkpt><trkpt lat="45.8960582" lon="8.4072164"><ele>366.8</ele><time>2026-04-03T13:24:04.36Z</time></trkpt><trkpt lat="45.8961429" lon="8.4072129"><ele>369.40000000000003</ele><time>2026-04-03T13:24:05.364Z</time></trkpt><trkpt lat="45.8962425" lon="8.4072167"><ele>372.0</ele><time>2026-04-03T13:24:06.358Z</time></trkpt><trkpt lat="45.896338" lon="8.4072215"><ele>372.0</ele><time>2026-04-03T13:24:07.358Z</time></trkpt><trkpt lat="45.896432" lon="8.40723"><ele>372.0</ele><time>2026-04-03T13:24:08.356Z</time></trkpt><trkpt lat="45.8965229" lon="8.4072412"><ele>372.0</ele><time>2026-04-03T13:24:09.36Z</time></trkpt><trkpt lat="45.8966139" lon="8.4072627"><ele>372.0</ele><time>2026-04-03T13:24:10.359Z</time></trkpt><trkpt lat="45.8966969" lon="8.4072918"><ele>372.0</ele><time>2026-04-03T13:24:11.361Z</time></trkpt><trkpt lat="45.8967794" lon="8.4073424"><ele>374.6666666666667</ele><time>2026-04-03T13:24:12.363Z</time></trkpt><trkpt lat="45.8968518" lon="8.4074048"><ele>377.33333333333337</ele><time>2026-04-03T13:24:13.363Z</time></trkpt><trkpt lat="45.896921" lon="8.4074772"><ele>380.0</ele><time>2026-04-03T13:24:14.366Z</time></trkpt><trkpt lat="45.8969872" lon="8.4075486"><ele>382.6666666666667</ele><time>2026-04-03T13:24:15.37Z</time></trkpt><trkpt lat="45.897049" lon="8.4076096"><ele>385.33333333333337</ele><time>2026-04-03T13:24:16.371Z</time></trkpt><trkpt lat="45.8971659" lon="8.4076234"><ele>388.0</ele><time>2026-04-03T13:24:18.374Z</time></trkpt><trkpt lat="45.8972197" lon="8.4075591"><ele>388.0</ele><time>2026-04-03T13:24:19.386Z</time></trkpt><trkpt lat="45.8972811" lon="8.4074932"><ele>388.0</ele><time>2026-04-03T13:24:20.382Z</time></trkpt><trkpt lat="45.8973441" lon="8.4074613"><ele>388.0</ele><time>2026-04-03T13:24:21.393Z</time></trkpt><trkpt lat="45.89741" lon="8.4074802"><ele>388.0</ele><time>2026-04-03T13:24:22.374Z</time></trkpt><trkpt lat="45.8974687" lon="8.4075343"><ele>388.0</ele><time>2026-04-03T13:24:23.377Z</time></trkpt><trkpt lat="45.8975339" lon="8.4075883"><ele>388.0</ele><time>2026-04-03T13:24:24.376Z</time></trkpt><trkpt lat="45.8975999" lon="8.4076232"><ele>388.0</ele><time>2026-04-03T13:24:25.378Z</time></trkpt><trkpt lat="45.8976703" lon="8.4076249"><ele>389.00000000000006</ele><time>2026-04-03T13:24:26.378Z</time></trkpt><trkpt lat="45.8977424" lon="8.4076291"><ele>390.0</ele><time>2026-04-03T13:24:27.368Z</time></trkpt><trkpt lat="45.8978182" lon="8.4076384"><ele>391.0</ele><time>2026-04-03T13:24:28.371Z</time></trkpt><trkpt lat="45.8978953" lon="8.4076439"><ele>392.0</ele><time>2026-04-03T13:24:29.366Z</time></trkpt><trkpt lat="45.8979775" lon="8.4076392"><ele>393.00000000000006</ele><time>2026-04-03T13:24:30.363Z</time></trkpt><trkpt lat="45.8980573" lon="8.4076285"><ele>394.0</ele><time>2026-04-03T13:24:31.364Z</time></trkpt><trkpt lat="45.89814" lon="8.4076251"><ele>394.00000000000006</ele><time>2026-04-03T13:24:32.362Z</time></trkpt><trkpt lat="45.8982104" lon="8.4076412"><ele>394.0</ele><time>2026-04-03T13:24:33.373Z</time></trkpt><trkpt lat="45.898277" lon="8.4076787"><ele>394.0</ele><time>2026-04-03T13:24:34.368Z</time></trkpt><trkpt lat="45.8983308" lon="8.4077377"><ele>394.0</ele><time>2026-04-03T13:24:35.368Z</time></trkpt><trkpt lat="45.8983651" lon="8.4078195"><ele>394.00000000000006</ele><time>2026-04-03T13:24:36.367Z</time></trkpt><trkpt lat="45.8984387" lon="8.4079689"><ele>394.0</ele><time>2026-04-03T13:24:38.363Z</time></trkpt><trkpt lat="45.8985627" lon="8.4080048"><ele>394.33333333333337</ele><time>2026-04-03T13:24:40.367Z</time></trkpt><trkpt lat="45.8986474" lon="8.4079844"><ele>394.6666666666667</ele><time>2026-04-03T13:24:41.365Z</time></trkpt><trkpt lat="45.8987233" lon="8.4079402"><ele>395.0</ele><time>2026-04-03T13:24:42.364Z</time></trkpt><trkpt lat="45.8987858" lon="8.4078739"><ele>395.33333333333337</ele><time>2026-04-03T13:24:43.366Z</time></trkpt><trkpt lat="45.8988225" lon="8.4077899"><ele>395.6666666666667</ele><time>2026-04-03T13:24:44.362Z</time></trkpt><trkpt lat="45.8988317" lon="8.4076679"><ele>396.0</ele><time>2026-04-03T13:24:45.362Z</time></trkpt><trkpt lat="45.898827" lon="8.4075438"><ele>396.0</ele><time>2026-04-03T13:24:46.36Z</time></trkpt><trkpt lat="45.8987983" lon="8.4074333"><ele>396.0</ele><time>2026-04-03T13:24:47.366Z</time></trkpt><trkpt lat="45.8987304" lon="8.4073627"><ele>396.0</ele><time>2026-04-03T13:24:48.368Z</time></trkpt><trkpt lat="45.8986284" lon="8.4073353"><ele>396.0</ele><time>2026-04-03T13:24:49.368Z</time></trkpt><trkpt lat="45.8985013" lon="8.4073331"><ele>396.0</ele><time>2026-04-03T13:24:50.364Z</time></trkpt><trkpt lat="45.8983785" lon="8.4073551"><ele>395.5</ele><time>2026-04-03T13:24:51.366Z</time></trkpt><trkpt lat="45.8982549" lon="8.4073725"><ele>395.0</ele><time>2026-04-03T13:24:52.373Z</time></trkpt><trkpt lat="45.8981259" lon="8.4073912"><ele>394.5</ele><time>2026-04-03T13:24:53.362Z</time></trkpt><trkpt lat="45.898001" lon="8.4074083"><ele>394.0</ele><time>2026-04-03T13:24:54.362Z</time></trkpt><trkpt lat="45.8978832" lon="8.4074206"><ele>394.0</ele><time>2026-04-03T13:24:55.362Z</time></trkpt><trkpt lat="45.8977752" lon="8.4074323"><ele>394.0</ele><time>2026-04-03T13:24:56.36Z</time></trkpt><trkpt lat="45.8976796" lon="8.4074149"><ele>394.0</ele><time>2026-04-03T13:24:57.364Z</time></trkpt><trkpt lat="45.897595" lon="8.4073627"><ele>394.0</ele><time>2026-04-03T13:24:58.367Z</time></trkpt><trkpt lat="45.8975299" lon="8.4072858"><ele>394.0</ele><time>2026-04-03T13:24:59.365Z</time></trkpt><trkpt lat="45.8974749" lon="8.407176"><ele>397.6</ele><time>2026-04-03T13:25:00.362Z</time></trkpt><trkpt lat="45.8974131" lon="8.407043"><ele>401.2</ele><time>2026-04-03T13:25:01.366Z</time></trkpt><trkpt lat="45.8973457" lon="8.4069016"><ele>404.8</ele><time>2026-04-03T13:25:02.362Z</time></trkpt><trkpt lat="45.8972708" lon="8.4067906"><ele>408.40000000000003</ele><time>2026-04-03T13:25:03.378Z</time></trkpt><trkpt lat="45.8971805" lon="8.4067332"><ele>412.0</ele><time>2026-04-03T13:25:04.364Z</time></trkpt><trkpt lat="45.8971038" lon="8.4067053"><ele>412.0</ele><time>2026-04-03T13:25:05.362Z</time></trkpt><trkpt lat="45.897003" lon="8.4066753"><ele>412.0</ele><time>2026-04-03T13:25:07.358Z</time></trkpt><trkpt lat="45.8969988" lon="8.4065671"><ele>412.0</ele><time>2026-04-03T13:25:10.371Z</time></trkpt><trkpt lat="45.8971194" lon="8.4065734"><ele>412.0</ele><time>2026-04-03T13:25:12.364Z</time></trkpt><trkpt lat="45.8972126" lon="8.4065935"><ele>412.0</ele><time>2026-04-03T13:25:13.355Z</time></trkpt><trkpt lat="45.8973153" lon="8.4066197"><ele>412.0</ele><time>2026-04-03T13:25:14.354Z</time></trkpt><trkpt lat="45.8974285" lon="8.4066534"><ele>412.0</ele><time>2026-04-03T13:25:15.355Z</time></trkpt><trkpt lat="45.8975394" lon="8.4066954"><ele>412.0</ele><time>2026-04-03T13:25:16.356Z</time></trkpt><trkpt lat="45.8976327" lon="8.4067398"><ele>412.0</ele><time>2026-04-03T13:25:17.359Z</time></trkpt><trkpt lat="45.8977289" lon="8.4067654"><ele>412.0</ele><time>2026-04-03T13:25:18.365Z</time></trkpt><trkpt lat="45.8978175" lon="8.4067545"><ele>412.0</ele><time>2026-04-03T13:25:19.365Z</time></trkpt><trkpt lat="45.8979033" lon="8.4066968"><ele>412.0</ele><time>2026-04-03T13:25:20.362Z</time></trkpt><trkpt lat="45.8980023" lon="8.4066207"><ele>412.0</ele><time>2026-04-03T13:25:21.367Z</time></trkpt><trkpt lat="45.8981142" lon="8.4065313"><ele>412.0</ele><time>2026-04-03T13:25:22.364Z</time></trkpt><trkpt lat="45.8982323" lon="8.406447"><ele>412.0</ele><time>2026-04-03T13:25:23.378Z</time></trkpt><trkpt lat="45.8983646" lon="8.4063519"><ele>412.0</ele><time>2026-04-03T13:25:24.365Z</time></trkpt><trkpt lat="45.8984894" lon="8.4062634"><ele>412.0</ele><time>2026-04-03T13:25:25.365Z</time></trkpt><trkpt lat="45.8985941" lon="8.4061804"><ele>412.0</ele><time>2026-04-03T13:25:26.363Z</time></trkpt><trkpt lat="45.8986833" lon="8.4061074"><ele>413.8</ele><time>2026-04-03T13:25:27.362Z</time></trkpt><trkpt lat="45.8987506" lon="8.4060382"><ele>415.6</ele><time>2026-04-03T13:25:28.372Z</time></trkpt><trkpt lat="45.8987887" lon="8.4059486"><ele>417.40000000000003</ele><time>2026-04-03T13:25:29.366Z</time></trkpt><trkpt lat="45.8987976" lon="8.4058222"><ele>419.20000000000005</ele><time>2026-04-03T13:25:30.37Z</time></trkpt><trkpt lat="45.898774" lon="8.4056547"><ele>421.0</ele><time>2026-04-03T13:25:31.365Z</time></trkpt><trkpt lat="45.8987394" lon="8.4054981"><ele>424.20000000000005</ele><time>2026-04-03T13:25:32.367Z</time></trkpt><trkpt lat="45.8987171" lon="8.4053587"><ele>427.40000000000003</ele><time>2026-04-03T13:25:33.376Z</time></trkpt><trkpt lat="45.8987197" lon="8.4052431"><ele>430.6</ele><time>2026-04-03T13:25:34.369Z</time></trkpt><trkpt lat="45.8987798" lon="8.4051154"><ele>433.8</ele><time>2026-04-03T13:25:36.364Z</time></trkpt><trkpt lat="45.898854" lon="8.4050731"><ele>437.0</ele><time>2026-04-03T13:25:37.367Z</time></trkpt><trkpt lat="45.8989685" lon="8.4050571"><ele>437.0</ele><time>2026-04-03T13:25:38.366Z</time></trkpt><trkpt lat="45.8991037" lon="8.4050655"><ele>437.0</ele><time>2026-04-03T13:25:39.364Z</time></trkpt><trkpt lat="45.8992504" lon="8.405059"><ele>437.0</ele><time>2026-04-03T13:25:40.364Z</time></trkpt><trkpt lat="45.8993902" lon="8.405025"><ele>437.0</ele><time>2026-04-03T13:25:41.368Z</time></trkpt><trkpt lat="45.8995294" lon="8.4049567"><ele>437.0</ele><time>2026-04-03T13:25:42.362Z</time></trkpt><trkpt lat="45.8996657" lon="8.4048367"><ele>437.0</ele><time>2026-04-03T13:25:43.368Z</time></trkpt><trkpt lat="45.8997974" lon="8.4047276"><ele>437.0</ele><time>2026-04-03T13:25:44.368Z</time></trkpt><trkpt lat="45.8999161" lon="8.4046557"><ele>437.0</ele><time>2026-04-03T13:25:45.372Z</time></trkpt><trkpt lat="45.9000268" lon="8.4046076"><ele>441.20000000000005</ele><time>2026-04-03T13:25:46.366Z</time></trkpt><trkpt lat="45.9001327" lon="8.4045798"><ele>445.40000000000003</ele><time>2026-04-03T13:25:47.362Z</time></trkpt><trkpt lat="45.9002158" lon="8.4045737"><ele>449.59999999999997</ele><time>2026-04-03T13:25:48.368Z</time></trkpt><trkpt lat="45.9003214" lon="8.4045565"><ele>453.79999999999995</ele><time>2026-04-03T13:25:49.369Z</time></trkpt><trkpt lat="45.9004437" lon="8.4045071"><ele>458.0</ele><time>2026-04-03T13:25:50.368Z</time></trkpt><trkpt lat="45.9005439" lon="8.4044588"><ele>458.0</ele><time>2026-04-03T13:25:51.37Z</time></trkpt><trkpt lat="45.9006414" lon="8.4044382"><ele>457.99999999999994</ele><time>2026-04-03T13:25:52.366Z</time></trkpt><trkpt lat="45.9007539" lon="8.4044395"><ele>457.99999999999994</ele><time>2026-04-03T13:25:53.369Z</time></trkpt><trkpt lat="45.9008632" lon="8.4044264"><ele>458.0</ele><time>2026-04-03T13:25:54.385Z</time></trkpt><trkpt lat="45.9009658" lon="8.4043996"><ele>458.0</ele><time>2026-04-03T13:25:55.371Z</time></trkpt><trkpt lat="45.9010737" lon="8.404399"><ele>458.59999999999997</ele><time>2026-04-03T13:25:56.371Z</time></trkpt><trkpt lat="45.9011887" lon="8.404432"><ele>459.19999999999993</ele><time>2026-04-03T13:25:57.382Z</time></trkpt><trkpt lat="45.9012914" lon="8.4044737"><ele>459.8</ele><time>2026-04-03T13:25:58.365Z</time></trkpt><trkpt lat="45.9013867" lon="8.4044978"><ele>460.4</ele><time>2026-04-03T13:25:59.38Z</time></trkpt><trkpt lat="45.9014659" lon="8.4045168"><ele>461.0</ele><time>2026-04-03T13:26:00.376Z</time></trkpt><trkpt lat="45.901549" lon="8.4044764"><ele>461.0</ele><time>2026-04-03T13:26:02.372Z</time></trkpt><trkpt lat="45.9015287" lon="8.4043547"><ele>461.0</ele><time>2026-04-03T13:26:04.371Z</time></trkpt><trkpt lat="45.9014551" lon="8.4042692"><ele>461.0</ele><time>2026-04-03T13:26:05.37Z</time></trkpt><trkpt lat="45.9013745" lon="8.4041788"><ele>461.0</ele><time>2026-04-03T13:26:06.371Z</time></trkpt><trkpt lat="45.9012739" lon="8.4040671"><ele>461.0</ele><time>2026-04-03T13:26:07.368Z</time></trkpt><trkpt lat="45.9011634" lon="8.4039657"><ele>461.0</ele><time>2026-04-03T13:26:08.368Z</time></trkpt><trkpt lat="45.9010536" lon="8.4038753"><ele>461.0</ele><time>2026-04-03T13:26:09.37Z</time></trkpt><trkpt lat="45.9009526" lon="8.4037924"><ele>461.0</ele><time>2026-04-03T13:26:10.37Z</time></trkpt><trkpt lat="45.9008611" lon="8.4037295"><ele>461.0</ele><time>2026-04-03T13:26:11.376Z</time></trkpt><trkpt lat="45.9007872" lon="8.4036746"><ele>461.0</ele><time>2026-04-03T13:26:12.373Z</time></trkpt><trkpt lat="45.9007272" lon="8.4036442"><ele>463.49999999999994</ele><time>2026-04-03T13:26:13.373Z</time></trkpt><trkpt lat="45.9006478" lon="8.4036089"><ele>466.0</ele><time>2026-04-03T13:26:15.366Z</time></trkpt><trkpt lat="45.9006894" lon="8.4035144"><ele>468.5</ele><time>2026-04-03T13:26:18.386Z</time></trkpt><trkpt lat="45.9007649" lon="8.4035197"><ele>471.0</ele><time>2026-04-03T13:26:19.382Z</time></trkpt><trkpt lat="45.9008613" lon="8.4035331"><ele>473.49999999999994</ele><time>2026-04-03T13:26:20.369Z</time></trkpt><trkpt lat="45.900976" lon="8.4035334"><ele>476.0</ele><time>2026-04-03T13:26:21.37Z</time></trkpt><trkpt lat="45.9011038" lon="8.4035226"><ele>476.0</ele><time>2026-04-03T13:26:22.369Z</time></trkpt><trkpt lat="45.9012462" lon="8.4035018"><ele>476.0</ele><time>2026-04-03T13:26:23.373Z</time></trkpt><trkpt lat="45.9013951" lon="8.4034711"><ele>476.0</ele><time>2026-04-03T13:26:24.368Z</time></trkpt><trkpt lat="45.9015548" lon="8.4034468"><ele>476.0</ele><time>2026-04-03T13:26:25.381Z</time></trkpt><trkpt lat="45.9017208" lon="8.4034268"><ele>476.0</ele><time>2026-04-03T13:26:26.368Z</time></trkpt><trkpt lat="45.9018824" lon="8.4034072"><ele>476.0</ele><time>2026-04-03T13:26:27.365Z</time></trkpt><trkpt lat="45.9020146" lon="8.4033832"><ele>475.8</ele><time>2026-04-03T13:26:28.369Z</time></trkpt><trkpt lat="45.9021447" lon="8.4033601"><ele>475.6</ele><time>2026-04-03T13:26:29.372Z</time></trkpt><trkpt lat="45.902251" lon="8.4033351"><ele>475.4</ele><time>2026-04-03T13:26:30.367Z</time></trkpt><trkpt lat="45.9023487" lon="8.4033323"><ele>475.2</ele><time>2026-04-03T13:26:31.368Z</time></trkpt><trkpt lat="45.9024397" lon="8.4033444"><ele>475.0</ele><time>2026-04-03T13:26:32.368Z</time></trkpt><trkpt lat="45.902526" lon="8.4033712"><ele>476.00000000000006</ele><time>2026-04-03T13:26:33.384Z</time></trkpt><trkpt lat="45.902611" lon="8.4033807"><ele>477.0</ele><time>2026-04-03T13:26:34.372Z</time></trkpt><trkpt lat="45.9026974" lon="8.4033638"><ele>478.0</ele><time>2026-04-03T13:26:35.375Z</time></trkpt><trkpt lat="45.9027689" lon="8.4032922"><ele>479.0</ele><time>2026-04-03T13:26:36.369Z</time></trkpt><trkpt lat="45.9028298" lon="8.4031881"><ele>480.00000000000006</ele><time>2026-04-03T13:26:37.366Z</time></trkpt><trkpt lat="45.9028887" lon="8.4030843"><ele>481.0</ele><time>2026-04-03T13:26:38.365Z</time></trkpt><trkpt lat="45.9029489" lon="8.4030013"><ele>481.00000000000006</ele><time>2026-04-03T13:26:39.366Z</time></trkpt><trkpt lat="45.9030013" lon="8.4029345"><ele>481.0</ele><time>2026-04-03T13:26:40.366Z</time></trkpt><trkpt lat="45.9030765" lon="8.4028475"><ele>481.0</ele><time>2026-04-03T13:26:42.365Z</time></trkpt><trkpt lat="45.9031457" lon="8.4028494"><ele>481.0</ele><time>2026-04-03T13:26:44.381Z</time></trkpt><trkpt lat="45.9032099" lon="8.4029952"><ele>481.00000000000006</ele><time>2026-04-03T13:26:46.365Z</time></trkpt><trkpt lat="45.9032321" lon="8.403091"><ele>481.0</ele><time>2026-04-03T13:26:47.365Z</time></trkpt><trkpt lat="45.9032444" lon="8.4031962"><ele>481.00000000000006</ele><time>2026-04-03T13:26:48.366Z</time></trkpt><trkpt lat="45.9032512" lon="8.4033018"><ele>481.0</ele><time>2026-04-03T13:26:49.363Z</time></trkpt><trkpt lat="45.9032573" lon="8.4033946"><ele>481.0</ele><time>2026-04-03T13:26:50.365Z</time></trkpt><trkpt lat="45.9032657" lon="8.4034876"><ele>481.0</ele><time>2026-04-03T13:26:51.367Z</time></trkpt><trkpt lat="45.9033082" lon="8.4036652"><ele>481.00000000000006</ele><time>2026-04-03T13:26:53.366Z</time></trkpt><trkpt lat="45.9033569" lon="8.4037495"><ele>481.0</ele><time>2026-04-03T13:26:54.365Z</time></trkpt><trkpt lat="45.9034013" lon="8.4038328"><ele>481.33333333333337</ele><time>2026-04-03T13:26:55.365Z</time></trkpt><trkpt lat="45.9034546" lon="8.4039151"><ele>481.6666666666667</ele><time>2026-04-03T13:26:56.384Z</time></trkpt><trkpt lat="45.9035038" lon="8.4039972"><ele>482.0</ele><time>2026-04-03T13:26:57.373Z</time></trkpt><trkpt lat="45.9035511" lon="8.4040838"><ele>482.33333333333337</ele><time>2026-04-03T13:26:58.369Z</time></trkpt><trkpt lat="45.9035927" lon="8.4041773"><ele>482.6666666666667</ele><time>2026-04-03T13:26:59.373Z</time></trkpt><trkpt lat="45.903622" lon="8.4042739"><ele>483.0</ele><time>2026-04-03T13:27:00.369Z</time></trkpt><trkpt lat="45.9036408" lon="8.4043799"><ele>483.0</ele><time>2026-04-03T13:27:01.372Z</time></trkpt><trkpt lat="45.9036537" lon="8.4044811"><ele>482.99999999999994</ele><time>2026-04-03T13:27:02.37Z</time></trkpt><trkpt lat="45.9036666" lon="8.4045772"><ele>482.99999999999994</ele><time>2026-04-03T13:27:03.379Z</time></trkpt><trkpt lat="45.9036866" lon="8.4047459"><ele>483.0</ele><time>2026-04-03T13:27:05.371Z</time></trkpt><trkpt lat="45.9037182" lon="8.4048864"><ele>483.0</ele><time>2026-04-03T13:27:07.375Z</time></trkpt><trkpt lat="45.9037926" lon="8.4050591"><ele>480.4</ele><time>2026-04-03T13:27:09.368Z</time></trkpt><trkpt lat="45.9038427" lon="8.4051666"><ele>477.79999999999995</ele><time>2026-04-03T13:27:10.375Z</time></trkpt><trkpt lat="45.9038914" lon="8.405281"><ele>475.2</ele><time>2026-04-03T13:27:11.374Z</time></trkpt><trkpt lat="45.903939" lon="8.4054026"><ele>472.6</ele><time>2026-04-03T13:27:12.372Z</time></trkpt><trkpt lat="45.9039959" lon="8.4055334"><ele>470.0</ele><time>2026-04-03T13:27:13.372Z</time></trkpt><trkpt lat="45.9040514" lon="8.4056581"><ele>469.2</ele><time>2026-04-03T13:27:14.374Z</time></trkpt><trkpt lat="45.9041143" lon="8.4057659"><ele>468.4</ele><time>2026-04-03T13:27:15.371Z</time></trkpt><trkpt lat="45.9041872" lon="8.4058573"><ele>467.6</ele><time>2026-04-03T13:27:16.373Z</time></trkpt><trkpt lat="45.904266" lon="8.4059269"><ele>466.8</ele><time>2026-04-03T13:27:17.372Z</time></trkpt><trkpt lat="45.904355" lon="8.4059857"><ele>466.0</ele><time>2026-04-03T13:27:18.374Z</time></trkpt><trkpt lat="45.9044455" lon="8.4060468"><ele>466.0</ele><time>2026-04-03T13:27:19.374Z</time></trkpt><trkpt lat="45.9045351" lon="8.4061116"><ele>466.0</ele><time>2026-04-03T13:27:20.375Z</time></trkpt><trkpt lat="45.9046338" lon="8.4061705"><ele>466.0</ele><time>2026-04-03T13:27:21.374Z</time></trkpt><trkpt lat="45.9047481" lon="8.4062284"><ele>466.0</ele><time>2026-04-03T13:27:22.374Z</time></trkpt><trkpt lat="45.904897" lon="8.4062883"><ele>462.0</ele><time>2026-04-03T13:27:23.377Z</time></trkpt><trkpt lat="45.9050693" lon="8.4063605"><ele>458.0</ele><time>2026-04-03T13:27:24.373Z</time></trkpt><trkpt lat="45.9052433" lon="8.4064152"><ele>454.0</ele><time>2026-04-03T13:27:25.374Z</time></trkpt><trkpt lat="45.9053944" lon="8.4064768"><ele>453.6666666666667</ele><time>2026-04-03T13:27:26.375Z</time></trkpt><trkpt lat="45.905551" lon="8.4065467"><ele>453.33333333333337</ele><time>2026-04-03T13:27:27.381Z</time></trkpt><trkpt lat="45.9057149" lon="8.4066448"><ele>453.0</ele><time>2026-04-03T13:27:28.368Z</time></trkpt><trkpt lat="45.9058918" lon="8.4067738"><ele>457.66666666666663</ele><time>2026-04-03T13:27:29.373Z</time></trkpt><trkpt lat="45.9060665" lon="8.4068814"><ele>462.3333333333333</ele><time>2026-04-03T13:27:30.371Z</time></trkpt><trkpt lat="45.9062336" lon="8.4069764"><ele>467.0</ele><time>2026-04-03T13:27:31.374Z</time></trkpt><trkpt lat="45.9063882" lon="8.4070841"><ele>464.0</ele><time>2026-04-03T13:27:32.369Z</time></trkpt><trkpt lat="45.9065518" lon="8.407228"><ele>461.0</ele><time>2026-04-03T13:27:33.378Z</time></trkpt><trkpt lat="45.9067086" lon="8.407375"><ele>458.0</ele><time>2026-04-03T13:27:34.371Z</time></trkpt><trkpt lat="45.9068547" lon="8.4075159"><ele>458.0</ele><time>2026-04-03T13:27:35.372Z</time></trkpt><trkpt lat="45.9070003" lon="8.4076612"><ele>458.0</ele><time>2026-04-03T13:27:36.37Z</time></trkpt><trkpt lat="45.9071438" lon="8.4078038"><ele>458.0</ele><time>2026-04-03T13:27:37.37Z</time></trkpt><trkpt lat="45.9072823" lon="8.4079404"><ele>451.0</ele><time>2026-04-03T13:27:38.372Z</time></trkpt><trkpt lat="45.9074149" lon="8.4080588"><ele>444.0</ele><time>2026-04-03T13:27:39.368Z</time></trkpt><trkpt lat="45.9075465" lon="8.4081533"><ele>437.0</ele><time>2026-04-03T13:27:40.372Z</time></trkpt><trkpt lat="45.9076793" lon="8.4082436"><ele>437.0</ele><time>2026-04-03T13:27:41.37Z</time></trkpt><trkpt lat="45.9078227" lon="8.4083257"><ele>437.0</ele><time>2026-04-03T13:27:42.372Z</time></trkpt><trkpt lat="45.9079682" lon="8.4084144"><ele>437.0</ele><time>2026-04-03T13:27:43.371Z</time></trkpt><trkpt lat="45.908102" lon="8.4085138"><ele>437.0</ele><time>2026-04-03T13:27:44.368Z</time></trkpt><trkpt lat="45.9082322" lon="8.4086029"><ele>437.0</ele><time>2026-04-03T13:27:45.369Z</time></trkpt><trkpt lat="45.9083585" lon="8.4086938"><ele>437.0</ele><time>2026-04-03T13:27:46.371Z</time></trkpt><trkpt lat="45.9084861" lon="8.4087538"><ele>437.0</ele><time>2026-04-03T13:27:47.375Z</time></trkpt><trkpt lat="45.908638" lon="8.4087899"><ele>438.3333333333333</ele><time>2026-04-03T13:27:48.369Z</time></trkpt><trkpt lat="45.9088037" lon="8.4087956"><ele>439.66666666666663</ele><time>2026-04-03T13:27:49.375Z</time></trkpt><trkpt lat="45.9089592" lon="8.4087874"><ele>441.0</ele><time>2026-04-03T13:27:50.374Z</time></trkpt><trkpt lat="45.9091051" lon="8.4087799"><ele>441.0</ele><time>2026-04-03T13:27:51.375Z</time></trkpt><trkpt lat="45.9092405" lon="8.408781"><ele>441.0</ele><time>2026-04-03T13:27:52.371Z</time></trkpt><trkpt lat="45.909369" lon="8.4087998"><ele>441.0</ele><time>2026-04-03T13:27:53.372Z</time></trkpt><trkpt lat="45.9094906" lon="8.4088372"><ele>441.0</ele><time>2026-04-03T13:27:54.367Z</time></trkpt><trkpt lat="45.9096072" lon="8.4089158"><ele>435.66666666666663</ele><time>2026-04-03T13:27:55.365Z</time></trkpt><trkpt lat="45.9097174" lon="8.409058"><ele>430.3333333333333</ele><time>2026-04-03T13:27:56.37Z</time></trkpt><trkpt lat="45.9098353" lon="8.4092316"><ele>425.0</ele><time>2026-04-03T13:27:57.367Z</time></trkpt><trkpt lat="45.9099561" lon="8.4093746"><ele>433.3333333333333</ele><time>2026-04-03T13:27:58.382Z</time></trkpt><trkpt lat="45.9100882" lon="8.4094815"><ele>441.66666666666663</ele><time>2026-04-03T13:27:59.37Z</time></trkpt><trkpt lat="45.9102183" lon="8.4095693"><ele>450.0</ele><time>2026-04-03T13:28:00.367Z</time></trkpt><trkpt lat="45.9103756" lon="8.4096497"><ele>437.33333333333337</ele><time>2026-04-03T13:28:01.372Z</time></trkpt><trkpt lat="45.9105432" lon="8.4097125"><ele>424.6666666666667</ele><time>2026-04-03T13:28:02.365Z</time></trkpt><trkpt lat="45.9106959" lon="8.4097715"><ele>412.0</ele><time>2026-04-03T13:28:03.386Z</time></trkpt><trkpt lat="45.9108311" lon="8.4098175"><ele>414.20000000000005</ele><time>2026-04-03T13:28:04.368Z</time></trkpt><trkpt lat="45.9109563" lon="8.4098657"><ele>416.4</ele><time>2026-04-03T13:28:05.368Z</time></trkpt><trkpt lat="45.9110488" lon="8.409903"><ele>418.6</ele><time>2026-04-03T13:28:06.36Z</time></trkpt><trkpt lat="45.9111164" lon="8.4099492"><ele>420.79999999999995</ele><time>2026-04-03T13:28:07.362Z</time></trkpt><trkpt lat="45.9112137" lon="8.4100026"><ele>423.0</ele><time>2026-04-03T13:28:09.365Z</time></trkpt><trkpt lat="45.9112991" lon="8.4100312"><ele>423.0</ele><time>2026-04-03T13:28:10.367Z</time></trkpt><trkpt lat="45.9114158" lon="8.4100808"><ele>423.0</ele><time>2026-04-03T13:28:11.363Z</time></trkpt><trkpt lat="45.9115465" lon="8.4101372"><ele>423.0</ele><time>2026-04-03T13:28:12.364Z</time></trkpt><trkpt lat="45.9116904" lon="8.4102061"><ele>423.0</ele><time>2026-04-03T13:28:13.363Z</time></trkpt><trkpt lat="45.9118475" lon="8.4102987"><ele>427.66666666666663</ele><time>2026-04-03T13:28:14.365Z</time></trkpt><trkpt lat="45.9120079" lon="8.4104204"><ele>432.3333333333333</ele><time>2026-04-03T13:28:15.364Z</time></trkpt><trkpt lat="45.9121746" lon="8.4105507"><ele>437.0</ele><time>2026-04-03T13:28:16.368Z</time></trkpt><trkpt lat="45.912328" lon="8.4106634"><ele>428.0</ele><time>2026-04-03T13:28:17.365Z</time></trkpt><trkpt lat="45.9124751" lon="8.4107565"><ele>419.0</ele><time>2026-04-03T13:28:18.367Z</time></trkpt><trkpt lat="45.9126107" lon="8.4108521"><ele>410.0</ele><time>2026-04-03T13:28:19.365Z</time></trkpt><trkpt lat="45.912746" lon="8.4109634"><ele>410.0</ele><time>2026-04-03T13:28:20.367Z</time></trkpt><trkpt lat="45.9128749" lon="8.4110725"><ele>410.0</ele><time>2026-04-03T13:28:21.365Z</time></trkpt><trkpt lat="45.9129951" lon="8.411184"><ele>410.0</ele><time>2026-04-03T13:28:22.369Z</time></trkpt><trkpt lat="45.9131017" lon="8.4112831"><ele>410.0</ele><time>2026-04-03T13:28:23.371Z</time></trkpt><trkpt lat="45.913215" lon="8.4113657"><ele>409.8</ele><time>2026-04-03T13:28:24.372Z</time></trkpt><trkpt lat="45.9133241" lon="8.4114363"><ele>409.6</ele><time>2026-04-03T13:28:25.372Z</time></trkpt><trkpt lat="45.9134297" lon="8.4114832"><ele>409.4</ele><time>2026-04-03T13:28:26.373Z</time></trkpt><trkpt lat="45.9135225" lon="8.4115014"><ele>409.2</ele><time>2026-04-03T13:28:27.368Z</time></trkpt><trkpt lat="45.9136044" lon="8.4115391"><ele>409.0</ele><time>2026-04-03T13:28:28.369Z</time></trkpt><trkpt lat="45.9136727" lon="8.4115997"><ele>409.00000000000006</ele><time>2026-04-03T13:28:29.385Z</time></trkpt><trkpt lat="45.9137187" lon="8.411684"><ele>409.0</ele><time>2026-04-03T13:28:30.367Z</time></trkpt><trkpt lat="45.9137448" lon="8.4117835"><ele>409.0</ele><time>2026-04-03T13:28:31.375Z</time></trkpt><trkpt lat="45.9137463" lon="8.4119114"><ele>409.0</ele><time>2026-04-03T13:28:32.366Z</time></trkpt><trkpt lat="45.9137213" lon="8.4120536"><ele>409.00000000000006</ele><time>2026-04-03T13:28:33.376Z</time></trkpt><trkpt lat="45.9136779" lon="8.4121981"><ele>409.0</ele><time>2026-04-03T13:28:34.368Z</time></trkpt><trkpt lat="45.913632" lon="8.4123397"><ele>408.2</ele><time>2026-04-03T13:28:35.366Z</time></trkpt><trkpt lat="45.9135758" lon="8.4124745"><ele>407.4</ele><time>2026-04-03T13:28:36.368Z</time></trkpt><trkpt lat="45.9135121" lon="8.412589"><ele>406.6</ele><time>2026-04-03T13:28:37.367Z</time></trkpt><trkpt lat="45.913457" lon="8.4126944"><ele>405.8</ele><time>2026-04-03T13:28:38.368Z</time></trkpt><trkpt lat="45.9134173" lon="8.4127949"><ele>405.0</ele><time>2026-04-03T13:28:39.371Z</time></trkpt><trkpt lat="45.9134038" lon="8.4128904"><ele>403.4</ele><time>2026-04-03T13:28:40.374Z</time></trkpt><trkpt lat="45.9134255" lon="8.4130068"><ele>401.8</ele><time>2026-04-03T13:28:41.372Z</time></trkpt><trkpt lat="45.9134872" lon="8.4131409"><ele>400.20000000000005</ele><time>2026-04-03T13:28:42.371Z</time></trkpt><trkpt lat="45.9135455" lon="8.4132629"><ele>398.6</ele><time>2026-04-03T13:28:43.37Z</time></trkpt><trkpt lat="45.9136087" lon="8.4133671"><ele>397.0</ele><time>2026-04-03T13:28:44.375Z</time></trkpt><trkpt lat="45.9136658" lon="8.4134231"><ele>397.0</ele><time>2026-04-03T13:28:45.37Z</time></trkpt><trkpt lat="45.9137596" lon="8.4134637"><ele>397.0</ele><time>2026-04-03T13:28:47.37Z</time></trkpt><trkpt lat="45.9138213" lon="8.4134984"><ele>397.0</ele><time>2026-04-03T13:28:48.371Z</time></trkpt><trkpt lat="45.9139081" lon="8.4135407"><ele>397.0</ele><time>2026-04-03T13:28:49.372Z</time></trkpt><trkpt lat="45.9140114" lon="8.4135665"><ele>397.0</ele><time>2026-04-03T13:28:50.37Z</time></trkpt><trkpt lat="45.9141139" lon="8.4135795"><ele>397.0</ele><time>2026-04-03T13:28:51.365Z</time></trkpt><trkpt lat="45.9142119" lon="8.4135847"><ele>397.0</ele><time>2026-04-03T13:28:52.367Z</time></trkpt><trkpt lat="45.914309" lon="8.4135849"><ele>397.0</ele><time>2026-04-03T13:28:53.368Z</time></trkpt><trkpt lat="45.9144149" lon="8.4135966"><ele>397.0</ele><time>2026-04-03T13:28:54.37Z</time></trkpt><trkpt lat="45.914517" lon="8.4136214"><ele>397.0</ele><time>2026-04-03T13:28:55.374Z</time></trkpt><trkpt lat="45.9146062" lon="8.41364"><ele>396.00000000000006</ele><time>2026-04-03T13:28:56.373Z</time></trkpt><trkpt lat="45.914694" lon="8.4136497"><ele>395.0</ele><time>2026-04-03T13:28:57.372Z</time></trkpt><trkpt lat="45.9147647" lon="8.4136661"><ele>394.0</ele><time>2026-04-03T13:28:58.369Z</time></trkpt><trkpt lat="45.9148254" lon="8.4136961"><ele>393.0</ele><time>2026-04-03T13:28:59.376Z</time></trkpt><trkpt lat="45.9149266" lon="8.4137181"><ele>392.00000000000006</ele><time>2026-04-03T13:29:01.381Z</time></trkpt><trkpt lat="45.9150028" lon="8.4135978"><ele>391.0</ele><time>2026-04-03T13:29:03.387Z</time></trkpt><trkpt lat="45.915124" lon="8.4135727"><ele>391.00000000000006</ele><time>2026-04-03T13:29:05.372Z</time></trkpt><trkpt lat="45.9152159" lon="8.4136531"><ele>391.0</ele><time>2026-04-03T13:29:07.374Z</time></trkpt><trkpt lat="45.9152498" lon="8.4138131"><ele>391.0</ele><time>2026-04-03T13:29:09.374Z</time></trkpt><trkpt lat="45.9152603" lon="8.4139318"><ele>391.0</ele><time>2026-04-03T13:29:11.386Z</time></trkpt><trkpt lat="45.9152443" lon="8.4140272"><ele>391.00000000000006</ele><time>2026-04-03T13:29:14.386Z</time></trkpt><trkpt lat="45.9151995" lon="8.4141094"><ele>391.0</ele><time>2026-04-03T13:29:16.385Z</time></trkpt><trkpt lat="45.9151624" lon="8.4142476"><ele>389.50000000000006</ele><time>2026-04-03T13:29:18.383Z</time></trkpt><trkpt lat="45.915159" lon="8.414348"><ele>388.0</ele><time>2026-04-03T13:29:19.382Z</time></trkpt><trkpt lat="45.9151691" lon="8.4144731"><ele>386.5</ele><time>2026-04-03T13:29:20.374Z</time></trkpt><trkpt lat="45.9151939" lon="8.4145975"><ele>385.0</ele><time>2026-04-03T13:29:21.376Z</time></trkpt><trkpt lat="45.9152246" lon="8.4147164"><ele>383.5</ele><time>2026-04-03T13:29:22.381Z</time></trkpt><trkpt lat="45.9152481" lon="8.4148313"><ele>382.0</ele><time>2026-04-03T13:29:23.377Z</time></trkpt><trkpt lat="45.9152649" lon="8.4149428"><ele>380.0</ele><time>2026-04-03T13:29:24.379Z</time></trkpt><trkpt lat="45.9152685" lon="8.4150619"><ele>378.0</ele><time>2026-04-03T13:29:25.374Z</time></trkpt><trkpt lat="45.9152645" lon="8.4151774"><ele>376.0</ele><time>2026-04-03T13:29:26.377Z</time></trkpt><trkpt lat="45.9152118" lon="8.4153145"><ele>374.0</ele><time>2026-04-03T13:29:28.375Z</time></trkpt><trkpt lat="45.9150839" lon="8.4153753"><ele>372.0</ele><time>2026-04-03T13:29:30.378Z</time></trkpt><trkpt lat="45.9150041" lon="8.4153859"><ele>371.5</ele><time>2026-04-03T13:29:31.39Z</time></trkpt><trkpt lat="45.9149364" lon="8.4153903"><ele>371.0</ele><time>2026-04-03T13:29:32.378Z</time></trkpt><trkpt lat="45.9148323" lon="8.4154459"><ele>370.5</ele><time>2026-04-03T13:29:34.382Z</time></trkpt><trkpt lat="45.9148033" lon="8.415528"><ele>370.0</ele><time>2026-04-03T13:29:35.38Z</time></trkpt><trkpt lat="45.9147991" lon="8.4156327"><ele>369.5</ele><time>2026-04-03T13:29:36.371Z</time></trkpt><trkpt lat="45.9148077" lon="8.4157601"><ele>369.0</ele><time>2026-04-03T13:29:37.376Z</time></trkpt><trkpt lat="45.9148162" lon="8.4158902"><ele>367.79999999999995</ele><time>2026-04-03T13:29:38.375Z</time></trkpt><trkpt lat="45.914823" lon="8.4159985"><ele>366.59999999999997</ele><time>2026-04-03T13:29:39.375Z</time></trkpt><trkpt lat="45.914859" lon="8.4161411"><ele>365.4</ele><time>2026-04-03T13:29:41.373Z</time></trkpt><trkpt lat="45.9149484" lon="8.4162208"><ele>364.2</ele><time>2026-04-03T13:29:43.374Z</time></trkpt><trkpt lat="45.9150182" lon="8.416275"><ele>363.0</ele><time>2026-04-03T13:29:45.391Z</time></trkpt><trkpt lat="45.9151159" lon="8.4162888"><ele>363.0</ele><time>2026-04-03T13:29:47.393Z</time></trkpt><trkpt lat="45.9151927" lon="8.4162637"><ele>363.0</ele><time>2026-04-03T13:29:48.378Z</time></trkpt><trkpt lat="45.9152729" lon="8.4162239"><ele>363.0</ele><time>2026-04-03T13:29:49.381Z</time></trkpt><trkpt lat="45.9153589" lon="8.4161898"><ele>363.0</ele><time>2026-04-03T13:29:50.377Z</time></trkpt><trkpt lat="45.9154319" lon="8.4161753"><ele>363.0</ele><time>2026-04-03T13:29:51.375Z</time></trkpt><trkpt lat="45.9155176" lon="8.4161955"><ele>363.0</ele><time>2026-04-03T13:29:53.377Z</time></trkpt><trkpt lat="45.9155873" lon="8.4161669"><ele>363.0</ele><time>2026-04-03T13:29:56.391Z</time></trkpt><trkpt lat="45.9156789" lon="8.4160798"><ele>363.0</ele><time>2026-04-03T13:29:58.373Z</time></trkpt><trkpt lat="45.9157465" lon="8.4160534"><ele>363.0</ele><time>2026-04-03T13:29:59.377Z</time></trkpt><trkpt lat="45.9158307" lon="8.4160233"><ele>363.0</ele><time>2026-04-03T13:30:00.373Z</time></trkpt><trkpt lat="45.9159345" lon="8.4159937"><ele>363.0</ele><time>2026-04-03T13:30:01.38Z</time></trkpt><trkpt lat="45.9160493" lon="8.4159688"><ele>364.0</ele><time>2026-04-03T13:30:02.391Z</time></trkpt><trkpt lat="45.9161661" lon="8.4159464"><ele>365.0</ele><time>2026-04-03T13:30:03.384Z</time></trkpt><trkpt lat="45.9162889" lon="8.4159186"><ele>366.0</ele><time>2026-04-03T13:30:04.374Z</time></trkpt><trkpt lat="45.9164088" lon="8.415903"><ele>367.0</ele><time>2026-04-03T13:30:05.379Z</time></trkpt><trkpt lat="45.9165227" lon="8.4158951"><ele>367.0</ele><time>2026-04-03T13:30:06.379Z</time></trkpt><trkpt lat="45.9166249" lon="8.4159032"><ele>367.0</ele><time>2026-04-03T13:30:07.38Z</time></trkpt><trkpt lat="45.9167167" lon="8.4159309"><ele>367.0</ele><time>2026-04-03T13:30:08.379Z</time></trkpt><trkpt lat="45.9168086" lon="8.4159748"><ele>367.0</ele><time>2026-04-03T13:30:09.379Z</time></trkpt><trkpt lat="45.9169056" lon="8.4160461"><ele>367.0</ele><time>2026-04-03T13:30:10.378Z</time></trkpt><trkpt lat="45.9170082" lon="8.4161487"><ele>366.6</ele><time>2026-04-03T13:30:11.377Z</time></trkpt><trkpt lat="45.9171052" lon="8.4162637"><ele>366.20000000000005</ele><time>2026-04-03T13:30:12.38Z</time></trkpt><trkpt lat="45.9171918" lon="8.4163722"><ele>365.8</ele><time>2026-04-03T13:30:13.377Z</time></trkpt><trkpt lat="45.9172723" lon="8.4164649"><ele>365.4</ele><time>2026-04-03T13:30:14.379Z</time></trkpt><trkpt lat="45.9173421" lon="8.4165411"><ele>365.0</ele><time>2026-04-03T13:30:15.377Z</time></trkpt><trkpt lat="45.9174031" lon="8.4166118"><ele>365.0</ele><time>2026-04-03T13:30:16.381Z</time></trkpt><trkpt lat="45.9174555" lon="8.4166872"><ele>365.0</ele><time>2026-04-03T13:30:17.381Z</time></trkpt><trkpt lat="45.9175105" lon="8.4167752"><ele>365.0</ele><time>2026-04-03T13:30:18.379Z</time></trkpt><trkpt lat="45.9175698" lon="8.4168801"><ele>365.0</ele><time>2026-04-03T13:30:19.38Z</time></trkpt><trkpt lat="45.917622" lon="8.4170014"><ele>365.0</ele><time>2026-04-03T13:30:20.382Z</time></trkpt><trkpt lat="45.917665" lon="8.4171393"><ele>365.5</ele><time>2026-04-03T13:30:21.382Z</time></trkpt><trkpt lat="45.9177013" lon="8.4172865"><ele>366.0</ele><time>2026-04-03T13:30:22.38Z</time></trkpt><trkpt lat="45.9177375" lon="8.417435"><ele>366.5</ele><time>2026-04-03T13:30:23.38Z</time></trkpt><trkpt lat="45.917779" lon="8.4175882"><ele>367.0</ele><time>2026-04-03T13:30:24.38Z</time></trkpt><trkpt lat="45.9178213" lon="8.4177495"><ele>367.0</ele><time>2026-04-03T13:30:25.382Z</time></trkpt><trkpt lat="45.9178603" lon="8.4179037"><ele>367.0</ele><time>2026-04-03T13:30:26.38Z</time></trkpt><trkpt lat="45.9179001" lon="8.4180541"><ele>367.0</ele><time>2026-04-03T13:30:27.38Z</time></trkpt><trkpt lat="45.9179404" lon="8.4181986"><ele>367.0</ele><time>2026-04-03T13:30:28.382Z</time></trkpt><trkpt lat="45.9179773" lon="8.4183431"><ele>367.0</ele><time>2026-04-03T13:30:29.379Z</time></trkpt><trkpt lat="45.9180152" lon="8.4184872"><ele>365.40000000000003</ele><time>2026-04-03T13:30:30.381Z</time></trkpt><trkpt lat="45.9180533" lon="8.4186303"><ele>363.8</ele><time>2026-04-03T13:30:31.383Z</time></trkpt><trkpt lat="45.9180925" lon="8.4187783"><ele>362.2</ele><time>2026-04-03T13:30:32.381Z</time></trkpt><trkpt lat="45.9181309" lon="8.418928"><ele>360.6</ele><time>2026-04-03T13:30:33.404Z</time></trkpt><trkpt lat="45.9181729" lon="8.4190705"><ele>359.0</ele><time>2026-04-03T13:30:34.383Z</time></trkpt><trkpt lat="45.9182091" lon="8.4192165"><ele>357.6</ele><time>2026-04-03T13:30:35.38Z</time></trkpt><trkpt lat="45.9182388" lon="8.4193644"><ele>356.2</ele><time>2026-04-03T13:30:36.382Z</time></trkpt><trkpt lat="45.9182583" lon="8.4195148"><ele>354.8</ele><time>2026-04-03T13:30:37.384Z</time></trkpt><trkpt lat="45.9182718" lon="8.4196621"><ele>353.40000000000003</ele><time>2026-04-03T13:30:38.38Z</time></trkpt><trkpt lat="45.9182783" lon="8.4198053"><ele>352.0</ele><time>2026-04-03T13:30:39.405Z</time></trkpt><trkpt lat="45.9182683" lon="8.4199467"><ele>351.0</ele><time>2026-04-03T13:30:40.369Z</time></trkpt><trkpt lat="45.9182484" lon="8.4200801"><ele>350.0</ele><time>2026-04-03T13:30:41.384Z</time></trkpt><trkpt lat="45.9182082" lon="8.4202105"><ele>349.0</ele><time>2026-04-03T13:30:42.374Z</time></trkpt><trkpt lat="45.9181515" lon="8.4203333"><ele>348.0</ele><time>2026-04-03T13:30:43.381Z</time></trkpt><trkpt lat="45.9180681" lon="8.4204282"><ele>347.0</ele><time>2026-04-03T13:30:44.379Z</time></trkpt><trkpt lat="45.9179654" lon="8.4204812"><ele>347.0</ele><time>2026-04-03T13:30:45.378Z</time></trkpt><trkpt lat="45.9178523" lon="8.4204885"><ele>347.0</ele><time>2026-04-03T13:30:46.376Z</time></trkpt><trkpt lat="45.9177212" lon="8.420447"><ele>347.0</ele><time>2026-04-03T13:30:47.373Z</time></trkpt><trkpt lat="45.9175796" lon="8.4203691"><ele>347.0</ele><time>2026-04-03T13:30:48.376Z</time></trkpt><trkpt lat="45.917441" lon="8.4202737"><ele>346.75</ele><time>2026-04-03T13:30:49.375Z</time></trkpt><trkpt lat="45.9173018" lon="8.4201782"><ele>346.5</ele><time>2026-04-03T13:30:50.381Z</time></trkpt><trkpt lat="45.9171721" lon="8.4200835"><ele>346.25</ele><time>2026-04-03T13:30:51.379Z</time></trkpt><trkpt lat="45.9170486" lon="8.4199902"><ele>346.0</ele><time>2026-04-03T13:30:52.378Z</time></trkpt><trkpt lat="45.9169379" lon="8.4199006"><ele>346.0</ele><time>2026-04-03T13:30:53.378Z</time></trkpt><trkpt lat="45.9168273" lon="8.4198165"><ele>346.0</ele><time>2026-04-03T13:30:54.376Z</time></trkpt><trkpt lat="45.9167223" lon="8.4197277"><ele>346.0</ele><time>2026-04-03T13:30:55.381Z</time></trkpt><trkpt lat="45.9166173" lon="8.4196356"><ele>346.0</ele><time>2026-04-03T13:30:56.379Z</time></trkpt><trkpt lat="45.9165104" lon="8.4195425"><ele>345.5</ele><time>2026-04-03T13:30:57.376Z</time></trkpt><trkpt lat="45.9163966" lon="8.4194466"><ele>345.0</ele><time>2026-04-03T13:30:58.379Z</time></trkpt><trkpt lat="45.916279" lon="8.4193471"><ele>344.5</ele><time>2026-04-03T13:30:59.379Z</time></trkpt><trkpt lat="45.9161556" lon="8.4192468"><ele>344.0</ele><time>2026-04-03T13:31:00.378Z</time></trkpt><trkpt lat="45.9160333" lon="8.4191446"><ele>344.0</ele><time>2026-04-03T13:31:01.38Z</time></trkpt><trkpt lat="45.9159075" lon="8.4190621"><ele>344.0</ele><time>2026-04-03T13:31:02.377Z</time></trkpt><trkpt lat="45.9157726" lon="8.4190108"><ele>344.0</ele><time>2026-04-03T13:31:03.386Z</time></trkpt><trkpt lat="45.9156351" lon="8.4189657"><ele>344.0</ele><time>2026-04-03T13:31:04.4Z</time></trkpt><trkpt lat="45.9154985" lon="8.4189191"><ele>341.5</ele><time>2026-04-03T13:31:05.379Z</time></trkpt><trkpt lat="45.9153674" lon="8.4188844"><ele>339.0</ele><time>2026-04-03T13:31:06.377Z</time></trkpt><trkpt lat="45.9152443" lon="8.4188541"><ele>336.5</ele><time>2026-04-03T13:31:07.384Z</time></trkpt><trkpt lat="45.9151277" lon="8.4188067"><ele>334.0</ele><time>2026-04-03T13:31:08.38Z</time></trkpt><trkpt lat="45.9150095" lon="8.4187786"><ele>332.66666666666663</ele><time>2026-04-03T13:31:09.389Z</time></trkpt><trkpt lat="45.9149088" lon="8.418774"><ele>331.3333333333333</ele><time>2026-04-03T13:31:10.372Z</time></trkpt><trkpt lat="45.914834" lon="8.4188177"><ele>330.0</ele><time>2026-04-03T13:31:11.378Z</time></trkpt><trkpt lat="45.9147854" lon="8.4189036"><ele>328.6666666666667</ele><time>2026-04-03T13:31:12.382Z</time></trkpt><trkpt lat="45.9147531" lon="8.4190095"><ele>327.33333333333337</ele><time>2026-04-03T13:31:13.38Z</time></trkpt><trkpt lat="45.9147682" lon="8.4191179"><ele>326.0</ele><time>2026-04-03T13:31:14.376Z</time></trkpt><trkpt lat="45.9148117" lon="8.419216"><ele>326.5</ele><time>2026-04-03T13:31:15.373Z</time></trkpt><trkpt lat="45.9148825" lon="8.4192954"><ele>327.0</ele><time>2026-04-03T13:31:16.379Z</time></trkpt><trkpt lat="45.9149964" lon="8.4193651"><ele>327.5</ele><time>2026-04-03T13:31:17.374Z</time></trkpt><trkpt lat="45.9151235" lon="8.4194308"><ele>328.0</ele><time>2026-04-03T13:31:18.372Z</time></trkpt><trkpt lat="45.9152394" lon="8.4195021"><ele>328.0</ele><time>2026-04-03T13:31:19.369Z</time></trkpt><trkpt lat="45.9153407" lon="8.4195705"><ele>328.0</ele><time>2026-04-03T13:31:20.374Z</time></trkpt><trkpt lat="45.9154209" lon="8.4196465"><ele>328.0</ele><time>2026-04-03T13:31:21.375Z</time></trkpt><trkpt lat="45.9154754" lon="8.419745"><ele>328.0</ele><time>2026-04-03T13:31:22.376Z</time></trkpt><trkpt lat="45.915499" lon="8.4198618"><ele>328.0</ele><time>2026-04-03T13:31:23.375Z</time></trkpt><trkpt lat="45.9154937" lon="8.4199678"><ele>327.0</ele><time>2026-04-03T13:31:24.378Z</time></trkpt><trkpt lat="45.915449" lon="8.4200507"><ele>326.0</ele><time>2026-04-03T13:31:25.376Z</time></trkpt><trkpt lat="45.9153625" lon="8.4200832"><ele>325.0</ele><time>2026-04-03T13:31:26.372Z</time></trkpt><trkpt lat="45.9152601" lon="8.4200679"><ele>324.0</ele><time>2026-04-03T13:31:27.371Z</time></trkpt><trkpt lat="45.9151321" lon="8.4200043"><ele>323.0</ele><time>2026-04-03T13:31:28.376Z</time></trkpt><trkpt lat="45.9150131" lon="8.4199038"><ele>320.4</ele><time>2026-04-03T13:31:29.379Z</time></trkpt><trkpt lat="45.9149034" lon="8.4198173"><ele>317.79999999999995</ele><time>2026-04-03T13:31:30.381Z</time></trkpt><trkpt lat="45.9148055" lon="8.4197632"><ele>315.2</ele><time>2026-04-03T13:31:31.385Z</time></trkpt><trkpt lat="45.9147115" lon="8.4197552"><ele>312.6</ele><time>2026-04-03T13:31:32.381Z</time></trkpt><trkpt lat="45.9146175" lon="8.4198072"><ele>310.0</ele><time>2026-04-03T13:31:33.39Z</time></trkpt><trkpt lat="45.9145308" lon="8.4199107"><ele>310.0</ele><time>2026-04-03T13:31:34.388Z</time></trkpt><trkpt lat="45.9144641" lon="8.4200413"><ele>310.0</ele><time>2026-04-03T13:31:35.372Z</time></trkpt><trkpt lat="45.9144119" lon="8.4201867"><ele>310.0</ele><time>2026-04-03T13:31:36.374Z</time></trkpt><trkpt lat="45.9144106" lon="8.4203236"><ele>310.0</ele><time>2026-04-03T13:31:37.37Z</time></trkpt><trkpt lat="45.9144506" lon="8.4204688"><ele>310.0</ele><time>2026-04-03T13:31:38.371Z</time></trkpt><trkpt lat="45.9145184" lon="8.4206119"><ele>308.25</ele><time>2026-04-03T13:31:39.37Z</time></trkpt><trkpt lat="45.9145958" lon="8.4207531"><ele>306.5</ele><time>2026-04-03T13:31:40.376Z</time></trkpt><trkpt lat="45.9146737" lon="8.4208919"><ele>304.75</ele><time>2026-04-03T13:31:41.376Z</time></trkpt><trkpt lat="45.9147469" lon="8.4210225"><ele>303.0</ele><time>2026-04-03T13:31:42.376Z</time></trkpt><trkpt lat="45.91482" lon="8.421149"><ele>303.0</ele><time>2026-04-03T13:31:43.382Z</time></trkpt><trkpt lat="45.9148846" lon="8.4212711"><ele>303.0</ele><time>2026-04-03T13:31:44.383Z</time></trkpt><trkpt lat="45.9149548" lon="8.4213804"><ele>303.0</ele><time>2026-04-03T13:31:45.383Z</time></trkpt><trkpt lat="45.9150288" lon="8.4214737"><ele>303.0</ele><time>2026-04-03T13:31:46.384Z</time></trkpt><trkpt lat="45.9151153" lon="8.4215207"><ele>303.0</ele><time>2026-04-03T13:31:47.385Z</time></trkpt><trkpt lat="45.9152039" lon="8.4215297"><ele>302.0</ele><time>2026-04-03T13:31:48.381Z</time></trkpt><trkpt lat="45.915303" lon="8.421495"><ele>301.0</ele><time>2026-04-03T13:31:49.381Z</time></trkpt><trkpt lat="45.9153913" lon="8.4214771"><ele>300.0</ele><time>2026-04-03T13:31:50.38Z</time></trkpt><trkpt lat="45.915477" lon="8.421481"><ele>299.0</ele><time>2026-04-03T13:31:51.379Z</time></trkpt><trkpt lat="45.9155719" lon="8.4215172"><ele>298.0</ele><time>2026-04-03T13:31:52.378Z</time></trkpt><trkpt lat="45.9156634" lon="8.4215997"><ele>298.0</ele><time>2026-04-03T13:31:53.379Z</time></trkpt><trkpt lat="45.9157408" lon="8.4217112"><ele>298.0</ele><time>2026-04-03T13:31:54.38Z</time></trkpt><trkpt lat="45.9158087" lon="8.4218256"><ele>298.0</ele><time>2026-04-03T13:31:55.381Z</time></trkpt><trkpt lat="45.9158713" lon="8.4219419"><ele>298.0</ele><time>2026-04-03T13:31:56.382Z</time></trkpt><trkpt lat="45.9159319" lon="8.4220652"><ele>298.0</ele><time>2026-04-03T13:31:57.382Z</time></trkpt><trkpt lat="45.9159965" lon="8.4221965"><ele>297.4</ele><time>2026-04-03T13:31:58.381Z</time></trkpt><trkpt lat="45.9160579" lon="8.4223339"><ele>296.8</ele><time>2026-04-03T13:31:59.381Z</time></trkpt><trkpt lat="45.9161166" lon="8.4224734"><ele>296.2</ele><time>2026-04-03T13:32:00.379Z</time></trkpt><trkpt lat="45.9161646" lon="8.4226196"><ele>295.6</ele><time>2026-04-03T13:32:01.381Z</time></trkpt><trkpt lat="45.9162005" lon="8.4227652"><ele>295.0</ele><time>2026-04-03T13:32:02.38Z</time></trkpt><trkpt lat="45.916225" lon="8.4229154"><ele>293.0</ele><time>2026-04-03T13:32:03.391Z</time></trkpt><trkpt lat="45.9162485" lon="8.4230649"><ele>291.0</ele><time>2026-04-03T13:32:04.382Z</time></trkpt><trkpt lat="45.9162814" lon="8.4232108"><ele>289.0</ele><time>2026-04-03T13:32:05.399Z</time></trkpt><trkpt lat="45.9163204" lon="8.4233475"><ele>287.0</ele><time>2026-04-03T13:32:06.383Z</time></trkpt><trkpt lat="45.9163688" lon="8.4234718"><ele>285.0</ele><time>2026-04-03T13:32:07.382Z</time></trkpt><trkpt lat="45.9164231" lon="8.4235717"><ele>285.0</ele><time>2026-04-03T13:32:08.382Z</time></trkpt><trkpt lat="45.9164908" lon="8.4236449"><ele>285.0</ele><time>2026-04-03T13:32:09.384Z</time></trkpt><trkpt lat="45.9165818" lon="8.4236822"><ele>285.0</ele><time>2026-04-03T13:32:10.379Z</time></trkpt><trkpt lat="45.9166822" lon="8.4237246"><ele>285.0</ele><time>2026-04-03T13:32:11.382Z</time></trkpt><trkpt lat="45.9167776" lon="8.4237678"><ele>285.0</ele><time>2026-04-03T13:32:12.381Z</time></trkpt><trkpt lat="45.9168675" lon="8.4238236"><ele>284.2</ele><time>2026-04-03T13:32:13.381Z</time></trkpt><trkpt lat="45.9169528" lon="8.4238894"><ele>283.4</ele><time>2026-04-03T13:32:14.377Z</time></trkpt><trkpt lat="45.9170345" lon="8.4239749"><ele>282.6</ele><time>2026-04-03T13:32:15.379Z</time></trkpt><trkpt lat="45.9170968" lon="8.4240814"><ele>281.8</ele><time>2026-04-03T13:32:16.378Z</time></trkpt><trkpt lat="45.9171328" lon="8.4242199"><ele>281.0</ele><time>2026-04-03T13:32:17.375Z</time></trkpt><trkpt lat="45.9171529" lon="8.4243776"><ele>281.0</ele><time>2026-04-03T13:32:18.377Z</time></trkpt><trkpt lat="45.9171821" lon="8.4245356"><ele>281.0</ele><time>2026-04-03T13:32:19.38Z</time></trkpt><trkpt lat="45.9172212" lon="8.4246858"><ele>281.0</ele><time>2026-04-03T13:32:20.382Z</time></trkpt><trkpt lat="45.9172903" lon="8.4248051"><ele>281.0</ele><time>2026-04-03T13:32:21.383Z</time></trkpt><trkpt lat="45.9173798" lon="8.4248756"><ele>281.0</ele><time>2026-04-03T13:32:22.379Z</time></trkpt><trkpt lat="45.9175048" lon="8.4249121"><ele>278.0</ele><time>2026-04-03T13:32:23.376Z</time></trkpt><trkpt lat="45.917617" lon="8.4249723"><ele>275.0</ele><time>2026-04-03T13:32:24.375Z</time></trkpt><trkpt lat="45.9177232" lon="8.4250565"><ele>272.0</ele><time>2026-04-03T13:32:25.378Z</time></trkpt><trkpt lat="45.9178269" lon="8.4251548"><ele>269.0</ele><time>2026-04-03T13:32:26.378Z</time></trkpt><trkpt lat="45.9179297" lon="8.4252706"><ele>269.0</ele><time>2026-04-03T13:32:27.376Z</time></trkpt><trkpt lat="45.9180379" lon="8.4253773"><ele>269.0</ele><time>2026-04-03T13:32:28.377Z</time></trkpt><trkpt lat="45.9181412" lon="8.4254993"><ele>269.0</ele><time>2026-04-03T13:32:29.38Z</time></trkpt><trkpt lat="45.9182439" lon="8.4256288"><ele>269.0</ele><time>2026-04-03T13:32:30.383Z</time></trkpt><trkpt lat="45.9183498" lon="8.4258016"><ele>267.33333333333337</ele><time>2026-04-03T13:32:31.379Z</time></trkpt><trkpt lat="45.9184755" lon="8.4260771"><ele>265.6666666666667</ele><time>2026-04-03T13:32:32.377Z</time></trkpt><trkpt lat="45.918577" lon="8.4263537"><ele>264.0</ele><time>2026-04-03T13:32:33.388Z</time></trkpt><trkpt lat="45.9186819" lon="8.4265943"><ele>261.25</ele><time>2026-04-03T13:32:34.376Z</time></trkpt><trkpt lat="45.9187826" lon="8.4267944"><ele>258.5</ele><time>2026-04-03T13:32:35.377Z</time></trkpt><trkpt lat="45.9188715" lon="8.4269558"><ele>255.75</ele><time>2026-04-03T13:32:36.394Z</time></trkpt><trkpt lat="45.9189429" lon="8.4270907"><ele>253.0</ele><time>2026-04-03T13:32:37.383Z</time></trkpt><trkpt lat="45.9190034" lon="8.4272176"><ele>251.2</ele><time>2026-04-03T13:32:38.383Z</time></trkpt><trkpt lat="45.9190639" lon="8.4273322"><ele>249.4</ele><time>2026-04-03T13:32:40.382Z</time></trkpt><trkpt lat="45.9190688" lon="8.4274425"><ele>247.59999999999997</ele><time>2026-04-03T13:32:49.388Z</time></trkpt><trkpt lat="45.9190712" lon="8.4276072"><ele>245.79999999999998</ele><time>2026-04-03T13:32:51.386Z</time></trkpt><trkpt lat="45.9191786" lon="8.427643"><ele>244.0</ele><time>2026-04-03T13:32:53.388Z</time></trkpt><trkpt lat="45.9192685" lon="8.4276536"><ele>243.5</ele><time>2026-04-03T13:32:54.38Z</time></trkpt><trkpt lat="45.9193697" lon="8.427683"><ele>243.0</ele><time>2026-04-03T13:32:55.384Z</time></trkpt><trkpt lat="45.919496" lon="8.4277439"><ele>242.5</ele><time>2026-04-03T13:32:56.381Z</time></trkpt><trkpt lat="45.9196365" lon="8.4278306"><ele>242.0</ele><time>2026-04-03T13:32:57.382Z</time></trkpt><trkpt lat="45.9197856" lon="8.427922"><ele>240.33333333333334</ele><time>2026-04-03T13:32:58.384Z</time></trkpt><trkpt lat="45.9199541" lon="8.4280023"><ele>238.66666666666669</ele><time>2026-04-03T13:32:59.382Z</time></trkpt><trkpt lat="45.9201285" lon="8.4280851"><ele>237.0</ele><time>2026-04-03T13:33:00.387Z</time></trkpt><trkpt lat="45.9202946" lon="8.4281744"><ele>236.33333333333331</ele><time>2026-04-03T13:33:01.387Z</time></trkpt><trkpt lat="45.9204469" lon="8.4282515"><ele>235.66666666666666</ele><time>2026-04-03T13:33:02.385Z</time></trkpt><trkpt lat="45.9206073" lon="8.4283396"><ele>235.0</ele><time>2026-04-03T13:33:03.398Z</time></trkpt><trkpt lat="45.920771" lon="8.4284253"><ele>234.0</ele><time>2026-04-03T13:33:04.386Z</time></trkpt><trkpt lat="45.9209231" lon="8.4284989"><ele>233.0</ele><time>2026-04-03T13:33:05.387Z</time></trkpt><trkpt lat="45.9210732" lon="8.4285826"><ele>232.0</ele><time>2026-04-03T13:33:06.385Z</time></trkpt><trkpt lat="45.9212419" lon="8.4286693"><ele>232.0</ele><time>2026-04-03T13:33:07.395Z</time></trkpt><trkpt lat="45.9214139" lon="8.428762"><ele>232.0</ele><time>2026-04-03T13:33:08.383Z</time></trkpt><trkpt lat="45.9215786" lon="8.4288593"><ele>232.0</ele><time>2026-04-03T13:33:09.382Z</time></trkpt><trkpt lat="45.9217511" lon="8.4289485"><ele>230.0</ele><time>2026-04-03T13:33:10.38Z</time></trkpt><trkpt lat="45.9219225" lon="8.4290469"><ele>228.0</ele><time>2026-04-03T13:33:11.383Z</time></trkpt><trkpt lat="45.9220846" lon="8.4291381"><ele>226.0</ele><time>2026-04-03T13:33:12.386Z</time></trkpt><trkpt lat="45.9222342" lon="8.4292272"><ele>226.0</ele><time>2026-04-03T13:33:13.385Z</time></trkpt><trkpt lat="45.9223772" lon="8.4293188"><ele>226.0</ele><time>2026-04-03T13:33:14.385Z</time></trkpt><trkpt lat="45.9225312" lon="8.4293968"><ele>226.0</ele><time>2026-04-03T13:33:15.386Z</time></trkpt><trkpt lat="45.9226786" lon="8.4294615"><ele>225.0</ele><time>2026-04-03T13:33:16.385Z</time></trkpt><trkpt lat="45.9228238" lon="8.4295293"><ele>224.0</ele><time>2026-04-03T13:33:17.388Z</time></trkpt><trkpt lat="45.922956" lon="8.4295926"><ele>223.0</ele><time>2026-04-03T13:33:18.387Z</time></trkpt><trkpt lat="45.9230809" lon="8.4296624"><ele>222.0</ele><time>2026-04-03T13:33:19.384Z</time></trkpt><trkpt lat="45.9232107" lon="8.4297287"><ele>221.5</ele><time>2026-04-03T13:33:20.385Z</time></trkpt><trkpt lat="45.9233442" lon="8.4297911"><ele>221.0</ele><time>2026-04-03T13:33:21.387Z</time></trkpt><trkpt lat="45.9234696" lon="8.4298713"><ele>220.5</ele><time>2026-04-03T13:33:22.385Z</time></trkpt><trkpt lat="45.9235922" lon="8.4299394"><ele>220.0</ele><time>2026-04-03T13:33:23.386Z</time></trkpt><trkpt lat="45.923696" lon="8.4299933"><ele>220.0</ele><time>2026-04-03T13:33:24.381Z</time></trkpt><trkpt lat="45.9237759" lon="8.4300332"><ele>220.0</ele><time>2026-04-03T13:33:25.385Z</time></trkpt><trkpt lat="45.9238738" lon="8.4301219"><ele>220.0</ele><time>2026-04-03T13:33:27.377Z</time></trkpt><trkpt lat="45.9239721" lon="8.4301756"><ele>220.0</ele><time>2026-04-03T13:33:29.378Z</time></trkpt><trkpt lat="45.9240712" lon="8.4302313"><ele>220.0</ele><time>2026-04-03T13:33:31.387Z</time></trkpt><trkpt lat="45.9241735" lon="8.4302908"><ele>219.49999999999997</ele><time>2026-04-03T13:33:33.397Z</time></trkpt><trkpt lat="45.9242935" lon="8.4303335"><ele>219.0</ele><time>2026-04-03T13:33:35.382Z</time></trkpt><trkpt lat="45.9243595" lon="8.4303683"><ele>218.5</ele><time>2026-04-03T13:33:36.381Z</time></trkpt><trkpt lat="45.924429" lon="8.430402"><ele>218.0</ele><time>2026-04-03T13:33:37.383Z</time></trkpt><trkpt lat="45.9245037" lon="8.4304394"><ele>217.49999999999997</ele><time>2026-04-03T13:33:38.392Z</time></trkpt><trkpt lat="45.9245881" lon="8.430483"><ele>217.0</ele><time>2026-04-03T13:33:39.382Z</time></trkpt><trkpt lat="45.9246811" lon="8.4305368"><ele>217.0</ele><time>2026-04-03T13:33:40.383Z</time></trkpt><trkpt lat="45.9247744" lon="8.4305882"><ele>217.0</ele><time>2026-04-03T13:33:41.381Z</time></trkpt><trkpt lat="45.9248737" lon="8.4306412"><ele>217.0</ele><time>2026-04-03T13:33:42.381Z</time></trkpt><trkpt lat="45.9249702" lon="8.4306916"><ele>217.0</ele><time>2026-04-03T13:33:43.381Z</time></trkpt><trkpt lat="45.9250581" lon="8.4307429"><ele>217.0</ele><time>2026-04-03T13:33:44.378Z</time></trkpt><trkpt lat="45.9251443" lon="8.4307909"><ele>216.49999999999997</ele><time>2026-04-03T13:33:45.381Z</time></trkpt><trkpt lat="45.9252287" lon="8.4308423"><ele>216.0</ele><time>2026-04-03T13:33:46.381Z</time></trkpt><trkpt lat="45.9253113" lon="8.4308933"><ele>215.5</ele><time>2026-04-03T13:33:47.387Z</time></trkpt><trkpt lat="45.9253867" lon="8.4309344"><ele>215.0</ele><time>2026-04-03T13:33:48.384Z</time></trkpt><trkpt lat="45.9254607" lon="8.430971"><ele>214.49999999999997</ele><time>2026-04-03T13:33:49.386Z</time></trkpt><trkpt lat="45.9255289" lon="8.4310058"><ele>214.0</ele><time>2026-04-03T13:33:50.386Z</time></trkpt><trkpt lat="45.925589" lon="8.4310349"><ele>213.99999999999997</ele><time>2026-04-03T13:33:51.387Z</time></trkpt><trkpt lat="45.9256988" lon="8.4310903"><ele>214.0</ele><time>2026-04-03T13:33:53.383Z</time></trkpt><trkpt lat="45.9257579" lon="8.4311217"><ele>214.0</ele><time>2026-04-03T13:33:54.388Z</time></trkpt><trkpt lat="45.9258215" lon="8.4311571"><ele>214.0</ele><time>2026-04-03T13:33:55.384Z</time></trkpt><trkpt lat="45.925887" lon="8.431194"><ele>213.99999999999997</ele><time>2026-04-03T13:33:56.385Z</time></trkpt><trkpt lat="45.9259527" lon="8.4312274"><ele>214.0</ele><time>2026-04-03T13:33:57.383Z</time></trkpt><trkpt lat="45.9260205" lon="8.4312576"><ele>214.0</ele><time>2026-04-03T13:33:58.388Z</time></trkpt><trkpt lat="45.9261199" lon="8.4312963"><ele>213.99999999999997</ele><time>2026-04-03T13:34:00.385Z</time></trkpt><trkpt lat="45.9261837" lon="8.4313106"><ele>213.99999999999997</ele><time>2026-04-03T13:34:03.401Z</time></trkpt><trkpt lat="45.9262622" lon="8.4313635"><ele>214.0</ele><time>2026-04-03T13:34:05.39Z</time></trkpt><trkpt lat="45.9263799" lon="8.4314313"><ele>214.0</ele><time>2026-04-03T13:34:07.385Z</time></trkpt><trkpt lat="45.9264547" lon="8.4314662"><ele>213.75</ele><time>2026-04-03T13:34:08.378Z</time></trkpt><trkpt lat="45.9265435" lon="8.431515"><ele>213.5</ele><time>2026-04-03T13:34:09.397Z</time></trkpt><trkpt lat="45.9266445" lon="8.4315744"><ele>213.25</ele><time>2026-04-03T13:34:10.377Z</time></trkpt><trkpt lat="45.9267579" lon="8.4316366"><ele>213.0</ele><time>2026-04-03T13:34:11.376Z</time></trkpt><trkpt lat="45.9268792" lon="8.4317002"><ele>213.0</ele><time>2026-04-03T13:34:12.378Z</time></trkpt><trkpt lat="45.9270011" lon="8.4317706"><ele>213.0</ele><time>2026-04-03T13:34:13.378Z</time></trkpt><trkpt lat="45.9271161" lon="8.431837"><ele>213.0</ele><time>2026-04-03T13:34:14.378Z</time></trkpt><trkpt lat="45.9272165" lon="8.4318973"><ele>213.0</ele><time>2026-04-03T13:34:15.374Z</time></trkpt><trkpt lat="45.9273005" lon="8.4319365"><ele>213.0</ele><time>2026-04-03T13:34:16.374Z</time></trkpt><trkpt lat="45.9273775" lon="8.4319471"><ele>213.0</ele><time>2026-04-03T13:34:18.372Z</time></trkpt><trkpt lat="45.9274576" lon="8.4320097"><ele>213.0</ele><time>2026-04-03T13:34:23.382Z</time></trkpt><trkpt lat="45.9275351" lon="8.4320721"><ele>213.0</ele><time>2026-04-03T13:34:25.38Z</time></trkpt><trkpt lat="45.9276514" lon="8.4321536"><ele>213.0</ele><time>2026-04-03T13:34:27.378Z</time></trkpt><trkpt lat="45.9277311" lon="8.4321931"><ele>213.16666666666666</ele><time>2026-04-03T13:34:28.378Z</time></trkpt><trkpt lat="45.9278118" lon="8.4322422"><ele>213.33333333333331</ele><time>2026-04-03T13:34:29.378Z</time></trkpt><trkpt lat="45.9278768" lon="8.4322766"><ele>213.5</ele><time>2026-04-03T13:34:30.374Z</time></trkpt><trkpt lat="45.9279427" lon="8.432305"><ele>213.66666666666666</ele><time>2026-04-03T13:34:31.382Z</time></trkpt><trkpt lat="45.9280369" lon="8.4323353"><ele>213.83333333333331</ele><time>2026-04-03T13:34:33.397Z</time></trkpt><trkpt lat="45.9281477" lon="8.4323841"><ele>214.0</ele><time>2026-04-03T13:34:35.381Z</time></trkpt><trkpt lat="45.9282569" lon="8.4324995"><ele>213.99999999999997</ele><time>2026-04-03T13:34:37.387Z</time></trkpt><trkpt lat="45.9283165" lon="8.4325802"><ele>214.0</ele><time>2026-04-03T13:34:38.385Z</time></trkpt><trkpt lat="45.9283911" lon="8.4326405"><ele>214.0</ele><time>2026-04-03T13:34:39.387Z</time></trkpt><trkpt lat="45.9284713" lon="8.4326783"><ele>214.0</ele><time>2026-04-03T13:34:40.391Z</time></trkpt><trkpt lat="45.9285476" lon="8.4327003"><ele>213.99999999999997</ele><time>2026-04-03T13:34:41.384Z</time></trkpt><trkpt lat="45.9286207" lon="8.4327385"><ele>214.0</ele><time>2026-04-03T13:34:42.383Z</time></trkpt><trkpt lat="45.9286954" lon="8.4327823"><ele>213.99999999999997</ele><time>2026-04-03T13:34:43.385Z</time></trkpt><trkpt lat="45.9287672" lon="8.4328338"><ele>214.0</ele><time>2026-04-03T13:34:44.386Z</time></trkpt><trkpt lat="45.9288402" lon="8.4328891"><ele>214.0</ele><time>2026-04-03T13:34:45.385Z</time></trkpt><trkpt lat="45.9289146" lon="8.4329471"><ele>214.0</ele><time>2026-04-03T13:34:46.376Z</time></trkpt><trkpt lat="45.9289843" lon="8.4329981"><ele>213.99999999999997</ele><time>2026-04-03T13:34:47.382Z</time></trkpt><trkpt lat="45.9290508" lon="8.4330497"><ele>214.0</ele><time>2026-04-03T13:34:48.379Z</time></trkpt><trkpt lat="45.929112" lon="8.4331104"><ele>214.16666666666666</ele><time>2026-04-03T13:34:49.379Z</time></trkpt><trkpt lat="45.9291727" lon="8.4331816"><ele>214.33333333333331</ele><time>2026-04-03T13:34:50.382Z</time></trkpt><trkpt lat="45.9292318" lon="8.4332553"><ele>214.5</ele><time>2026-04-03T13:34:51.379Z</time></trkpt><trkpt lat="45.9292916" lon="8.4333316"><ele>214.66666666666669</ele><time>2026-04-03T13:34:52.384Z</time></trkpt><trkpt lat="45.9293437" lon="8.4334089"><ele>214.83333333333334</ele><time>2026-04-03T13:34:53.384Z</time></trkpt><trkpt lat="45.9293944" lon="8.4334887"><ele>215.0</ele><time>2026-04-03T13:34:54.388Z</time></trkpt><trkpt lat="45.9294441" lon="8.4335623"><ele>214.33333333333334</ele><time>2026-04-03T13:34:55.383Z</time></trkpt><trkpt lat="45.929491" lon="8.433631"><ele>213.66666666666669</ele><time>2026-04-03T13:34:56.382Z</time></trkpt><trkpt lat="45.929574" lon="8.4337409"><ele>213.0</ele><time>2026-04-03T13:34:58.39Z</time></trkpt><trkpt lat="45.9296279" lon="8.4337954"><ele>212.33333333333331</ele><time>2026-04-03T13:35:00.385Z</time></trkpt><trkpt lat="45.9296896" lon="8.4339055"><ele>211.66666666666666</ele><time>2026-04-03T13:35:04.386Z</time></trkpt><trkpt lat="45.9297293" lon="8.4339784"><ele>211.0</ele><time>2026-04-03T13:35:05.381Z</time></trkpt><trkpt lat="45.9297773" lon="8.4340456"><ele>211.0</ele><time>2026-04-03T13:35:06.381Z</time></trkpt><trkpt lat="45.9298428" lon="8.4341419"><ele>211.0</ele><time>2026-04-03T13:35:08.385Z</time></trkpt><trkpt lat="45.9298985" lon="8.4342422"><ele>211.0</ele><time>2026-04-03T13:35:11.402Z</time></trkpt><trkpt lat="45.9299413" lon="8.4343515"><ele>211.0</ele><time>2026-04-03T13:35:13.39Z</time></trkpt><trkpt lat="45.9299645" lon="8.4344874"><ele>211.0</ele><time>2026-04-03T13:35:15.395Z</time></trkpt><trkpt lat="45.9299869" lon="8.4346205"><ele>211.0</ele><time>2026-04-03T13:35:17.392Z</time></trkpt><trkpt lat="45.9300564" lon="8.4347012"><ele>211.0</ele><time>2026-04-03T13:35:19.392Z</time></trkpt><trkpt lat="45.9301727" lon="8.4347958"><ele>211.0</ele><time>2026-04-03T13:35:21.382Z</time></trkpt><trkpt lat="45.9302563" lon="8.434856"><ele>211.0</ele><time>2026-04-03T13:35:22.385Z</time></trkpt><trkpt lat="45.9303366" lon="8.4349298"><ele>211.0</ele><time>2026-04-03T13:35:23.389Z</time></trkpt><trkpt lat="45.9304099" lon="8.4350103"><ele>210.66666666666666</ele><time>2026-04-03T13:35:24.386Z</time></trkpt><trkpt lat="45.9304759" lon="8.4350933"><ele>210.33333333333331</ele><time>2026-04-03T13:35:25.39Z</time></trkpt><trkpt lat="45.9305358" lon="8.4351876"><ele>210.0</ele><time>2026-04-03T13:35:26.394Z</time></trkpt><trkpt lat="45.9305941" lon="8.4352737"><ele>209.66666666666669</ele><time>2026-04-03T13:35:27.375Z</time></trkpt><trkpt lat="45.9306506" lon="8.4353609"><ele>209.33333333333334</ele><time>2026-04-03T13:35:28.389Z</time></trkpt><trkpt lat="45.9307073" lon="8.4354406"><ele>209.0</ele><time>2026-04-03T13:35:29.386Z</time></trkpt><trkpt lat="45.9307646" lon="8.4355167"><ele>208.83333333333334</ele><time>2026-04-03T13:35:30.383Z</time></trkpt><trkpt lat="45.9308179" lon="8.4355956"><ele>208.66666666666669</ele><time>2026-04-03T13:35:31.383Z</time></trkpt><trkpt lat="45.9308769" lon="8.4356723"><ele>208.5</ele><time>2026-04-03T13:35:32.383Z</time></trkpt><trkpt lat="45.9309346" lon="8.4357544"><ele>208.33333333333331</ele><time>2026-04-03T13:35:33.392Z</time></trkpt><trkpt lat="45.9309871" lon="8.4358378"><ele>208.16666666666666</ele><time>2026-04-03T13:35:34.387Z</time></trkpt><trkpt lat="45.9310435" lon="8.4359239"><ele>208.0</ele><time>2026-04-03T13:35:35.388Z</time></trkpt><trkpt lat="45.9310976" lon="8.4360151"><ele>207.99999999999997</ele><time>2026-04-03T13:35:36.391Z</time></trkpt><trkpt lat="45.9311427" lon="8.4361113"><ele>208.0</ele><time>2026-04-03T13:35:37.391Z</time></trkpt><trkpt lat="45.9311799" lon="8.4362027"><ele>208.0</ele><time>2026-04-03T13:35:38.386Z</time></trkpt><trkpt lat="45.9312048" lon="8.4362948"><ele>208.0</ele><time>2026-04-03T13:35:39.393Z</time></trkpt><trkpt lat="45.9312064" lon="8.4364154"><ele>207.99999999999997</ele><time>2026-04-03T13:35:41.388Z</time></trkpt><trkpt lat="45.931184" lon="8.4366132"><ele>208.0</ele><time>2026-04-03T13:35:43.391Z</time></trkpt><trkpt lat="45.9311614" lon="8.4367527"><ele>207.83333333333331</ele><time>2026-04-03T13:35:44.395Z</time></trkpt><trkpt lat="45.9311612" lon="8.4368804"><ele>207.66666666666666</ele><time>2026-04-03T13:35:45.395Z</time></trkpt><trkpt lat="45.9311935" lon="8.436977"><ele>207.5</ele><time>2026-04-03T13:35:46.394Z</time></trkpt><trkpt lat="45.9312559" lon="8.437029"><ele>207.33333333333331</ele><time>2026-04-03T13:35:47.397Z</time></trkpt><trkpt lat="45.9313398" lon="8.437041"><ele>207.16666666666666</ele><time>2026-04-03T13:35:48.388Z</time></trkpt><trkpt lat="45.9314333" lon="8.4370341"><ele>207.0</ele><time>2026-04-03T13:35:49.385Z</time></trkpt><trkpt lat="45.931535" lon="8.437044"><ele>207.0</ele><time>2026-04-03T13:35:50.388Z</time></trkpt><trkpt lat="45.931648" lon="8.4370908"><ele>207.0</ele><time>2026-04-03T13:35:51.388Z</time></trkpt><trkpt lat="45.9317673" lon="8.4371816"><ele>207.0</ele><time>2026-04-03T13:35:52.386Z</time></trkpt><trkpt lat="45.9318923" lon="8.4373236"><ele>207.0</ele><time>2026-04-03T13:35:53.383Z</time></trkpt><trkpt lat="45.9320198" lon="8.4374992"><ele>206.33333333333331</ele><time>2026-04-03T13:35:54.383Z</time></trkpt><trkpt lat="45.9321325" lon="8.4376807"><ele>205.66666666666666</ele><time>2026-04-03T13:35:55.384Z</time></trkpt><trkpt lat="45.9322544" lon="8.4378677"><ele>205.0</ele><time>2026-04-03T13:35:56.386Z</time></trkpt><trkpt lat="45.9323803" lon="8.4380319"><ele>204.66666666666666</ele><time>2026-04-03T13:35:57.384Z</time></trkpt><trkpt lat="45.9325072" lon="8.4381874"><ele>204.33333333333331</ele><time>2026-04-03T13:35:58.388Z</time></trkpt><trkpt lat="45.9326314" lon="8.4383404"><ele>204.0</ele><time>2026-04-03T13:35:59.383Z</time></trkpt><trkpt lat="45.9327469" lon="8.4385036"><ele>203.66666666666669</ele><time>2026-04-03T13:36:00.387Z</time></trkpt><trkpt lat="45.9328585" lon="8.4386649"><ele>203.33333333333334</ele><time>2026-04-03T13:36:01.388Z</time></trkpt><trkpt lat="45.9329627" lon="8.4388296"><ele>203.0</ele><time>2026-04-03T13:36:02.386Z</time></trkpt><trkpt lat="45.9330674" lon="8.4389982"><ele>203.0</ele><time>2026-04-03T13:36:03.398Z</time></trkpt><trkpt lat="45.9331765" lon="8.439151"><ele>203.0</ele><time>2026-04-03T13:36:04.386Z</time></trkpt><trkpt lat="45.9332904" lon="8.4393142"><ele>203.0</ele><time>2026-04-03T13:36:05.386Z</time></trkpt><trkpt lat="45.9334041" lon="8.4394722"><ele>203.33333333333334</ele><time>2026-04-03T13:36:06.389Z</time></trkpt><trkpt lat="45.9335147" lon="8.4396375"><ele>203.66666666666669</ele><time>2026-04-03T13:36:07.389Z</time></trkpt><trkpt lat="45.9336294" lon="8.4397976"><ele>204.0</ele><time>2026-04-03T13:36:08.388Z</time></trkpt><trkpt lat="45.9337404" lon="8.4399607"><ele>204.0</ele><time>2026-04-03T13:36:09.385Z</time></trkpt><trkpt lat="45.9338553" lon="8.4401267"><ele>204.0</ele><time>2026-04-03T13:36:10.386Z</time></trkpt><trkpt lat="45.9339765" lon="8.4403032"><ele>204.0</ele><time>2026-04-03T13:36:11.384Z</time></trkpt><trkpt lat="45.9340935" lon="8.440478"><ele>204.0</ele><time>2026-04-03T13:36:12.395Z</time></trkpt><trkpt lat="45.934211" lon="8.4406465"><ele>204.0</ele><time>2026-04-03T13:36:13.385Z</time></trkpt><trkpt lat="45.9343257" lon="8.440818"><ele>204.0</ele><time>2026-04-03T13:36:14.389Z</time></trkpt><trkpt lat="45.9344406" lon="8.4409937"><ele>203.66666666666669</ele><time>2026-04-03T13:36:15.386Z</time></trkpt><trkpt lat="45.9345532" lon="8.4411601"><ele>203.33333333333334</ele><time>2026-04-03T13:36:16.385Z</time></trkpt><trkpt lat="45.9346603" lon="8.4413252"><ele>203.0</ele><time>2026-04-03T13:36:17.385Z</time></trkpt><trkpt lat="45.9347658" lon="8.4414948"><ele>203.0</ele><time>2026-04-03T13:36:18.385Z</time></trkpt><trkpt lat="45.9348675" lon="8.4416618"><ele>203.0</ele><time>2026-04-03T13:36:19.384Z</time></trkpt><trkpt lat="45.9349748" lon="8.4418222"><ele>203.0</ele><time>2026-04-03T13:36:20.383Z</time></trkpt><trkpt lat="45.9350821" lon="8.4419773"><ele>201.33333333333334</ele><time>2026-04-03T13:36:21.387Z</time></trkpt><trkpt lat="45.9351827" lon="8.442137"><ele>199.66666666666669</ele><time>2026-04-03T13:36:22.39Z</time></trkpt><trkpt lat="45.9352786" lon="8.442302"><ele>198.0</ele><time>2026-04-03T13:36:23.39Z</time></trkpt><trkpt lat="45.9353808" lon="8.4424722"><ele>198.0</ele><time>2026-04-03T13:36:24.384Z</time></trkpt><trkpt lat="45.9354773" lon="8.4426636"><ele>198.0</ele><time>2026-04-03T13:36:25.388Z</time></trkpt><trkpt lat="45.935591" lon="8.442867"><ele>198.0</ele><time>2026-04-03T13:36:26.388Z</time></trkpt><trkpt lat="45.9357002" lon="8.4430944"><ele>198.0</ele><time>2026-04-03T13:36:27.39Z</time></trkpt><trkpt lat="45.9358202" lon="8.4433355"><ele>198.0</ele><time>2026-04-03T13:36:28.389Z</time></trkpt><trkpt lat="45.9359263" lon="8.44358"><ele>198.0</ele><time>2026-04-03T13:36:29.389Z</time></trkpt><trkpt lat="45.9360241" lon="8.443831"><ele>199.33333333333331</ele><time>2026-04-03T13:36:30.387Z</time></trkpt><trkpt lat="45.9361208" lon="8.4440795"><ele>200.66666666666666</ele><time>2026-04-03T13:36:31.392Z</time></trkpt><trkpt lat="45.9362088" lon="8.4443432"><ele>202.0</ele><time>2026-04-03T13:36:32.386Z</time></trkpt><trkpt lat="45.9362905" lon="8.4446127"><ele>202.0</ele><time>2026-04-03T13:36:33.395Z</time></trkpt><trkpt lat="45.9363679" lon="8.4448866"><ele>202.0</ele><time>2026-04-03T13:36:34.383Z</time></trkpt><trkpt lat="45.9364365" lon="8.4451502"><ele>202.0</ele><time>2026-04-03T13:36:35.386Z</time></trkpt><trkpt lat="45.9365021" lon="8.445416"><ele>201.33333333333331</ele><time>2026-04-03T13:36:36.384Z</time></trkpt><trkpt lat="45.9365659" lon="8.4456886"><ele>200.66666666666669</ele><time>2026-04-03T13:36:37.384Z</time></trkpt><trkpt lat="45.9366238" lon="8.4459539"><ele>200.0</ele><time>2026-04-03T13:36:38.385Z</time></trkpt><trkpt lat="45.9366771" lon="8.4462147"><ele>203.0</ele><time>2026-04-03T13:36:39.385Z</time></trkpt><trkpt lat="45.9367314" lon="8.4464926"><ele>206.0</ele><time>2026-04-03T13:36:40.385Z</time></trkpt><trkpt lat="45.9367717" lon="8.4467813"><ele>209.0</ele><time>2026-04-03T13:36:41.383Z</time></trkpt><trkpt lat="45.9368085" lon="8.4470697"><ele>208.0</ele><time>2026-04-03T13:36:42.384Z</time></trkpt><trkpt lat="45.936839" lon="8.4473587"><ele>207.0</ele><time>2026-04-03T13:36:43.398Z</time></trkpt><trkpt lat="45.9368643" lon="8.447649"><ele>206.0</ele><time>2026-04-03T13:36:44.383Z</time></trkpt><trkpt lat="45.9368861" lon="8.4479361"><ele>209.0</ele><time>2026-04-03T13:36:45.39Z</time></trkpt><trkpt lat="45.9369025" lon="8.4482135"><ele>212.0</ele><time>2026-04-03T13:36:46.387Z</time></trkpt><trkpt lat="45.9369143" lon="8.4484921"><ele>215.0</ele><time>2026-04-03T13:36:47.39Z</time></trkpt><trkpt lat="45.9369241" lon="8.4487615"><ele>215.0</ele><time>2026-04-03T13:36:48.387Z</time></trkpt><trkpt lat="45.9369288" lon="8.4490276"><ele>215.0</ele><time>2026-04-03T13:36:49.386Z</time></trkpt><trkpt lat="45.9369288" lon="8.4493015"><ele>215.0</ele><time>2026-04-03T13:36:50.387Z</time></trkpt><trkpt lat="45.9369231" lon="8.449574"><ele>214.33333333333334</ele><time>2026-04-03T13:36:51.388Z</time></trkpt><trkpt lat="45.936919" lon="8.4498578"><ele>213.66666666666669</ele><time>2026-04-03T13:36:52.388Z</time></trkpt><trkpt lat="45.9369185" lon="8.450134"><ele>213.0</ele><time>2026-04-03T13:36:53.389Z</time></trkpt><trkpt lat="45.9369259" lon="8.450419"><ele>213.66666666666669</ele><time>2026-04-03T13:36:54.388Z</time></trkpt><trkpt lat="45.9369371" lon="8.4507119"><ele>214.33333333333334</ele><time>2026-04-03T13:36:55.387Z</time></trkpt><trkpt lat="45.9369456" lon="8.4509925"><ele>215.0</ele><time>2026-04-03T13:36:56.388Z</time></trkpt><trkpt lat="45.936963" lon="8.4512745"><ele>216.0</ele><time>2026-04-03T13:36:57.387Z</time></trkpt><trkpt lat="45.9369911" lon="8.4515479"><ele>217.0</ele><time>2026-04-03T13:36:58.388Z</time></trkpt><trkpt lat="45.9370279" lon="8.4518217"><ele>218.0</ele><time>2026-04-03T13:36:59.386Z</time></trkpt><trkpt lat="45.9370712" lon="8.4520997"><ele>217.66666666666669</ele><time>2026-04-03T13:37:00.377Z</time></trkpt><trkpt lat="45.9371248" lon="8.45238"><ele>217.33333333333331</ele><time>2026-04-03T13:37:01.38Z</time></trkpt><trkpt lat="45.9371825" lon="8.4526535"><ele>217.0</ele><time>2026-04-03T13:37:02.378Z</time></trkpt><trkpt lat="45.9372394" lon="8.4529297"><ele>214.66666666666666</ele><time>2026-04-03T13:37:03.391Z</time></trkpt><trkpt lat="45.9372869" lon="8.4532112"><ele>212.33333333333331</ele><time>2026-04-03T13:37:04.378Z</time></trkpt><trkpt lat="45.9373369" lon="8.4534917"><ele>210.0</ele><time>2026-04-03T13:37:05.379Z</time></trkpt><trkpt lat="45.9373841" lon="8.4537688"><ele>207.0</ele><time>2026-04-03T13:37:06.379Z</time></trkpt><trkpt lat="45.9374318" lon="8.4540376"><ele>204.0</ele><time>2026-04-03T13:37:07.381Z</time></trkpt><trkpt lat="45.9374794" lon="8.4543086"><ele>201.0</ele><time>2026-04-03T13:37:08.379Z</time></trkpt><trkpt lat="45.9375259" lon="8.4545769"><ele>205.33333333333331</ele><time>2026-04-03T13:37:09.378Z</time></trkpt><trkpt lat="45.9375743" lon="8.4548476"><ele>209.66666666666666</ele><time>2026-04-03T13:37:10.379Z</time></trkpt><trkpt lat="45.937615" lon="8.4551196"><ele>214.0</ele><time>2026-04-03T13:37:11.377Z</time></trkpt><trkpt lat="45.9376579" lon="8.4553843"><ele>213.33333333333331</ele><time>2026-04-03T13:37:12.377Z</time></trkpt><trkpt lat="45.937707" lon="8.4556526"><ele>212.66666666666669</ele><time>2026-04-03T13:37:13.378Z</time></trkpt><trkpt lat="45.9377603" lon="8.4559284"><ele>212.0</ele><time>2026-04-03T13:37:14.387Z</time></trkpt><trkpt lat="45.937814" lon="8.4562023"><ele>210.0</ele><time>2026-04-03T13:37:15.375Z</time></trkpt><trkpt lat="45.937857" lon="8.456477"><ele>208.0</ele><time>2026-04-03T13:37:16.375Z</time></trkpt><trkpt lat="45.9379006" lon="8.4567427"><ele>206.0</ele><time>2026-04-03T13:37:17.374Z</time></trkpt><trkpt lat="45.9379537" lon="8.4570059"><ele>205.0</ele><time>2026-04-03T13:37:18.376Z</time></trkpt><trkpt lat="45.9380007" lon="8.4572824"><ele>204.0</ele><time>2026-04-03T13:37:19.378Z</time></trkpt><trkpt lat="45.9380462" lon="8.457553"><ele>203.0</ele><time>2026-04-03T13:37:20.377Z</time></trkpt><trkpt lat="45.9380944" lon="8.4578315"><ele>202.0</ele><time>2026-04-03T13:37:21.374Z</time></trkpt><trkpt lat="45.938137" lon="8.4581039"><ele>201.0</ele><time>2026-04-03T13:37:22.377Z</time></trkpt><trkpt lat="45.9381828" lon="8.4583735"><ele>200.0</ele><time>2026-04-03T13:37:23.378Z</time></trkpt><trkpt lat="45.938235" lon="8.4586475"><ele>200.0</ele><time>2026-04-03T13:37:24.377Z</time></trkpt><trkpt lat="45.9382908" lon="8.4589184"><ele>200.0</ele><time>2026-04-03T13:37:25.378Z</time></trkpt><trkpt lat="45.9383559" lon="8.4591876"><ele>200.0</ele><time>2026-04-03T13:37:26.375Z</time></trkpt><trkpt lat="45.9384306" lon="8.4594324"><ele>201.0</ele><time>2026-04-03T13:37:27.382Z</time></trkpt><trkpt lat="45.9385185" lon="8.4596839"><ele>202.0</ele><time>2026-04-03T13:37:28.383Z</time></trkpt><trkpt lat="45.9386106" lon="8.4599221"><ele>203.0</ele><time>2026-04-03T13:37:29.381Z</time></trkpt><trkpt lat="45.9387029" lon="8.4601672"><ele>203.0</ele><time>2026-04-03T13:37:30.38Z</time></trkpt><trkpt lat="45.9387937" lon="8.4604046"><ele>203.0</ele><time>2026-04-03T13:37:31.383Z</time></trkpt><trkpt lat="45.9388751" lon="8.4606428"><ele>203.0</ele><time>2026-04-03T13:37:32.378Z</time></trkpt><trkpt lat="45.938959" lon="8.4608769"><ele>203.0</ele><time>2026-04-03T13:37:33.389Z</time></trkpt><trkpt lat="45.9390394" lon="8.4611191"><ele>203.0</ele><time>2026-04-03T13:37:34.379Z</time></trkpt><trkpt lat="45.9391243" lon="8.4613607"><ele>203.0</ele><time>2026-04-03T13:37:35.384Z</time></trkpt><trkpt lat="45.9392128" lon="8.4616116"><ele>203.33333333333334</ele><time>2026-04-03T13:37:36.378Z</time></trkpt><trkpt lat="45.9393033" lon="8.4618584"><ele>203.66666666666669</ele><time>2026-04-03T13:37:37.378Z</time></trkpt><trkpt lat="45.9393894" lon="8.4621022"><ele>204.0</ele><time>2026-04-03T13:37:38.378Z</time></trkpt><trkpt lat="45.9394836" lon="8.462347"><ele>204.0</ele><time>2026-04-03T13:37:39.377Z</time></trkpt><trkpt lat="45.9395758" lon="8.4625908"><ele>204.0</ele><time>2026-04-03T13:37:40.379Z</time></trkpt><trkpt lat="45.9396574" lon="8.4628328"><ele>204.0</ele><time>2026-04-03T13:37:41.378Z</time></trkpt><trkpt lat="45.9397421" lon="8.4630735"><ele>204.0</ele><time>2026-04-03T13:37:42.378Z</time></trkpt><trkpt lat="45.9398262" lon="8.4633096"><ele>204.0</ele><time>2026-04-03T13:37:43.378Z</time></trkpt><trkpt lat="45.9399133" lon="8.4635518"><ele>204.0</ele><time>2026-04-03T13:37:44.379Z</time></trkpt><trkpt lat="45.9399948" lon="8.4637987"><ele>205.66666666666669</ele><time>2026-04-03T13:37:45.388Z</time></trkpt><trkpt lat="45.9400773" lon="8.4640483"><ele>207.33333333333334</ele><time>2026-04-03T13:37:46.38Z</time></trkpt><trkpt lat="45.9401631" lon="8.4642939"><ele>209.0</ele><time>2026-04-03T13:37:47.379Z</time></trkpt><trkpt lat="45.9402459" lon="8.464543"><ele>209.0</ele><time>2026-04-03T13:37:48.377Z</time></trkpt><trkpt lat="45.9403292" lon="8.4647874"><ele>209.0</ele><time>2026-04-03T13:37:49.381Z</time></trkpt><trkpt lat="45.9404067" lon="8.4650249"><ele>209.0</ele><time>2026-04-03T13:37:50.379Z</time></trkpt><trkpt lat="45.9404892" lon="8.4652514"><ele>207.66666666666669</ele><time>2026-04-03T13:37:51.373Z</time></trkpt><trkpt lat="45.9405705" lon="8.4654721"><ele>206.33333333333331</ele><time>2026-04-03T13:37:52.375Z</time></trkpt><trkpt lat="45.9406485" lon="8.4656809"><ele>205.0</ele><time>2026-04-03T13:37:53.375Z</time></trkpt><trkpt lat="45.9407282" lon="8.4658925"><ele>205.0</ele><time>2026-04-03T13:37:54.376Z</time></trkpt><trkpt lat="45.9408282" lon="8.4661367"><ele>205.0</ele><time>2026-04-03T13:37:55.373Z</time></trkpt><trkpt lat="45.9409194" lon="8.4663853"><ele>205.0</ele><time>2026-04-03T13:37:56.38Z</time></trkpt><trkpt lat="45.9410121" lon="8.4666251"><ele>204.33333333333331</ele><time>2026-04-03T13:37:57.377Z</time></trkpt><trkpt lat="45.9410959" lon="8.4668575"><ele>203.66666666666669</ele><time>2026-04-03T13:37:58.377Z</time></trkpt><trkpt lat="45.941179" lon="8.467077"><ele>203.0</ele><time>2026-04-03T13:37:59.377Z</time></trkpt><trkpt lat="45.9412642" lon="8.4672764"><ele>203.0</ele><time>2026-04-03T13:38:00.377Z</time></trkpt><trkpt lat="45.9413488" lon="8.4674519"><ele>203.0</ele><time>2026-04-03T13:38:01.379Z</time></trkpt><trkpt lat="45.9414322" lon="8.4676248"><ele>203.0</ele><time>2026-04-03T13:38:02.378Z</time></trkpt><trkpt lat="45.9415242" lon="8.4678282"><ele>201.66666666666669</ele><time>2026-04-03T13:38:03.386Z</time></trkpt><trkpt lat="45.9416331" lon="8.4680537"><ele>200.33333333333331</ele><time>2026-04-03T13:38:04.376Z</time></trkpt><trkpt lat="45.9417276" lon="8.4682709"><ele>199.0</ele><time>2026-04-03T13:38:05.378Z</time></trkpt><trkpt lat="45.9418176" lon="8.4684621"><ele>201.0</ele><time>2026-04-03T13:38:06.377Z</time></trkpt><trkpt lat="45.9418975" lon="8.4686398"><ele>203.0</ele><time>2026-04-03T13:38:07.375Z</time></trkpt><trkpt lat="45.9419955" lon="8.4688552"><ele>205.0</ele><time>2026-04-03T13:38:08.374Z</time></trkpt><trkpt lat="45.9421034" lon="8.4690876"><ele>205.0</ele><time>2026-04-03T13:38:09.378Z</time></trkpt><trkpt lat="45.9422023" lon="8.4693035"><ele>205.0</ele><time>2026-04-03T13:38:10.379Z</time></trkpt><trkpt lat="45.9422949" lon="8.4695057"><ele>205.0</ele><time>2026-04-03T13:38:11.379Z</time></trkpt><trkpt lat="45.9423767" lon="8.4696961"><ele>205.0</ele><time>2026-04-03T13:38:12.377Z</time></trkpt><trkpt lat="45.9424514" lon="8.469888"><ele>205.0</ele><time>2026-04-03T13:38:13.377Z</time></trkpt><trkpt lat="45.9425231" lon="8.4700835"><ele>205.0</ele><time>2026-04-03T13:38:14.376Z</time></trkpt><trkpt lat="45.9425898" lon="8.4702828"><ele>204.0</ele><time>2026-04-03T13:38:15.375Z</time></trkpt><trkpt lat="45.9426547" lon="8.4704735"><ele>203.0</ele><time>2026-04-03T13:38:16.389Z</time></trkpt><trkpt lat="45.9427004" lon="8.4706782"><ele>202.0</ele><time>2026-04-03T13:38:17.378Z</time></trkpt><trkpt lat="45.9427357" lon="8.4708853"><ele>201.0</ele><time>2026-04-03T13:38:18.377Z</time></trkpt><trkpt lat="45.9427657" lon="8.4711016"><ele>201.0</ele><time>2026-04-03T13:38:19.381Z</time></trkpt><trkpt lat="45.9427967" lon="8.4713027"><ele>201.0</ele><time>2026-04-03T13:38:20.378Z</time></trkpt><trkpt lat="45.9428262" lon="8.4714757"><ele>201.0</ele><time>2026-04-03T13:38:21.377Z</time></trkpt><trkpt lat="45.9428553" lon="8.4716361"><ele>201.0</ele><time>2026-04-03T13:38:22.38Z</time></trkpt><trkpt lat="45.9428757" lon="8.4717996"><ele>201.0</ele><time>2026-04-03T13:38:23.377Z</time></trkpt><trkpt lat="45.9428978" lon="8.4719617"><ele>201.0</ele><time>2026-04-03T13:38:24.378Z</time></trkpt><trkpt lat="45.9429221" lon="8.4721108"><ele>201.0</ele><time>2026-04-03T13:38:25.378Z</time></trkpt><trkpt lat="45.942948" lon="8.4722384"><ele>201.0</ele><time>2026-04-03T13:38:26.378Z</time></trkpt><trkpt lat="45.9429721" lon="8.4723515"><ele>201.0</ele><time>2026-04-03T13:38:27.379Z</time></trkpt><trkpt lat="45.9429945" lon="8.4724716"><ele>201.33333333333334</ele><time>2026-04-03T13:38:28.375Z</time></trkpt><trkpt lat="45.9430161" lon="8.4725732"><ele>201.66666666666669</ele><time>2026-04-03T13:38:29.366Z</time></trkpt><trkpt lat="45.9430462" lon="8.4726586"><ele>202.0</ele><time>2026-04-03T13:38:30.372Z</time></trkpt><trkpt lat="45.9430785" lon="8.472755"><ele>202.33333333333334</ele><time>2026-04-03T13:38:32.378Z</time></trkpt><trkpt lat="45.9430876" lon="8.4728789"><ele>202.66666666666669</ele><time>2026-04-03T13:38:35.392Z</time></trkpt><trkpt lat="45.9431081" lon="8.4729686"><ele>203.0</ele><time>2026-04-03T13:38:37.394Z</time></trkpt><trkpt lat="45.9431235" lon="8.4730871"><ele>202.2</ele><time>2026-04-03T13:38:39.391Z</time></trkpt><trkpt lat="45.9431255" lon="8.4732339"><ele>201.4</ele><time>2026-04-03T13:38:41.379Z</time></trkpt><trkpt lat="45.9430715" lon="8.473379"><ele>200.6</ele><time>2026-04-03T13:38:43.382Z</time></trkpt><trkpt lat="45.9429633" lon="8.4734491"><ele>199.79999999999998</ele><time>2026-04-03T13:38:45.38Z</time></trkpt><trkpt lat="45.9428864" lon="8.4735363"><ele>199.0</ele><time>2026-04-03T13:38:47.395Z</time></trkpt><trkpt lat="45.9429268" lon="8.4736328"><ele>198.99999999999997</ele><time>2026-04-03T13:38:50.389Z</time></trkpt><trkpt lat="45.9430105" lon="8.4736512"><ele>199.0</ele><time>2026-04-03T13:38:52.39Z</time></trkpt><trkpt lat="45.9430617" lon="8.4737276"><ele>199.0</ele><time>2026-04-03T13:38:55.393Z</time></trkpt><trkpt lat="45.9430027" lon="8.4736389"><ele>199.0</ele><time>2026-04-03T13:52:08.378Z</time></trkpt><trkpt lat="45.9429081" lon="8.4735667"><ele>198.99999999999997</ele><time>2026-04-03T13:52:10.374Z</time></trkpt><trkpt lat="45.9429013" lon="8.4734686"><ele>199.0</ele><time>2026-04-03T13:52:12.377Z</time></trkpt><trkpt lat="45.9429859" lon="8.4734645"><ele>199.0</ele><time>2026-04-03T13:52:15.365Z</time></trkpt><trkpt lat="45.9430765" lon="8.4735501"><ele>199.0</ele><time>2026-04-03T13:52:17.37Z</time></trkpt><trkpt lat="45.9431207" lon="8.4736228"><ele>199.0</ele><time>2026-04-03T13:52:18.361Z</time></trkpt><trkpt lat="45.9431635" lon="8.4737236"><ele>199.0</ele><time>2026-04-03T13:52:19.364Z</time></trkpt><trkpt lat="45.9432016" lon="8.4738553"><ele>199.0</ele><time>2026-04-03T13:52:20.366Z</time></trkpt><trkpt lat="45.9432405" lon="8.4740224"><ele>198.5</ele><time>2026-04-03T13:52:21.364Z</time></trkpt><trkpt lat="45.9432786" lon="8.4741939"><ele>198.0</ele><time>2026-04-03T13:52:22.368Z</time></trkpt><trkpt lat="45.9433129" lon="8.474361"><ele>197.5</ele><time>2026-04-03T13:52:23.366Z</time></trkpt><trkpt lat="45.9433454" lon="8.4745303"><ele>197.0</ele><time>2026-04-03T13:52:24.369Z</time></trkpt><trkpt lat="45.9433776" lon="8.4746941"><ele>196.8</ele><time>2026-04-03T13:52:25.369Z</time></trkpt><trkpt lat="45.9434087" lon="8.4748521"><ele>196.6</ele><time>2026-04-03T13:52:26.368Z</time></trkpt><trkpt lat="45.9434341" lon="8.4750023"><ele>196.4</ele><time>2026-04-03T13:52:27.368Z</time></trkpt><trkpt lat="45.9434573" lon="8.4751469"><ele>196.20000000000002</ele><time>2026-04-03T13:52:28.372Z</time></trkpt><trkpt lat="45.9434829" lon="8.4752852"><ele>196.0</ele><time>2026-04-03T13:52:29.368Z</time></trkpt><trkpt lat="45.9435115" lon="8.4754328"><ele>196.5</ele><time>2026-04-03T13:52:30.368Z</time></trkpt><trkpt lat="45.9435374" lon="8.4755903"><ele>197.0</ele><time>2026-04-03T13:52:31.372Z</time></trkpt><trkpt lat="45.9435669" lon="8.4757549"><ele>197.5</ele><time>2026-04-03T13:52:32.367Z</time></trkpt><trkpt lat="45.9435989" lon="8.4759284"><ele>198.0</ele><time>2026-04-03T13:52:33.375Z</time></trkpt><trkpt lat="45.9436288" lon="8.4761043"><ele>197.25</ele><time>2026-04-03T13:52:34.366Z</time></trkpt><trkpt lat="45.9436592" lon="8.4762871"><ele>196.5</ele><time>2026-04-03T13:52:35.368Z</time></trkpt><trkpt lat="45.9436854" lon="8.4764677"><ele>195.75</ele><time>2026-04-03T13:52:36.368Z</time></trkpt><trkpt lat="45.9437185" lon="8.4766431"><ele>195.0</ele><time>2026-04-03T13:52:37.368Z</time></trkpt><trkpt lat="45.9437496" lon="8.4768156"><ele>195.0</ele><time>2026-04-03T13:52:38.37Z</time></trkpt><trkpt lat="45.9437801" lon="8.4769833"><ele>195.0</ele><time>2026-04-03T13:52:39.369Z</time></trkpt><trkpt lat="45.9438077" lon="8.4771458"><ele>195.0</ele><time>2026-04-03T13:52:40.368Z</time></trkpt><trkpt lat="45.9438381" lon="8.4773114"><ele>195.0</ele><time>2026-04-03T13:52:41.373Z</time></trkpt><trkpt lat="45.9438641" lon="8.4774726"><ele>195.2</ele><time>2026-04-03T13:52:42.38Z</time></trkpt><trkpt lat="45.9438867" lon="8.4776276"><ele>195.4</ele><time>2026-04-03T13:52:43.368Z</time></trkpt><trkpt lat="45.9439075" lon="8.4777713"><ele>195.60000000000002</ele><time>2026-04-03T13:52:44.372Z</time></trkpt><trkpt lat="45.9439324" lon="8.4779133"><ele>195.8</ele><time>2026-04-03T13:52:45.367Z</time></trkpt><trkpt lat="45.9439547" lon="8.4780603"><ele>196.0</ele><time>2026-04-03T13:52:46.368Z</time></trkpt><trkpt lat="45.9439787" lon="8.4782049"><ele>196.20000000000002</ele><time>2026-04-03T13:52:47.369Z</time></trkpt><trkpt lat="45.9440062" lon="8.4783563"><ele>196.4</ele><time>2026-04-03T13:52:48.366Z</time></trkpt><trkpt lat="45.9440297" lon="8.4785054"><ele>196.6</ele><time>2026-04-03T13:52:49.367Z</time></trkpt><trkpt lat="45.9440548" lon="8.4786593"><ele>196.8</ele><time>2026-04-03T13:52:50.367Z</time></trkpt><trkpt lat="45.9440821" lon="8.4788148"><ele>197.0</ele><time>2026-04-03T13:52:51.366Z</time></trkpt><trkpt lat="45.9441084" lon="8.4789671"><ele>197.0</ele><time>2026-04-03T13:52:52.367Z</time></trkpt><trkpt lat="45.9441342" lon="8.4791201"><ele>197.0</ele><time>2026-04-03T13:52:53.374Z</time></trkpt><trkpt lat="45.9441544" lon="8.4792824"><ele>197.0</ele><time>2026-04-03T13:52:54.364Z</time></trkpt><trkpt lat="45.9441794" lon="8.4794706"><ele>197.0</ele><time>2026-04-03T13:52:55.37Z</time></trkpt><trkpt lat="45.9442113" lon="8.479714"><ele>197.33333333333334</ele><time>2026-04-03T13:52:56.367Z</time></trkpt><trkpt lat="45.9442493" lon="8.4799829"><ele>197.66666666666669</ele><time>2026-04-03T13:52:57.365Z</time></trkpt><trkpt lat="45.9442843" lon="8.4802079"><ele>198.0</ele><time>2026-04-03T13:52:58.367Z</time></trkpt><trkpt lat="45.9443266" lon="8.4804087"><ele>197.66666666666669</ele><time>2026-04-03T13:52:59.367Z</time></trkpt><trkpt lat="45.9443614" lon="8.4806116"><ele>197.33333333333334</ele><time>2026-04-03T13:53:00.369Z</time></trkpt><trkpt lat="45.9443942" lon="8.4808206"><ele>197.0</ele><time>2026-04-03T13:53:01.366Z</time></trkpt><trkpt lat="45.9444425" lon="8.4810806"><ele>196.66666666666669</ele><time>2026-04-03T13:53:02.367Z</time></trkpt><trkpt lat="45.9444789" lon="8.4813369"><ele>196.33333333333331</ele><time>2026-04-03T13:53:03.378Z</time></trkpt><trkpt lat="45.9445156" lon="8.4815728"><ele>196.0</ele><time>2026-04-03T13:53:04.368Z</time></trkpt><trkpt lat="45.944559" lon="8.4818016"><ele>196.0</ele><time>2026-04-03T13:53:05.367Z</time></trkpt><trkpt lat="45.9445945" lon="8.4820151"><ele>196.0</ele><time>2026-04-03T13:53:06.365Z</time></trkpt><trkpt lat="45.9446376" lon="8.482227"><ele>196.0</ele><time>2026-04-03T13:53:07.368Z</time></trkpt><trkpt lat="45.9446734" lon="8.4824278"><ele>196.0</ele><time>2026-04-03T13:53:08.367Z</time></trkpt><trkpt lat="45.944706" lon="8.48261"><ele>196.0</ele><time>2026-04-03T13:53:09.367Z</time></trkpt><trkpt lat="45.9447432" lon="8.4827914"><ele>196.0</ele><time>2026-04-03T13:53:10.369Z</time></trkpt><trkpt lat="45.944777" lon="8.48297"><ele>196.0</ele><time>2026-04-03T13:53:11.368Z</time></trkpt><trkpt lat="45.9448078" lon="8.4831492"><ele>196.0</ele><time>2026-04-03T13:53:12.368Z</time></trkpt><trkpt lat="45.9448341" lon="8.483323"><ele>196.0</ele><time>2026-04-03T13:53:13.38Z</time></trkpt><trkpt lat="45.9448511" lon="8.4834945"><ele>196.0</ele><time>2026-04-03T13:53:14.37Z</time></trkpt><trkpt lat="45.9448757" lon="8.4836698"><ele>196.0</ele><time>2026-04-03T13:53:15.369Z</time></trkpt><trkpt lat="45.944903" lon="8.4838396"><ele>195.75</ele><time>2026-04-03T13:53:16.368Z</time></trkpt><trkpt lat="45.9449297" lon="8.4840041"><ele>195.5</ele><time>2026-04-03T13:53:17.369Z</time></trkpt><trkpt lat="45.9449586" lon="8.484173"><ele>195.25</ele><time>2026-04-03T13:53:18.368Z</time></trkpt><trkpt lat="45.9449871" lon="8.4843334"><ele>195.0</ele><time>2026-04-03T13:53:19.366Z</time></trkpt><trkpt lat="45.945011" lon="8.4844767"><ele>195.16666666666666</ele><time>2026-04-03T13:53:20.367Z</time></trkpt><trkpt lat="45.945036" lon="8.484606"><ele>195.33333333333331</ele><time>2026-04-03T13:53:21.366Z</time></trkpt><trkpt lat="45.9450565" lon="8.484721"><ele>195.5</ele><time>2026-04-03T13:53:22.366Z</time></trkpt><trkpt lat="45.9450786" lon="8.4848232"><ele>195.66666666666666</ele><time>2026-04-03T13:53:23.366Z</time></trkpt><trkpt lat="45.9450923" lon="8.4849168"><ele>195.83333333333331</ele><time>2026-04-03T13:53:24.367Z</time></trkpt><trkpt lat="45.9451089" lon="8.4850855"><ele>196.0</ele><time>2026-04-03T13:53:26.366Z</time></trkpt><trkpt lat="45.945122" lon="8.4851838"><ele>196.20000000000002</ele><time>2026-04-03T13:53:27.365Z</time></trkpt><trkpt lat="45.9451393" lon="8.485297"><ele>196.4</ele><time>2026-04-03T13:53:28.371Z</time></trkpt><trkpt lat="45.9451626" lon="8.4854394"><ele>196.6</ele><time>2026-04-03T13:53:29.368Z</time></trkpt><trkpt lat="45.9451918" lon="8.4855957"><ele>196.8</ele><time>2026-04-03T13:53:30.367Z</time></trkpt><trkpt lat="45.945219" lon="8.4857521"><ele>197.0</ele><time>2026-04-03T13:53:31.367Z</time></trkpt><trkpt lat="45.9452522" lon="8.4859329"><ele>197.0</ele><time>2026-04-03T13:53:32.364Z</time></trkpt><trkpt lat="45.9452894" lon="8.4861296"><ele>197.0</ele><time>2026-04-03T13:53:33.374Z</time></trkpt><trkpt lat="45.9453245" lon="8.4863286"><ele>197.0</ele><time>2026-04-03T13:53:34.367Z</time></trkpt><trkpt lat="45.945365" lon="8.4865453"><ele>197.0</ele><time>2026-04-03T13:53:35.367Z</time></trkpt><trkpt lat="45.9454006" lon="8.4867552"><ele>197.0</ele><time>2026-04-03T13:53:36.367Z</time></trkpt><trkpt lat="45.9454363" lon="8.4869575"><ele>197.0</ele><time>2026-04-03T13:53:37.367Z</time></trkpt><trkpt lat="45.9454715" lon="8.4871574"><ele>197.0</ele><time>2026-04-03T13:53:38.366Z</time></trkpt><trkpt lat="45.9455007" lon="8.4873408"><ele>197.0</ele><time>2026-04-03T13:53:39.365Z</time></trkpt><trkpt lat="45.9455411" lon="8.4875186"><ele>196.75</ele><time>2026-04-03T13:53:40.366Z</time></trkpt><trkpt lat="45.945581" lon="8.4876943"><ele>196.5</ele><time>2026-04-03T13:53:41.368Z</time></trkpt><trkpt lat="45.9456094" lon="8.4878507"><ele>196.25</ele><time>2026-04-03T13:53:42.367Z</time></trkpt><trkpt lat="45.9456418" lon="8.4880112"><ele>196.0</ele><time>2026-04-03T13:53:43.365Z</time></trkpt><trkpt lat="45.9456632" lon="8.4881461"><ele>196.4</ele><time>2026-04-03T13:53:44.38Z</time></trkpt><trkpt lat="45.9456748" lon="8.4882708"><ele>196.8</ele><time>2026-04-03T13:53:45.364Z</time></trkpt><trkpt lat="45.9456847" lon="8.4883903"><ele>197.20000000000002</ele><time>2026-04-03T13:53:46.363Z</time></trkpt><trkpt lat="45.9456899" lon="8.4884926"><ele>197.60000000000002</ele><time>2026-04-03T13:53:47.361Z</time></trkpt><trkpt lat="45.9456696" lon="8.4886699"><ele>198.0</ele><time>2026-04-03T13:53:49.365Z</time></trkpt><trkpt lat="45.9456406" lon="8.4887909"><ele>198.2</ele><time>2026-04-03T13:53:50.365Z</time></trkpt><trkpt lat="45.9456139" lon="8.4889236"><ele>198.4</ele><time>2026-04-03T13:53:51.363Z</time></trkpt><trkpt lat="45.9455993" lon="8.4890522"><ele>198.6</ele><time>2026-04-03T13:53:52.37Z</time></trkpt><trkpt lat="45.9456218" lon="8.4891687"><ele>198.79999999999998</ele><time>2026-04-03T13:53:53.367Z</time></trkpt><trkpt lat="45.9456836" lon="8.4892885"><ele>199.0</ele><time>2026-04-03T13:53:54.364Z</time></trkpt><trkpt lat="45.9457467" lon="8.489425"><ele>199.0</ele><time>2026-04-03T13:53:55.365Z</time></trkpt><trkpt lat="45.9457994" lon="8.4895777"><ele>199.0</ele><time>2026-04-03T13:53:56.366Z</time></trkpt><trkpt lat="45.9458403" lon="8.4897304"><ele>199.0</ele><time>2026-04-03T13:53:57.366Z</time></trkpt><trkpt lat="45.9458721" lon="8.4898643"><ele>199.0</ele><time>2026-04-03T13:53:58.37Z</time></trkpt><trkpt lat="45.9458958" lon="8.4899797"><ele>199.0</ele><time>2026-04-03T13:53:59.362Z</time></trkpt><trkpt lat="45.9459119" lon="8.4900696"><ele>199.16666666666666</ele><time>2026-04-03T13:54:00.365Z</time></trkpt><trkpt lat="45.9459157" lon="8.4901631"><ele>199.33333333333331</ele><time>2026-04-03T13:54:02.362Z</time></trkpt><trkpt lat="45.9458952" lon="8.4902804"><ele>199.5</ele><time>2026-04-03T13:54:08.377Z</time></trkpt><trkpt lat="45.9458799" lon="8.4903787"><ele>199.66666666666669</ele><time>2026-04-03T13:54:12.38Z</time></trkpt><trkpt lat="45.945874" lon="8.4904884"><ele>199.83333333333334</ele><time>2026-04-03T13:54:15.41Z</time></trkpt><trkpt lat="45.9458869" lon="8.4906232"><ele>200.0</ele><time>2026-04-03T13:54:29.376Z</time></trkpt><trkpt lat="45.9458844" lon="8.4907612"><ele>200.00000000000003</ele><time>2026-04-03T13:54:31.377Z</time></trkpt><trkpt lat="45.9458666" lon="8.4908552"><ele>200.0</ele><time>2026-04-03T13:54:33.381Z</time></trkpt><trkpt lat="45.9458855" lon="8.4909704"><ele>200.0</ele><time>2026-04-03T13:54:40.376Z</time></trkpt><trkpt lat="45.9459382" lon="8.4910363"><ele>200.0</ele><time>2026-04-03T13:54:42.379Z</time></trkpt><trkpt lat="45.9460625" lon="8.4909967"><ele>200.00000000000003</ele><time>2026-04-03T13:54:44.363Z</time></trkpt><trkpt lat="45.9461178" lon="8.4909387"><ele>200.0</ele><time>2026-04-03T13:54:45.384Z</time></trkpt><trkpt lat="45.9461646" lon="8.4908627"><ele>201.0</ele><time>2026-04-03T13:54:46.372Z</time></trkpt><trkpt lat="45.9461995" lon="8.4907792"><ele>202.0</ele><time>2026-04-03T13:54:47.367Z</time></trkpt><trkpt lat="45.9462351" lon="8.4906775"><ele>203.0</ele><time>2026-04-03T13:54:48.377Z</time></trkpt><trkpt lat="45.9462736" lon="8.4905404"><ele>204.0</ele><time>2026-04-03T13:54:49.378Z</time></trkpt><trkpt lat="45.9463298" lon="8.4903485"><ele>205.0</ele><time>2026-04-03T13:54:50.373Z</time></trkpt><trkpt lat="45.9463947" lon="8.4901663"><ele>205.0</ele><time>2026-04-03T13:54:51.375Z</time></trkpt><trkpt lat="45.9464727" lon="8.4900253"><ele>205.0</ele><time>2026-04-03T13:54:52.375Z</time></trkpt><trkpt lat="45.9465682" lon="8.4899421"><ele>205.0</ele><time>2026-04-03T13:54:53.372Z</time></trkpt><trkpt lat="45.9466792" lon="8.489913"><ele>205.0</ele><time>2026-04-03T13:54:54.367Z</time></trkpt><trkpt lat="45.9467995" lon="8.4899488"><ele>207.0</ele><time>2026-04-03T13:54:55.371Z</time></trkpt><trkpt lat="45.946945" lon="8.4900225"><ele>209.0</ele><time>2026-04-03T13:54:56.368Z</time></trkpt><trkpt lat="45.9471019" lon="8.4900928"><ele>211.0</ele><time>2026-04-03T13:54:57.372Z</time></trkpt><trkpt lat="45.94723" lon="8.4901528"><ele>211.0</ele><time>2026-04-03T13:54:58.37Z</time></trkpt><trkpt lat="45.9473202" lon="8.4902089"><ele>211.0</ele><time>2026-04-03T13:54:59.383Z</time></trkpt><trkpt lat="45.9473824" lon="8.4903118"><ele>211.0</ele><time>2026-04-03T13:55:00.381Z</time></trkpt><trkpt lat="45.9473875" lon="8.4904314"><ele>211.0</ele><time>2026-04-03T13:55:01.387Z</time></trkpt><trkpt lat="45.947354" lon="8.4905468"><ele>211.0</ele><time>2026-04-03T13:55:02.384Z</time></trkpt><trkpt lat="45.9472854" lon="8.4906369"><ele>213.20000000000002</ele><time>2026-04-03T13:55:03.396Z</time></trkpt><trkpt lat="45.9472051" lon="8.4906999"><ele>215.4</ele><time>2026-04-03T13:55:04.384Z</time></trkpt><trkpt lat="45.9471226" lon="8.4907555"><ele>217.6</ele><time>2026-04-03T13:55:05.385Z</time></trkpt><trkpt lat="45.9470519" lon="8.4908321"><ele>219.8</ele><time>2026-04-03T13:55:06.383Z</time></trkpt><trkpt lat="45.9469961" lon="8.4909482"><ele>222.0</ele><time>2026-04-03T13:55:07.38Z</time></trkpt><trkpt lat="45.9469666" lon="8.4911207"><ele>226.0</ele><time>2026-04-03T13:55:08.379Z</time></trkpt><trkpt lat="45.9469686" lon="8.4913244"><ele>230.0</ele><time>2026-04-03T13:55:09.378Z</time></trkpt><trkpt lat="45.9469745" lon="8.4915551"><ele>234.0</ele><time>2026-04-03T13:55:10.368Z</time></trkpt><trkpt lat="45.946981" lon="8.4918172"><ele>234.0</ele><time>2026-04-03T13:55:11.371Z</time></trkpt><trkpt lat="45.9469899" lon="8.492084"><ele>234.0</ele><time>2026-04-03T13:55:12.364Z</time></trkpt><trkpt lat="45.9469962" lon="8.4923556"><ele>234.0</ele><time>2026-04-03T13:55:13.367Z</time></trkpt><trkpt lat="45.9470005" lon="8.4926104"><ele>235.75</ele><time>2026-04-03T13:55:14.373Z</time></trkpt><trkpt lat="45.9469661" lon="8.4928264"><ele>237.5</ele><time>2026-04-03T13:55:15.368Z</time></trkpt><trkpt lat="45.946922" lon="8.4929951"><ele>239.25</ele><time>2026-04-03T13:55:16.387Z</time></trkpt><trkpt lat="45.946881" lon="8.4931644"><ele>241.0</ele><time>2026-04-03T13:55:17.37Z</time></trkpt><trkpt lat="45.9468393" lon="8.4933067"><ele>242.0</ele><time>2026-04-03T13:55:18.371Z</time></trkpt><trkpt lat="45.9468218" lon="8.4934452"><ele>243.00000000000003</ele><time>2026-04-03T13:55:19.376Z</time></trkpt><trkpt lat="45.9468946" lon="8.4935882"><ele>244.00000000000003</ele><time>2026-04-03T13:55:21.378Z</time></trkpt><trkpt lat="45.9469984" lon="8.4936016"><ele>245.0</ele><time>2026-04-03T13:55:22.38Z</time></trkpt><trkpt lat="45.9470961" lon="8.4935575"><ele>246.0</ele><time>2026-04-03T13:55:23.375Z</time></trkpt><trkpt lat="45.947191" lon="8.4934521"><ele>246.0</ele><time>2026-04-03T13:55:24.369Z</time></trkpt><trkpt lat="45.9472698" lon="8.49328"><ele>246.0</ele><time>2026-04-03T13:55:25.369Z</time></trkpt><trkpt lat="45.9473259" lon="8.4930615"><ele>246.0</ele><time>2026-04-03T13:55:26.365Z</time></trkpt><trkpt lat="45.9473727" lon="8.492837"><ele>245.0</ele><time>2026-04-03T13:55:27.369Z</time></trkpt><trkpt lat="45.947407" lon="8.492634"><ele>244.00000000000003</ele><time>2026-04-03T13:55:28.374Z</time></trkpt><trkpt lat="45.947446" lon="8.4924809"><ele>243.00000000000003</ele><time>2026-04-03T13:55:29.372Z</time></trkpt><trkpt lat="45.9474792" lon="8.4923477"><ele>242.0</ele><time>2026-04-03T13:55:30.376Z</time></trkpt><trkpt lat="45.947528" lon="8.4922402"><ele>241.0</ele><time>2026-04-03T13:55:31.375Z</time></trkpt><trkpt lat="45.94759" lon="8.4921955"><ele>243.4</ele><time>2026-04-03T13:55:32.371Z</time></trkpt><trkpt lat="45.9476548" lon="8.4921912"><ele>245.8</ele><time>2026-04-03T13:55:33.377Z</time></trkpt><trkpt lat="45.9477331" lon="8.4922351"><ele>248.20000000000002</ele><time>2026-04-03T13:55:34.375Z</time></trkpt><trkpt lat="45.9478089" lon="8.4923299"><ele>250.60000000000002</ele><time>2026-04-03T13:55:35.368Z</time></trkpt><trkpt lat="45.9478633" lon="8.4924567"><ele>253.0</ele><time>2026-04-03T13:55:36.373Z</time></trkpt><trkpt lat="45.947894" lon="8.4926396"><ele>253.0</ele><time>2026-04-03T13:55:37.369Z</time></trkpt><trkpt lat="45.9478987" lon="8.4928763"><ele>253.0</ele><time>2026-04-03T13:55:38.375Z</time></trkpt><trkpt lat="45.9479161" lon="8.493146"><ele>253.0</ele><time>2026-04-03T13:55:39.372Z</time></trkpt><trkpt lat="45.9479762" lon="8.4934147"><ele>256.0</ele><time>2026-04-03T13:55:40.372Z</time></trkpt><trkpt lat="45.948071" lon="8.4936751"><ele>259.0</ele><time>2026-04-03T13:55:41.368Z</time></trkpt><trkpt lat="45.9481829" lon="8.4939487"><ele>262.0</ele><time>2026-04-03T13:55:42.374Z</time></trkpt><trkpt lat="45.9482721" lon="8.4942411"><ele>262.5</ele><time>2026-04-03T13:55:43.368Z</time></trkpt><trkpt lat="45.9483422" lon="8.4945708"><ele>263.0</ele><time>2026-04-03T13:55:44.366Z</time></trkpt><trkpt lat="45.9483762" lon="8.4949096"><ele>262.5</ele><time>2026-04-03T13:55:45.368Z</time></trkpt><trkpt lat="45.9484227" lon="8.4952447"><ele>262.0</ele><time>2026-04-03T13:55:46.37Z</time></trkpt><trkpt lat="45.9484691" lon="8.4955814"><ele>262.0</ele><time>2026-04-03T13:55:47.381Z</time></trkpt><trkpt lat="45.9485167" lon="8.495917"><ele>262.0</ele><time>2026-04-03T13:55:48.366Z</time></trkpt><trkpt lat="45.9485523" lon="8.4962456"><ele>266.5</ele><time>2026-04-03T13:55:49.367Z</time></trkpt><trkpt lat="45.9486019" lon="8.4965773"><ele>271.0</ele><time>2026-04-03T13:55:50.364Z</time></trkpt><trkpt lat="45.948646" lon="8.4968991"><ele>274.3333333333333</ele><time>2026-04-03T13:55:51.368Z</time></trkpt><trkpt lat="45.948682" lon="8.4972095"><ele>277.6666666666667</ele><time>2026-04-03T13:55:52.369Z</time></trkpt><trkpt lat="45.9487318" lon="8.4975143"><ele>281.0</ele><time>2026-04-03T13:55:53.37Z</time></trkpt><trkpt lat="45.9487709" lon="8.4977899"><ele>283.33333333333337</ele><time>2026-04-03T13:55:54.369Z</time></trkpt><trkpt lat="45.9488071" lon="8.4980425"><ele>285.6666666666667</ele><time>2026-04-03T13:55:55.371Z</time></trkpt><trkpt lat="45.948841" lon="8.4982801"><ele>288.0</ele><time>2026-04-03T13:55:56.372Z</time></trkpt><trkpt lat="45.9488759" lon="8.498531"><ele>290.3333333333333</ele><time>2026-04-03T13:55:57.37Z</time></trkpt><trkpt lat="45.9489077" lon="8.4988196"><ele>292.66666666666663</ele><time>2026-04-03T13:55:58.373Z</time></trkpt><trkpt lat="45.9489122" lon="8.4991442"><ele>295.0</ele><time>2026-04-03T13:55:59.367Z</time></trkpt><trkpt lat="45.9489062" lon="8.4995051"><ele>298.0</ele><time>2026-04-03T13:56:00.368Z</time></trkpt><trkpt lat="45.9489089" lon="8.4998789"><ele>301.0</ele><time>2026-04-03T13:56:01.369Z</time></trkpt><trkpt lat="45.9489194" lon="8.5002555"><ele>303.0</ele><time>2026-04-03T13:56:02.368Z</time></trkpt><trkpt lat="45.9489384" lon="8.5006492"><ele>305.0</ele><time>2026-04-03T13:56:03.377Z</time></trkpt><trkpt lat="45.9489752" lon="8.501064"><ele>306.0</ele><time>2026-04-03T13:56:04.36Z</time></trkpt><trkpt lat="45.949031" lon="8.501476"><ele>307.0</ele><time>2026-04-03T13:56:05.364Z</time></trkpt><trkpt lat="45.9490779" lon="8.5018691"><ele>310.5</ele><time>2026-04-03T13:56:06.367Z</time></trkpt><trkpt lat="45.9491177" lon="8.5022297"><ele>314.0</ele><time>2026-04-03T13:56:07.368Z</time></trkpt><trkpt lat="45.9491579" lon="8.5025738"><ele>314.0</ele><time>2026-04-03T13:56:08.373Z</time></trkpt><trkpt lat="45.9491857" lon="8.5029079"><ele>314.0</ele><time>2026-04-03T13:56:09.374Z</time></trkpt><trkpt lat="45.9492166" lon="8.5032322"><ele>315.0</ele><time>2026-04-03T13:56:10.371Z</time></trkpt><trkpt lat="45.949241" lon="8.5035588"><ele>316.0</ele><time>2026-04-03T13:56:11.369Z</time></trkpt><trkpt lat="45.9492575" lon="8.503878"><ele>317.3333333333333</ele><time>2026-04-03T13:56:12.37Z</time></trkpt><trkpt lat="45.9492809" lon="8.5041943"><ele>318.6666666666667</ele><time>2026-04-03T13:56:13.371Z</time></trkpt><trkpt lat="45.9492987" lon="8.5045107"><ele>320.0</ele><time>2026-04-03T13:56:14.367Z</time></trkpt><trkpt lat="45.9493" lon="8.5048477"><ele>320.0</ele><time>2026-04-03T13:56:15.371Z</time></trkpt><trkpt lat="45.9492854" lon="8.5051804"><ele>320.0</ele><time>2026-04-03T13:56:16.369Z</time></trkpt><trkpt lat="45.9492777" lon="8.505497"><ele>319.6666666666667</ele><time>2026-04-03T13:56:17.368Z</time></trkpt><trkpt lat="45.9492715" lon="8.5058005"><ele>319.3333333333333</ele><time>2026-04-03T13:56:18.381Z</time></trkpt><trkpt lat="45.9492671" lon="8.5060853"><ele>319.0</ele><time>2026-04-03T13:56:19.368Z</time></trkpt><trkpt lat="45.9492559" lon="8.5063744"><ele>319.0</ele><time>2026-04-03T13:56:20.369Z</time></trkpt><trkpt lat="45.9492567" lon="8.5066615"><ele>319.0</ele><time>2026-04-03T13:56:21.368Z</time></trkpt><trkpt lat="45.9492496" lon="8.5069449"><ele>319.0</ele><time>2026-04-03T13:56:22.366Z</time></trkpt><trkpt lat="45.9492628" lon="8.5072205"><ele>320.0</ele><time>2026-04-03T13:56:23.367Z</time></trkpt><trkpt lat="45.9492926" lon="8.5074909"><ele>321.0</ele><time>2026-04-03T13:56:24.371Z</time></trkpt><trkpt lat="45.9493291" lon="8.5077498"><ele>322.0</ele><time>2026-04-03T13:56:25.376Z</time></trkpt><trkpt lat="45.9493744" lon="8.5080092"><ele>322.66666666666663</ele><time>2026-04-03T13:56:26.369Z</time></trkpt><trkpt lat="45.9493996" lon="8.5082733"><ele>323.3333333333333</ele><time>2026-04-03T13:56:27.368Z</time></trkpt><trkpt lat="45.9494067" lon="8.5085307"><ele>324.0</ele><time>2026-04-03T13:56:28.375Z</time></trkpt><trkpt lat="45.9493888" lon="8.5088019"><ele>325.3333333333333</ele><time>2026-04-03T13:56:29.374Z</time></trkpt><trkpt lat="45.949334" lon="8.5090563"><ele>326.66666666666663</ele><time>2026-04-03T13:56:30.377Z</time></trkpt><trkpt lat="45.9492758" lon="8.5092865"><ele>328.0</ele><time>2026-04-03T13:56:31.375Z</time></trkpt><trkpt lat="45.9492268" lon="8.5095242"><ele>328.66666666666663</ele><time>2026-04-03T13:56:32.368Z</time></trkpt><trkpt lat="45.9491963" lon="8.5097508"><ele>329.3333333333333</ele><time>2026-04-03T13:56:33.376Z</time></trkpt><trkpt lat="45.9492106" lon="8.5099901"><ele>330.0</ele><time>2026-04-03T13:56:34.368Z</time></trkpt><trkpt lat="45.9492519" lon="8.5102369"><ele>330.3333333333333</ele><time>2026-04-03T13:56:35.358Z</time></trkpt><trkpt lat="45.9493351" lon="8.5105025"><ele>330.66666666666663</ele><time>2026-04-03T13:56:36.356Z</time></trkpt><trkpt lat="45.949416" lon="8.510779"><ele>331.0</ele><time>2026-04-03T13:56:37.364Z</time></trkpt><trkpt lat="45.9494853" lon="8.5110439"><ele>332.3333333333333</ele><time>2026-04-03T13:56:38.37Z</time></trkpt><trkpt lat="45.9495561" lon="8.511302"><ele>333.6666666666667</ele><time>2026-04-03T13:56:39.37Z</time></trkpt><trkpt lat="45.9496045" lon="8.5115538"><ele>335.0</ele><time>2026-04-03T13:56:40.367Z</time></trkpt><trkpt lat="45.9496473" lon="8.5117915"><ele>335.0</ele><time>2026-04-03T13:56:41.367Z</time></trkpt><trkpt lat="45.949675" lon="8.5120275"><ele>335.0</ele><time>2026-04-03T13:56:42.372Z</time></trkpt><trkpt lat="45.9496837" lon="8.5122562"><ele>335.0</ele><time>2026-04-03T13:56:43.368Z</time></trkpt><trkpt lat="45.9496849" lon="8.512489"><ele>336.6666666666667</ele><time>2026-04-03T13:56:44.373Z</time></trkpt><trkpt lat="45.9496834" lon="8.512726"><ele>338.3333333333333</ele><time>2026-04-03T13:56:45.372Z</time></trkpt><trkpt lat="45.9496753" lon="8.5129737"><ele>340.0</ele><time>2026-04-03T13:56:46.372Z</time></trkpt><trkpt lat="45.9496588" lon="8.5132205"><ele>342.0</ele><time>2026-04-03T13:56:47.373Z</time></trkpt><trkpt lat="45.9496511" lon="8.5134625"><ele>344.0</ele><time>2026-04-03T13:56:48.374Z</time></trkpt><trkpt lat="45.9496499" lon="8.5136958"><ele>346.0</ele><time>2026-04-03T13:56:49.383Z</time></trkpt><trkpt lat="45.9496584" lon="8.5139302"><ele>346.66666666666663</ele><time>2026-04-03T13:56:50.373Z</time></trkpt><trkpt lat="45.9496624" lon="8.5141476"><ele>347.3333333333333</ele><time>2026-04-03T13:56:51.379Z</time></trkpt><trkpt lat="45.9496664" lon="8.5143809"><ele>348.0</ele><time>2026-04-03T13:56:52.376Z</time></trkpt><trkpt lat="45.9496708" lon="8.514625"><ele>349.0</ele><time>2026-04-03T13:56:53.374Z</time></trkpt><trkpt lat="45.9496744" lon="8.5148688"><ele>350.0</ele><time>2026-04-03T13:56:54.379Z</time></trkpt><trkpt lat="45.9496733" lon="8.515113"><ele>351.0</ele><time>2026-04-03T13:56:55.376Z</time></trkpt><trkpt lat="45.949668" lon="8.5153545"><ele>352.0</ele><time>2026-04-03T13:56:56.374Z</time></trkpt><trkpt lat="45.949639" lon="8.5155977"><ele>353.0</ele><time>2026-04-03T13:56:57.373Z</time></trkpt><trkpt lat="45.9495962" lon="8.515829"><ele>354.0</ele><time>2026-04-03T13:56:58.375Z</time></trkpt><trkpt lat="45.9495446" lon="8.5160556"><ele>353.0</ele><time>2026-04-03T13:56:59.376Z</time></trkpt><trkpt lat="45.9495042" lon="8.5162728"><ele>352.0</ele><time>2026-04-03T13:57:00.369Z</time></trkpt><trkpt lat="45.9494797" lon="8.5164886"><ele>351.0</ele><time>2026-04-03T13:57:01.364Z</time></trkpt><trkpt lat="45.9494664" lon="8.5167111"><ele>351.0</ele><time>2026-04-03T13:57:02.364Z</time></trkpt><trkpt lat="45.9494819" lon="8.5169336"><ele>351.0</ele><time>2026-04-03T13:57:03.38Z</time></trkpt><trkpt lat="45.9495137" lon="8.5171619"><ele>351.0</ele><time>2026-04-03T13:57:04.37Z</time></trkpt><trkpt lat="45.9495361" lon="8.5174067"><ele>350.0</ele><time>2026-04-03T13:57:05.367Z</time></trkpt><trkpt lat="45.9495565" lon="8.5176592"><ele>349.0</ele><time>2026-04-03T13:57:06.371Z</time></trkpt><trkpt lat="45.949581" lon="8.5179103"><ele>348.0</ele><time>2026-04-03T13:57:07.366Z</time></trkpt><trkpt lat="45.9496111" lon="8.5182094"><ele>344.0</ele><time>2026-04-03T13:57:08.374Z</time></trkpt><trkpt lat="45.949636" lon="8.5185548"><ele>340.0</ele><time>2026-04-03T13:57:09.362Z</time></trkpt><trkpt lat="45.949652" lon="8.5189111"><ele>334.5</ele><time>2026-04-03T13:57:10.363Z</time></trkpt><trkpt lat="45.9496755" lon="8.519281"><ele>329.0</ele><time>2026-04-03T13:57:11.363Z</time></trkpt><trkpt lat="45.9497064" lon="8.5196563"><ele>326.5</ele><time>2026-04-03T13:57:12.363Z</time></trkpt><trkpt lat="45.949735" lon="8.5200002"><ele>324.0</ele><time>2026-04-03T13:57:13.369Z</time></trkpt><trkpt lat="45.9497658" lon="8.5203319"><ele>323.6666666666667</ele><time>2026-04-03T13:57:14.368Z</time></trkpt><trkpt lat="45.9497921" lon="8.5206405"><ele>323.33333333333337</ele><time>2026-04-03T13:57:15.37Z</time></trkpt><trkpt lat="45.9498305" lon="8.5209525"><ele>323.0</ele><time>2026-04-03T13:57:16.368Z</time></trkpt><trkpt lat="45.9498774" lon="8.521259"><ele>323.0</ele><time>2026-04-03T13:57:17.365Z</time></trkpt><trkpt lat="45.9499374" lon="8.5215763"><ele>323.0</ele><time>2026-04-03T13:57:18.362Z</time></trkpt><trkpt lat="45.9500146" lon="8.5218867"><ele>327.5</ele><time>2026-04-03T13:57:19.368Z</time></trkpt><trkpt lat="45.950092" lon="8.5222112"><ele>332.0</ele><time>2026-04-03T13:57:20.377Z</time></trkpt><trkpt lat="45.9501642" lon="8.5225372"><ele>332.0</ele><time>2026-04-03T13:57:21.365Z</time></trkpt><trkpt lat="45.9502405" lon="8.5228677"><ele>332.0</ele><time>2026-04-03T13:57:22.358Z</time></trkpt><trkpt lat="45.9503153" lon="8.5231928"><ele>328.5</ele><time>2026-04-03T13:57:23.362Z</time></trkpt><trkpt lat="45.950391" lon="8.5235051"><ele>325.0</ele><time>2026-04-03T13:57:24.365Z</time></trkpt><trkpt lat="45.9504684" lon="8.5238141"><ele>323.3333333333333</ele><time>2026-04-03T13:57:25.364Z</time></trkpt><trkpt lat="45.9505421" lon="8.5241084"><ele>321.6666666666667</ele><time>2026-04-03T13:57:26.361Z</time></trkpt><trkpt lat="45.9506154" lon="8.5243941"><ele>320.0</ele><time>2026-04-03T13:57:27.362Z</time></trkpt><trkpt lat="45.950687" lon="8.5246739"><ele>317.6666666666667</ele><time>2026-04-03T13:57:28.367Z</time></trkpt><trkpt lat="45.9507537" lon="8.5249521"><ele>315.3333333333333</ele><time>2026-04-03T13:57:29.36Z</time></trkpt><trkpt lat="45.9508315" lon="8.5252158"><ele>313.0</ele><time>2026-04-03T13:57:30.357Z</time></trkpt><trkpt lat="45.9509297" lon="8.5254601"><ele>310.3333333333333</ele><time>2026-04-03T13:57:31.363Z</time></trkpt><trkpt lat="45.9510265" lon="8.5257068"><ele>307.6666666666667</ele><time>2026-04-03T13:57:32.358Z</time></trkpt><trkpt lat="45.9511195" lon="8.5259569"><ele>305.0</ele><time>2026-04-03T13:57:33.365Z</time></trkpt><trkpt lat="45.9512103" lon="8.5262025"><ele>301.0</ele><time>2026-04-03T13:57:34.358Z</time></trkpt><trkpt lat="45.9512898" lon="8.5264417"><ele>297.0</ele><time>2026-04-03T13:57:35.355Z</time></trkpt><trkpt lat="45.951353" lon="8.5266828"><ele>293.0</ele><time>2026-04-03T13:57:36.362Z</time></trkpt><trkpt lat="45.9513813" lon="8.5269333"><ele>292.0</ele><time>2026-04-03T13:57:37.36Z</time></trkpt><trkpt lat="45.9513882" lon="8.5271669"><ele>291.0</ele><time>2026-04-03T13:57:38.364Z</time></trkpt><trkpt lat="45.9513862" lon="8.5273938"><ele>290.0</ele><time>2026-04-03T13:57:39.365Z</time></trkpt><trkpt lat="45.9513812" lon="8.5276108"><ele>290.0</ele><time>2026-04-03T13:57:40.368Z</time></trkpt><trkpt lat="45.9513796" lon="8.5277967"><ele>290.0</ele><time>2026-04-03T13:57:41.365Z</time></trkpt><trkpt lat="45.9513868" lon="8.5279276"><ele>290.0</ele><time>2026-04-03T13:57:42.365Z</time></trkpt><trkpt lat="45.9514077" lon="8.5280496"><ele>290.0</ele><time>2026-04-03T13:57:43.368Z</time></trkpt><trkpt lat="45.9514791" lon="8.5281389"><ele>290.0</ele><time>2026-04-03T13:57:44.366Z</time></trkpt><trkpt lat="45.9515899" lon="8.5281312"><ele>289.5</ele><time>2026-04-03T13:57:45.37Z</time></trkpt><trkpt lat="45.951694" lon="8.5280867"><ele>289.0</ele><time>2026-04-03T13:57:46.361Z</time></trkpt><trkpt lat="45.9517866" lon="8.5279761"><ele>288.5</ele><time>2026-04-03T13:57:47.357Z</time></trkpt><trkpt lat="45.9518443" lon="8.5278233"><ele>288.0</ele><time>2026-04-03T13:57:48.347Z</time></trkpt><trkpt lat="45.9518917" lon="8.5276473"><ele>282.3333333333333</ele><time>2026-04-03T13:57:49.358Z</time></trkpt><trkpt lat="45.951931" lon="8.5274068"><ele>276.66666666666663</ele><time>2026-04-03T13:57:50.352Z</time></trkpt><trkpt lat="45.9519616" lon="8.5271324"><ele>271.0</ele><time>2026-04-03T13:57:51.373Z</time></trkpt><trkpt lat="45.951999" lon="8.5268749"><ele>271.0</ele><time>2026-04-03T13:57:52.356Z</time></trkpt><trkpt lat="45.9520315" lon="8.5266164"><ele>271.0</ele><time>2026-04-03T13:57:53.374Z</time></trkpt><trkpt lat="45.9520851" lon="8.5263779"><ele>271.0</ele><time>2026-04-03T13:57:54.362Z</time></trkpt><trkpt lat="45.9521405" lon="8.5261485"><ele>272.0</ele><time>2026-04-03T13:57:55.363Z</time></trkpt><trkpt lat="45.9521902" lon="8.5259211"><ele>273.0</ele><time>2026-04-03T13:57:56.359Z</time></trkpt><trkpt lat="45.952233" lon="8.5257069"><ele>274.0</ele><time>2026-04-03T13:57:57.357Z</time></trkpt><trkpt lat="45.9522752" lon="8.5254902"><ele>276.66666666666663</ele><time>2026-04-03T13:57:58.361Z</time></trkpt><trkpt lat="45.9523236" lon="8.5252602"><ele>279.3333333333333</ele><time>2026-04-03T13:57:59.359Z</time></trkpt><trkpt lat="45.9523774" lon="8.5250407"><ele>282.0</ele><time>2026-04-03T13:58:00.363Z</time></trkpt><trkpt lat="45.9524502" lon="8.5248423"><ele>282.0</ele><time>2026-04-03T13:58:01.363Z</time></trkpt><trkpt lat="45.9525097" lon="8.5246733"><ele>282.0</ele><time>2026-04-03T13:58:02.357Z</time></trkpt><trkpt lat="45.952565" lon="8.5245253"><ele>282.0</ele><time>2026-04-03T13:58:03.365Z</time></trkpt><trkpt lat="45.9526313" lon="8.5243896"><ele>282.0</ele><time>2026-04-03T13:58:04.352Z</time></trkpt><trkpt lat="45.9527087" lon="8.5242821"><ele>277.0</ele><time>2026-04-03T13:58:05.352Z</time></trkpt><trkpt lat="45.9528361" lon="8.5242309"><ele>272.0</ele><time>2026-04-03T13:58:06.353Z</time></trkpt><trkpt lat="45.9529947" lon="8.524216"><ele>267.0</ele><time>2026-04-03T13:58:07.349Z</time></trkpt><trkpt lat="45.953187" lon="8.5242263"><ele>266.6666666666667</ele><time>2026-04-03T13:58:08.355Z</time></trkpt><trkpt lat="45.9533842" lon="8.5242376"><ele>266.33333333333337</ele><time>2026-04-03T13:58:09.36Z</time></trkpt><trkpt lat="45.9535585" lon="8.5242298"><ele>266.0</ele><time>2026-04-03T13:58:10.361Z</time></trkpt><trkpt lat="45.9537291" lon="8.5242197"><ele>266.0</ele><time>2026-04-03T13:58:11.367Z</time></trkpt><trkpt lat="45.9538981" lon="8.5242196"><ele>266.0</ele><time>2026-04-03T13:58:12.375Z</time></trkpt><trkpt lat="45.9540642" lon="8.5242227"><ele>266.0</ele><time>2026-04-03T13:58:13.373Z</time></trkpt><trkpt lat="45.9542302" lon="8.5242287"><ele>265.33333333333337</ele><time>2026-04-03T13:58:14.375Z</time></trkpt><trkpt lat="45.9543938" lon="8.5242293"><ele>264.6666666666667</ele><time>2026-04-03T13:58:15.377Z</time></trkpt><trkpt lat="45.9545562" lon="8.5242304"><ele>264.0</ele><time>2026-04-03T13:58:16.368Z</time></trkpt><trkpt lat="45.9547169" lon="8.5242244"><ele>264.0</ele><time>2026-04-03T13:58:17.373Z</time></trkpt><trkpt lat="45.9548866" lon="8.5242198"><ele>264.0</ele><time>2026-04-03T13:58:18.377Z</time></trkpt><trkpt lat="45.9550493" lon="8.5242168"><ele>264.0</ele><time>2026-04-03T13:58:19.374Z</time></trkpt><trkpt lat="45.9552121" lon="8.5242343"><ele>265.0</ele><time>2026-04-03T13:58:20.37Z</time></trkpt><trkpt lat="45.9553783" lon="8.5242727"><ele>266.0</ele><time>2026-04-03T13:58:21.369Z</time></trkpt><trkpt lat="45.9555357" lon="8.5243207"><ele>267.0</ele><time>2026-04-03T13:58:22.388Z</time></trkpt><trkpt lat="45.9556967" lon="8.5243744"><ele>267.0</ele><time>2026-04-03T13:58:23.372Z</time></trkpt><trkpt lat="45.9558482" lon="8.5244293"><ele>267.0</ele><time>2026-04-03T13:58:24.38Z</time></trkpt><trkpt lat="45.9559995" lon="8.5244749"><ele>267.0</ele><time>2026-04-03T13:58:25.374Z</time></trkpt><trkpt lat="45.9561495" lon="8.5245326"><ele>264.3333333333333</ele><time>2026-04-03T13:58:26.374Z</time></trkpt><trkpt lat="45.956299" lon="8.5245991"><ele>261.66666666666663</ele><time>2026-04-03T13:58:27.37Z</time></trkpt><trkpt lat="45.9564303" lon="8.5246992"><ele>259.0</ele><time>2026-04-03T13:58:28.371Z</time></trkpt><trkpt lat="45.956549" lon="8.5248353"><ele>259.0</ele><time>2026-04-03T13:58:29.365Z</time></trkpt><trkpt lat="45.9566399" lon="8.5249884"><ele>259.0</ele><time>2026-04-03T13:58:30.359Z</time></trkpt><trkpt lat="45.956708" lon="8.5251624"><ele>259.0</ele><time>2026-04-03T13:58:31.359Z</time></trkpt><trkpt lat="45.9567679" lon="8.5253641"><ele>259.0</ele><time>2026-04-03T13:58:32.359Z</time></trkpt><trkpt lat="45.9568013" lon="8.5255817"><ele>269.66666666666663</ele><time>2026-04-03T13:58:33.375Z</time></trkpt><trkpt lat="45.9568266" lon="8.5258085"><ele>280.3333333333333</ele><time>2026-04-03T13:58:34.366Z</time></trkpt><trkpt lat="45.9568277" lon="8.5260422"><ele>291.0</ele><time>2026-04-03T13:58:35.362Z</time></trkpt><trkpt lat="45.9567914" lon="8.526275"><ele>291.6666666666667</ele><time>2026-04-03T13:58:36.36Z</time></trkpt><trkpt lat="45.9567396" lon="8.5265374"><ele>292.33333333333337</ele><time>2026-04-03T13:58:37.357Z</time></trkpt><trkpt lat="45.9566767" lon="8.5268005"><ele>293.0</ele><time>2026-04-03T13:58:38.358Z</time></trkpt><trkpt lat="45.9566236" lon="8.5270544"><ele>283.0</ele><time>2026-04-03T13:58:39.359Z</time></trkpt><trkpt lat="45.9565973" lon="8.5272895"><ele>273.0</ele><time>2026-04-03T13:58:40.361Z</time></trkpt><trkpt lat="45.9565785" lon="8.5275414"><ele>263.0</ele><time>2026-04-03T13:58:41.363Z</time></trkpt><trkpt lat="45.9565648" lon="8.5278209"><ele>264.6666666666667</ele><time>2026-04-03T13:58:42.359Z</time></trkpt><trkpt lat="45.9565503" lon="8.5280952"><ele>266.3333333333333</ele><time>2026-04-03T13:58:43.363Z</time></trkpt><trkpt lat="45.9565347" lon="8.5283674"><ele>268.0</ele><time>2026-04-03T13:58:44.365Z</time></trkpt><trkpt lat="45.9565344" lon="8.5286331"><ele>266.66666666666663</ele><time>2026-04-03T13:58:45.358Z</time></trkpt><trkpt lat="45.9565486" lon="8.5289096"><ele>265.3333333333333</ele><time>2026-04-03T13:58:46.364Z</time></trkpt><trkpt lat="45.9565596" lon="8.5291852"><ele>264.0</ele><time>2026-04-03T13:58:47.36Z</time></trkpt><trkpt lat="45.9565755" lon="8.5294514"><ele>265.6666666666667</ele><time>2026-04-03T13:58:48.366Z</time></trkpt><trkpt lat="45.9565734" lon="8.5297088"><ele>267.33333333333337</ele><time>2026-04-03T13:58:49.359Z</time></trkpt><trkpt lat="45.9565578" lon="8.5299566"><ele>269.0</ele><time>2026-04-03T13:58:50.358Z</time></trkpt><trkpt lat="45.9565157" lon="8.5301973"><ele>272.6666666666667</ele><time>2026-04-03T13:58:51.352Z</time></trkpt><trkpt lat="45.9564498" lon="8.5304337"><ele>276.3333333333333</ele><time>2026-04-03T13:58:52.356Z</time></trkpt><trkpt lat="45.9563534" lon="8.5306471"><ele>280.0</ele><time>2026-04-03T13:58:53.379Z</time></trkpt><trkpt lat="45.9562515" lon="8.5308442"><ele>280.0</ele><time>2026-04-03T13:58:54.363Z</time></trkpt><trkpt lat="45.9561305" lon="8.5310302"><ele>280.0</ele><time>2026-04-03T13:58:55.361Z</time></trkpt><trkpt lat="45.9559892" lon="8.531218"><ele>280.0</ele><time>2026-04-03T13:58:56.359Z</time></trkpt><trkpt lat="45.9558563" lon="8.5314074"><ele>274.66666666666663</ele><time>2026-04-03T13:58:57.357Z</time></trkpt><trkpt lat="45.9557251" lon="8.5315897"><ele>269.3333333333333</ele><time>2026-04-03T13:58:58.366Z</time></trkpt><trkpt lat="45.9556033" lon="8.5317684"><ele>264.0</ele><time>2026-04-03T13:58:59.357Z</time></trkpt><trkpt lat="45.9554994" lon="8.5319517"><ele>265.6666666666667</ele><time>2026-04-03T13:59:00.362Z</time></trkpt><trkpt lat="45.9554099" lon="8.5321485"><ele>267.33333333333337</ele><time>2026-04-03T13:59:01.368Z</time></trkpt><trkpt lat="45.9553582" lon="8.5323774"><ele>269.0</ele><time>2026-04-03T13:59:02.365Z</time></trkpt><trkpt lat="45.955335" lon="8.5326384"><ele>268.33333333333337</ele><time>2026-04-03T13:59:03.373Z</time></trkpt><trkpt lat="45.955352" lon="8.5329347"><ele>267.6666666666667</ele><time>2026-04-03T13:59:04.368Z</time></trkpt><trkpt lat="45.955363" lon="8.5332051"><ele>267.0</ele><time>2026-04-03T13:59:05.366Z</time></trkpt><trkpt lat="45.9553543" lon="8.5334609"><ele>267.0</ele><time>2026-04-03T13:59:06.366Z</time></trkpt><trkpt lat="45.9553275" lon="8.5337156"><ele>267.0</ele><time>2026-04-03T13:59:07.361Z</time></trkpt><trkpt lat="45.9553009" lon="8.5339757"><ele>267.0</ele><time>2026-04-03T13:59:08.367Z</time></trkpt><trkpt lat="45.9552706" lon="8.5342455"><ele>267.0</ele><time>2026-04-03T13:59:09.367Z</time></trkpt><trkpt lat="45.9552417" lon="8.534516"><ele>267.0</ele><time>2026-04-03T13:59:10.373Z</time></trkpt><trkpt lat="45.9552135" lon="8.5347749"><ele>267.0</ele><time>2026-04-03T13:59:11.372Z</time></trkpt><trkpt lat="45.9551872" lon="8.5350307"><ele>268.0</ele><time>2026-04-03T13:59:12.362Z</time></trkpt><trkpt lat="45.9551576" lon="8.5352894"><ele>269.0</ele><time>2026-04-03T13:59:13.368Z</time></trkpt><trkpt lat="45.9551395" lon="8.5355518"><ele>270.0</ele><time>2026-04-03T13:59:14.367Z</time></trkpt><trkpt lat="45.9551136" lon="8.5358137"><ele>270.0</ele><time>2026-04-03T13:59:15.367Z</time></trkpt><trkpt lat="45.9550898" lon="8.5360794"><ele>270.0</ele><time>2026-04-03T13:59:16.37Z</time></trkpt><trkpt lat="45.9550612" lon="8.5363447"><ele>270.0</ele><time>2026-04-03T13:59:17.365Z</time></trkpt><trkpt lat="45.9550425" lon="8.5366121"><ele>264.0</ele><time>2026-04-03T13:59:18.369Z</time></trkpt><trkpt lat="45.9550156" lon="8.5368742"><ele>258.0</ele><time>2026-04-03T13:59:19.368Z</time></trkpt><trkpt lat="45.954983" lon="8.5371319"><ele>252.0</ele><time>2026-04-03T13:59:20.368Z</time></trkpt><trkpt lat="45.9549543" lon="8.5373857"><ele>251.66666666666669</ele><time>2026-04-03T13:59:21.368Z</time></trkpt><trkpt lat="45.9549234" lon="8.5376341"><ele>251.33333333333334</ele><time>2026-04-03T13:59:22.368Z</time></trkpt><trkpt lat="45.9548956" lon="8.5378809"><ele>251.0</ele><time>2026-04-03T13:59:23.38Z</time></trkpt><trkpt lat="45.9548702" lon="8.5381242"><ele>251.0</ele><time>2026-04-03T13:59:24.368Z</time></trkpt><trkpt lat="45.9548531" lon="8.5383638"><ele>251.0</ele><time>2026-04-03T13:59:25.369Z</time></trkpt><trkpt lat="45.9548304" lon="8.5385983"><ele>251.0</ele><time>2026-04-03T13:59:26.368Z</time></trkpt><trkpt lat="45.9548042" lon="8.5388252"><ele>252.0</ele><time>2026-04-03T13:59:27.367Z</time></trkpt><trkpt lat="45.9547814" lon="8.539051"><ele>253.0</ele><time>2026-04-03T13:59:28.372Z</time></trkpt><trkpt lat="45.954764" lon="8.539264"><ele>254.0</ele><time>2026-04-03T13:59:29.368Z</time></trkpt><trkpt lat="45.9547428" lon="8.5394717"><ele>254.75</ele><time>2026-04-03T13:59:30.369Z</time></trkpt><trkpt lat="45.9547245" lon="8.5396727"><ele>255.5</ele><time>2026-04-03T13:59:31.371Z</time></trkpt><trkpt lat="45.9547022" lon="8.5398722"><ele>256.25</ele><time>2026-04-03T13:59:32.365Z</time></trkpt><trkpt lat="45.9546843" lon="8.5400831"><ele>257.0</ele><time>2026-04-03T13:59:33.374Z</time></trkpt><trkpt lat="45.9546676" lon="8.5402856"><ele>257.5</ele><time>2026-04-03T13:59:34.368Z</time></trkpt><trkpt lat="45.954648" lon="8.5404846"><ele>258.0</ele><time>2026-04-03T13:59:35.366Z</time></trkpt><trkpt lat="45.9546337" lon="8.5406812"><ele>258.5</ele><time>2026-04-03T13:59:36.366Z</time></trkpt><trkpt lat="45.9546118" lon="8.5408661"><ele>259.0</ele><time>2026-04-03T13:59:37.365Z</time></trkpt><trkpt lat="45.9545856" lon="8.541048"><ele>257.25</ele><time>2026-04-03T13:59:38.368Z</time></trkpt><trkpt lat="45.9545659" lon="8.5412182"><ele>255.5</ele><time>2026-04-03T13:59:39.369Z</time></trkpt><trkpt lat="45.9545437" lon="8.5413914"><ele>253.75</ele><time>2026-04-03T13:59:40.37Z</time></trkpt><trkpt lat="45.9545252" lon="8.5415725"><ele>252.0</ele><time>2026-04-03T13:59:41.371Z</time></trkpt><trkpt lat="45.9545103" lon="8.5417489"><ele>252.0</ele><time>2026-04-03T13:59:42.375Z</time></trkpt><trkpt lat="45.9544952" lon="8.541925"><ele>252.0</ele><time>2026-04-03T13:59:43.374Z</time></trkpt><trkpt lat="45.9544805" lon="8.5420967"><ele>252.0</ele><time>2026-04-03T13:59:44.372Z</time></trkpt><trkpt lat="45.954461" lon="8.542263"><ele>252.0</ele><time>2026-04-03T13:59:45.373Z</time></trkpt><trkpt lat="45.9544378" lon="8.542427"><ele>250.5</ele><time>2026-04-03T13:59:46.372Z</time></trkpt><trkpt lat="45.9544133" lon="8.5425876"><ele>249.0</ele><time>2026-04-03T13:59:47.373Z</time></trkpt><trkpt lat="45.954393" lon="8.5427451"><ele>247.5</ele><time>2026-04-03T13:59:48.371Z</time></trkpt><trkpt lat="45.9543737" lon="8.5429113"><ele>246.0</ele><time>2026-04-03T13:59:49.372Z</time></trkpt><trkpt lat="45.954355" lon="8.5430831"><ele>246.0</ele><time>2026-04-03T13:59:50.372Z</time></trkpt><trkpt lat="45.9543312" lon="8.543257"><ele>246.0</ele><time>2026-04-03T13:59:51.372Z</time></trkpt><trkpt lat="45.9543021" lon="8.5434357"><ele>246.0</ele><time>2026-04-03T13:59:52.371Z</time></trkpt><trkpt lat="45.9542585" lon="8.5436145"><ele>246.0</ele><time>2026-04-03T13:59:53.373Z</time></trkpt><trkpt lat="45.9542085" lon="8.5437928"><ele>246.25</ele><time>2026-04-03T13:59:54.386Z</time></trkpt><trkpt lat="45.9541633" lon="8.5439673"><ele>246.5</ele><time>2026-04-03T13:59:55.373Z</time></trkpt><trkpt lat="45.954116" lon="8.544137"><ele>246.75</ele><time>2026-04-03T13:59:56.375Z</time></trkpt><trkpt lat="45.9540773" lon="8.5443002"><ele>247.0</ele><time>2026-04-03T13:59:57.375Z</time></trkpt><trkpt lat="45.9540385" lon="8.5444565"><ele>247.39999999999998</ele><time>2026-04-03T13:59:58.374Z</time></trkpt><trkpt lat="45.9540004" lon="8.5446111"><ele>247.79999999999998</ele><time>2026-04-03T13:59:59.369Z</time></trkpt><trkpt lat="45.9539632" lon="8.5447527"><ele>248.2</ele><time>2026-04-03T14:00:00.377Z</time></trkpt><trkpt lat="45.9539208" lon="8.544887"><ele>248.6</ele><time>2026-04-03T14:00:01.376Z</time></trkpt><trkpt lat="45.9538795" lon="8.5450113"><ele>249.0</ele><time>2026-04-03T14:00:02.37Z</time></trkpt><trkpt lat="45.9538465" lon="8.5451322"><ele>249.0</ele><time>2026-04-03T14:00:03.379Z</time></trkpt><trkpt lat="45.9538149" lon="8.545246"><ele>249.0</ele><time>2026-04-03T14:00:04.373Z</time></trkpt><trkpt lat="45.9537797" lon="8.5453536"><ele>249.0</ele><time>2026-04-03T14:00:05.371Z</time></trkpt><trkpt lat="45.9537498" lon="8.5454621"><ele>249.0</ele><time>2026-04-03T14:00:06.371Z</time></trkpt><trkpt lat="45.9537148" lon="8.5455756"><ele>249.0</ele><time>2026-04-03T14:00:07.367Z</time></trkpt><trkpt lat="45.9536872" lon="8.5457044"><ele>249.0</ele><time>2026-04-03T14:00:08.372Z</time></trkpt><trkpt lat="45.9536564" lon="8.5458321"><ele>249.2</ele><time>2026-04-03T14:00:09.381Z</time></trkpt><trkpt lat="45.9536286" lon="8.5459598"><ele>249.39999999999998</ele><time>2026-04-03T14:00:10.371Z</time></trkpt><trkpt lat="45.9535956" lon="8.5460884"><ele>249.6</ele><time>2026-04-03T14:00:11.371Z</time></trkpt><trkpt lat="45.953562" lon="8.5462161"><ele>249.8</ele><time>2026-04-03T14:00:12.367Z</time></trkpt><trkpt lat="45.9535299" lon="8.5463408"><ele>250.0</ele><time>2026-04-03T14:00:13.37Z</time></trkpt><trkpt lat="45.9535029" lon="8.5464695"><ele>249.99999999999997</ele><time>2026-04-03T14:00:14.366Z</time></trkpt><trkpt lat="45.95347" lon="8.5465988"><ele>250.0</ele><time>2026-04-03T14:00:15.364Z</time></trkpt><trkpt lat="45.9534329" lon="8.5467107"><ele>250.0</ele><time>2026-04-03T14:00:16.37Z</time></trkpt><trkpt lat="45.9534046" lon="8.5468096"><ele>250.0</ele><time>2026-04-03T14:00:17.369Z</time></trkpt><trkpt lat="45.9533739" lon="8.546904"><ele>249.99999999999997</ele><time>2026-04-03T14:00:18.365Z</time></trkpt><trkpt lat="45.9533501" lon="8.5469899"><ele>250.0</ele><time>2026-04-03T14:00:19.37Z</time></trkpt><trkpt lat="45.9533335" lon="8.5470787"><ele>249.99999999999997</ele><time>2026-04-03T14:00:20.367Z</time></trkpt><trkpt lat="45.9533132" lon="8.5471807"><ele>250.0</ele><time>2026-04-03T14:00:21.37Z</time></trkpt><trkpt lat="45.9532862" lon="8.5472924"><ele>250.0</ele><time>2026-04-03T14:00:22.369Z</time></trkpt><trkpt lat="45.9532566" lon="8.5474148"><ele>250.0</ele><time>2026-04-03T14:00:23.37Z</time></trkpt><trkpt lat="45.9532242" lon="8.5475437"><ele>249.99999999999997</ele><time>2026-04-03T14:00:24.369Z</time></trkpt><trkpt lat="45.9531964" lon="8.5476673"><ele>250.0</ele><time>2026-04-03T14:00:25.381Z</time></trkpt><trkpt lat="45.9531712" lon="8.5477936"><ele>250.8</ele><time>2026-04-03T14:00:26.366Z</time></trkpt><trkpt lat="45.9531376" lon="8.5479181"><ele>251.6</ele><time>2026-04-03T14:00:27.366Z</time></trkpt><trkpt lat="45.9530963" lon="8.5480353"><ele>252.39999999999998</ele><time>2026-04-03T14:00:28.37Z</time></trkpt><trkpt lat="45.9530612" lon="8.548138"><ele>253.2</ele><time>2026-04-03T14:00:29.364Z</time></trkpt><trkpt lat="45.9530373" lon="8.5482274"><ele>254.0</ele><time>2026-04-03T14:00:30.362Z</time></trkpt><trkpt lat="45.9530233" lon="8.5484038"><ele>254.00000000000003</ele><time>2026-04-03T14:00:32.362Z</time></trkpt><trkpt lat="45.9530461" lon="8.5485759"><ele>254.0</ele><time>2026-04-03T14:00:34.36Z</time></trkpt><trkpt lat="45.9530961" lon="8.5486897"><ele>254.0</ele><time>2026-04-03T14:00:36.359Z</time></trkpt><trkpt lat="45.9531271" lon="8.5487953"><ele>254.0</ele><time>2026-04-03T14:00:38.375Z</time></trkpt><trkpt lat="45.9531037" lon="8.548886"><ele>254.00000000000003</ele><time>2026-04-03T14:00:40.369Z</time></trkpt><trkpt lat="45.953037" lon="8.5489277"><ele>254.0</ele><time>2026-04-03T14:00:42.376Z</time></trkpt><trkpt lat="45.9529526" lon="8.5489563"><ele>254.33333333333334</ele><time>2026-04-03T14:00:44.37Z</time></trkpt><trkpt lat="45.9528864" lon="8.5490243"><ele>254.66666666666669</ele><time>2026-04-03T14:00:46.371Z</time></trkpt><trkpt lat="45.9528429" lon="8.5491333"><ele>255.0</ele><time>2026-04-03T14:00:48.373Z</time></trkpt><trkpt lat="45.9527755" lon="8.5492823"><ele>255.33333333333331</ele><time>2026-04-03T14:00:50.366Z</time></trkpt><trkpt lat="45.9527408" lon="8.5493708"><ele>255.66666666666666</ele><time>2026-04-03T14:00:51.355Z</time></trkpt><trkpt lat="45.9526967" lon="8.549464"><ele>256.0</ele><time>2026-04-03T14:00:52.359Z</time></trkpt><trkpt lat="45.9526463" lon="8.5495518"><ele>256.0</ele><time>2026-04-03T14:00:53.357Z</time></trkpt><trkpt lat="45.9525804" lon="8.5496401"><ele>256.0</ele><time>2026-04-03T14:00:54.355Z</time></trkpt><trkpt lat="45.9525098" lon="8.5497202"><ele>256.0</ele><time>2026-04-03T14:00:55.351Z</time></trkpt><trkpt lat="45.9524347" lon="8.5497906"><ele>256.0</ele><time>2026-04-03T14:00:56.365Z</time></trkpt><trkpt lat="45.9523567" lon="8.5498505"><ele>256.0</ele><time>2026-04-03T14:00:57.345Z</time></trkpt><trkpt lat="45.9522773" lon="8.549931"><ele>255.5</ele><time>2026-04-03T14:00:58.348Z</time></trkpt><trkpt lat="45.9521948" lon="8.5500227"><ele>255.0</ele><time>2026-04-03T14:00:59.345Z</time></trkpt><trkpt lat="45.9520953" lon="8.5501174"><ele>254.5</ele><time>2026-04-03T14:01:00.362Z</time></trkpt><trkpt lat="45.9519708" lon="8.5502319"><ele>254.0</ele><time>2026-04-03T14:01:01.367Z</time></trkpt><trkpt lat="45.9518467" lon="8.5503752"><ele>253.33333333333334</ele><time>2026-04-03T14:01:02.365Z</time></trkpt><trkpt lat="45.9517218" lon="8.5505379"><ele>252.66666666666669</ele><time>2026-04-03T14:01:03.368Z</time></trkpt><trkpt lat="45.951581" lon="8.5506773"><ele>252.0</ele><time>2026-04-03T14:01:04.365Z</time></trkpt><trkpt lat="45.951449" lon="8.5507977"><ele>252.0</ele><time>2026-04-03T14:01:05.355Z</time></trkpt><trkpt lat="45.9513118" lon="8.5509153"><ele>252.0</ele><time>2026-04-03T14:01:06.361Z</time></trkpt><trkpt lat="45.9511793" lon="8.5510264"><ele>252.0</ele><time>2026-04-03T14:01:07.365Z</time></trkpt><trkpt lat="45.9510662" lon="8.5511362"><ele>251.0</ele><time>2026-04-03T14:01:08.364Z</time></trkpt><trkpt lat="45.9509464" lon="8.5512478"><ele>250.0</ele><time>2026-04-03T14:01:09.378Z</time></trkpt><trkpt lat="45.9508247" lon="8.5513613"><ele>249.0</ele><time>2026-04-03T14:01:10.367Z</time></trkpt><trkpt lat="45.950708" lon="8.5514841"><ele>248.0</ele><time>2026-04-03T14:01:11.363Z</time></trkpt><trkpt lat="45.9505881" lon="8.5515907"><ele>248.0</ele><time>2026-04-03T14:01:12.364Z</time></trkpt><trkpt lat="45.9504797" lon="8.5517101"><ele>248.0</ele><time>2026-04-03T14:01:13.36Z</time></trkpt><trkpt lat="45.9503716" lon="8.5518317"><ele>248.0</ele><time>2026-04-03T14:01:14.365Z</time></trkpt><trkpt lat="45.9502572" lon="8.5519503"><ele>248.0</ele><time>2026-04-03T14:01:15.363Z</time></trkpt><trkpt lat="45.950151" lon="8.5520615"><ele>248.25</ele><time>2026-04-03T14:01:16.359Z</time></trkpt><trkpt lat="45.9500439" lon="8.5521605"><ele>248.5</ele><time>2026-04-03T14:01:17.362Z</time></trkpt><trkpt lat="45.949939" lon="8.5522631"><ele>248.75</ele><time>2026-04-03T14:01:18.358Z</time></trkpt><trkpt lat="45.9498371" lon="8.5523708"><ele>249.0</ele><time>2026-04-03T14:01:19.357Z</time></trkpt><trkpt lat="45.9497409" lon="8.5524762"><ele>249.0</ele><time>2026-04-03T14:01:20.35Z</time></trkpt><trkpt lat="45.9496573" lon="8.5525598"><ele>248.99999999999997</ele><time>2026-04-03T14:01:21.357Z</time></trkpt><trkpt lat="45.9495732" lon="8.5526464"><ele>248.99999999999997</ele><time>2026-04-03T14:01:22.361Z</time></trkpt><trkpt lat="45.9494918" lon="8.5527177"><ele>249.0</ele><time>2026-04-03T14:01:23.358Z</time></trkpt><trkpt lat="45.9494233" lon="8.5527818"><ele>249.0</ele><time>2026-04-03T14:01:24.369Z</time></trkpt><trkpt lat="45.9493675" lon="8.5528566"><ele>248.39999999999998</ele><time>2026-04-03T14:01:25.363Z</time></trkpt><trkpt lat="45.9493226" lon="8.5529461"><ele>247.79999999999998</ele><time>2026-04-03T14:01:26.371Z</time></trkpt><trkpt lat="45.949285" lon="8.5530615"><ele>247.20000000000002</ele><time>2026-04-03T14:01:27.38Z</time></trkpt><trkpt lat="45.9492364" lon="8.5531839"><ele>246.60000000000002</ele><time>2026-04-03T14:01:28.369Z</time></trkpt><trkpt lat="45.9491856" lon="8.5533187"><ele>246.0</ele><time>2026-04-03T14:01:29.375Z</time></trkpt><trkpt lat="45.949119" lon="8.5534605"><ele>246.0</ele><time>2026-04-03T14:01:30.366Z</time></trkpt><trkpt lat="45.9490397" lon="8.5536119"><ele>246.0</ele><time>2026-04-03T14:01:31.366Z</time></trkpt><trkpt lat="45.9489462" lon="8.5537776"><ele>246.0</ele><time>2026-04-03T14:01:32.361Z</time></trkpt><trkpt lat="45.9488499" lon="8.5539457"><ele>246.0</ele><time>2026-04-03T14:01:33.375Z</time></trkpt><trkpt lat="45.9487411" lon="8.5541223"><ele>246.0</ele><time>2026-04-03T14:01:34.365Z</time></trkpt><trkpt lat="45.948629" lon="8.5542873"><ele>246.0</ele><time>2026-04-03T14:01:35.366Z</time></trkpt><trkpt lat="45.9485281" lon="8.5544402"><ele>246.0</ele><time>2026-04-03T14:01:36.37Z</time></trkpt><trkpt lat="45.948432" lon="8.5545919"><ele>245.0</ele><time>2026-04-03T14:01:37.371Z</time></trkpt><trkpt lat="45.9483434" lon="8.554742"><ele>244.0</ele><time>2026-04-03T14:01:38.37Z</time></trkpt><trkpt lat="45.9482511" lon="8.5548953"><ele>243.0</ele><time>2026-04-03T14:01:39.369Z</time></trkpt><trkpt lat="45.948152" lon="8.5550361"><ele>242.0</ele><time>2026-04-03T14:01:40.372Z</time></trkpt><trkpt lat="45.948068" lon="8.5551763"><ele>242.0</ele><time>2026-04-03T14:01:41.369Z</time></trkpt><trkpt lat="45.9479805" lon="8.5553231"><ele>242.0</ele><time>2026-04-03T14:01:42.371Z</time></trkpt><trkpt lat="45.9478956" lon="8.5554655"><ele>242.0</ele><time>2026-04-03T14:01:43.373Z</time></trkpt><trkpt lat="45.9478083" lon="8.5556068"><ele>242.0</ele><time>2026-04-03T14:01:44.37Z</time></trkpt><trkpt lat="45.9477274" lon="8.5557354"><ele>241.8</ele><time>2026-04-03T14:01:45.37Z</time></trkpt><trkpt lat="45.9476526" lon="8.5558629"><ele>241.6</ele><time>2026-04-03T14:01:46.369Z</time></trkpt><trkpt lat="45.9475829" lon="8.5559796"><ele>241.40000000000003</ele><time>2026-04-03T14:01:47.369Z</time></trkpt><trkpt lat="45.9475216" lon="8.5560815"><ele>241.20000000000002</ele><time>2026-04-03T14:01:48.366Z</time></trkpt><trkpt lat="45.9474712" lon="8.5561755"><ele>241.0</ele><time>2026-04-03T14:01:49.37Z</time></trkpt><trkpt lat="45.9474158" lon="8.5562704"><ele>240.99999999999997</ele><time>2026-04-03T14:01:50.365Z</time></trkpt><trkpt lat="45.9473649" lon="8.5563633"><ele>241.0</ele><time>2026-04-03T14:01:51.367Z</time></trkpt><trkpt lat="45.9473132" lon="8.556448"><ele>241.0</ele><time>2026-04-03T14:01:52.366Z</time></trkpt><trkpt lat="45.9472642" lon="8.5565343"><ele>241.0</ele><time>2026-04-03T14:01:53.366Z</time></trkpt><trkpt lat="45.9472177" lon="8.5566204"><ele>240.99999999999997</ele><time>2026-04-03T14:01:54.368Z</time></trkpt><trkpt lat="45.9471704" lon="8.5567074"><ele>241.0</ele><time>2026-04-03T14:01:55.362Z</time></trkpt><trkpt lat="45.9471195" lon="8.5568008"><ele>240.99999999999997</ele><time>2026-04-03T14:01:56.358Z</time></trkpt><trkpt lat="45.9470714" lon="8.5568864"><ele>241.0</ele><time>2026-04-03T14:01:57.355Z</time></trkpt><trkpt lat="45.947019" lon="8.5569686"><ele>241.0</ele><time>2026-04-03T14:01:58.373Z</time></trkpt><trkpt lat="45.9469676" lon="8.5570523"><ele>241.0</ele><time>2026-04-03T14:01:59.361Z</time></trkpt><trkpt lat="45.9469079" lon="8.5571307"><ele>240.99999999999997</ele><time>2026-04-03T14:02:00.361Z</time></trkpt><trkpt lat="45.9468485" lon="8.5572068"><ele>241.0</ele><time>2026-04-03T14:02:01.365Z</time></trkpt><trkpt lat="45.9467916" lon="8.5572894"><ele>240.4</ele><time>2026-04-03T14:02:02.37Z</time></trkpt><trkpt lat="45.946731" lon="8.5573867"><ele>239.8</ele><time>2026-04-03T14:02:03.375Z</time></trkpt><trkpt lat="45.9466721" lon="8.5574895"><ele>239.20000000000002</ele><time>2026-04-03T14:02:04.367Z</time></trkpt><trkpt lat="45.9466122" lon="8.557589"><ele>238.60000000000002</ele><time>2026-04-03T14:02:05.367Z</time></trkpt><trkpt lat="45.9465488" lon="8.5576836"><ele>238.0</ele><time>2026-04-03T14:02:06.363Z</time></trkpt><trkpt lat="45.9464854" lon="8.5577809"><ele>237.4</ele><time>2026-04-03T14:02:07.362Z</time></trkpt><trkpt lat="45.946417" lon="8.5578788"><ele>236.8</ele><time>2026-04-03T14:02:08.361Z</time></trkpt><trkpt lat="45.9463411" lon="8.5579799"><ele>236.2</ele><time>2026-04-03T14:02:09.366Z</time></trkpt><trkpt lat="45.9462689" lon="8.5580819"><ele>235.6</ele><time>2026-04-03T14:02:10.367Z</time></trkpt><trkpt lat="45.9462095" lon="8.5581767"><ele>235.0</ele><time>2026-04-03T14:02:11.364Z</time></trkpt><trkpt lat="45.9461519" lon="8.5582667"><ele>235.0</ele><time>2026-04-03T14:02:12.372Z</time></trkpt><trkpt lat="45.946097" lon="8.5583464"><ele>235.0</ele><time>2026-04-03T14:02:13.368Z</time></trkpt><trkpt lat="45.9460459" lon="8.5584079"><ele>235.0</ele><time>2026-04-03T14:02:14.369Z</time></trkpt><trkpt lat="45.9459604" lon="8.55849"><ele>235.0</ele><time>2026-04-03T14:02:16.366Z</time></trkpt><trkpt lat="45.9458966" lon="8.5585533"><ele>235.0</ele><time>2026-04-03T14:02:18.385Z</time></trkpt><trkpt lat="45.9458224" lon="8.5587504"><ele>234.75</ele><time>2026-04-03T14:02:20.386Z</time></trkpt><trkpt lat="45.9457549" lon="8.5589043"><ele>234.5</ele><time>2026-04-03T14:02:21.38Z</time></trkpt><trkpt lat="45.9456703" lon="8.5590488"><ele>234.25</ele><time>2026-04-03T14:02:22.386Z</time></trkpt><trkpt lat="45.945584" lon="8.5591802"><ele>234.0</ele><time>2026-04-03T14:02:23.383Z</time></trkpt><trkpt lat="45.9455032" lon="8.5593053"><ele>234.0</ele><time>2026-04-03T14:02:24.387Z</time></trkpt><trkpt lat="45.9454218" lon="8.5594376"><ele>234.0</ele><time>2026-04-03T14:02:25.386Z</time></trkpt><trkpt lat="45.9453401" lon="8.5595921"><ele>234.0</ele><time>2026-04-03T14:02:26.381Z</time></trkpt><trkpt lat="45.9452526" lon="8.5597681"><ele>234.0</ele><time>2026-04-03T14:02:27.383Z</time></trkpt><trkpt lat="45.9451329" lon="8.5599605"><ele>234.0</ele><time>2026-04-03T14:02:28.384Z</time></trkpt><trkpt lat="45.9450165" lon="8.5601548"><ele>234.0</ele><time>2026-04-03T14:02:29.394Z</time></trkpt><trkpt lat="45.9448961" lon="8.5603228"><ele>234.0</ele><time>2026-04-03T14:02:30.39Z</time></trkpt><trkpt lat="45.944779" lon="8.5604796"><ele>233.5</ele><time>2026-04-03T14:02:31.385Z</time></trkpt><trkpt lat="45.9446857" lon="8.560635"><ele>233.0</ele><time>2026-04-03T14:02:32.38Z</time></trkpt><trkpt lat="45.9445906" lon="8.5607835"><ele>232.5</ele><time>2026-04-03T14:02:33.387Z</time></trkpt><trkpt lat="45.9444927" lon="8.5609415"><ele>232.0</ele><time>2026-04-03T14:02:34.38Z</time></trkpt><trkpt lat="45.9443924" lon="8.5611123"><ele>231.25</ele><time>2026-04-03T14:02:35.384Z</time></trkpt><trkpt lat="45.9443034" lon="8.5612751"><ele>230.5</ele><time>2026-04-03T14:02:36.38Z</time></trkpt><trkpt lat="45.94421" lon="8.5614293"><ele>229.75</ele><time>2026-04-03T14:02:37.38Z</time></trkpt><trkpt lat="45.944123" lon="8.5615568"><ele>229.0</ele><time>2026-04-03T14:02:38.375Z</time></trkpt><trkpt lat="45.9440376" lon="8.5616667"><ele>228.79999999999998</ele><time>2026-04-03T14:02:39.374Z</time></trkpt><trkpt lat="45.9439733" lon="8.5617592"><ele>228.59999999999997</ele><time>2026-04-03T14:02:40.381Z</time></trkpt><trkpt lat="45.9439121" lon="8.5618456"><ele>228.4</ele><time>2026-04-03T14:02:41.38Z</time></trkpt><trkpt lat="45.9438499" lon="8.5619406"><ele>228.2</ele><time>2026-04-03T14:02:42.377Z</time></trkpt><trkpt lat="45.9437803" lon="8.5620558"><ele>228.0</ele><time>2026-04-03T14:02:43.382Z</time></trkpt><trkpt lat="45.9437073" lon="8.5621809"><ele>228.0</ele><time>2026-04-03T14:02:44.386Z</time></trkpt><trkpt lat="45.9436289" lon="8.5623227"><ele>228.0</ele><time>2026-04-03T14:02:45.388Z</time></trkpt><trkpt lat="45.9435334" lon="8.5624944"><ele>228.0</ele><time>2026-04-03T14:02:46.383Z</time></trkpt><trkpt lat="45.9434232" lon="8.5626822"><ele>227.5</ele><time>2026-04-03T14:02:47.384Z</time></trkpt><trkpt lat="45.9433106" lon="8.5628385"><ele>227.0</ele><time>2026-04-03T14:02:48.379Z</time></trkpt><trkpt lat="45.9432015" lon="8.5629933"><ele>226.5</ele><time>2026-04-03T14:02:49.379Z</time></trkpt><trkpt lat="45.943109" lon="8.5631359"><ele>226.0</ele><time>2026-04-03T14:02:50.375Z</time></trkpt><trkpt lat="45.943018" lon="8.5632738"><ele>225.60000000000002</ele><time>2026-04-03T14:02:51.377Z</time></trkpt><trkpt lat="45.9429439" lon="8.5634014"><ele>225.20000000000002</ele><time>2026-04-03T14:02:52.39Z</time></trkpt><trkpt lat="45.9428757" lon="8.5635137"><ele>224.79999999999998</ele><time>2026-04-03T14:02:53.379Z</time></trkpt><trkpt lat="45.9428116" lon="8.5636066"><ele>224.39999999999998</ele><time>2026-04-03T14:02:54.38Z</time></trkpt><trkpt lat="45.9427497" lon="8.5636961"><ele>224.0</ele><time>2026-04-03T14:02:55.379Z</time></trkpt><trkpt lat="45.9426953" lon="8.5637655"><ele>224.00000000000003</ele><time>2026-04-03T14:02:56.379Z</time></trkpt><trkpt lat="45.9426399" lon="8.563865"><ele>224.0</ele><time>2026-04-03T14:02:58.384Z</time></trkpt><trkpt lat="45.9425876" lon="8.5639466"><ele>224.0</ele><time>2026-04-03T14:03:02.386Z</time></trkpt><trkpt lat="45.9425567" lon="8.5640409"><ele>224.0</ele><time>2026-04-03T14:03:04.383Z</time></trkpt><trkpt lat="45.9425718" lon="8.5641368"><ele>224.00000000000003</ele><time>2026-04-03T14:03:06.39Z</time></trkpt><trkpt lat="45.9426924" lon="8.5642006"><ele>224.0</ele><time>2026-04-03T14:03:08.381Z</time></trkpt><trkpt lat="45.9427667" lon="8.5642451"><ele>224.0</ele><time>2026-04-03T14:03:09.381Z</time></trkpt><trkpt lat="45.9428406" lon="8.5643265"><ele>224.0</ele><time>2026-04-03T14:03:10.384Z</time></trkpt><trkpt lat="45.9429243" lon="8.5644468"><ele>224.0</ele><time>2026-04-03T14:03:11.382Z</time></trkpt><trkpt lat="45.9430087" lon="8.5645689"><ele>224.0</ele><time>2026-04-03T14:03:12.379Z</time></trkpt><trkpt lat="45.943091" lon="8.564692"><ele>223.6</ele><time>2026-04-03T14:03:13.378Z</time></trkpt><trkpt lat="45.9431649" lon="8.5648041"><ele>223.2</ele><time>2026-04-03T14:03:14.378Z</time></trkpt><trkpt lat="45.9432329" lon="8.5649127"><ele>222.79999999999998</ele><time>2026-04-03T14:03:15.38Z</time></trkpt><trkpt lat="45.9433001" lon="8.5650186"><ele>222.39999999999998</ele><time>2026-04-03T14:03:16.378Z</time></trkpt><trkpt lat="45.9433611" lon="8.565121"><ele>222.0</ele><time>2026-04-03T14:03:17.379Z</time></trkpt><trkpt lat="45.9434212" lon="8.5652201"><ele>222.0</ele><time>2026-04-03T14:03:18.382Z</time></trkpt><trkpt lat="45.9434797" lon="8.5653104"><ele>222.0</ele><time>2026-04-03T14:03:19.374Z</time></trkpt><trkpt lat="45.9435388" lon="8.5653971"><ele>222.0</ele><time>2026-04-03T14:03:20.381Z</time></trkpt><trkpt lat="45.9435897" lon="8.5654788"><ele>222.0</ele><time>2026-04-03T14:03:21.378Z</time></trkpt><trkpt lat="45.9436435" lon="8.565562"><ele>222.0</ele><time>2026-04-03T14:03:22.385Z</time></trkpt><trkpt lat="45.9436921" lon="8.5656464"><ele>222.0</ele><time>2026-04-03T14:03:23.382Z</time></trkpt><trkpt lat="45.9437443" lon="8.5657363"><ele>221.5</ele><time>2026-04-03T14:03:24.382Z</time></trkpt><trkpt lat="45.9438024" lon="8.5658334"><ele>221.0</ele><time>2026-04-03T14:03:25.383Z</time></trkpt><trkpt lat="45.9438584" lon="8.5659317"><ele>220.5</ele><time>2026-04-03T14:03:26.383Z</time></trkpt><trkpt lat="45.9439165" lon="8.566031"><ele>220.0</ele><time>2026-04-03T14:03:27.382Z</time></trkpt><trkpt lat="45.9439756" lon="8.5661314"><ele>219.5</ele><time>2026-04-03T14:03:28.389Z</time></trkpt><trkpt lat="45.9440343" lon="8.5662294"><ele>219.0</ele><time>2026-04-03T14:03:29.386Z</time></trkpt><trkpt lat="45.9440951" lon="8.5663241"><ele>219.0</ele><time>2026-04-03T14:03:30.387Z</time></trkpt><trkpt lat="45.9441552" lon="8.5664206"><ele>218.99999999999997</ele><time>2026-04-03T14:03:31.396Z</time></trkpt><trkpt lat="45.9442148" lon="8.566516"><ele>218.99999999999997</ele><time>2026-04-03T14:03:32.383Z</time></trkpt><trkpt lat="45.9442768" lon="8.5666048"><ele>219.0</ele><time>2026-04-03T14:03:33.384Z</time></trkpt><trkpt lat="45.9443288" lon="8.5666867"><ele>219.0</ele><time>2026-04-03T14:03:34.376Z</time></trkpt><trkpt lat="45.9444035" lon="8.5668041"><ele>221.0</ele><time>2026-04-03T14:03:36.381Z</time></trkpt><trkpt lat="45.9444536" lon="8.5669465"><ele>222.99999999999997</ele><time>2026-04-03T14:03:38.381Z</time></trkpt><trkpt lat="45.9444799" lon="8.567066"><ele>224.99999999999997</ele><time>2026-04-03T14:03:39.387Z</time></trkpt><trkpt lat="45.9445046" lon="8.567198"><ele>227.0</ele><time>2026-04-03T14:03:40.383Z</time></trkpt><trkpt lat="45.9445122" lon="8.5673448"><ele>229.0</ele><time>2026-04-03T14:03:41.374Z</time></trkpt><trkpt lat="45.9445072" lon="8.5675071"><ele>230.75</ele><time>2026-04-03T14:03:42.386Z</time></trkpt><trkpt lat="45.9444789" lon="8.567679"><ele>232.5</ele><time>2026-04-03T14:03:43.378Z</time></trkpt><trkpt lat="45.9444177" lon="8.567862"><ele>234.25</ele><time>2026-04-03T14:03:44.382Z</time></trkpt><trkpt lat="45.9443245" lon="8.5680758"><ele>236.0</ele><time>2026-04-03T14:03:45.374Z</time></trkpt><trkpt lat="45.9442051" lon="8.5682991"><ele>236.0</ele><time>2026-04-03T14:03:46.375Z</time></trkpt><trkpt lat="45.944077" lon="8.5685102"><ele>236.0</ele><time>2026-04-03T14:03:47.374Z</time></trkpt><trkpt lat="45.9439517" lon="8.5687477"><ele>236.0</ele><time>2026-04-03T14:03:48.386Z</time></trkpt><trkpt lat="45.9438363" lon="8.5689937"><ele>238.0</ele><time>2026-04-03T14:03:49.377Z</time></trkpt><trkpt lat="45.9437481" lon="8.5692149"><ele>240.0</ele><time>2026-04-03T14:03:50.38Z</time></trkpt><trkpt lat="45.9436805" lon="8.5693904"><ele>242.0</ele><time>2026-04-03T14:03:51.381Z</time></trkpt><trkpt lat="45.9436288" lon="8.5695471"><ele>244.0</ele><time>2026-04-03T14:03:52.38Z</time></trkpt><trkpt lat="45.9435942" lon="8.5697025"><ele>246.0</ele><time>2026-04-03T14:03:53.381Z</time></trkpt><trkpt lat="45.9435855" lon="8.5698638"><ele>248.0</ele><time>2026-04-03T14:03:54.38Z</time></trkpt><trkpt lat="45.9436148" lon="8.5700273"><ele>250.0</ele><time>2026-04-03T14:03:55.385Z</time></trkpt><trkpt lat="45.9437136" lon="8.5701594"><ele>252.0</ele><time>2026-04-03T14:03:56.386Z</time></trkpt><trkpt lat="45.9438174" lon="8.5702356"><ele>252.0</ele><time>2026-04-03T14:03:57.382Z</time></trkpt><trkpt lat="45.9439333" lon="8.5702645"><ele>252.0</ele><time>2026-04-03T14:03:58.383Z</time></trkpt><trkpt lat="45.9440723" lon="8.5702384"><ele>252.0</ele><time>2026-04-03T14:03:59.383Z</time></trkpt><trkpt lat="45.944187" lon="8.5701409"><ele>252.0</ele><time>2026-04-03T14:04:00.374Z</time></trkpt><trkpt lat="45.9442761" lon="8.5699853"><ele>255.0</ele><time>2026-04-03T14:04:01.375Z</time></trkpt><trkpt lat="45.9443479" lon="8.5697858"><ele>258.0</ele><time>2026-04-03T14:04:02.384Z</time></trkpt><trkpt lat="45.9444154" lon="8.5695135"><ele>261.0</ele><time>2026-04-03T14:04:03.38Z</time></trkpt><trkpt lat="45.9444952" lon="8.5692279"><ele>261.0</ele><time>2026-04-03T14:04:04.374Z</time></trkpt><trkpt lat="45.9446073" lon="8.5689659"><ele>261.0</ele><time>2026-04-03T14:04:05.375Z</time></trkpt><trkpt lat="45.9447279" lon="8.5687024"><ele>261.0</ele><time>2026-04-03T14:04:06.377Z</time></trkpt><trkpt lat="45.9448697" lon="8.5684603"><ele>260.3333333333333</ele><time>2026-04-03T14:04:07.379Z</time></trkpt><trkpt lat="45.9450042" lon="8.5682419"><ele>259.66666666666663</ele><time>2026-04-03T14:04:08.376Z</time></trkpt><trkpt lat="45.9451299" lon="8.5680346"><ele>259.0</ele><time>2026-04-03T14:04:09.379Z</time></trkpt><trkpt lat="45.9452272" lon="8.5678262"><ele>259.0</ele><time>2026-04-03T14:04:10.374Z</time></trkpt><trkpt lat="45.9453179" lon="8.5676437"><ele>259.0</ele><time>2026-04-03T14:04:11.377Z</time></trkpt><trkpt lat="45.9453994" lon="8.5674849"><ele>259.0</ele><time>2026-04-03T14:04:12.38Z</time></trkpt><trkpt lat="45.9454657" lon="8.5673406"><ele>259.0</ele><time>2026-04-03T14:04:13.378Z</time></trkpt><trkpt lat="45.9455343" lon="8.567212"><ele>259.0</ele><time>2026-04-03T14:04:14.381Z</time></trkpt><trkpt lat="45.9456211" lon="8.5671133"><ele>259.0</ele><time>2026-04-03T14:04:15.383Z</time></trkpt><trkpt lat="45.9457266" lon="8.5670812"><ele>259.0</ele><time>2026-04-03T14:04:16.383Z</time></trkpt><trkpt lat="45.9458403" lon="8.5671326"><ele>259.0</ele><time>2026-04-03T14:04:17.377Z</time></trkpt><trkpt lat="45.945943" lon="8.5672375"><ele>264.25</ele><time>2026-04-03T14:04:18.381Z</time></trkpt><trkpt lat="45.9460122" lon="8.5673809"><ele>269.5</ele><time>2026-04-03T14:04:19.383Z</time></trkpt><trkpt lat="45.9460456" lon="8.5675457"><ele>274.75</ele><time>2026-04-03T14:04:20.38Z</time></trkpt><trkpt lat="45.9460447" lon="8.5677136"><ele>280.0</ele><time>2026-04-03T14:04:21.378Z</time></trkpt><trkpt lat="45.9460261" lon="8.5678633"><ele>277.5</ele><time>2026-04-03T14:04:22.383Z</time></trkpt><trkpt lat="45.9459704" lon="8.5679857"><ele>275.0</ele><time>2026-04-03T14:04:23.378Z</time></trkpt><trkpt lat="45.945861" lon="8.5680857"><ele>272.5</ele><time>2026-04-03T14:04:24.371Z</time></trkpt><trkpt lat="45.9457369" lon="8.568185"><ele>270.0</ele><time>2026-04-03T14:04:25.378Z</time></trkpt><trkpt lat="45.9456182" lon="8.568282"><ele>270.0</ele><time>2026-04-03T14:04:26.381Z</time></trkpt><trkpt lat="45.9455143" lon="8.5683957"><ele>270.0</ele><time>2026-04-03T14:04:27.381Z</time></trkpt><trkpt lat="45.9454226" lon="8.568532"><ele>270.0</ele><time>2026-04-03T14:04:28.383Z</time></trkpt><trkpt lat="45.9453534" lon="8.5686861"><ele>270.0</ele><time>2026-04-03T14:04:29.382Z</time></trkpt><trkpt lat="45.9453123" lon="8.5688513"><ele>271.75</ele><time>2026-04-03T14:04:30.379Z</time></trkpt><trkpt lat="45.9452911" lon="8.5690208"><ele>273.5</ele><time>2026-04-03T14:04:31.39Z</time></trkpt><trkpt lat="45.9453008" lon="8.5692024"><ele>275.25</ele><time>2026-04-03T14:04:32.379Z</time></trkpt><trkpt lat="45.9453235" lon="8.5693882"><ele>277.0</ele><time>2026-04-03T14:04:33.399Z</time></trkpt><trkpt lat="45.9453471" lon="8.5695678"><ele>278.3333333333333</ele><time>2026-04-03T14:04:34.381Z</time></trkpt><trkpt lat="45.9453783" lon="8.5697575"><ele>279.6666666666667</ele><time>2026-04-03T14:04:35.384Z</time></trkpt><trkpt lat="45.9454074" lon="8.5699691"><ele>281.0</ele><time>2026-04-03T14:04:36.39Z</time></trkpt><trkpt lat="45.9454708" lon="8.5702481"><ele>281.0</ele><time>2026-04-03T14:04:37.38Z</time></trkpt><trkpt lat="45.9455571" lon="8.5705296"><ele>281.0</ele><time>2026-04-03T14:04:38.387Z</time></trkpt><trkpt lat="45.9456304" lon="8.5707826"><ele>281.0</ele><time>2026-04-03T14:04:39.387Z</time></trkpt><trkpt lat="45.9456915" lon="8.5710198"><ele>280.33333333333337</ele><time>2026-04-03T14:04:40.386Z</time></trkpt><trkpt lat="45.9457588" lon="8.5712577"><ele>279.6666666666667</ele><time>2026-04-03T14:04:41.386Z</time></trkpt><trkpt lat="45.9458232" lon="8.5714747"><ele>279.0</ele><time>2026-04-03T14:04:42.384Z</time></trkpt><trkpt lat="45.945885" lon="8.5716888"><ele>285.3333333333333</ele><time>2026-04-03T14:04:43.377Z</time></trkpt><trkpt lat="45.9459359" lon="8.5719111"><ele>291.66666666666663</ele><time>2026-04-03T14:04:44.379Z</time></trkpt><trkpt lat="45.9459959" lon="8.572132"><ele>298.0</ele><time>2026-04-03T14:04:45.378Z</time></trkpt><trkpt lat="45.9460603" lon="8.5723497"><ele>298.0</ele><time>2026-04-03T14:04:46.38Z</time></trkpt><trkpt lat="45.9461202" lon="8.5725716"><ele>298.0</ele><time>2026-04-03T14:04:47.379Z</time></trkpt><trkpt lat="45.9461773" lon="8.5727826"><ele>298.0</ele><time>2026-04-03T14:04:48.379Z</time></trkpt><trkpt lat="45.946228" lon="8.5729901"><ele>298.66666666666663</ele><time>2026-04-03T14:04:49.383Z</time></trkpt><trkpt lat="45.9462811" lon="8.5731968"><ele>299.3333333333333</ele><time>2026-04-03T14:04:50.376Z</time></trkpt><trkpt lat="45.9463413" lon="8.573398"><ele>300.0</ele><time>2026-04-03T14:04:51.378Z</time></trkpt><trkpt lat="45.9464006" lon="8.5736012"><ele>299.25</ele><time>2026-04-03T14:04:52.378Z</time></trkpt><trkpt lat="45.9464603" lon="8.5737975"><ele>298.5</ele><time>2026-04-03T14:04:53.377Z</time></trkpt><trkpt lat="45.9465091" lon="8.5739909"><ele>297.75</ele><time>2026-04-03T14:04:54.378Z</time></trkpt><trkpt lat="45.9465723" lon="8.5741818"><ele>297.0</ele><time>2026-04-03T14:04:55.379Z</time></trkpt><trkpt lat="45.9466236" lon="8.5743573"><ele>296.75</ele><time>2026-04-03T14:04:56.374Z</time></trkpt><trkpt lat="45.9466803" lon="8.5745299"><ele>296.5</ele><time>2026-04-03T14:04:57.374Z</time></trkpt><trkpt lat="45.9467274" lon="8.5746894"><ele>296.25</ele><time>2026-04-03T14:04:58.379Z</time></trkpt><trkpt lat="45.9467774" lon="8.5748741"><ele>296.0</ele><time>2026-04-03T14:04:59.379Z</time></trkpt><trkpt lat="45.946832" lon="8.5750809"><ele>305.33333333333337</ele><time>2026-04-03T14:05:00.376Z</time></trkpt><trkpt lat="45.9468929" lon="8.5753152"><ele>314.6666666666667</ele><time>2026-04-03T14:05:01.38Z</time></trkpt><trkpt lat="45.9469421" lon="8.5755687"><ele>324.0</ele><time>2026-04-03T14:05:02.371Z</time></trkpt><trkpt lat="45.9469853" lon="8.5758337"><ele>324.0</ele><time>2026-04-03T14:05:03.376Z</time></trkpt><trkpt lat="45.9470167" lon="8.576078"><ele>324.0</ele><time>2026-04-03T14:05:04.384Z</time></trkpt><trkpt lat="45.947067" lon="8.5763119"><ele>324.0</ele><time>2026-04-03T14:05:05.372Z</time></trkpt><trkpt lat="45.9471194" lon="8.5765119"><ele>323.0</ele><time>2026-04-03T14:05:06.371Z</time></trkpt><trkpt lat="45.9471935" lon="8.5766982"><ele>322.0</ele><time>2026-04-03T14:05:07.369Z</time></trkpt><trkpt lat="45.947267" lon="8.5768639"><ele>321.0</ele><time>2026-04-03T14:05:08.365Z</time></trkpt><trkpt lat="45.9473442" lon="8.5770241"><ele>320.0</ele><time>2026-04-03T14:05:09.365Z</time></trkpt><trkpt lat="45.9474073" lon="8.5771704"><ele>318.25</ele><time>2026-04-03T14:05:10.366Z</time></trkpt><trkpt lat="45.9474425" lon="8.5773343"><ele>316.5</ele><time>2026-04-03T14:05:11.373Z</time></trkpt><trkpt lat="45.9474559" lon="8.5775082"><ele>314.75</ele><time>2026-04-03T14:05:12.376Z</time></trkpt><trkpt lat="45.9474379" lon="8.577695"><ele>313.0</ele><time>2026-04-03T14:05:13.373Z</time></trkpt><trkpt lat="45.9474198" lon="8.5778967"><ele>313.0</ele><time>2026-04-03T14:05:14.379Z</time></trkpt><trkpt lat="45.9473972" lon="8.5781028"><ele>313.0</ele><time>2026-04-03T14:05:15.379Z</time></trkpt><trkpt lat="45.9473739" lon="8.5783025"><ele>313.0</ele><time>2026-04-03T14:05:16.376Z</time></trkpt><trkpt lat="45.9473751" lon="8.5784932"><ele>313.0</ele><time>2026-04-03T14:05:17.374Z</time></trkpt><trkpt lat="45.9474003" lon="8.5786682"><ele>310.5</ele><time>2026-04-03T14:05:18.374Z</time></trkpt><trkpt lat="45.9474489" lon="8.5788206"><ele>308.0</ele><time>2026-04-03T14:05:19.378Z</time></trkpt><trkpt lat="45.9475322" lon="8.5789692"><ele>305.5</ele><time>2026-04-03T14:05:20.378Z</time></trkpt><trkpt lat="45.947611" lon="8.5790909"><ele>303.0</ele><time>2026-04-03T14:05:21.376Z</time></trkpt><trkpt lat="45.9476682" lon="8.5792111"><ele>308.2</ele><time>2026-04-03T14:05:22.37Z</time></trkpt><trkpt lat="45.9476971" lon="8.5793494"><ele>313.4</ele><time>2026-04-03T14:05:23.368Z</time></trkpt><trkpt lat="45.9477061" lon="8.5794848"><ele>318.59999999999997</ele><time>2026-04-03T14:05:24.373Z</time></trkpt><trkpt lat="45.9476921" lon="8.5796325"><ele>323.8</ele><time>2026-04-03T14:05:25.375Z</time></trkpt><trkpt lat="45.947674" lon="8.5797826"><ele>329.0</ele><time>2026-04-03T14:05:26.38Z</time></trkpt><trkpt lat="45.947644" lon="8.5799311"><ele>329.0</ele><time>2026-04-03T14:05:27.38Z</time></trkpt><trkpt lat="45.9476079" lon="8.5800731"><ele>329.0</ele><time>2026-04-03T14:05:28.384Z</time></trkpt><trkpt lat="45.947575" lon="8.5802083"><ele>329.0</ele><time>2026-04-03T14:05:29.385Z</time></trkpt><trkpt lat="45.9475416" lon="8.5803489"><ele>329.0</ele><time>2026-04-03T14:05:30.384Z</time></trkpt><trkpt lat="45.9475124" lon="8.5804951"><ele>329.0</ele><time>2026-04-03T14:05:31.385Z</time></trkpt><trkpt lat="45.9475141" lon="8.5806495"><ele>328.25</ele><time>2026-04-03T14:05:32.384Z</time></trkpt><trkpt lat="45.9475441" lon="8.5808059"><ele>327.5</ele><time>2026-04-03T14:05:33.392Z</time></trkpt><trkpt lat="45.947616" lon="8.5809687"><ele>326.75</ele><time>2026-04-03T14:05:34.374Z</time></trkpt><trkpt lat="45.9477071" lon="8.5811289"><ele>326.0</ele><time>2026-04-03T14:05:35.394Z</time></trkpt><trkpt lat="45.9478045" lon="8.5812852"><ele>325.75</ele><time>2026-04-03T14:05:36.377Z</time></trkpt><trkpt lat="45.9479029" lon="8.5814491"><ele>325.5</ele><time>2026-04-03T14:05:37.374Z</time></trkpt><trkpt lat="45.9479969" lon="8.5816178"><ele>325.25</ele><time>2026-04-03T14:05:38.377Z</time></trkpt><trkpt lat="45.9480896" lon="8.5817846"><ele>325.0</ele><time>2026-04-03T14:05:39.377Z</time></trkpt><trkpt lat="45.9481699" lon="8.5819497"><ele>324.3333333333333</ele><time>2026-04-03T14:05:40.374Z</time></trkpt><trkpt lat="45.9482348" lon="8.5821088"><ele>323.6666666666667</ele><time>2026-04-03T14:05:41.376Z</time></trkpt><trkpt lat="45.9483116" lon="8.582302"><ele>323.0</ele><time>2026-04-03T14:05:42.375Z</time></trkpt><trkpt lat="45.948396" lon="8.5825308"><ele>327.6666666666667</ele><time>2026-04-03T14:05:43.375Z</time></trkpt><trkpt lat="45.9484738" lon="8.5827465"><ele>332.3333333333333</ele><time>2026-04-03T14:05:44.372Z</time></trkpt><trkpt lat="45.948534" lon="8.5829477"><ele>337.0</ele><time>2026-04-03T14:05:45.373Z</time></trkpt><trkpt lat="45.9486026" lon="8.5831417"><ele>337.0</ele><time>2026-04-03T14:05:46.366Z</time></trkpt><trkpt lat="45.9486685" lon="8.5833337"><ele>337.0</ele><time>2026-04-03T14:05:47.372Z</time></trkpt><trkpt lat="45.9487243" lon="8.5835138"><ele>337.0</ele><time>2026-04-03T14:05:48.381Z</time></trkpt><trkpt lat="45.948767" lon="8.5836911"><ele>337.0</ele><time>2026-04-03T14:05:49.381Z</time></trkpt><trkpt lat="45.9488209" lon="8.583888"><ele>337.0</ele><time>2026-04-03T14:05:50.378Z</time></trkpt><trkpt lat="45.9488802" lon="8.5840759"><ele>337.0</ele><time>2026-04-03T14:05:51.378Z</time></trkpt><trkpt lat="45.9489298" lon="8.5842641"><ele>337.0</ele><time>2026-04-03T14:05:52.373Z</time></trkpt><trkpt lat="45.9489793" lon="8.5844509"><ele>337.0</ele><time>2026-04-03T14:05:53.375Z</time></trkpt><trkpt lat="45.9490311" lon="8.5846379"><ele>336.25</ele><time>2026-04-03T14:05:54.376Z</time></trkpt><trkpt lat="45.9490718" lon="8.5848262"><ele>335.5</ele><time>2026-04-03T14:05:55.378Z</time></trkpt><trkpt lat="45.9491025" lon="8.5850161"><ele>334.75</ele><time>2026-04-03T14:05:56.378Z</time></trkpt><trkpt lat="45.9491182" lon="8.5851997"><ele>334.0</ele><time>2026-04-03T14:05:57.376Z</time></trkpt><trkpt lat="45.94911" lon="8.5853776"><ele>333.25</ele><time>2026-04-03T14:05:58.378Z</time></trkpt><trkpt lat="45.9490474" lon="8.5855395"><ele>332.5</ele><time>2026-04-03T14:05:59.371Z</time></trkpt><trkpt lat="45.9489777" lon="8.5856878"><ele>331.75</ele><time>2026-04-03T14:06:00.375Z</time></trkpt><trkpt lat="45.9489252" lon="8.5858317"><ele>331.0</ele><time>2026-04-03T14:06:01.382Z</time></trkpt><trkpt lat="45.9488903" lon="8.5859743"><ele>331.0</ele><time>2026-04-03T14:06:02.374Z</time></trkpt><trkpt lat="45.9488748" lon="8.5861143"><ele>331.0</ele><time>2026-04-03T14:06:03.382Z</time></trkpt><trkpt lat="45.9488665" lon="8.5862515"><ele>331.0</ele><time>2026-04-03T14:06:04.374Z</time></trkpt><trkpt lat="45.948845" lon="8.5863837"><ele>331.0</ele><time>2026-04-03T14:06:05.374Z</time></trkpt><trkpt lat="45.9488185" lon="8.5865228"><ele>331.0</ele><time>2026-04-03T14:06:06.383Z</time></trkpt><trkpt lat="45.9487935" lon="8.5866672"><ele>331.0</ele><time>2026-04-03T14:06:07.37Z</time></trkpt><trkpt lat="45.9487711" lon="8.5867894"><ele>331.0</ele><time>2026-04-03T14:06:08.376Z</time></trkpt><trkpt lat="45.9487357" lon="8.5869308"><ele>331.0</ele><time>2026-04-03T14:06:10.37Z</time></trkpt><trkpt lat="45.9486681" lon="8.5870552"><ele>331.0</ele><time>2026-04-03T14:06:12.371Z</time></trkpt><trkpt lat="45.9486206" lon="8.5871331"><ele>331.0</ele><time>2026-04-03T14:06:14.368Z</time></trkpt><trkpt lat="45.9485975" lon="8.5872324"><ele>331.0</ele><time>2026-04-03T14:06:17.382Z</time></trkpt><trkpt lat="45.9485767" lon="8.5873477"><ele>330.8333333333333</ele><time>2026-04-03T14:06:19.381Z</time></trkpt><trkpt lat="45.9485393" lon="8.587518"><ele>330.66666666666663</ele><time>2026-04-03T14:06:21.379Z</time></trkpt><trkpt lat="45.948521" lon="8.5876169"><ele>330.5</ele><time>2026-04-03T14:06:22.379Z</time></trkpt><trkpt lat="45.9485004" lon="8.5877204"><ele>330.3333333333333</ele><time>2026-04-03T14:06:23.38Z</time></trkpt><trkpt lat="45.9484797" lon="8.5878253"><ele>330.1666666666667</ele><time>2026-04-03T14:06:24.375Z</time></trkpt><trkpt lat="45.9484603" lon="8.5879286"><ele>330.0</ele><time>2026-04-03T14:06:25.373Z</time></trkpt><trkpt lat="45.9484456" lon="8.5880318"><ele>330.0</ele><time>2026-04-03T14:06:26.374Z</time></trkpt><trkpt lat="45.9484312" lon="8.5881412"><ele>330.0</ele><time>2026-04-03T14:06:27.375Z</time></trkpt><trkpt lat="45.94842" lon="8.5882524"><ele>330.0</ele><time>2026-04-03T14:06:28.378Z</time></trkpt><trkpt lat="45.9484154" lon="8.5883596"><ele>330.0</ele><time>2026-04-03T14:06:29.376Z</time></trkpt><trkpt lat="45.948423" lon="8.5885073"><ele>330.0</ele><time>2026-04-03T14:06:31.382Z</time></trkpt><trkpt lat="45.9484298" lon="8.5886447"><ele>330.0</ele><time>2026-04-03T14:06:33.382Z</time></trkpt><trkpt lat="45.9484381" lon="8.5887752"><ele>327.2</ele><time>2026-04-03T14:06:35.372Z</time></trkpt><trkpt lat="45.9484487" lon="8.5889055"><ele>324.4</ele><time>2026-04-03T14:06:37.384Z</time></trkpt><trkpt lat="45.9484566" lon="8.5890034"><ele>321.6</ele><time>2026-04-03T14:06:39.376Z</time></trkpt><trkpt lat="45.9485219" lon="8.5890827"><ele>318.8</ele><time>2026-04-03T14:06:42.373Z</time></trkpt><trkpt lat="45.9486321" lon="8.5891055"><ele>316.0</ele><time>2026-04-03T14:06:44.375Z</time></trkpt><trkpt lat="45.9487539" lon="8.5891626"><ele>316.0</ele><time>2026-04-03T14:06:46.365Z</time></trkpt><trkpt lat="45.9488167" lon="8.5892022"><ele>316.0</ele><time>2026-04-03T14:06:47.363Z</time></trkpt><trkpt lat="45.9488772" lon="8.5892594"><ele>316.0</ele><time>2026-04-03T14:06:48.36Z</time></trkpt><trkpt lat="45.9489283" lon="8.5893293"><ele>316.0</ele><time>2026-04-03T14:06:49.362Z</time></trkpt><trkpt lat="45.9489801" lon="8.5894078"><ele>316.0</ele><time>2026-04-03T14:06:50.371Z</time></trkpt><trkpt lat="45.9490353" lon="8.589497"><ele>316.0</ele><time>2026-04-03T14:06:51.374Z</time></trkpt><trkpt lat="45.9490915" lon="8.5895921"><ele>315.5</ele><time>2026-04-03T14:06:52.374Z</time></trkpt><trkpt lat="45.9491477" lon="8.5896802"><ele>315.0</ele><time>2026-04-03T14:06:53.37Z</time></trkpt><trkpt lat="45.9492044" lon="8.5897738"><ele>314.5</ele><time>2026-04-03T14:06:54.374Z</time></trkpt><trkpt lat="45.9492414" lon="8.5898634"><ele>314.0</ele><time>2026-04-03T14:06:55.377Z</time></trkpt><trkpt lat="45.9492519" lon="8.589958"><ele>313.5</ele><time>2026-04-03T14:06:56.378Z</time></trkpt><trkpt lat="45.9492215" lon="8.5900687"><ele>313.0</ele><time>2026-04-03T14:06:57.377Z</time></trkpt><trkpt lat="45.9491668" lon="8.5901888"><ele>313.0</ele><time>2026-04-03T14:06:58.371Z</time></trkpt><trkpt lat="45.9490804" lon="8.5902976"><ele>313.0</ele><time>2026-04-03T14:06:59.376Z</time></trkpt><trkpt lat="45.9489804" lon="8.5904105"><ele>313.0</ele><time>2026-04-03T14:07:00.375Z</time></trkpt><trkpt lat="45.9488838" lon="8.5905131"><ele>313.0</ele><time>2026-04-03T14:07:01.38Z</time></trkpt><trkpt lat="45.9487782" lon="8.5906101"><ele>312.25</ele><time>2026-04-03T14:07:02.375Z</time></trkpt><trkpt lat="45.9486704" lon="8.5906945"><ele>311.5</ele><time>2026-04-03T14:07:03.382Z</time></trkpt><trkpt lat="45.9485574" lon="8.5907521"><ele>310.75</ele><time>2026-04-03T14:07:04.373Z</time></trkpt><trkpt lat="45.9484435" lon="8.5907744"><ele>310.0</ele><time>2026-04-03T14:07:05.381Z</time></trkpt><trkpt lat="45.9483281" lon="8.5907776"><ele>310.0</ele><time>2026-04-03T14:07:06.374Z</time></trkpt><trkpt lat="45.9482157" lon="8.5907728"><ele>310.0</ele><time>2026-04-03T14:07:07.377Z</time></trkpt><trkpt lat="45.9481072" lon="8.5907767"><ele>310.0</ele><time>2026-04-03T14:07:08.391Z</time></trkpt><trkpt lat="45.9480109" lon="8.5908087"><ele>310.0</ele><time>2026-04-03T14:07:09.375Z</time></trkpt><trkpt lat="45.9479153" lon="8.5908894"><ele>310.0</ele><time>2026-04-03T14:07:10.373Z</time></trkpt><trkpt lat="45.9478189" lon="8.5909835"><ele>310.0</ele><time>2026-04-03T14:07:11.375Z</time></trkpt><trkpt lat="45.9477217" lon="8.5910733"><ele>310.0</ele><time>2026-04-03T14:07:12.375Z</time></trkpt><trkpt lat="45.9476268" lon="8.5911445"><ele>310.0</ele><time>2026-04-03T14:07:13.379Z</time></trkpt><trkpt lat="45.9475299" lon="8.5911932"><ele>310.0</ele><time>2026-04-03T14:07:14.374Z</time></trkpt><trkpt lat="45.947431" lon="8.5912088"><ele>310.0</ele><time>2026-04-03T14:07:15.374Z</time></trkpt><trkpt lat="45.947348" lon="8.5912036"><ele>309.66666666666663</ele><time>2026-04-03T14:07:16.373Z</time></trkpt><trkpt lat="45.9472585" lon="8.5911952"><ele>309.3333333333333</ele><time>2026-04-03T14:07:18.37Z</time></trkpt><trkpt lat="45.9471958" lon="8.5912266"><ele>309.0</ele><time>2026-04-03T14:07:23.379Z</time></trkpt><trkpt lat="45.9470967" lon="8.5913051"><ele>308.6666666666667</ele><time>2026-04-03T14:07:25.371Z</time></trkpt><trkpt lat="45.9470427" lon="8.5913633"><ele>308.33333333333337</ele><time>2026-04-03T14:07:26.373Z</time></trkpt><trkpt lat="45.9469903" lon="8.5914229"><ele>308.0</ele><time>2026-04-03T14:07:27.372Z</time></trkpt><trkpt lat="45.9469023" lon="8.5915254"><ele>308.0</ele><time>2026-04-03T14:07:29.37Z</time></trkpt><trkpt lat="45.9468459" lon="8.5915988"><ele>308.0</ele><time>2026-04-03T14:07:31.38Z</time></trkpt><trkpt lat="45.9468319" lon="8.5917073"><ele>308.0</ele><time>2026-04-03T14:07:44.382Z</time></trkpt><trkpt lat="45.9467993" lon="8.5918019"><ele>308.0</ele><time>2026-04-03T14:07:47.379Z</time></trkpt><trkpt lat="45.9467526" lon="8.5918978"><ele>308.0</ele><time>2026-04-03T14:07:50.377Z</time></trkpt><trkpt lat="45.9467059" lon="8.5920029"><ele>308.0</ele><time>2026-04-03T14:07:52.377Z</time></trkpt><trkpt lat="45.9466515" lon="8.592156"><ele>304.8</ele><time>2026-04-03T14:07:54.372Z</time></trkpt><trkpt lat="45.9466224" lon="8.5922476"><ele>301.6</ele><time>2026-04-03T14:07:55.367Z</time></trkpt><trkpt lat="45.9465848" lon="8.5923969"><ele>298.4</ele><time>2026-04-03T14:07:57.366Z</time></trkpt><trkpt lat="45.9465659" lon="8.5924891"><ele>295.2</ele><time>2026-04-03T14:07:59.365Z</time></trkpt><trkpt lat="45.9465261" lon="8.592658"><ele>292.0</ele><time>2026-04-03T14:08:04.376Z</time></trkpt><trkpt lat="45.9465042" lon="8.5927713"><ele>291.16666666666663</ele><time>2026-04-03T14:08:05.371Z</time></trkpt><trkpt lat="45.9464955" lon="8.5928942"><ele>290.3333333333333</ele><time>2026-04-03T14:08:06.364Z</time></trkpt><trkpt lat="45.9465007" lon="8.5930029"><ele>289.5</ele><time>2026-04-03T14:08:07.364Z</time></trkpt><trkpt lat="45.9465117" lon="8.5930991"><ele>288.6666666666667</ele><time>2026-04-03T14:08:08.366Z</time></trkpt><trkpt lat="45.9465611" lon="8.5931684"><ele>287.83333333333337</ele><time>2026-04-03T14:08:09.369Z</time></trkpt><trkpt lat="45.9466471" lon="8.5931995"><ele>287.0</ele><time>2026-04-03T14:08:10.392Z</time></trkpt><trkpt lat="45.9467332" lon="8.5932226"><ele>287.0</ele><time>2026-04-03T14:08:11.368Z</time></trkpt><trkpt lat="45.9468032" lon="8.5933425"><ele>287.0</ele><time>2026-04-03T14:08:13.362Z</time></trkpt><trkpt lat="45.946719" lon="8.5933514"><ele>287.0</ele><time>2026-04-03T14:08:16.376Z</time></trkpt><trkpt lat="45.9466413" lon="8.5932758"><ele>287.0</ele><time>2026-04-03T14:08:17.369Z</time></trkpt><trkpt lat="45.9465597" lon="8.5931912"><ele>287.0</ele><time>2026-04-03T14:08:18.369Z</time></trkpt><trkpt lat="45.9464811" lon="8.5931125"><ele>287.0</ele><time>2026-04-03T14:08:19.374Z</time></trkpt><trkpt lat="45.9464256" lon="8.5930093"><ele>287.0</ele><time>2026-04-03T14:08:20.37Z</time></trkpt><trkpt lat="45.9464016" lon="8.5928679"><ele>287.0</ele><time>2026-04-03T14:08:21.365Z</time></trkpt><trkpt lat="45.9463895" lon="8.592708"><ele>287.0</ele><time>2026-04-03T14:08:22.367Z</time></trkpt><trkpt lat="45.9463837" lon="8.5925219"><ele>287.0</ele><time>2026-04-03T14:08:23.368Z</time></trkpt><trkpt lat="45.9463799" lon="8.592344"><ele>287.83333333333337</ele><time>2026-04-03T14:08:24.372Z</time></trkpt><trkpt lat="45.9463782" lon="8.5922054"><ele>288.6666666666667</ele><time>2026-04-03T14:08:25.37Z</time></trkpt><trkpt lat="45.9463267" lon="8.5921172"><ele>289.5</ele><time>2026-04-03T14:08:27.367Z</time></trkpt><trkpt lat="45.9462743" lon="8.5921675"><ele>290.3333333333333</ele><time>2026-04-03T14:08:28.374Z</time></trkpt><trkpt lat="45.9462369" lon="8.5922657"><ele>291.16666666666663</ele><time>2026-04-03T14:08:29.369Z</time></trkpt><trkpt lat="45.9462232" lon="8.5923957"><ele>292.0</ele><time>2026-04-03T14:08:30.372Z</time></trkpt><trkpt lat="45.9462396" lon="8.5925648"><ele>292.0</ele><time>2026-04-03T14:08:31.378Z</time></trkpt><trkpt lat="45.9462626" lon="8.5927358"><ele>292.0</ele><time>2026-04-03T14:08:32.372Z</time></trkpt><trkpt lat="45.9462884" lon="8.5928882"><ele>292.0</ele><time>2026-04-03T14:08:33.374Z</time></trkpt><trkpt lat="45.9463103" lon="8.5930086"><ele>292.0</ele><time>2026-04-03T14:08:34.368Z</time></trkpt><trkpt lat="45.9463365" lon="8.5931194"><ele>292.0</ele><time>2026-04-03T14:08:35.366Z</time></trkpt><trkpt lat="45.9463652" lon="8.5932288"><ele>291.0</ele><time>2026-04-03T14:08:36.363Z</time></trkpt><trkpt lat="45.9464012" lon="8.5933382"><ele>290.0</ele><time>2026-04-03T14:08:37.367Z</time></trkpt><trkpt lat="45.9464469" lon="8.5934515"><ele>289.0</ele><time>2026-04-03T14:08:38.366Z</time></trkpt><trkpt lat="45.9464971" lon="8.5935674"><ele>288.0</ele><time>2026-04-03T14:08:39.368Z</time></trkpt><trkpt lat="45.9465492" lon="8.5936841"><ele>287.0</ele><time>2026-04-03T14:08:40.38Z</time></trkpt><trkpt lat="45.9465949" lon="8.5937976"><ele>284.2</ele><time>2026-04-03T14:08:41.368Z</time></trkpt><trkpt lat="45.9466382" lon="8.5939125"><ele>281.4</ele><time>2026-04-03T14:08:42.362Z</time></trkpt><trkpt lat="45.9466821" lon="8.5940271"><ele>278.6</ele><time>2026-04-03T14:08:43.369Z</time></trkpt><trkpt lat="45.9467262" lon="8.5941409"><ele>275.8</ele><time>2026-04-03T14:08:44.368Z</time></trkpt><trkpt lat="45.9467731" lon="8.5942537"><ele>273.0</ele><time>2026-04-03T14:08:45.365Z</time></trkpt><trkpt lat="45.9468219" lon="8.5943669"><ele>274.0</ele><time>2026-04-03T14:08:46.363Z</time></trkpt><trkpt lat="45.9468594" lon="8.5944755"><ele>275.0</ele><time>2026-04-03T14:08:47.363Z</time></trkpt><trkpt lat="45.9469009" lon="8.5945807"><ele>276.0</ele><time>2026-04-03T14:08:48.366Z</time></trkpt><trkpt lat="45.9469401" lon="8.5946821"><ele>277.0</ele><time>2026-04-03T14:08:49.365Z</time></trkpt><trkpt lat="45.9469758" lon="8.5947862"><ele>278.0</ele><time>2026-04-03T14:08:50.365Z</time></trkpt><trkpt lat="45.9470167" lon="8.5948873"><ele>279.0</ele><time>2026-04-03T14:08:51.366Z</time></trkpt><trkpt lat="45.9470654" lon="8.5949901"><ele>279.0</ele><time>2026-04-03T14:08:52.365Z</time></trkpt><trkpt lat="45.9471152" lon="8.5951033"><ele>279.0</ele><time>2026-04-03T14:08:53.365Z</time></trkpt><trkpt lat="45.9471695" lon="8.5952234"><ele>279.0</ele><time>2026-04-03T14:08:54.364Z</time></trkpt><trkpt lat="45.9472302" lon="8.5953514"><ele>279.0</ele><time>2026-04-03T14:08:55.366Z</time></trkpt><trkpt lat="45.947299" lon="8.5954756"><ele>279.0</ele><time>2026-04-03T14:08:56.362Z</time></trkpt><trkpt lat="45.9473651" lon="8.5955752"><ele>281.2</ele><time>2026-04-03T14:08:57.365Z</time></trkpt><trkpt lat="45.9474409" lon="8.5956463"><ele>283.4</ele><time>2026-04-03T14:08:59.372Z</time></trkpt><trkpt lat="45.947482" lon="8.595733"><ele>285.6</ele><time>2026-04-03T14:09:05.362Z</time></trkpt><trkpt lat="45.947536" lon="8.5958474"><ele>287.8</ele><time>2026-04-03T14:09:07.358Z</time></trkpt><trkpt lat="45.9476029" lon="8.5960063"><ele>290.0</ele><time>2026-04-03T14:09:09.356Z</time></trkpt><trkpt lat="45.9476612" lon="8.5961199"><ele>286.6</ele><time>2026-04-03T14:09:10.356Z</time></trkpt><trkpt lat="45.947718" lon="8.5962485"><ele>283.2</ele><time>2026-04-03T14:09:11.363Z</time></trkpt><trkpt lat="45.9477824" lon="8.5963468"><ele>279.8</ele><time>2026-04-03T14:09:12.367Z</time></trkpt><trkpt lat="45.9478463" lon="8.5964463"><ele>276.4</ele><time>2026-04-03T14:09:13.361Z</time></trkpt><trkpt lat="45.9479114" lon="8.5965699"><ele>273.0</ele><time>2026-04-03T14:09:14.363Z</time></trkpt><trkpt lat="45.9479779" lon="8.5967097"><ele>273.0</ele><time>2026-04-03T14:09:15.361Z</time></trkpt><trkpt lat="45.9480458" lon="8.5968524"><ele>273.0</ele><time>2026-04-03T14:09:16.361Z</time></trkpt><trkpt lat="45.948113" lon="8.5969893"><ele>273.0</ele><time>2026-04-03T14:09:17.369Z</time></trkpt><trkpt lat="45.9481774" lon="8.5971159"><ele>273.0</ele><time>2026-04-03T14:09:18.364Z</time></trkpt><trkpt lat="45.9482377" lon="8.5972337"><ele>273.0</ele><time>2026-04-03T14:09:19.359Z</time></trkpt><trkpt lat="45.9483033" lon="8.597336"><ele>273.8333333333333</ele><time>2026-04-03T14:09:20.36Z</time></trkpt><trkpt lat="45.9483659" lon="8.5974209"><ele>274.6666666666667</ele><time>2026-04-03T14:09:21.357Z</time></trkpt><trkpt lat="45.9484127" lon="8.5974895"><ele>275.5</ele><time>2026-04-03T14:09:22.366Z</time></trkpt><trkpt lat="45.9484011" lon="8.5975788"><ele>276.33333333333337</ele><time>2026-04-03T14:09:24.363Z</time></trkpt><trkpt lat="45.9483083" lon="8.5975835"><ele>277.1666666666667</ele><time>2026-04-03T14:09:26.362Z</time></trkpt><trkpt lat="45.9482298" lon="8.5975594"><ele>278.0</ele><time>2026-04-03T14:09:27.367Z</time></trkpt><trkpt lat="45.9481349" lon="8.597517"><ele>274.75</ele><time>2026-04-03T14:09:28.369Z</time></trkpt><trkpt lat="45.9480289" lon="8.5974718"><ele>271.5</ele><time>2026-04-03T14:09:29.364Z</time></trkpt><trkpt lat="45.9479115" lon="8.5974267"><ele>268.25</ele><time>2026-04-03T14:09:30.367Z</time></trkpt><trkpt lat="45.9477987" lon="8.5973924"><ele>265.0</ele><time>2026-04-03T14:09:31.366Z</time></trkpt><trkpt lat="45.9476844" lon="8.5973689"><ele>265.0</ele><time>2026-04-03T14:09:32.364Z</time></trkpt><trkpt lat="45.9475825" lon="8.5973608"><ele>265.0</ele><time>2026-04-03T14:09:33.369Z</time></trkpt><trkpt lat="45.947497" lon="8.5973532"><ele>265.0</ele><time>2026-04-03T14:09:34.359Z</time></trkpt><trkpt lat="45.9474222" lon="8.597324"><ele>265.0</ele><time>2026-04-03T14:09:35.361Z</time></trkpt><trkpt lat="45.9473283" lon="8.5973283"><ele>265.0</ele><time>2026-04-03T14:09:37.36Z</time></trkpt><trkpt lat="45.9472946" lon="8.5974718"><ele>264.16666666666663</ele><time>2026-04-03T14:09:39.358Z</time></trkpt><trkpt lat="45.947303" lon="8.5976005"><ele>263.3333333333333</ele><time>2026-04-03T14:09:41.363Z</time></trkpt><trkpt lat="45.9473345" lon="8.5977158"><ele>262.5</ele><time>2026-04-03T14:09:45.368Z</time></trkpt><trkpt lat="45.9473934" lon="8.5977996"><ele>261.6666666666667</ele><time>2026-04-03T14:09:47.37Z</time></trkpt><trkpt lat="45.9474467" lon="8.5978727"><ele>260.83333333333337</ele><time>2026-04-03T14:09:48.372Z</time></trkpt><trkpt lat="45.947535" lon="8.5979585"><ele>260.0</ele><time>2026-04-03T14:09:49.366Z</time></trkpt><trkpt lat="45.9476484" lon="8.5980431"><ele>258.25</ele><time>2026-04-03T14:09:50.367Z</time></trkpt><trkpt lat="45.9477733" lon="8.59813"><ele>256.5</ele><time>2026-04-03T14:09:51.369Z</time></trkpt><trkpt lat="45.9478997" lon="8.598208"><ele>254.75</ele><time>2026-04-03T14:09:52.366Z</time></trkpt><trkpt lat="45.9480321" lon="8.5982837"><ele>253.0</ele><time>2026-04-03T14:09:53.367Z</time></trkpt><trkpt lat="45.9481705" lon="8.59836"><ele>253.0</ele><time>2026-04-03T14:09:54.368Z</time></trkpt><trkpt lat="45.9483135" lon="8.5984311"><ele>253.0</ele><time>2026-04-03T14:09:55.367Z</time></trkpt><trkpt lat="45.9484525" lon="8.5984978"><ele>253.0</ele><time>2026-04-03T14:09:56.365Z</time></trkpt><trkpt lat="45.9485864" lon="8.5985748"><ele>253.0</ele><time>2026-04-03T14:09:57.363Z</time></trkpt><trkpt lat="45.9487149" lon="8.5986729"><ele>251.0</ele><time>2026-04-03T14:09:58.362Z</time></trkpt><trkpt lat="45.9488403" lon="8.5988054"><ele>249.0</ele><time>2026-04-03T14:09:59.362Z</time></trkpt><trkpt lat="45.9489752" lon="8.5989607"><ele>247.0</ele><time>2026-04-03T14:10:00.358Z</time></trkpt><trkpt lat="45.9491292" lon="8.5991125"><ele>250.66666666666666</ele><time>2026-04-03T14:10:01.365Z</time></trkpt><trkpt lat="45.9492708" lon="8.5992668"><ele>254.33333333333331</ele><time>2026-04-03T14:10:02.365Z</time></trkpt><trkpt lat="45.9493931" lon="8.5994178"><ele>258.0</ele><time>2026-04-03T14:10:03.368Z</time></trkpt><trkpt lat="45.9495069" lon="8.5995574"><ele>258.0</ele><time>2026-04-03T14:10:04.362Z</time></trkpt><trkpt lat="45.9496163" lon="8.5996882"><ele>258.0</ele><time>2026-04-03T14:10:05.365Z</time></trkpt><trkpt lat="45.949713" lon="8.5998429"><ele>258.0</ele><time>2026-04-03T14:10:06.363Z</time></trkpt><trkpt lat="45.9497901" lon="8.6000245"><ele>258.0</ele><time>2026-04-03T14:10:07.363Z</time></trkpt><trkpt lat="45.9498499" lon="8.6001984"><ele>255.75</ele><time>2026-04-03T14:10:08.362Z</time></trkpt><trkpt lat="45.9499193" lon="8.6003785"><ele>253.5</ele><time>2026-04-03T14:10:09.363Z</time></trkpt><trkpt lat="45.9499876" lon="8.6005585"><ele>251.25</ele><time>2026-04-03T14:10:10.363Z</time></trkpt><trkpt lat="45.9500519" lon="8.6007283"><ele>249.0</ele><time>2026-04-03T14:10:11.365Z</time></trkpt><trkpt lat="45.9501233" lon="8.6008969"><ele>252.75</ele><time>2026-04-03T14:10:12.364Z</time></trkpt><trkpt lat="45.9502091" lon="8.6010681"><ele>256.5</ele><time>2026-04-03T14:10:13.372Z</time></trkpt><trkpt lat="45.9502805" lon="8.6012432"><ele>260.25</ele><time>2026-04-03T14:10:14.359Z</time></trkpt><trkpt lat="45.95036" lon="8.6014214"><ele>264.0</ele><time>2026-04-03T14:10:15.359Z</time></trkpt><trkpt lat="45.9504424" lon="8.6015932"><ele>264.0</ele><time>2026-04-03T14:10:16.36Z</time></trkpt><trkpt lat="45.950521" lon="8.6017572"><ele>264.0</ele><time>2026-04-03T14:10:17.361Z</time></trkpt><trkpt lat="45.9505982" lon="8.6019201"><ele>264.0</ele><time>2026-04-03T14:10:18.36Z</time></trkpt><trkpt lat="45.9506732" lon="8.6020802"><ele>264.0</ele><time>2026-04-03T14:10:19.359Z</time></trkpt><trkpt lat="45.9507474" lon="8.6022449"><ele>263.5</ele><time>2026-04-03T14:10:20.362Z</time></trkpt><trkpt lat="45.9508257" lon="8.6024177"><ele>263.0</ele><time>2026-04-03T14:10:21.363Z</time></trkpt><trkpt lat="45.9509042" lon="8.6025889"><ele>262.5</ele><time>2026-04-03T14:10:22.366Z</time></trkpt><trkpt lat="45.9509844" lon="8.6027468"><ele>262.0</ele><time>2026-04-03T14:10:23.367Z</time></trkpt><trkpt lat="45.951063" lon="8.6028931"><ele>262.0</ele><time>2026-04-03T14:10:24.364Z</time></trkpt><trkpt lat="45.9511481" lon="8.6030091"><ele>262.0</ele><time>2026-04-03T14:10:25.363Z</time></trkpt><trkpt lat="45.951249" lon="8.6031085"><ele>262.0</ele><time>2026-04-03T14:10:26.363Z</time></trkpt><trkpt lat="45.95136" lon="8.6031919"><ele>262.0</ele><time>2026-04-03T14:10:27.36Z</time></trkpt><trkpt lat="45.9514757" lon="8.6032855"><ele>262.0</ele><time>2026-04-03T14:10:28.362Z</time></trkpt><trkpt lat="45.9515938" lon="8.6033977"><ele>262.0</ele><time>2026-04-03T14:10:29.365Z</time></trkpt><trkpt lat="45.9516951" lon="8.6035277"><ele>262.0</ele><time>2026-04-03T14:10:30.366Z</time></trkpt><trkpt lat="45.9517914" lon="8.6036752"><ele>262.0</ele><time>2026-04-03T14:10:31.364Z</time></trkpt><trkpt lat="45.9518774" lon="8.603832"><ele>262.5</ele><time>2026-04-03T14:10:32.358Z</time></trkpt><trkpt lat="45.9519535" lon="8.6040029"><ele>263.0</ele><time>2026-04-03T14:10:33.361Z</time></trkpt><trkpt lat="45.9520178" lon="8.6041973"><ele>263.5</ele><time>2026-04-03T14:10:34.358Z</time></trkpt><trkpt lat="45.9520763" lon="8.6043846"><ele>264.0</ele><time>2026-04-03T14:10:35.358Z</time></trkpt><trkpt lat="45.9521352" lon="8.6045654"><ele>264.0</ele><time>2026-04-03T14:10:36.357Z</time></trkpt><trkpt lat="45.9521901" lon="8.604743"><ele>264.0</ele><time>2026-04-03T14:10:37.357Z</time></trkpt><trkpt lat="45.9522427" lon="8.604926"><ele>264.0</ele><time>2026-04-03T14:10:38.359Z</time></trkpt><trkpt lat="45.9523003" lon="8.6051141"><ele>264.0</ele><time>2026-04-03T14:10:39.36Z</time></trkpt><trkpt lat="45.9523604" lon="8.605289"><ele>261.75</ele><time>2026-04-03T14:10:40.358Z</time></trkpt><trkpt lat="45.9524226" lon="8.6054693"><ele>259.5</ele><time>2026-04-03T14:10:41.358Z</time></trkpt><trkpt lat="45.9524709" lon="8.6056502"><ele>257.25</ele><time>2026-04-03T14:10:42.355Z</time></trkpt><trkpt lat="45.9525158" lon="8.6058265"><ele>255.0</ele><time>2026-04-03T14:10:43.358Z</time></trkpt><trkpt lat="45.9525707" lon="8.6060094"><ele>258.5</ele><time>2026-04-03T14:10:44.372Z</time></trkpt><trkpt lat="45.9526172" lon="8.6061882"><ele>262.0</ele><time>2026-04-03T14:10:45.358Z</time></trkpt><trkpt lat="45.9526863" lon="8.6063599"><ele>265.5</ele><time>2026-04-03T14:10:46.36Z</time></trkpt><trkpt lat="45.9527554" lon="8.6065305"><ele>269.0</ele><time>2026-04-03T14:10:47.365Z</time></trkpt><trkpt lat="45.9528089" lon="8.6066967"><ele>269.0</ele><time>2026-04-03T14:10:48.361Z</time></trkpt><trkpt lat="45.9528556" lon="8.6068543"><ele>269.0</ele><time>2026-04-03T14:10:49.361Z</time></trkpt><trkpt lat="45.952903" lon="8.607003"><ele>269.0</ele><time>2026-04-03T14:10:50.36Z</time></trkpt><trkpt lat="45.9529424" lon="8.6071412"><ele>269.0</ele><time>2026-04-03T14:10:51.363Z</time></trkpt><trkpt lat="45.9529896" lon="8.6072759"><ele>269.0</ele><time>2026-04-03T14:10:52.366Z</time></trkpt><trkpt lat="45.9530418" lon="8.607404"><ele>268.8</ele><time>2026-04-03T14:10:53.362Z</time></trkpt><trkpt lat="45.9531021" lon="8.6075075"><ele>268.59999999999997</ele><time>2026-04-03T14:10:54.363Z</time></trkpt><trkpt lat="45.9531693" lon="8.6075993"><ele>268.4</ele><time>2026-04-03T14:10:55.363Z</time></trkpt><trkpt lat="45.9532419" lon="8.6076912"><ele>268.2</ele><time>2026-04-03T14:10:56.364Z</time></trkpt><trkpt lat="45.953323" lon="8.6077936"><ele>268.0</ele><time>2026-04-03T14:10:57.36Z</time></trkpt><trkpt lat="45.9534032" lon="8.6079208"><ele>268.0</ele><time>2026-04-03T14:10:58.36Z</time></trkpt><trkpt lat="45.95348" lon="8.6080442"><ele>268.0</ele><time>2026-04-03T14:10:59.356Z</time></trkpt><trkpt lat="45.9535541" lon="8.6081549"><ele>268.0</ele><time>2026-04-03T14:11:00.357Z</time></trkpt><trkpt lat="45.953637" lon="8.6082581"><ele>268.0</ele><time>2026-04-03T14:11:01.363Z</time></trkpt><trkpt lat="45.9537011" lon="8.6083844"><ele>268.0</ele><time>2026-04-03T14:11:02.358Z</time></trkpt><trkpt lat="45.9537578" lon="8.6085123"><ele>268.0</ele><time>2026-04-03T14:11:03.374Z</time></trkpt><trkpt lat="45.953803" lon="8.60863"><ele>268.0</ele><time>2026-04-03T14:11:04.361Z</time></trkpt><trkpt lat="45.9538421" lon="8.6087338"><ele>268.0</ele><time>2026-04-03T14:11:05.359Z</time></trkpt><trkpt lat="45.9538759" lon="8.6088127"><ele>268.0</ele><time>2026-04-03T14:11:06.36Z</time></trkpt><trkpt lat="45.9539107" lon="8.6089056"><ele>268.0</ele><time>2026-04-03T14:11:08.353Z</time></trkpt><trkpt lat="45.9539686" lon="8.6089973"><ele>268.0</ele><time>2026-04-03T14:11:15.37Z</time></trkpt><trkpt lat="45.9540246" lon="8.6091583"><ele>268.2</ele><time>2026-04-03T14:11:17.352Z</time></trkpt><trkpt lat="45.9540556" lon="8.6092692"><ele>268.4</ele><time>2026-04-03T14:11:18.351Z</time></trkpt><trkpt lat="45.9541009" lon="8.6094049"><ele>268.59999999999997</ele><time>2026-04-03T14:11:19.353Z</time></trkpt><trkpt lat="45.9541563" lon="8.6095636"><ele>268.8</ele><time>2026-04-03T14:11:20.352Z</time></trkpt><trkpt lat="45.9542057" lon="8.6097291"><ele>269.0</ele><time>2026-04-03T14:11:21.359Z</time></trkpt><trkpt lat="45.9542534" lon="8.6098976"><ele>269.0</ele><time>2026-04-03T14:11:22.359Z</time></trkpt><trkpt lat="45.9543036" lon="8.6100632"><ele>269.0</ele><time>2026-04-03T14:11:23.359Z</time></trkpt><trkpt lat="45.954361" lon="8.6102309"><ele>269.0</ele><time>2026-04-03T14:11:24.363Z</time></trkpt><trkpt lat="45.9544314" lon="8.6103792"><ele>269.0</ele><time>2026-04-03T14:11:25.362Z</time></trkpt><trkpt lat="45.9545139" lon="8.6105086"><ele>266.75</ele><time>2026-04-03T14:11:26.365Z</time></trkpt><trkpt lat="45.9546072" lon="8.6106129"><ele>264.5</ele><time>2026-04-03T14:11:27.364Z</time></trkpt><trkpt lat="45.954704" lon="8.610714"><ele>262.25</ele><time>2026-04-03T14:11:28.361Z</time></trkpt><trkpt lat="45.9547893" lon="8.6108405"><ele>260.0</ele><time>2026-04-03T14:11:29.364Z</time></trkpt><trkpt lat="45.9548655" lon="8.6109958"><ele>257.33333333333337</ele><time>2026-04-03T14:11:30.363Z</time></trkpt><trkpt lat="45.9549418" lon="8.6111762"><ele>254.66666666666669</ele><time>2026-04-03T14:11:31.364Z</time></trkpt><trkpt lat="45.9550256" lon="8.6113551"><ele>252.0</ele><time>2026-04-03T14:11:32.364Z</time></trkpt><trkpt lat="45.9551069" lon="8.6115446"><ele>254.5</ele><time>2026-04-03T14:11:33.368Z</time></trkpt><trkpt lat="45.9551991" lon="8.6117011"><ele>257.0</ele><time>2026-04-03T14:11:34.363Z</time></trkpt><trkpt lat="45.955307" lon="8.6118325"><ele>259.5</ele><time>2026-04-03T14:11:35.364Z</time></trkpt><trkpt lat="45.9554116" lon="8.6119499"><ele>262.0</ele><time>2026-04-03T14:11:36.359Z</time></trkpt><trkpt lat="45.9555117" lon="8.6120428"><ele>262.0</ele><time>2026-04-03T14:11:37.359Z</time></trkpt><trkpt lat="45.9556024" lon="8.6121485"><ele>262.0</ele><time>2026-04-03T14:11:38.359Z</time></trkpt><trkpt lat="45.9556694" lon="8.6122462"><ele>262.0</ele><time>2026-04-03T14:11:39.361Z</time></trkpt><trkpt lat="45.955738" lon="8.612364"><ele>262.0</ele><time>2026-04-03T14:11:40.36Z</time></trkpt><trkpt lat="45.9558137" lon="8.6124554"><ele>262.0</ele><time>2026-04-03T14:11:41.363Z</time></trkpt><trkpt lat="45.9558954" lon="8.6125115"><ele>266.6</ele><time>2026-04-03T14:11:42.362Z</time></trkpt><trkpt lat="45.955987" lon="8.6125527"><ele>271.2</ele><time>2026-04-03T14:11:43.366Z</time></trkpt><trkpt lat="45.9560801" lon="8.6125537"><ele>275.8</ele><time>2026-04-03T14:11:44.366Z</time></trkpt><trkpt lat="45.9561747" lon="8.612515"><ele>280.4</ele><time>2026-04-03T14:11:45.359Z</time></trkpt><trkpt lat="45.9562589" lon="8.6125172"><ele>285.0</ele><time>2026-04-03T14:11:46.369Z</time></trkpt><trkpt lat="45.9563341" lon="8.6125488"><ele>285.0</ele><time>2026-04-03T14:11:47.364Z</time></trkpt><trkpt lat="45.9563946" lon="8.6126176"><ele>285.0</ele><time>2026-04-03T14:11:48.361Z</time></trkpt><trkpt lat="45.9564378" lon="8.6127341"><ele>285.0</ele><time>2026-04-03T14:11:49.359Z</time></trkpt><trkpt lat="45.9564753" lon="8.6129015"><ele>285.0</ele><time>2026-04-03T14:11:50.355Z</time></trkpt><trkpt lat="45.9565061" lon="8.6131151"><ele>285.0</ele><time>2026-04-03T14:11:51.362Z</time></trkpt><trkpt lat="45.9565465" lon="8.6133145"><ele>285.25</ele><time>2026-04-03T14:11:52.365Z</time></trkpt><trkpt lat="45.9565825" lon="8.6134974"><ele>285.5</ele><time>2026-04-03T14:11:53.365Z</time></trkpt><trkpt lat="45.9566142" lon="8.613662"><ele>285.75</ele><time>2026-04-03T14:11:54.362Z</time></trkpt><trkpt lat="45.9566552" lon="8.6138106"><ele>286.0</ele><time>2026-04-03T14:11:55.361Z</time></trkpt><trkpt lat="45.9567083" lon="8.6139493"><ele>286.0</ele><time>2026-04-03T14:11:56.361Z</time></trkpt><trkpt lat="45.9567782" lon="8.6140768"><ele>286.0</ele><time>2026-04-03T14:11:57.359Z</time></trkpt><trkpt lat="45.9568621" lon="8.6141976"><ele>286.0</ele><time>2026-04-03T14:11:58.353Z</time></trkpt><trkpt lat="45.9569539" lon="8.6143104"><ele>286.0</ele><time>2026-04-03T14:11:59.349Z</time></trkpt><trkpt lat="45.9570528" lon="8.6144287"><ele>281.0</ele><time>2026-04-03T14:12:00.349Z</time></trkpt><trkpt lat="45.9571499" lon="8.6145478"><ele>276.0</ele><time>2026-04-03T14:12:01.359Z</time></trkpt><trkpt lat="45.9572437" lon="8.6146659"><ele>271.0</ele><time>2026-04-03T14:12:02.354Z</time></trkpt><trkpt lat="45.957342" lon="8.6147858"><ele>266.0</ele><time>2026-04-03T14:12:03.363Z</time></trkpt><trkpt lat="45.9574461" lon="8.6148878"><ele>271.25</ele><time>2026-04-03T14:12:04.354Z</time></trkpt><trkpt lat="45.9575571" lon="8.6149628"><ele>276.5</ele><time>2026-04-03T14:12:05.357Z</time></trkpt><trkpt lat="45.9576704" lon="8.6150225"><ele>281.75</ele><time>2026-04-03T14:12:06.352Z</time></trkpt><trkpt lat="45.9577822" lon="8.6150594"><ele>287.0</ele><time>2026-04-03T14:12:07.349Z</time></trkpt><trkpt lat="45.9578797" lon="8.6150719"><ele>287.0</ele><time>2026-04-03T14:12:08.35Z</time></trkpt><trkpt lat="45.9579626" lon="8.6150937"><ele>287.0</ele><time>2026-04-03T14:12:09.35Z</time></trkpt><trkpt lat="45.9580339" lon="8.6151473"><ele>287.0</ele><time>2026-04-03T14:12:10.348Z</time></trkpt><trkpt lat="45.9580847" lon="8.6152423"><ele>287.0</ele><time>2026-04-03T14:12:11.344Z</time></trkpt><trkpt lat="45.9581349" lon="8.6153944"><ele>287.0</ele><time>2026-04-03T14:12:12.347Z</time></trkpt><trkpt lat="45.9581897" lon="8.6155747"><ele>285.75</ele><time>2026-04-03T14:12:13.344Z</time></trkpt><trkpt lat="45.9582515" lon="8.6157574"><ele>284.5</ele><time>2026-04-03T14:12:14.347Z</time></trkpt><trkpt lat="45.9583127" lon="8.6159304"><ele>283.25</ele><time>2026-04-03T14:12:15.353Z</time></trkpt><trkpt lat="45.9583804" lon="8.6161009"><ele>282.0</ele><time>2026-04-03T14:12:16.356Z</time></trkpt><trkpt lat="45.9584627" lon="8.6162767"><ele>282.0</ele><time>2026-04-03T14:12:17.371Z</time></trkpt><trkpt lat="45.9585429" lon="8.6164425"><ele>282.0</ele><time>2026-04-03T14:12:18.358Z</time></trkpt><trkpt lat="45.9586265" lon="8.616606"><ele>282.0</ele><time>2026-04-03T14:12:19.365Z</time></trkpt><trkpt lat="45.9586988" lon="8.6167429"><ele>282.0</ele><time>2026-04-03T14:12:20.358Z</time></trkpt><trkpt lat="45.9587728" lon="8.6168663"><ele>279.8</ele><time>2026-04-03T14:12:21.359Z</time></trkpt><trkpt lat="45.9588474" lon="8.6169868"><ele>277.6</ele><time>2026-04-03T14:12:22.36Z</time></trkpt><trkpt lat="45.9589205" lon="8.617093"><ele>275.40000000000003</ele><time>2026-04-03T14:12:23.357Z</time></trkpt><trkpt lat="45.9589887" lon="8.6171901"><ele>273.2</ele><time>2026-04-03T14:12:24.357Z</time></trkpt><trkpt lat="45.9590527" lon="8.6172839"><ele>271.0</ele><time>2026-04-03T14:12:25.351Z</time></trkpt><trkpt lat="45.9591085" lon="8.6173841"><ele>271.0</ele><time>2026-04-03T14:12:26.354Z</time></trkpt><trkpt lat="45.9591544" lon="8.6174975"><ele>271.0</ele><time>2026-04-03T14:12:27.352Z</time></trkpt><trkpt lat="45.9591966" lon="8.6176154"><ele>271.0</ele><time>2026-04-03T14:12:28.36Z</time></trkpt><trkpt lat="45.9592349" lon="8.6177429"><ele>271.0</ele><time>2026-04-03T14:12:29.354Z</time></trkpt><trkpt lat="45.9592745" lon="8.617868"><ele>271.0</ele><time>2026-04-03T14:12:30.352Z</time></trkpt><trkpt lat="45.9593197" lon="8.6179827"><ele>273.40000000000003</ele><time>2026-04-03T14:12:31.355Z</time></trkpt><trkpt lat="45.9593723" lon="8.6180883"><ele>275.8</ele><time>2026-04-03T14:12:32.349Z</time></trkpt><trkpt lat="45.9594286" lon="8.6181961"><ele>278.20000000000005</ele><time>2026-04-03T14:12:33.358Z</time></trkpt><trkpt lat="45.9594892" lon="8.6183017"><ele>280.6</ele><time>2026-04-03T14:12:34.349Z</time></trkpt><trkpt lat="45.9595484" lon="8.618408"><ele>283.0</ele><time>2026-04-03T14:12:35.352Z</time></trkpt><trkpt lat="45.9596093" lon="8.6185203"><ele>283.0</ele><time>2026-04-03T14:12:36.355Z</time></trkpt><trkpt lat="45.9596707" lon="8.6186329"><ele>283.0</ele><time>2026-04-03T14:12:37.354Z</time></trkpt><trkpt lat="45.9597337" lon="8.6187486"><ele>283.0</ele><time>2026-04-03T14:12:38.354Z</time></trkpt><trkpt lat="45.9597986" lon="8.6188486"><ele>283.0</ele><time>2026-04-03T14:12:39.351Z</time></trkpt><trkpt lat="45.9598639" lon="8.6189379"><ele>283.0</ele><time>2026-04-03T14:12:40.359Z</time></trkpt><trkpt lat="45.9599336" lon="8.6190255"><ele>283.0</ele><time>2026-04-03T14:12:41.359Z</time></trkpt><trkpt lat="45.9600019" lon="8.6191079"><ele>283.0</ele><time>2026-04-03T14:12:42.359Z</time></trkpt><trkpt lat="45.9600681" lon="8.6191909"><ele>283.0</ele><time>2026-04-03T14:12:43.361Z</time></trkpt><trkpt lat="45.9601335" lon="8.6192665"><ele>283.0</ele><time>2026-04-03T14:12:44.358Z</time></trkpt><trkpt lat="45.9601981" lon="8.6193438"><ele>283.0</ele><time>2026-04-03T14:12:45.358Z</time></trkpt><trkpt lat="45.9602662" lon="8.6194152"><ele>283.0</ele><time>2026-04-03T14:12:46.356Z</time></trkpt><trkpt lat="45.9603344" lon="8.6194858"><ele>280.16666666666663</ele><time>2026-04-03T14:12:47.358Z</time></trkpt><trkpt lat="45.9604005" lon="8.6195592"><ele>277.3333333333333</ele><time>2026-04-03T14:12:48.371Z</time></trkpt><trkpt lat="45.9604683" lon="8.6196255"><ele>274.5</ele><time>2026-04-03T14:12:49.356Z</time></trkpt><trkpt lat="45.9605367" lon="8.6196836"><ele>271.6666666666667</ele><time>2026-04-03T14:12:50.362Z</time></trkpt><trkpt lat="45.9606079" lon="8.6197381"><ele>268.83333333333337</ele><time>2026-04-03T14:12:51.362Z</time></trkpt><trkpt lat="45.9606801" lon="8.6197824"><ele>266.0</ele><time>2026-04-03T14:12:52.359Z</time></trkpt><trkpt lat="45.9607526" lon="8.6198286"><ele>266.0</ele><time>2026-04-03T14:12:53.359Z</time></trkpt><trkpt lat="45.960827" lon="8.619869"><ele>266.0</ele><time>2026-04-03T14:12:54.362Z</time></trkpt><trkpt lat="45.9609095" lon="8.6198957"><ele>266.0</ele><time>2026-04-03T14:12:55.359Z</time></trkpt><trkpt lat="45.96099" lon="8.6199073"><ele>266.0</ele><time>2026-04-03T14:12:56.36Z</time></trkpt><trkpt lat="45.9610794" lon="8.6199043"><ele>266.0</ele><time>2026-04-03T14:12:57.358Z</time></trkpt><trkpt lat="45.9611733" lon="8.619895"><ele>266.0</ele><time>2026-04-03T14:12:58.355Z</time></trkpt><trkpt lat="45.9612628" lon="8.6198974"><ele>267.33333333333337</ele><time>2026-04-03T14:12:59.357Z</time></trkpt><trkpt lat="45.9613561" lon="8.6199023"><ele>268.6666666666667</ele><time>2026-04-03T14:13:00.35Z</time></trkpt><trkpt lat="45.9614487" lon="8.6199153"><ele>270.0</ele><time>2026-04-03T14:13:01.355Z</time></trkpt><trkpt lat="45.9615331" lon="8.6199337"><ele>271.3333333333333</ele><time>2026-04-03T14:13:02.349Z</time></trkpt><trkpt lat="45.9616163" lon="8.6199532"><ele>272.66666666666663</ele><time>2026-04-03T14:13:03.354Z</time></trkpt><trkpt lat="45.961695" lon="8.619985"><ele>274.0</ele><time>2026-04-03T14:13:04.35Z</time></trkpt><trkpt lat="45.9617702" lon="8.62002"><ele>276.0</ele><time>2026-04-03T14:13:05.35Z</time></trkpt><trkpt lat="45.9618459" lon="8.6200539"><ele>278.0</ele><time>2026-04-03T14:13:06.35Z</time></trkpt><trkpt lat="45.9619153" lon="8.6200805"><ele>280.0</ele><time>2026-04-03T14:13:07.346Z</time></trkpt><trkpt lat="45.9620227" lon="8.6201262"><ele>282.0</ele><time>2026-04-03T14:13:09.342Z</time></trkpt><trkpt lat="45.9621265" lon="8.6201529"><ele>284.0</ele><time>2026-04-03T14:13:11.346Z</time></trkpt><trkpt lat="45.9622308" lon="8.6201467"><ele>284.0</ele><time>2026-04-03T14:13:13.347Z</time></trkpt><trkpt lat="45.9623234" lon="8.6201614"><ele>284.0</ele><time>2026-04-03T14:13:15.345Z</time></trkpt><trkpt lat="45.9624308" lon="8.6201994"><ele>284.0</ele><time>2026-04-03T14:13:17.35Z</time></trkpt><trkpt lat="45.9625491" lon="8.6202765"><ele>284.0</ele><time>2026-04-03T14:13:19.358Z</time></trkpt><trkpt lat="45.9626175" lon="8.6203378"><ele>284.0</ele><time>2026-04-03T14:13:20.346Z</time></trkpt><trkpt lat="45.9626853" lon="8.6203901"><ele>284.0</ele><time>2026-04-03T14:13:21.345Z</time></trkpt><trkpt lat="45.9627523" lon="8.6204491"><ele>284.0</ele><time>2026-04-03T14:13:22.355Z</time></trkpt><trkpt lat="45.962819" lon="8.6205017"><ele>284.0</ele><time>2026-04-03T14:13:23.353Z</time></trkpt><trkpt lat="45.9628871" lon="8.6205484"><ele>284.0</ele><time>2026-04-03T14:13:24.354Z</time></trkpt><trkpt lat="45.9629439" lon="8.620597"><ele>284.0</ele><time>2026-04-03T14:13:25.351Z</time></trkpt><trkpt lat="45.9630522" lon="8.6206744"><ele>284.0</ele><time>2026-04-03T14:13:27.355Z</time></trkpt><trkpt lat="45.963149" lon="8.6207035"><ele>284.0</ele><time>2026-04-03T14:13:29.352Z</time></trkpt><trkpt lat="45.9632175" lon="8.620679"><ele>284.0</ele><time>2026-04-03T14:13:34.365Z</time></trkpt><trkpt lat="45.9633246" lon="8.6207201"><ele>284.0</ele><time>2026-04-03T14:13:36.36Z</time></trkpt><trkpt lat="45.9633988" lon="8.6207753"><ele>284.0</ele><time>2026-04-03T14:13:37.354Z</time></trkpt><trkpt lat="45.9634768" lon="8.6208557"><ele>284.0</ele><time>2026-04-03T14:13:38.35Z</time></trkpt><trkpt lat="45.9635672" lon="8.6209513"><ele>285.5</ele><time>2026-04-03T14:13:39.359Z</time></trkpt><trkpt lat="45.9636721" lon="8.6210444"><ele>287.0</ele><time>2026-04-03T14:13:40.359Z</time></trkpt><trkpt lat="45.963792" lon="8.6211231"><ele>288.5</ele><time>2026-04-03T14:13:41.364Z</time></trkpt><trkpt lat="45.9639088" lon="8.6211917"><ele>290.0</ele><time>2026-04-03T14:13:42.367Z</time></trkpt><trkpt lat="45.9640198" lon="8.6212488"><ele>288.0</ele><time>2026-04-03T14:13:43.365Z</time></trkpt><trkpt lat="45.964121" lon="8.6213006"><ele>286.0</ele><time>2026-04-03T14:13:44.364Z</time></trkpt><trkpt lat="45.9642176" lon="8.6213504"><ele>284.0</ele><time>2026-04-03T14:13:45.364Z</time></trkpt><trkpt lat="45.964307" lon="8.6214"><ele>282.0</ele><time>2026-04-03T14:13:46.364Z</time></trkpt><trkpt lat="45.964394" lon="8.6214492"><ele>280.0</ele><time>2026-04-03T14:13:47.366Z</time></trkpt><trkpt lat="45.9644779" lon="8.6215059"><ele>280.0</ele><time>2026-04-03T14:13:48.36Z</time></trkpt><trkpt lat="45.9645626" lon="8.6215673"><ele>280.0</ele><time>2026-04-03T14:13:49.361Z</time></trkpt><trkpt lat="45.9646432" lon="8.6216281"><ele>280.0</ele><time>2026-04-03T14:13:50.374Z</time></trkpt><trkpt lat="45.9647264" lon="8.6216775"><ele>280.0</ele><time>2026-04-03T14:13:51.361Z</time></trkpt><trkpt lat="45.9648153" lon="8.6217247"><ele>280.0</ele><time>2026-04-03T14:13:52.359Z</time></trkpt><trkpt lat="45.9649103" lon="8.6217591"><ele>280.0</ele><time>2026-04-03T14:13:53.357Z</time></trkpt><trkpt lat="45.9650088" lon="8.6217738"><ele>280.0</ele><time>2026-04-03T14:13:54.357Z</time></trkpt><trkpt lat="45.9651054" lon="8.621786"><ele>280.0</ele><time>2026-04-03T14:13:55.355Z</time></trkpt><trkpt lat="45.965203" lon="8.6217985"><ele>280.0</ele><time>2026-04-03T14:13:56.358Z</time></trkpt><trkpt lat="45.9652968" lon="8.6218116"><ele>280.0</ele><time>2026-04-03T14:13:57.358Z</time></trkpt><trkpt lat="45.9653828" lon="8.6218237"><ele>280.66666666666663</ele><time>2026-04-03T14:13:58.355Z</time></trkpt><trkpt lat="45.9654539" lon="8.6218403"><ele>281.3333333333333</ele><time>2026-04-03T14:13:59.349Z</time></trkpt><trkpt lat="45.9655491" lon="8.6218527"><ele>282.0</ele><time>2026-04-03T14:14:01.358Z</time></trkpt><trkpt lat="45.9656158" lon="8.6218421"><ele>282.6666666666667</ele><time>2026-04-03T14:14:10.347Z</time></trkpt><trkpt lat="45.965692" lon="8.6218482"><ele>283.33333333333337</ele><time>2026-04-03T14:14:11.36Z</time></trkpt><trkpt lat="45.9657782" lon="8.621855"><ele>284.0</ele><time>2026-04-03T14:14:12.36Z</time></trkpt><trkpt lat="45.9658842" lon="8.6218569"><ele>286.0</ele><time>2026-04-03T14:14:13.363Z</time></trkpt><trkpt lat="45.9660304" lon="8.6218742"><ele>288.0</ele><time>2026-04-03T14:14:14.36Z</time></trkpt><trkpt lat="45.9661914" lon="8.6219019"><ele>290.0</ele><time>2026-04-03T14:14:15.36Z</time></trkpt><trkpt lat="45.9663469" lon="8.6219513"><ele>289.25</ele><time>2026-04-03T14:14:16.361Z</time></trkpt><trkpt lat="45.9664899" lon="8.6220373"><ele>288.5</ele><time>2026-04-03T14:14:17.358Z</time></trkpt><trkpt lat="45.9666152" lon="8.6221144"><ele>287.75</ele><time>2026-04-03T14:14:18.349Z</time></trkpt><trkpt lat="45.966716" lon="8.6221439"><ele>287.0</ele><time>2026-04-03T14:14:19.357Z</time></trkpt><trkpt lat="45.9668148" lon="8.6221184"><ele>287.0</ele><time>2026-04-03T14:14:20.351Z</time></trkpt><trkpt lat="45.9669063" lon="8.6221011"><ele>287.0</ele><time>2026-04-03T14:14:21.361Z</time></trkpt><trkpt lat="45.9669818" lon="8.6221135"><ele>287.0</ele><time>2026-04-03T14:14:22.35Z</time></trkpt><trkpt lat="45.9670402" lon="8.6221781"><ele>287.0</ele><time>2026-04-03T14:14:23.351Z</time></trkpt><trkpt lat="45.9670982" lon="8.6223041"><ele>287.0</ele><time>2026-04-03T14:14:24.348Z</time></trkpt><trkpt lat="45.9671536" lon="8.6224546"><ele>287.0</ele><time>2026-04-03T14:14:25.347Z</time></trkpt><trkpt lat="45.9672202" lon="8.6225846"><ele>287.0</ele><time>2026-04-03T14:14:26.348Z</time></trkpt><trkpt lat="45.9672935" lon="8.6227071"><ele>287.0</ele><time>2026-04-03T14:14:27.346Z</time></trkpt><trkpt lat="45.9673747" lon="8.6228351"><ele>287.0</ele><time>2026-04-03T14:14:28.345Z</time></trkpt><trkpt lat="45.9674747" lon="8.6229578"><ele>285.25</ele><time>2026-04-03T14:14:29.345Z</time></trkpt><trkpt lat="45.9675991" lon="8.6230652"><ele>283.5</ele><time>2026-04-03T14:14:30.347Z</time></trkpt><trkpt lat="45.9677317" lon="8.6231398"><ele>281.75</ele><time>2026-04-03T14:14:31.35Z</time></trkpt><trkpt lat="45.9678681" lon="8.6231937"><ele>280.0</ele><time>2026-04-03T14:14:32.351Z</time></trkpt><trkpt lat="45.9680063" lon="8.6231921"><ele>280.0</ele><time>2026-04-03T14:14:33.358Z</time></trkpt><trkpt lat="45.9681267" lon="8.6231308"><ele>280.0</ele><time>2026-04-03T14:14:34.347Z</time></trkpt><trkpt lat="45.9682293" lon="8.6230847"><ele>280.0</ele><time>2026-04-03T14:14:35.351Z</time></trkpt><trkpt lat="45.9682988" lon="8.623081"><ele>280.0</ele><time>2026-04-03T14:14:36.353Z</time></trkpt><trkpt lat="45.9683544" lon="8.6231301"><ele>280.0</ele><time>2026-04-03T14:14:37.354Z</time></trkpt><trkpt lat="45.9684181" lon="8.6232301"><ele>278.0</ele><time>2026-04-03T14:14:38.354Z</time></trkpt><trkpt lat="45.9684804" lon="8.6233626"><ele>276.0</ele><time>2026-04-03T14:14:39.35Z</time></trkpt><trkpt lat="45.9685498" lon="8.6235085"><ele>274.0</ele><time>2026-04-03T14:14:40.351Z</time></trkpt><trkpt lat="45.9686397" lon="8.6236672"><ele>272.0</ele><time>2026-04-03T14:14:41.351Z</time></trkpt><trkpt lat="45.9687359" lon="8.623796"><ele>272.0</ele><time>2026-04-03T14:14:42.351Z</time></trkpt><trkpt lat="45.9688388" lon="8.6238998"><ele>272.0</ele><time>2026-04-03T14:14:43.356Z</time></trkpt><trkpt lat="45.9689466" lon="8.6239698"><ele>272.0</ele><time>2026-04-03T14:14:44.356Z</time></trkpt><trkpt lat="45.969065" lon="8.6239927"><ele>272.0</ele><time>2026-04-03T14:14:45.357Z</time></trkpt><trkpt lat="45.9692043" lon="8.6239573"><ele>272.5</ele><time>2026-04-03T14:14:46.355Z</time></trkpt><trkpt lat="45.9693442" lon="8.6239134"><ele>273.0</ele><time>2026-04-03T14:14:47.355Z</time></trkpt><trkpt lat="45.9694763" lon="8.6238858"><ele>273.5</ele><time>2026-04-03T14:14:48.354Z</time></trkpt><trkpt lat="45.9696036" lon="8.6238601"><ele>274.0</ele><time>2026-04-03T14:14:49.358Z</time></trkpt><trkpt lat="45.9697235" lon="8.6238359"><ele>274.0</ele><time>2026-04-03T14:14:50.36Z</time></trkpt><trkpt lat="45.9698349" lon="8.6238081"><ele>274.0</ele><time>2026-04-03T14:14:51.357Z</time></trkpt><trkpt lat="45.9699339" lon="8.6237961"><ele>274.0</ele><time>2026-04-03T14:14:52.369Z</time></trkpt><trkpt lat="45.9700301" lon="8.6238016"><ele>274.0</ele><time>2026-04-03T14:14:53.356Z</time></trkpt><trkpt lat="45.970127" lon="8.6238272"><ele>274.0</ele><time>2026-04-03T14:14:54.354Z</time></trkpt><trkpt lat="45.9702478" lon="8.6238726"><ele>275.75</ele><time>2026-04-03T14:14:55.356Z</time></trkpt><trkpt lat="45.9703765" lon="8.6239256"><ele>277.5</ele><time>2026-04-03T14:14:56.355Z</time></trkpt><trkpt lat="45.9705103" lon="8.623982"><ele>279.25</ele><time>2026-04-03T14:14:57.356Z</time></trkpt><trkpt lat="45.9706444" lon="8.6240424"><ele>281.0</ele><time>2026-04-03T14:14:58.362Z</time></trkpt><trkpt lat="45.9707754" lon="8.6241003"><ele>288.25</ele><time>2026-04-03T14:14:59.35Z</time></trkpt><trkpt lat="45.9709027" lon="8.6241567"><ele>295.5</ele><time>2026-04-03T14:15:00.35Z</time></trkpt><trkpt lat="45.9710213" lon="8.6242044"><ele>302.75</ele><time>2026-04-03T14:15:01.348Z</time></trkpt><trkpt lat="45.9711354" lon="8.6242561"><ele>310.0</ele><time>2026-04-03T14:15:02.346Z</time></trkpt><trkpt lat="45.9712508" lon="8.6243438"><ele>310.0</ele><time>2026-04-03T14:15:03.347Z</time></trkpt><trkpt lat="45.9713664" lon="8.6244751"><ele>310.0</ele><time>2026-04-03T14:15:04.344Z</time></trkpt><trkpt lat="45.9714814" lon="8.6246317"><ele>310.0</ele><time>2026-04-03T14:15:05.342Z</time></trkpt><trkpt lat="45.9716329" lon="8.624795"><ele>314.3333333333333</ele><time>2026-04-03T14:15:06.342Z</time></trkpt><trkpt lat="45.9717821" lon="8.6249939"><ele>318.6666666666667</ele><time>2026-04-03T14:15:07.343Z</time></trkpt><trkpt lat="45.971936" lon="8.6252068"><ele>323.0</ele><time>2026-04-03T14:15:08.343Z</time></trkpt><trkpt lat="45.9721075" lon="8.6254323"><ele>306.0</ele><time>2026-04-03T14:15:09.344Z</time></trkpt><trkpt lat="45.9722808" lon="8.6256468"><ele>289.0</ele><time>2026-04-03T14:15:10.344Z</time></trkpt><trkpt lat="45.9724509" lon="8.6258618"><ele>293.3333333333333</ele><time>2026-04-03T14:15:11.341Z</time></trkpt><trkpt lat="45.9726163" lon="8.6260636"><ele>297.6666666666667</ele><time>2026-04-03T14:15:12.34Z</time></trkpt><trkpt lat="45.9727753" lon="8.6262198"><ele>302.0</ele><time>2026-04-03T14:15:13.34Z</time></trkpt><trkpt lat="45.9729364" lon="8.6263431"><ele>302.0</ele><time>2026-04-03T14:15:14.341Z</time></trkpt><trkpt lat="45.9730761" lon="8.6264522"><ele>302.0</ele><time>2026-04-03T14:15:15.34Z</time></trkpt><trkpt lat="45.9731828" lon="8.6265764"><ele>302.0</ele><time>2026-04-03T14:15:16.341Z</time></trkpt><trkpt lat="45.9732723" lon="8.62672"><ele>302.0</ele><time>2026-04-03T14:15:17.344Z</time></trkpt><trkpt lat="45.9733506" lon="8.6268628"><ele>304.5</ele><time>2026-04-03T14:15:18.344Z</time></trkpt><trkpt lat="45.9734403" lon="8.6269709"><ele>307.0</ele><time>2026-04-03T14:15:19.344Z</time></trkpt><trkpt lat="45.9735505" lon="8.6270661"><ele>309.5</ele><time>2026-04-03T14:15:20.342Z</time></trkpt><trkpt lat="45.9736554" lon="8.6272133"><ele>312.0</ele><time>2026-04-03T14:15:21.341Z</time></trkpt><trkpt lat="45.9737464" lon="8.627423"><ele>312.0</ele><time>2026-04-03T14:15:22.343Z</time></trkpt><trkpt lat="45.9738285" lon="8.6276723"><ele>312.0</ele><time>2026-04-03T14:15:23.364Z</time></trkpt><trkpt lat="45.9739195" lon="8.627912"><ele>312.0</ele><time>2026-04-03T14:15:24.348Z</time></trkpt><trkpt lat="45.9740394" lon="8.6281075"><ele>312.3333333333333</ele><time>2026-04-03T14:15:25.346Z</time></trkpt><trkpt lat="45.9741732" lon="8.6282786"><ele>312.66666666666663</ele><time>2026-04-03T14:15:26.346Z</time></trkpt><trkpt lat="45.9743296" lon="8.6284533"><ele>313.0</ele><time>2026-04-03T14:15:27.345Z</time></trkpt><trkpt lat="45.9744931" lon="8.6286483"><ele>313.0</ele><time>2026-04-03T14:15:28.353Z</time></trkpt><trkpt lat="45.9746533" lon="8.6288517"><ele>313.0</ele><time>2026-04-03T14:15:29.351Z</time></trkpt><trkpt lat="45.9748132" lon="8.629084"><ele>313.0</ele><time>2026-04-03T14:15:30.351Z</time></trkpt><trkpt lat="45.974982" lon="8.6293006"><ele>315.66666666666663</ele><time>2026-04-03T14:15:31.354Z</time></trkpt><trkpt lat="45.9751405" lon="8.6294911"><ele>318.3333333333333</ele><time>2026-04-03T14:15:32.349Z</time></trkpt><trkpt lat="45.9752847" lon="8.6296477"><ele>321.0</ele><time>2026-04-03T14:15:33.363Z</time></trkpt><trkpt lat="45.975406" lon="8.6297666"><ele>321.0</ele><time>2026-04-03T14:15:34.352Z</time></trkpt><trkpt lat="45.9755394" lon="8.6298542"><ele>321.0</ele><time>2026-04-03T14:15:35.349Z</time></trkpt><trkpt lat="45.9756558" lon="8.6299408"><ele>321.0</ele><time>2026-04-03T14:15:36.349Z</time></trkpt><trkpt lat="45.9757646" lon="8.6300021"><ele>321.0</ele><time>2026-04-03T14:15:37.35Z</time></trkpt><trkpt lat="45.9758604" lon="8.6300643"><ele>326.0</ele><time>2026-04-03T14:15:38.352Z</time></trkpt><trkpt lat="45.9759572" lon="8.6300933"><ele>331.0</ele><time>2026-04-03T14:15:39.353Z</time></trkpt><trkpt lat="45.976052" lon="8.6301066"><ele>336.0</ele><time>2026-04-03T14:15:40.351Z</time></trkpt><trkpt lat="45.9761493" lon="8.6301273"><ele>341.0</ele><time>2026-04-03T14:15:41.352Z</time></trkpt><trkpt lat="45.9762472" lon="8.6301618"><ele>346.0</ele><time>2026-04-03T14:15:42.35Z</time></trkpt><trkpt lat="45.9763348" lon="8.6302228"><ele>346.0</ele><time>2026-04-03T14:15:43.351Z</time></trkpt><trkpt lat="45.9764197" lon="8.6303019"><ele>346.0</ele><time>2026-04-03T14:15:44.351Z</time></trkpt><trkpt lat="45.9765038" lon="8.6303977"><ele>346.0</ele><time>2026-04-03T14:15:45.352Z</time></trkpt><trkpt lat="45.9765851" lon="8.630499"><ele>346.0</ele><time>2026-04-03T14:15:46.35Z</time></trkpt><trkpt lat="45.9766614" lon="8.6306181"><ele>346.0</ele><time>2026-04-03T14:15:47.354Z</time></trkpt><trkpt lat="45.9767296" lon="8.6307454"><ele>345.0</ele><time>2026-04-03T14:15:48.351Z</time></trkpt><trkpt lat="45.9767973" lon="8.6308769"><ele>344.0</ele><time>2026-04-03T14:15:49.354Z</time></trkpt><trkpt lat="45.9768707" lon="8.6310105"><ele>343.0</ele><time>2026-04-03T14:15:50.356Z</time></trkpt><trkpt lat="45.9769464" lon="8.631137"><ele>342.0</ele><time>2026-04-03T14:15:51.361Z</time></trkpt><trkpt lat="45.9770194" lon="8.6312503"><ele>337.40000000000003</ele><time>2026-04-03T14:15:52.358Z</time></trkpt><trkpt lat="45.9770921" lon="8.6313398"><ele>332.8</ele><time>2026-04-03T14:15:53.358Z</time></trkpt><trkpt lat="45.9771727" lon="8.6314133"><ele>328.2</ele><time>2026-04-03T14:15:54.371Z</time></trkpt><trkpt lat="45.9772604" lon="8.6314671"><ele>323.6</ele><time>2026-04-03T14:15:55.359Z</time></trkpt><trkpt lat="45.9773414" lon="8.6315071"><ele>319.0</ele><time>2026-04-03T14:15:56.354Z</time></trkpt><trkpt lat="45.9774197" lon="8.6315255"><ele>319.0</ele><time>2026-04-03T14:15:57.354Z</time></trkpt><trkpt lat="45.9774925" lon="8.6315195"><ele>319.0</ele><time>2026-04-03T14:15:58.355Z</time></trkpt><trkpt lat="45.9775564" lon="8.6314747"><ele>319.0</ele><time>2026-04-03T14:15:59.356Z</time></trkpt><trkpt lat="45.977616" lon="8.6313895"><ele>319.0</ele><time>2026-04-03T14:16:00.349Z</time></trkpt><trkpt lat="45.9776677" lon="8.6312957"><ele>319.0</ele><time>2026-04-03T14:16:01.353Z</time></trkpt><trkpt lat="45.9777152" lon="8.6312092"><ele>319.0</ele><time>2026-04-03T14:16:02.351Z</time></trkpt><trkpt lat="45.9777677" lon="8.6311434"><ele>322.0</ele><time>2026-04-03T14:16:03.357Z</time></trkpt><trkpt lat="45.9778804" lon="8.6311175"><ele>325.0</ele><time>2026-04-03T14:16:05.35Z</time></trkpt><trkpt lat="45.978004" lon="8.6312064"><ele>328.0</ele><time>2026-04-03T14:16:07.349Z</time></trkpt><trkpt lat="45.9780648" lon="8.6313043"><ele>331.0</ele><time>2026-04-03T14:16:08.352Z</time></trkpt><trkpt lat="45.9781239" lon="8.6314155"><ele>334.0</ele><time>2026-04-03T14:16:09.35Z</time></trkpt><trkpt lat="45.978183" lon="8.631509"><ele>334.0</ele><time>2026-04-03T14:16:10.352Z</time></trkpt><trkpt lat="45.9782558" lon="8.6315858"><ele>334.0</ele><time>2026-04-03T14:16:11.351Z</time></trkpt><trkpt lat="45.9783451" lon="8.6316568"><ele>334.0</ele><time>2026-04-03T14:16:12.352Z</time></trkpt><trkpt lat="45.9784607" lon="8.6317286"><ele>334.0</ele><time>2026-04-03T14:16:13.351Z</time></trkpt><trkpt lat="45.9786176" lon="8.63183"><ele>334.66666666666663</ele><time>2026-04-03T14:16:14.348Z</time></trkpt><trkpt lat="45.9788012" lon="8.6319473"><ele>335.3333333333333</ele><time>2026-04-03T14:16:15.354Z</time></trkpt><trkpt lat="45.9790167" lon="8.6321047"><ele>336.0</ele><time>2026-04-03T14:16:16.352Z</time></trkpt><trkpt lat="45.9792069" lon="8.6322606"><ele>339.3333333333333</ele><time>2026-04-03T14:16:17.357Z</time></trkpt><trkpt lat="45.9793687" lon="8.6324202"><ele>342.66666666666663</ele><time>2026-04-03T14:16:18.358Z</time></trkpt><trkpt lat="45.9795137" lon="8.6325973"><ele>346.0</ele><time>2026-04-03T14:16:19.357Z</time></trkpt><trkpt lat="45.9796598" lon="8.6327761"><ele>346.66666666666663</ele><time>2026-04-03T14:16:20.358Z</time></trkpt><trkpt lat="45.9798134" lon="8.6329405"><ele>347.3333333333333</ele><time>2026-04-03T14:16:21.358Z</time></trkpt><trkpt lat="45.979953" lon="8.6330588"><ele>348.0</ele><time>2026-04-03T14:16:22.358Z</time></trkpt><trkpt lat="45.9800972" lon="8.6331526"><ele>348.0</ele><time>2026-04-03T14:16:23.361Z</time></trkpt><trkpt lat="45.9802462" lon="8.6332091"><ele>348.0</ele><time>2026-04-03T14:16:24.354Z</time></trkpt><trkpt lat="45.9803849" lon="8.633253"><ele>348.0</ele><time>2026-04-03T14:16:25.368Z</time></trkpt><trkpt lat="45.9805123" lon="8.6333067"><ele>348.0</ele><time>2026-04-03T14:16:26.363Z</time></trkpt><trkpt lat="45.9806294" lon="8.6333843"><ele>348.0</ele><time>2026-04-03T14:16:27.36Z</time></trkpt><trkpt lat="45.9807294" lon="8.6334762"><ele>348.0</ele><time>2026-04-03T14:16:28.359Z</time></trkpt><trkpt lat="45.9808306" lon="8.6335706"><ele>348.0</ele><time>2026-04-03T14:16:29.362Z</time></trkpt><trkpt lat="45.9809263" lon="8.6336606"><ele>348.0</ele><time>2026-04-03T14:16:30.355Z</time></trkpt><trkpt lat="45.9810217" lon="8.6337402"><ele>347.79999999999995</ele><time>2026-04-03T14:16:31.363Z</time></trkpt><trkpt lat="45.9810999" lon="8.6338236"><ele>347.6</ele><time>2026-04-03T14:16:32.353Z</time></trkpt><trkpt lat="45.9811655" lon="8.6338827"><ele>347.4</ele><time>2026-04-03T14:16:33.359Z</time></trkpt><trkpt lat="45.9812476" lon="8.6339762"><ele>347.20000000000005</ele><time>2026-04-03T14:16:35.352Z</time></trkpt><trkpt lat="45.9812325" lon="8.6341115"><ele>347.0</ele><time>2026-04-03T14:16:38.355Z</time></trkpt><trkpt lat="45.9811403" lon="8.634264"><ele>347.0</ele><time>2026-04-03T14:16:40.355Z</time></trkpt><trkpt lat="45.9810707" lon="8.6343748"><ele>347.0</ele><time>2026-04-03T14:16:41.357Z</time></trkpt><trkpt lat="45.9810074" lon="8.6344934"><ele>347.0</ele><time>2026-04-03T14:16:42.361Z</time></trkpt><trkpt lat="45.980946" lon="8.6345968"><ele>347.0</ele><time>2026-04-03T14:16:43.363Z</time></trkpt><trkpt lat="45.980912" lon="8.6346914"><ele>347.0</ele><time>2026-04-03T14:16:44.36Z</time></trkpt><trkpt lat="45.9809288" lon="8.6348271"><ele>344.40000000000003</ele><time>2026-04-03T14:16:46.359Z</time></trkpt><trkpt lat="45.9810358" lon="8.6349562"><ele>341.8</ele><time>2026-04-03T14:16:48.356Z</time></trkpt><trkpt lat="45.9811079" lon="8.6350305"><ele>339.2</ele><time>2026-04-03T14:16:49.355Z</time></trkpt><trkpt lat="45.9811836" lon="8.6351186"><ele>336.6</ele><time>2026-04-03T14:16:50.357Z</time></trkpt><trkpt lat="45.9812471" lon="8.635233"><ele>334.0</ele><time>2026-04-03T14:16:51.358Z</time></trkpt><trkpt lat="45.9813003" lon="8.6353638"><ele>330.8</ele><time>2026-04-03T14:16:52.363Z</time></trkpt><trkpt lat="45.9813438" lon="8.6354878"><ele>327.59999999999997</ele><time>2026-04-03T14:16:53.357Z</time></trkpt><trkpt lat="45.9813707" lon="8.6355903"><ele>324.4</ele><time>2026-04-03T14:16:54.358Z</time></trkpt><trkpt lat="45.9813748" lon="8.6357381"><ele>321.2</ele><time>2026-04-03T14:16:56.371Z</time></trkpt><trkpt lat="45.9813106" lon="8.6357789"><ele>318.0</ele><time>2026-04-03T14:16:58.366Z</time></trkpt><trkpt lat="45.9812075" lon="8.635648"><ele>318.0</ele><time>2026-04-03T14:17:00.358Z</time></trkpt><trkpt lat="45.9811345" lon="8.6355606"><ele>318.0</ele><time>2026-04-03T14:17:01.366Z</time></trkpt><trkpt lat="45.9810482" lon="8.6354717"><ele>318.0</ele><time>2026-04-03T14:17:02.351Z</time></trkpt><trkpt lat="45.9809545" lon="8.6353911"><ele>318.0</ele><time>2026-04-03T14:17:03.358Z</time></trkpt><trkpt lat="45.9808569" lon="8.635313"><ele>318.0</ele><time>2026-04-03T14:17:04.354Z</time></trkpt><trkpt lat="45.9807581" lon="8.6352458"><ele>318.4</ele><time>2026-04-03T14:17:05.354Z</time></trkpt><trkpt lat="45.9806596" lon="8.6351799"><ele>318.8</ele><time>2026-04-03T14:17:06.354Z</time></trkpt><trkpt lat="45.9805572" lon="8.635106"><ele>319.2</ele><time>2026-04-03T14:17:07.354Z</time></trkpt><trkpt lat="45.9804635" lon="8.6350286"><ele>319.6</ele><time>2026-04-03T14:17:08.358Z</time></trkpt><trkpt lat="45.9803755" lon="8.6349542"><ele>320.0</ele><time>2026-04-03T14:17:09.354Z</time></trkpt><trkpt lat="45.9802831" lon="8.6348955"><ele>320.0</ele><time>2026-04-03T14:17:10.35Z</time></trkpt><trkpt lat="45.9801966" lon="8.634854"><ele>320.0</ele><time>2026-04-03T14:17:11.351Z</time></trkpt><trkpt lat="45.9801123" lon="8.6348316"><ele>320.0</ele><time>2026-04-03T14:17:12.353Z</time></trkpt><trkpt lat="45.9800222" lon="8.6348253"><ele>320.0</ele><time>2026-04-03T14:17:13.353Z</time></trkpt><trkpt lat="45.9799398" lon="8.6348166"><ele>320.0</ele><time>2026-04-03T14:17:14.351Z</time></trkpt><trkpt lat="45.9798644" lon="8.6347871"><ele>320.0</ele><time>2026-04-03T14:17:15.351Z</time></trkpt><trkpt lat="45.9798017" lon="8.6347518"><ele>317.5</ele><time>2026-04-03T14:17:16.355Z</time></trkpt><trkpt lat="45.9797089" lon="8.6346766"><ele>315.0</ele><time>2026-04-03T14:17:18.353Z</time></trkpt><trkpt lat="45.9796417" lon="8.6346645"><ele>312.5</ele><time>2026-04-03T14:17:21.366Z</time></trkpt><trkpt lat="45.9796773" lon="8.6347574"><ele>310.0</ele><time>2026-04-03T14:17:23.36Z</time></trkpt><trkpt lat="45.9797666" lon="8.6348626"><ele>307.5</ele><time>2026-04-03T14:17:25.36Z</time></trkpt><trkpt lat="45.9798329" lon="8.6349259"><ele>305.0</ele><time>2026-04-03T14:17:26.351Z</time></trkpt><trkpt lat="45.9799081" lon="8.6349855"><ele>305.0</ele><time>2026-04-03T14:17:27.371Z</time></trkpt><trkpt lat="45.9799799" lon="8.6350421"><ele>305.0</ele><time>2026-04-03T14:17:28.351Z</time></trkpt><trkpt lat="45.9800697" lon="8.6351069"><ele>305.0</ele><time>2026-04-03T14:17:30.346Z</time></trkpt><trkpt lat="45.9801177" lon="8.6351814"><ele>305.0</ele><time>2026-04-03T14:17:32.365Z</time></trkpt><trkpt lat="45.9800458" lon="8.6352445"><ele>305.0</ele><time>2026-04-03T14:17:34.363Z</time></trkpt><trkpt lat="45.9799798" lon="8.6352546"><ele>305.0</ele><time>2026-04-03T14:17:35.359Z</time></trkpt><trkpt lat="45.9799037" lon="8.6352442"><ele>305.0</ele><time>2026-04-03T14:17:36.356Z</time></trkpt><trkpt lat="45.9798243" lon="8.6352199"><ele>305.0</ele><time>2026-04-03T14:17:37.352Z</time></trkpt><trkpt lat="45.9797353" lon="8.6351812"><ele>305.0</ele><time>2026-04-03T14:17:38.352Z</time></trkpt><trkpt lat="45.9796393" lon="8.6351323"><ele>305.0</ele><time>2026-04-03T14:17:39.354Z</time></trkpt><trkpt lat="45.9795437" lon="8.6350802"><ele>305.0</ele><time>2026-04-03T14:17:40.352Z</time></trkpt><trkpt lat="45.9794507" lon="8.6350199"><ele>305.0</ele><time>2026-04-03T14:17:41.354Z</time></trkpt><trkpt lat="45.9793687" lon="8.6349406"><ele>305.0</ele><time>2026-04-03T14:17:42.353Z</time></trkpt><trkpt lat="45.9792876" lon="8.6348422"><ele>305.0</ele><time>2026-04-03T14:17:43.358Z</time></trkpt><trkpt lat="45.9792043" lon="8.6347348"><ele>305.0</ele><time>2026-04-03T14:17:44.353Z</time></trkpt><trkpt lat="45.9791173" lon="8.6346156"><ele>305.0</ele><time>2026-04-03T14:17:45.354Z</time></trkpt><trkpt lat="45.9790302" lon="8.6344945"><ele>302.8</ele><time>2026-04-03T14:17:46.352Z</time></trkpt><trkpt lat="45.9789391" lon="8.6343828"><ele>300.6</ele><time>2026-04-03T14:17:47.357Z</time></trkpt><trkpt lat="45.9788449" lon="8.6342752"><ele>298.4</ele><time>2026-04-03T14:17:48.353Z</time></trkpt><trkpt lat="45.9787624" lon="8.6341801"><ele>296.2</ele><time>2026-04-03T14:17:49.349Z</time></trkpt><trkpt lat="45.9787021" lon="8.6341051"><ele>294.0</ele><time>2026-04-03T14:17:50.351Z</time></trkpt><trkpt lat="45.9786198" lon="8.6340253"><ele>294.0</ele><time>2026-04-03T14:17:52.354Z</time></trkpt><trkpt lat="45.9785808" lon="8.6341264"><ele>294.0</ele><time>2026-04-03T14:17:55.357Z</time></trkpt><trkpt lat="45.9785972" lon="8.6342146"><ele>294.0</ele><time>2026-04-03T14:17:56.355Z</time></trkpt><trkpt lat="45.9786344" lon="8.6343304"><ele>294.0</ele><time>2026-04-03T14:17:57.36Z</time></trkpt><trkpt lat="45.9786868" lon="8.634471"><ele>294.0</ele><time>2026-04-03T14:17:58.347Z</time></trkpt><trkpt lat="45.9787484" lon="8.634637"><ele>287.25</ele><time>2026-04-03T14:17:59.344Z</time></trkpt><trkpt lat="45.9788055" lon="8.6348091"><ele>280.5</ele><time>2026-04-03T14:18:00.347Z</time></trkpt><trkpt lat="45.9788732" lon="8.6349798"><ele>273.75</ele><time>2026-04-03T14:18:01.35Z</time></trkpt><trkpt lat="45.9789459" lon="8.6351486"><ele>267.0</ele><time>2026-04-03T14:18:02.353Z</time></trkpt><trkpt lat="45.9790311" lon="8.635298"><ele>267.6</ele><time>2026-04-03T14:18:03.355Z</time></trkpt><trkpt lat="45.979113" lon="8.6354282"><ele>268.2</ele><time>2026-04-03T14:18:04.346Z</time></trkpt><trkpt lat="45.9791879" lon="8.6355358"><ele>268.8</ele><time>2026-04-03T14:18:05.352Z</time></trkpt><trkpt lat="45.9792603" lon="8.6356118"><ele>269.4</ele><time>2026-04-03T14:18:06.344Z</time></trkpt><trkpt lat="45.9793322" lon="8.6356616"><ele>270.0</ele><time>2026-04-03T14:18:07.35Z</time></trkpt><trkpt lat="45.979421" lon="8.6357074"><ele>270.0</ele><time>2026-04-03T14:18:08.348Z</time></trkpt><trkpt lat="45.9795424" lon="8.6357565"><ele>270.0</ele><time>2026-04-03T14:18:09.348Z</time></trkpt><trkpt lat="45.9796595" lon="8.6358057"><ele>270.0</ele><time>2026-04-03T14:18:10.346Z</time></trkpt><trkpt lat="45.9797688" lon="8.635865"><ele>270.0</ele><time>2026-04-03T14:18:11.34Z</time></trkpt><trkpt lat="45.979875" lon="8.6359289"><ele>270.0</ele><time>2026-04-03T14:18:12.346Z</time></trkpt><trkpt lat="45.9799667" lon="8.6360162"><ele>270.0</ele><time>2026-04-03T14:18:13.341Z</time></trkpt><trkpt lat="45.9800231" lon="8.6361142"><ele>270.0</ele><time>2026-04-03T14:18:14.341Z</time></trkpt><trkpt lat="45.9800657" lon="8.636215"><ele>270.0</ele><time>2026-04-03T14:18:15.348Z</time></trkpt><trkpt lat="45.9800914" lon="8.6363092"><ele>270.0</ele><time>2026-04-03T14:18:16.349Z</time></trkpt><trkpt lat="45.9801388" lon="8.6364557"><ele>272.8</ele><time>2026-04-03T14:18:18.341Z</time></trkpt><trkpt lat="45.9801512" lon="8.636563"><ele>275.6</ele><time>2026-04-03T14:18:20.347Z</time></trkpt><trkpt lat="45.9800271" lon="8.6364788"><ele>278.4</ele><time>2026-04-03T14:18:23.363Z</time></trkpt><trkpt lat="45.9799628" lon="8.6363805"><ele>281.2</ele><time>2026-04-03T14:18:24.354Z</time></trkpt><trkpt lat="45.9799011" lon="8.636276"><ele>284.0</ele><time>2026-04-03T14:18:25.345Z</time></trkpt><trkpt lat="45.9798342" lon="8.6361822"><ele>280.5</ele><time>2026-04-03T14:18:26.353Z</time></trkpt><trkpt lat="45.9797481" lon="8.6361033"><ele>277.0</ele><time>2026-04-03T14:18:27.346Z</time></trkpt><trkpt lat="45.9796453" lon="8.6360365"><ele>273.5</ele><time>2026-04-03T14:18:28.362Z</time></trkpt><trkpt lat="45.9795317" lon="8.6359727"><ele>270.0</ele><time>2026-04-03T14:18:29.35Z</time></trkpt><trkpt lat="45.9794052" lon="8.6359155"><ele>270.0</ele><time>2026-04-03T14:18:30.347Z</time></trkpt><trkpt lat="45.9792729" lon="8.635851"><ele>270.0</ele><time>2026-04-03T14:18:31.354Z</time></trkpt><trkpt lat="45.9791451" lon="8.635779"><ele>270.0</ele><time>2026-04-03T14:18:32.343Z</time></trkpt><trkpt lat="45.9790166" lon="8.6357109"><ele>270.0</ele><time>2026-04-03T14:18:33.361Z</time></trkpt><trkpt lat="45.9788905" lon="8.6356281"><ele>260.25</ele><time>2026-04-03T14:18:34.349Z</time></trkpt><trkpt lat="45.9787711" lon="8.6355447"><ele>250.5</ele><time>2026-04-03T14:18:35.346Z</time></trkpt><trkpt lat="45.978657" lon="8.6354613"><ele>240.75</ele><time>2026-04-03T14:18:36.344Z</time></trkpt><trkpt lat="45.9785543" lon="8.6353848"><ele>231.0</ele><time>2026-04-03T14:18:37.348Z</time></trkpt><trkpt lat="45.9784543" lon="8.6353137"><ele>230.0</ele><time>2026-04-03T14:18:38.353Z</time></trkpt><trkpt lat="45.9783693" lon="8.6352521"><ele>229.00000000000003</ele><time>2026-04-03T14:18:39.343Z</time></trkpt><trkpt lat="45.9782971" lon="8.6352097"><ele>228.00000000000003</ele><time>2026-04-03T14:18:40.341Z</time></trkpt><trkpt lat="45.9782104" lon="8.6351622"><ele>227.0</ele><time>2026-04-03T14:18:42.35Z</time></trkpt><trkpt lat="45.9782064" lon="8.6352693"><ele>226.0</ele><time>2026-04-03T14:18:51.364Z</time></trkpt><trkpt lat="45.9782929" lon="8.6353793"><ele>227.25</ele><time>2026-04-03T14:18:53.361Z</time></trkpt><trkpt lat="45.9783846" lon="8.6354351"><ele>228.5</ele><time>2026-04-03T14:18:54.346Z</time></trkpt><trkpt lat="45.9784916" lon="8.6355023"><ele>229.75</ele><time>2026-04-03T14:18:55.343Z</time></trkpt><trkpt lat="45.978604" lon="8.6355794"><ele>231.0</ele><time>2026-04-03T14:18:56.344Z</time></trkpt><trkpt lat="45.9787337" lon="8.6356789"><ele>231.0</ele><time>2026-04-03T14:18:57.344Z</time></trkpt><trkpt lat="45.9788596" lon="8.6357789"><ele>231.0</ele><time>2026-04-03T14:18:58.346Z</time></trkpt><trkpt lat="45.9789959" lon="8.6358981"><ele>231.0</ele><time>2026-04-03T14:18:59.359Z</time></trkpt><trkpt lat="45.9791359" lon="8.6360272"><ele>231.66666666666669</ele><time>2026-04-03T14:19:00.344Z</time></trkpt><trkpt lat="45.9792862" lon="8.6361737"><ele>232.33333333333334</ele><time>2026-04-03T14:19:01.355Z</time></trkpt><trkpt lat="45.9794751" lon="8.6363818"><ele>233.0</ele><time>2026-04-03T14:19:02.349Z</time></trkpt><trkpt lat="45.9796948" lon="8.6366054"><ele>233.0</ele><time>2026-04-03T14:19:03.354Z</time></trkpt><trkpt lat="45.9799005" lon="8.6367999"><ele>233.0</ele><time>2026-04-03T14:19:04.348Z</time></trkpt><trkpt lat="45.9800888" lon="8.6369835"><ele>234.0</ele><time>2026-04-03T14:19:05.349Z</time></trkpt><trkpt lat="45.9802505" lon="8.6371549"><ele>235.0</ele><time>2026-04-03T14:19:06.353Z</time></trkpt><trkpt lat="45.9804062" lon="8.6373195"><ele>236.0</ele><time>2026-04-03T14:19:07.349Z</time></trkpt><trkpt lat="45.9805574" lon="8.6374987"><ele>236.0</ele><time>2026-04-03T14:19:08.352Z</time></trkpt><trkpt lat="45.9807089" lon="8.6376639"><ele>236.0</ele><time>2026-04-03T14:19:09.352Z</time></trkpt><trkpt lat="45.9808587" lon="8.6378179"><ele>236.0</ele><time>2026-04-03T14:19:10.355Z</time></trkpt><trkpt lat="45.9810101" lon="8.6379733"><ele>231.66666666666669</ele><time>2026-04-03T14:19:11.351Z</time></trkpt><trkpt lat="45.9811547" lon="8.6381232"><ele>227.33333333333331</ele><time>2026-04-03T14:19:12.351Z</time></trkpt><trkpt lat="45.9813035" lon="8.6382857"><ele>223.0</ele><time>2026-04-03T14:19:13.35Z</time></trkpt><trkpt lat="45.9814495" lon="8.6384473"><ele>223.0</ele><time>2026-04-03T14:19:14.35Z</time></trkpt><trkpt lat="45.9816017" lon="8.6386136"><ele>223.0</ele><time>2026-04-03T14:19:15.351Z</time></trkpt><trkpt lat="45.9817546" lon="8.6387823"><ele>223.0</ele><time>2026-04-03T14:19:16.353Z</time></trkpt><trkpt lat="45.9818972" lon="8.6389546"><ele>221.33333333333331</ele><time>2026-04-03T14:19:17.347Z</time></trkpt><trkpt lat="45.982033" lon="8.6391374"><ele>219.66666666666669</ele><time>2026-04-03T14:19:18.349Z</time></trkpt><trkpt lat="45.9821662" lon="8.6393285"><ele>218.0</ele><time>2026-04-03T14:19:19.346Z</time></trkpt><trkpt lat="45.9822986" lon="8.6395205"><ele>215.66666666666669</ele><time>2026-04-03T14:19:20.351Z</time></trkpt><trkpt lat="45.9824333" lon="8.6397176"><ele>213.33333333333331</ele><time>2026-04-03T14:19:21.347Z</time></trkpt><trkpt lat="45.9825702" lon="8.6399102"><ele>211.0</ele><time>2026-04-03T14:19:22.348Z</time></trkpt><trkpt lat="45.9827067" lon="8.6400953"><ele>211.0</ele><time>2026-04-03T14:19:23.356Z</time></trkpt><trkpt lat="45.9828359" lon="8.6402663"><ele>211.0</ele><time>2026-04-03T14:19:24.354Z</time></trkpt><trkpt lat="45.9829702" lon="8.6404191"><ele>211.0</ele><time>2026-04-03T14:19:25.355Z</time></trkpt><trkpt lat="45.9831174" lon="8.640533"><ele>208.33333333333331</ele><time>2026-04-03T14:19:26.357Z</time></trkpt><trkpt lat="45.9832855" lon="8.6405932"><ele>205.66666666666669</ele><time>2026-04-03T14:19:27.36Z</time></trkpt><trkpt lat="45.9834579" lon="8.6405948"><ele>203.0</ele><time>2026-04-03T14:19:28.361Z</time></trkpt><trkpt lat="45.9836371" lon="8.64058"><ele>203.0</ele><time>2026-04-03T14:19:29.353Z</time></trkpt><trkpt lat="45.9838292" lon="8.6405793"><ele>203.0</ele><time>2026-04-03T14:19:30.364Z</time></trkpt><trkpt lat="45.9840122" lon="8.6405678"><ele>203.0</ele><time>2026-04-03T14:19:31.36Z</time></trkpt><trkpt lat="45.9841901" lon="8.6405643"><ele>205.66666666666669</ele><time>2026-04-03T14:19:32.357Z</time></trkpt><trkpt lat="45.9843614" lon="8.6405528"><ele>208.33333333333331</ele><time>2026-04-03T14:19:33.357Z</time></trkpt><trkpt lat="45.9845353" lon="8.6405714"><ele>211.0</ele><time>2026-04-03T14:19:34.354Z</time></trkpt><trkpt lat="45.9846984" lon="8.6406099"><ele>211.0</ele><time>2026-04-03T14:19:35.348Z</time></trkpt><trkpt lat="45.9848666" lon="8.6406892"><ele>211.0</ele><time>2026-04-03T14:19:36.346Z</time></trkpt><trkpt lat="45.9850338" lon="8.6407963"><ele>211.0</ele><time>2026-04-03T14:19:37.36Z</time></trkpt><trkpt lat="45.9851849" lon="8.6409171"><ele>208.0</ele><time>2026-04-03T14:19:38.351Z</time></trkpt><trkpt lat="45.9853396" lon="8.6410352"><ele>205.0</ele><time>2026-04-03T14:19:39.35Z</time></trkpt><trkpt lat="45.9854947" lon="8.6411452"><ele>202.0</ele><time>2026-04-03T14:19:40.352Z</time></trkpt><trkpt lat="45.9856524" lon="8.6412637"><ele>202.0</ele><time>2026-04-03T14:19:41.354Z</time></trkpt><trkpt lat="45.985814" lon="8.6413833"><ele>202.0</ele><time>2026-04-03T14:19:42.356Z</time></trkpt><trkpt lat="45.9859695" lon="8.6415075"><ele>202.0</ele><time>2026-04-03T14:19:43.356Z</time></trkpt><trkpt lat="45.9861261" lon="8.6416288"><ele>202.33333333333331</ele><time>2026-04-03T14:19:44.36Z</time></trkpt><trkpt lat="45.986282" lon="8.6417611"><ele>202.66666666666669</ele><time>2026-04-03T14:19:45.357Z</time></trkpt><trkpt lat="45.9864257" lon="8.641894"><ele>203.0</ele><time>2026-04-03T14:19:46.36Z</time></trkpt><trkpt lat="45.9865751" lon="8.6420391"><ele>209.66666666666669</ele><time>2026-04-03T14:19:47.357Z</time></trkpt><trkpt lat="45.9867154" lon="8.6421877"><ele>216.33333333333331</ele><time>2026-04-03T14:19:48.362Z</time></trkpt><trkpt lat="45.9868662" lon="8.6423334"><ele>223.0</ele><time>2026-04-03T14:19:49.359Z</time></trkpt><trkpt lat="45.9870149" lon="8.642485"><ele>223.0</ele><time>2026-04-03T14:19:50.359Z</time></trkpt><trkpt lat="45.987157" lon="8.6426256"><ele>223.0</ele><time>2026-04-03T14:19:51.358Z</time></trkpt><trkpt lat="45.9873074" lon="8.6427684"><ele>223.0</ele><time>2026-04-03T14:19:52.358Z</time></trkpt><trkpt lat="45.9874588" lon="8.6429105"><ele>223.0</ele><time>2026-04-03T14:19:53.359Z</time></trkpt><trkpt lat="45.9876088" lon="8.6430534"><ele>223.0</ele><time>2026-04-03T14:19:54.355Z</time></trkpt><trkpt lat="45.987759" lon="8.6432064"><ele>223.0</ele><time>2026-04-03T14:19:55.356Z</time></trkpt><trkpt lat="45.9879134" lon="8.6433571"><ele>223.0</ele><time>2026-04-03T14:19:56.356Z</time></trkpt><trkpt lat="45.988057" lon="8.6435005"><ele>223.0</ele><time>2026-04-03T14:19:57.355Z</time></trkpt><trkpt lat="45.9882059" lon="8.6436563"><ele>223.0</ele><time>2026-04-03T14:19:58.355Z</time></trkpt><trkpt lat="45.9883478" lon="8.6438136"><ele>225.66666666666666</ele><time>2026-04-03T14:19:59.355Z</time></trkpt><trkpt lat="45.9884843" lon="8.6439735"><ele>228.33333333333331</ele><time>2026-04-03T14:20:00.353Z</time></trkpt><trkpt lat="45.9886105" lon="8.6441391"><ele>231.0</ele><time>2026-04-03T14:20:01.362Z</time></trkpt><trkpt lat="45.9887358" lon="8.6443198"><ele>223.33333333333331</ele><time>2026-04-03T14:20:02.349Z</time></trkpt><trkpt lat="45.9888647" lon="8.6445014"><ele>215.66666666666666</ele><time>2026-04-03T14:20:03.355Z</time></trkpt><trkpt lat="45.9889897" lon="8.6446737"><ele>208.0</ele><time>2026-04-03T14:20:04.35Z</time></trkpt><trkpt lat="45.9891187" lon="8.6448507"><ele>210.33333333333331</ele><time>2026-04-03T14:20:05.349Z</time></trkpt><trkpt lat="45.9892489" lon="8.6450181"><ele>212.66666666666669</ele><time>2026-04-03T14:20:06.351Z</time></trkpt><trkpt lat="45.9893824" lon="8.6451832"><ele>215.0</ele><time>2026-04-03T14:20:07.349Z</time></trkpt><trkpt lat="45.9895076" lon="8.6453577"><ele>215.0</ele><time>2026-04-03T14:20:08.352Z</time></trkpt><trkpt lat="45.9896335" lon="8.6455353"><ele>215.0</ele><time>2026-04-03T14:20:09.351Z</time></trkpt><trkpt lat="45.9897549" lon="8.6456988"><ele>215.0</ele><time>2026-04-03T14:20:10.351Z</time></trkpt><trkpt lat="45.9898753" lon="8.6458617"><ele>215.0</ele><time>2026-04-03T14:20:11.353Z</time></trkpt><trkpt lat="45.9899973" lon="8.6460145"><ele>215.0</ele><time>2026-04-03T14:20:12.349Z</time></trkpt><trkpt lat="45.9901152" lon="8.6461686"><ele>215.0</ele><time>2026-04-03T14:20:13.345Z</time></trkpt><trkpt lat="45.9902281" lon="8.6463132"><ele>214.25</ele><time>2026-04-03T14:20:14.344Z</time></trkpt><trkpt lat="45.9903273" lon="8.6464634"><ele>213.5</ele><time>2026-04-03T14:20:15.344Z</time></trkpt><trkpt lat="45.9904193" lon="8.6466294"><ele>212.75</ele><time>2026-04-03T14:20:16.345Z</time></trkpt><trkpt lat="45.9905172" lon="8.6468048"><ele>212.0</ele><time>2026-04-03T14:20:17.346Z</time></trkpt><trkpt lat="45.9905995" lon="8.6469725"><ele>212.0</ele><time>2026-04-03T14:20:18.347Z</time></trkpt><trkpt lat="45.9906823" lon="8.6471506"><ele>212.0</ele><time>2026-04-03T14:20:19.347Z</time></trkpt><trkpt lat="45.9907614" lon="8.6473303"><ele>212.0</ele><time>2026-04-03T14:20:20.346Z</time></trkpt><trkpt lat="45.9908402" lon="8.6475324"><ele>217.66666666666669</ele><time>2026-04-03T14:20:21.344Z</time></trkpt><trkpt lat="45.9909062" lon="8.6477259"><ele>223.33333333333331</ele><time>2026-04-03T14:20:22.348Z</time></trkpt><trkpt lat="45.9909717" lon="8.6479174"><ele>229.0</ele><time>2026-04-03T14:20:23.348Z</time></trkpt><trkpt lat="45.9910384" lon="8.6481208"><ele>229.0</ele><time>2026-04-03T14:20:24.352Z</time></trkpt><trkpt lat="45.9911155" lon="8.6483161"><ele>229.0</ele><time>2026-04-03T14:20:25.348Z</time></trkpt><trkpt lat="45.991196" lon="8.6485039"><ele>229.0</ele><time>2026-04-03T14:20:26.351Z</time></trkpt><trkpt lat="45.9912622" lon="8.6486826"><ele>225.0</ele><time>2026-04-03T14:20:27.35Z</time></trkpt><trkpt lat="45.9913234" lon="8.6488622"><ele>221.0</ele><time>2026-04-03T14:20:28.356Z</time></trkpt><trkpt lat="45.9913891" lon="8.6490529"><ele>217.0</ele><time>2026-04-03T14:20:29.356Z</time></trkpt><trkpt lat="45.9914673" lon="8.6492491"><ele>213.0</ele><time>2026-04-03T14:20:30.355Z</time></trkpt><trkpt lat="45.9915417" lon="8.6494433"><ele>211.0</ele><time>2026-04-03T14:20:31.36Z</time></trkpt><trkpt lat="45.9916194" lon="8.6496396"><ele>209.0</ele><time>2026-04-03T14:20:32.365Z</time></trkpt><trkpt lat="45.9917134" lon="8.6498217"><ele>207.0</ele><time>2026-04-03T14:20:33.358Z</time></trkpt><trkpt lat="45.9918149" lon="8.649986"><ele>207.0</ele><time>2026-04-03T14:20:34.351Z</time></trkpt><trkpt lat="45.9919212" lon="8.650126"><ele>207.0</ele><time>2026-04-03T14:20:35.352Z</time></trkpt><trkpt lat="45.99204" lon="8.6502653"><ele>207.0</ele><time>2026-04-03T14:20:36.353Z</time></trkpt><trkpt lat="45.9921556" lon="8.6504074"><ele>207.0</ele><time>2026-04-03T14:20:37.35Z</time></trkpt><trkpt lat="45.9922809" lon="8.6505356"><ele>207.0</ele><time>2026-04-03T14:20:38.356Z</time></trkpt><trkpt lat="45.9924054" lon="8.6506609"><ele>207.0</ele><time>2026-04-03T14:20:39.352Z</time></trkpt><trkpt lat="45.9925398" lon="8.6507931"><ele>207.0</ele><time>2026-04-03T14:20:40.352Z</time></trkpt><trkpt lat="45.992669" lon="8.650922"><ele>207.33333333333331</ele><time>2026-04-03T14:20:41.36Z</time></trkpt><trkpt lat="45.9928077" lon="8.651056"><ele>207.66666666666666</ele><time>2026-04-03T14:20:42.357Z</time></trkpt><trkpt lat="45.9929245" lon="8.6511867"><ele>208.0</ele><time>2026-04-03T14:20:43.36Z</time></trkpt><trkpt lat="45.9930445" lon="8.6513234"><ele>208.0</ele><time>2026-04-03T14:20:44.357Z</time></trkpt><trkpt lat="45.9931719" lon="8.651463"><ele>208.0</ele><time>2026-04-03T14:20:45.358Z</time></trkpt><trkpt lat="45.9933043" lon="8.6516077"><ele>208.0</ele><time>2026-04-03T14:20:46.356Z</time></trkpt><trkpt lat="45.9934322" lon="8.6517495"><ele>209.66666666666666</ele><time>2026-04-03T14:20:47.358Z</time></trkpt><trkpt lat="45.9935589" lon="8.6518731"><ele>211.33333333333331</ele><time>2026-04-03T14:20:48.358Z</time></trkpt><trkpt lat="45.9936871" lon="8.6520135"><ele>213.0</ele><time>2026-04-03T14:20:49.357Z</time></trkpt><trkpt lat="45.9938117" lon="8.6521571"><ele>213.0</ele><time>2026-04-03T14:20:50.359Z</time></trkpt><trkpt lat="45.9939421" lon="8.6522936"><ele>213.0</ele><time>2026-04-03T14:20:51.352Z</time></trkpt><trkpt lat="45.9940736" lon="8.6524256"><ele>213.0</ele><time>2026-04-03T14:20:52.351Z</time></trkpt><trkpt lat="45.9942036" lon="8.6525551"><ele>214.66666666666669</ele><time>2026-04-03T14:20:53.345Z</time></trkpt><trkpt lat="45.994327" lon="8.6526795"><ele>216.33333333333334</ele><time>2026-04-03T14:20:54.344Z</time></trkpt><trkpt lat="45.9944724" lon="8.6528352"><ele>218.0</ele><time>2026-04-03T14:20:55.345Z</time></trkpt><trkpt lat="45.9946231" lon="8.6530021"><ele>218.0</ele><time>2026-04-03T14:20:56.347Z</time></trkpt><trkpt lat="45.9947655" lon="8.6531721"><ele>218.0</ele><time>2026-04-03T14:20:57.352Z</time></trkpt><trkpt lat="45.9949182" lon="8.6533538"><ele>218.0</ele><time>2026-04-03T14:20:58.351Z</time></trkpt><trkpt lat="45.9950663" lon="8.6535285"><ele>217.0</ele><time>2026-04-03T14:20:59.348Z</time></trkpt><trkpt lat="45.9952143" lon="8.6536873"><ele>216.0</ele><time>2026-04-03T14:21:00.349Z</time></trkpt><trkpt lat="45.9953648" lon="8.653839"><ele>215.0</ele><time>2026-04-03T14:21:01.351Z</time></trkpt><trkpt lat="45.995512" lon="8.6539817"><ele>215.0</ele><time>2026-04-03T14:21:02.346Z</time></trkpt><trkpt lat="45.9956523" lon="8.6541027"><ele>215.0</ele><time>2026-04-03T14:21:03.361Z</time></trkpt><trkpt lat="45.995812" lon="8.6542211"><ele>215.0</ele><time>2026-04-03T14:21:04.346Z</time></trkpt><trkpt lat="45.9959734" lon="8.6543261"><ele>213.33333333333334</ele><time>2026-04-03T14:21:05.35Z</time></trkpt><trkpt lat="45.99613" lon="8.6544467"><ele>211.66666666666669</ele><time>2026-04-03T14:21:06.353Z</time></trkpt><trkpt lat="45.9962798" lon="8.6545586"><ele>210.0</ele><time>2026-04-03T14:21:07.35Z</time></trkpt><trkpt lat="45.9964357" lon="8.6546871"><ele>210.0</ele><time>2026-04-03T14:21:08.356Z</time></trkpt><trkpt lat="45.9965833" lon="8.6548078"><ele>210.0</ele><time>2026-04-03T14:21:09.356Z</time></trkpt><trkpt lat="45.9967317" lon="8.6549315"><ele>210.0</ele><time>2026-04-03T14:21:10.357Z</time></trkpt><trkpt lat="45.9968797" lon="8.6550472"><ele>206.66666666666669</ele><time>2026-04-03T14:21:11.355Z</time></trkpt><trkpt lat="45.9970228" lon="8.6551693"><ele>203.33333333333334</ele><time>2026-04-03T14:21:12.354Z</time></trkpt><trkpt lat="45.9971772" lon="8.6552862"><ele>200.0</ele><time>2026-04-03T14:21:13.354Z</time></trkpt><trkpt lat="45.9973283" lon="8.6553956"><ele>200.0</ele><time>2026-04-03T14:21:14.357Z</time></trkpt><trkpt lat="45.997479" lon="8.6555093"><ele>200.0</ele><time>2026-04-03T14:21:15.35Z</time></trkpt><trkpt lat="45.9976267" lon="8.6556248"><ele>200.0</ele><time>2026-04-03T14:21:16.35Z</time></trkpt><trkpt lat="45.9977719" lon="8.6557262"><ele>204.33333333333334</ele><time>2026-04-03T14:21:17.352Z</time></trkpt><trkpt lat="45.9979311" lon="8.6558217"><ele>208.66666666666669</ele><time>2026-04-03T14:21:18.351Z</time></trkpt><trkpt lat="45.9980907" lon="8.6558928"><ele>213.0</ele><time>2026-04-03T14:21:19.351Z</time></trkpt><trkpt lat="45.9982528" lon="8.6559582"><ele>215.0</ele><time>2026-04-03T14:21:20.35Z</time></trkpt><trkpt lat="45.9984097" lon="8.6560077"><ele>217.0</ele><time>2026-04-03T14:21:21.353Z</time></trkpt><trkpt lat="45.9985677" lon="8.6560646"><ele>219.0</ele><time>2026-04-03T14:21:22.35Z</time></trkpt><trkpt lat="45.9987126" lon="8.6561108"><ele>214.0</ele><time>2026-04-03T14:21:23.353Z</time></trkpt><trkpt lat="45.9988549" lon="8.6561474"><ele>209.0</ele><time>2026-04-03T14:21:24.356Z</time></trkpt><trkpt lat="45.9989878" lon="8.6561743"><ele>204.0</ele><time>2026-04-03T14:21:25.352Z</time></trkpt><trkpt lat="45.9991129" lon="8.656206"><ele>199.0</ele><time>2026-04-03T14:21:26.354Z</time></trkpt><trkpt lat="45.9992205" lon="8.6562365"><ele>198.99999999999997</ele><time>2026-04-03T14:21:27.354Z</time></trkpt><trkpt lat="45.99931" lon="8.6562701"><ele>199.0</ele><time>2026-04-03T14:21:28.352Z</time></trkpt><trkpt lat="45.9993829" lon="8.6562881"><ele>199.0</ele><time>2026-04-03T14:21:29.354Z</time></trkpt><trkpt lat="45.999481" lon="8.656322"><ele>199.0</ele><time>2026-04-03T14:21:31.356Z</time></trkpt><trkpt lat="45.9995491" lon="8.6563285"><ele>198.99999999999997</ele><time>2026-04-03T14:21:33.374Z</time></trkpt><trkpt lat="45.9996143" lon="8.6563348"><ele>199.0</ele><time>2026-04-03T14:21:37.358Z</time></trkpt><trkpt lat="45.9995758" lon="8.6562387"><ele>198.99999999999997</ele><time>2026-04-03T14:21:47.363Z</time></trkpt><trkpt lat="45.9995099" lon="8.6562367"><ele>199.0</ele><time>2026-04-03T14:21:48.359Z</time></trkpt><trkpt lat="45.9994248" lon="8.6562377"><ele>199.0</ele><time>2026-04-03T14:21:49.347Z</time></trkpt><trkpt lat="45.9993377" lon="8.6562327"><ele>199.0</ele><time>2026-04-03T14:21:50.345Z</time></trkpt><trkpt lat="45.9992537" lon="8.6562134"><ele>198.99999999999997</ele><time>2026-04-03T14:21:51.345Z</time></trkpt><trkpt lat="45.9991694" lon="8.6561817"><ele>199.0</ele><time>2026-04-03T14:21:52.343Z</time></trkpt><trkpt lat="45.9990829" lon="8.6561403"><ele>203.0</ele><time>2026-04-03T14:21:53.343Z</time></trkpt><trkpt lat="45.9989978" lon="8.6560643"><ele>207.0</ele><time>2026-04-03T14:21:54.345Z</time></trkpt><trkpt lat="45.9989234" lon="8.6559714"><ele>210.99999999999997</ele><time>2026-04-03T14:21:55.345Z</time></trkpt><trkpt lat="45.9988652" lon="8.6558709"><ele>215.0</ele><time>2026-04-03T14:21:56.347Z</time></trkpt><trkpt lat="45.9988115" lon="8.6557771"><ele>219.0</ele><time>2026-04-03T14:21:57.347Z</time></trkpt><trkpt lat="45.9987482" lon="8.6557046"><ele>219.0</ele><time>2026-04-03T14:21:58.345Z</time></trkpt><trkpt lat="45.9986784" lon="8.6556426"><ele>218.99999999999997</ele><time>2026-04-03T14:21:59.347Z</time></trkpt><trkpt lat="45.9985971" lon="8.6555997"><ele>218.99999999999997</ele><time>2026-04-03T14:22:00.346Z</time></trkpt><trkpt lat="45.9985061" lon="8.6555595"><ele>219.0</ele><time>2026-04-03T14:22:01.353Z</time></trkpt><trkpt lat="45.9984123" lon="8.6555181"><ele>219.0</ele><time>2026-04-03T14:22:02.344Z</time></trkpt><trkpt lat="45.9983236" lon="8.6554654"><ele>217.5</ele><time>2026-04-03T14:22:03.349Z</time></trkpt><trkpt lat="45.9982232" lon="8.6553935"><ele>216.0</ele><time>2026-04-03T14:22:04.344Z</time></trkpt><trkpt lat="45.9981099" lon="8.6553066"><ele>214.5</ele><time>2026-04-03T14:22:05.352Z</time></trkpt><trkpt lat="45.9979864" lon="8.6552127"><ele>213.0</ele><time>2026-04-03T14:22:06.34Z</time></trkpt><trkpt lat="45.9978598" lon="8.6551155"><ele>215.0</ele><time>2026-04-03T14:22:07.344Z</time></trkpt><trkpt lat="45.997737" lon="8.6550272"><ele>217.0</ele><time>2026-04-03T14:22:08.346Z</time></trkpt><trkpt lat="45.9976373" lon="8.6549541"><ele>219.0</ele><time>2026-04-03T14:22:09.346Z</time></trkpt><trkpt lat="45.9975637" lon="8.6549021"><ele>221.0</ele><time>2026-04-03T14:22:10.346Z</time></trkpt><trkpt lat="45.9974952" lon="8.6547732"><ele>223.0</ele><time>2026-04-03T14:22:12.351Z</time></trkpt><trkpt lat="45.9974941" lon="8.6546685"><ele>225.0</ele><time>2026-04-03T14:22:13.352Z</time></trkpt><trkpt lat="45.9975129" lon="8.6545283"><ele>227.0</ele><time>2026-04-03T14:22:14.347Z</time></trkpt><trkpt lat="45.9975253" lon="8.6543971"><ele>229.0</ele><time>2026-04-03T14:22:15.342Z</time></trkpt><trkpt lat="45.9975202" lon="8.6542642"><ele>231.0</ele><time>2026-04-03T14:22:16.344Z</time></trkpt><trkpt lat="45.9975016" lon="8.654145"><ele>233.0</ele><time>2026-04-03T14:22:17.345Z</time></trkpt><trkpt lat="45.9974616" lon="8.6540347"><ele>234.8</ele><time>2026-04-03T14:22:18.349Z</time></trkpt><trkpt lat="45.9973905" lon="8.6539145"><ele>236.60000000000002</ele><time>2026-04-03T14:22:19.348Z</time></trkpt><trkpt lat="45.9973028" lon="8.6538121"><ele>238.39999999999998</ele><time>2026-04-03T14:22:20.349Z</time></trkpt><trkpt lat="45.9972208" lon="8.6537069"><ele>240.2</ele><time>2026-04-03T14:22:21.347Z</time></trkpt><trkpt lat="45.9971468" lon="8.6535835"><ele>242.0</ele><time>2026-04-03T14:22:22.347Z</time></trkpt><trkpt lat="45.9970873" lon="8.6534607"><ele>244.16666666666669</ele><time>2026-04-03T14:22:23.346Z</time></trkpt><trkpt lat="45.997029" lon="8.6533395"><ele>246.33333333333334</ele><time>2026-04-03T14:22:24.346Z</time></trkpt><trkpt lat="45.9969768" lon="8.6532277"><ele>248.5</ele><time>2026-04-03T14:22:25.344Z</time></trkpt><trkpt lat="45.9969242" lon="8.653127"><ele>250.66666666666669</ele><time>2026-04-03T14:22:26.345Z</time></trkpt><trkpt lat="45.9968708" lon="8.6530405"><ele>252.83333333333334</ele><time>2026-04-03T14:22:27.344Z</time></trkpt><trkpt lat="45.996823" lon="8.6529695"><ele>255.0</ele><time>2026-04-03T14:22:28.344Z</time></trkpt><trkpt lat="45.9967522" lon="8.6528742"><ele>259.6</ele><time>2026-04-03T14:22:30.349Z</time></trkpt><trkpt lat="45.9967602" lon="8.6527709"><ele>264.2</ele><time>2026-04-03T14:22:32.356Z</time></trkpt><trkpt lat="45.9968397" lon="8.6526666"><ele>268.8</ele><time>2026-04-03T14:22:34.339Z</time></trkpt><trkpt lat="45.9969503" lon="8.6526174"><ele>273.4</ele><time>2026-04-03T14:22:36.355Z</time></trkpt><trkpt lat="45.9970678" lon="8.6525792"><ele>278.0</ele><time>2026-04-03T14:22:38.343Z</time></trkpt><trkpt lat="45.9971418" lon="8.6525699"><ele>278.0</ele><time>2026-04-03T14:22:39.342Z</time></trkpt><trkpt lat="45.9972187" lon="8.6525729"><ele>278.0</ele><time>2026-04-03T14:22:40.343Z</time></trkpt><trkpt lat="45.9972893" lon="8.6525897"><ele>278.0</ele><time>2026-04-03T14:22:41.344Z</time></trkpt><trkpt lat="45.9973522" lon="8.6526187"><ele>278.0</ele><time>2026-04-03T14:22:42.342Z</time></trkpt><trkpt lat="45.9974479" lon="8.6526467"><ele>278.0</ele><time>2026-04-03T14:22:44.343Z</time></trkpt><trkpt lat="45.9975647" lon="8.6525801"><ele>278.0</ele><time>2026-04-03T14:22:46.346Z</time></trkpt><trkpt lat="45.9976267" lon="8.6525334"><ele>280.6666666666667</ele><time>2026-04-03T14:22:47.347Z</time></trkpt><trkpt lat="45.9976967" lon="8.6525101"><ele>283.33333333333337</ele><time>2026-04-03T14:22:48.344Z</time></trkpt><trkpt lat="45.9977756" lon="8.652492"><ele>286.0</ele><time>2026-04-03T14:22:49.348Z</time></trkpt><trkpt lat="45.9978647" lon="8.6524793"><ele>288.6666666666667</ele><time>2026-04-03T14:22:50.347Z</time></trkpt><trkpt lat="45.9979563" lon="8.6524912"><ele>291.3333333333333</ele><time>2026-04-03T14:22:51.346Z</time></trkpt><trkpt lat="45.9980585" lon="8.6525238"><ele>294.0</ele><time>2026-04-03T14:22:52.347Z</time></trkpt><trkpt lat="45.9981885" lon="8.6525798"><ele>294.0</ele><time>2026-04-03T14:22:53.348Z</time></trkpt><trkpt lat="45.9983331" lon="8.6526445"><ele>294.0</ele><time>2026-04-03T14:22:54.345Z</time></trkpt><trkpt lat="45.9984832" lon="8.6527092"><ele>294.0</ele><time>2026-04-03T14:22:55.345Z</time></trkpt><trkpt lat="45.9986439" lon="8.6527828"><ele>290.5</ele><time>2026-04-03T14:22:56.345Z</time></trkpt><trkpt lat="45.9987947" lon="8.6528504"><ele>287.0</ele><time>2026-04-03T14:22:57.343Z</time></trkpt><trkpt lat="45.9989209" lon="8.6528984"><ele>283.5</ele><time>2026-04-03T14:22:58.343Z</time></trkpt><trkpt lat="45.9990347" lon="8.6529567"><ele>280.0</ele><time>2026-04-03T14:22:59.344Z</time></trkpt><trkpt lat="45.9991338" lon="8.6529983"><ele>281.57142857142856</ele><time>2026-04-03T14:23:00.345Z</time></trkpt><trkpt lat="45.9992158" lon="8.6530123"><ele>283.1428571428571</ele><time>2026-04-03T14:23:01.348Z</time></trkpt><trkpt lat="45.9992908" lon="8.6530127"><ele>284.7142857142857</ele><time>2026-04-03T14:23:02.341Z</time></trkpt><trkpt lat="45.9993579" lon="8.6529815"><ele>286.2857142857143</ele><time>2026-04-03T14:23:03.346Z</time></trkpt><trkpt lat="45.9994219" lon="8.6529407"><ele>287.85714285714283</ele><time>2026-04-03T14:23:04.344Z</time></trkpt><trkpt lat="45.9994898" lon="8.6529014"><ele>289.42857142857144</ele><time>2026-04-03T14:23:05.343Z</time></trkpt><trkpt lat="45.999554" lon="8.6528532"><ele>291.0</ele><time>2026-04-03T14:23:06.346Z</time></trkpt><trkpt lat="45.9996127" lon="8.6527945"><ele>292.6666666666667</ele><time>2026-04-03T14:23:07.357Z</time></trkpt><trkpt lat="45.9996703" lon="8.6527283"><ele>294.3333333333333</ele><time>2026-04-03T14:23:08.345Z</time></trkpt><trkpt lat="45.9997302" lon="8.6526628"><ele>296.0</ele><time>2026-04-03T14:23:09.346Z</time></trkpt><trkpt lat="45.9997825" lon="8.652604"><ele>297.66666666666663</ele><time>2026-04-03T14:23:10.343Z</time></trkpt><trkpt lat="45.9998601" lon="8.652489"><ele>299.3333333333333</ele><time>2026-04-03T14:23:12.351Z</time></trkpt><trkpt lat="45.9999209" lon="8.6524275"><ele>301.0</ele><time>2026-04-03T14:23:14.345Z</time></trkpt><trkpt lat="45.9999592" lon="8.6525362"><ele>301.0</ele><time>2026-04-03T14:23:17.356Z</time></trkpt><trkpt lat="45.9999209" lon="8.6526758"><ele>301.0</ele><time>2026-04-03T14:23:19.354Z</time></trkpt><trkpt lat="45.9999119" lon="8.6527846"><ele>301.0</ele><time>2026-04-03T14:23:21.357Z</time></trkpt><trkpt lat="45.9999942" lon="8.652858"><ele>301.0</ele><time>2026-04-03T14:23:24.359Z</time></trkpt><trkpt lat="46.000057" lon="8.6528903"><ele>301.0</ele><time>2026-04-03T14:23:26.357Z</time></trkpt><trkpt lat="46.0001406" lon="8.6529235"><ele>301.0</ele><time>2026-04-03T14:23:29.363Z</time></trkpt><trkpt lat="46.0002344" lon="8.6528935"><ele>301.0</ele><time>2026-04-03T14:23:31.362Z</time></trkpt><trkpt lat="46.0002936" lon="8.6528569"><ele>301.0</ele><time>2026-04-03T14:23:32.354Z</time></trkpt><trkpt lat="46.0003494" lon="8.6527958"><ele>301.0</ele><time>2026-04-03T14:23:33.348Z</time></trkpt><trkpt lat="46.0004087" lon="8.6527515"><ele>301.0</ele><time>2026-04-03T14:23:34.351Z</time></trkpt><trkpt lat="46.000468" lon="8.652721"><ele>301.0</ele><time>2026-04-03T14:23:35.35Z</time></trkpt><trkpt lat="46.0005319" lon="8.6526933"><ele>301.0</ele><time>2026-04-03T14:23:36.346Z</time></trkpt><trkpt lat="46.0006432" lon="8.6526208"><ele>301.0</ele><time>2026-04-03T14:23:38.363Z</time></trkpt><trkpt lat="46.0007024" lon="8.6525803"><ele>301.0</ele><time>2026-04-03T14:23:39.347Z</time></trkpt><trkpt lat="46.0007697" lon="8.6525549"><ele>301.0</ele><time>2026-04-03T14:23:40.352Z</time></trkpt><trkpt lat="46.000852" lon="8.6525663"><ele>301.0</ele><time>2026-04-03T14:23:41.352Z</time></trkpt><trkpt lat="46.0009383" lon="8.6525893"><ele>301.0</ele><time>2026-04-03T14:23:42.352Z</time></trkpt><trkpt lat="46.0010209" lon="8.6526112"><ele>301.0</ele><time>2026-04-03T14:23:43.359Z</time></trkpt><trkpt lat="46.0011011" lon="8.6526389"><ele>302.66666666666663</ele><time>2026-04-03T14:23:44.349Z</time></trkpt><trkpt lat="46.0011765" lon="8.6526551"><ele>304.3333333333333</ele><time>2026-04-03T14:23:45.356Z</time></trkpt><trkpt lat="46.0012546" lon="8.6526752"><ele>306.0</ele><time>2026-04-03T14:23:46.346Z</time></trkpt><trkpt lat="46.0013352" lon="8.6526768"><ele>307.6666666666667</ele><time>2026-04-03T14:23:47.36Z</time></trkpt><trkpt lat="46.0014192" lon="8.6526552"><ele>309.33333333333337</ele><time>2026-04-03T14:23:48.353Z</time></trkpt><trkpt lat="46.0014953" lon="8.652623"><ele>311.0</ele><time>2026-04-03T14:23:49.355Z</time></trkpt><trkpt lat="46.0015663" lon="8.6526054"><ele>311.0</ele><time>2026-04-03T14:23:50.356Z</time></trkpt><trkpt lat="46.0016403" lon="8.6526103"><ele>311.0</ele><time>2026-04-03T14:23:51.354Z</time></trkpt><trkpt lat="46.0017174" lon="8.6526372"><ele>311.0</ele><time>2026-04-03T14:23:52.351Z</time></trkpt><trkpt lat="46.0017871" lon="8.6526626"><ele>311.0</ele><time>2026-04-03T14:23:53.357Z</time></trkpt><trkpt lat="46.0018939" lon="8.6526996"><ele>311.0</ele><time>2026-04-03T14:23:55.347Z</time></trkpt><trkpt lat="46.0019737" lon="8.652729"><ele>311.0</ele><time>2026-04-03T14:23:58.356Z</time></trkpt><trkpt lat="46.0020964" lon="8.6528111"><ele>310.8</ele><time>2026-04-03T14:24:00.346Z</time></trkpt><trkpt lat="46.002177" lon="8.6528783"><ele>310.6</ele><time>2026-04-03T14:24:01.358Z</time></trkpt><trkpt lat="46.0022652" lon="8.6529357"><ele>310.4</ele><time>2026-04-03T14:24:02.352Z</time></trkpt><trkpt lat="46.002364" lon="8.6529852"><ele>310.2</ele><time>2026-04-03T14:24:03.356Z</time></trkpt><trkpt lat="46.0024641" lon="8.6530104"><ele>310.0</ele><time>2026-04-03T14:24:04.351Z</time></trkpt><trkpt lat="46.0025574" lon="8.6530217"><ele>310.0</ele><time>2026-04-03T14:24:05.343Z</time></trkpt><trkpt lat="46.002632" lon="8.6530283"><ele>310.0</ele><time>2026-04-03T14:24:06.347Z</time></trkpt><trkpt lat="46.0027498" lon="8.6530202"><ele>310.0</ele><time>2026-04-03T14:24:08.349Z</time></trkpt><trkpt lat="46.0028538" lon="8.6529033"><ele>310.0</ele><time>2026-04-03T14:24:10.345Z</time></trkpt><trkpt lat="46.0029007" lon="8.6528043"><ele>310.0</ele><time>2026-04-03T14:24:11.345Z</time></trkpt><trkpt lat="46.0029355" lon="8.6527198"><ele>310.0</ele><time>2026-04-03T14:24:12.344Z</time></trkpt><trkpt lat="46.0029903" lon="8.6526216"><ele>310.0</ele><time>2026-04-03T14:24:14.344Z</time></trkpt><trkpt lat="46.0030524" lon="8.6526836"><ele>310.0</ele><time>2026-04-03T14:24:16.347Z</time></trkpt><trkpt lat="46.0030936" lon="8.6527971"><ele>310.0</ele><time>2026-04-03T14:24:17.341Z</time></trkpt><trkpt lat="46.0031256" lon="8.6529295"><ele>310.0</ele><time>2026-04-03T14:24:18.34Z</time></trkpt><trkpt lat="46.0031492" lon="8.6530594"><ele>310.0</ele><time>2026-04-03T14:24:19.342Z</time></trkpt><trkpt lat="46.0031838" lon="8.6531812"><ele>310.0</ele><time>2026-04-03T14:24:20.34Z</time></trkpt><trkpt lat="46.0032245" lon="8.6532846"><ele>310.0</ele><time>2026-04-03T14:24:21.341Z</time></trkpt><trkpt lat="46.0032869" lon="8.6533414"><ele>310.0</ele><time>2026-04-03T14:24:22.343Z</time></trkpt><trkpt lat="46.0033558" lon="8.6533738"><ele>310.0</ele><time>2026-04-03T14:24:23.344Z</time></trkpt><trkpt lat="46.0034318" lon="8.6533989"><ele>310.0</ele><time>2026-04-03T14:24:24.35Z</time></trkpt><trkpt lat="46.0035197" lon="8.6534229"><ele>310.0</ele><time>2026-04-03T14:24:25.346Z</time></trkpt><trkpt lat="46.0036018" lon="8.6534505"><ele>313.16666666666663</ele><time>2026-04-03T14:24:26.342Z</time></trkpt><trkpt lat="46.0036866" lon="8.6534861"><ele>316.3333333333333</ele><time>2026-04-03T14:24:27.351Z</time></trkpt><trkpt lat="46.0037682" lon="8.6535274"><ele>319.5</ele><time>2026-04-03T14:24:28.352Z</time></trkpt><trkpt lat="46.0038467" lon="8.6535521"><ele>322.6666666666667</ele><time>2026-04-03T14:24:29.348Z</time></trkpt><trkpt lat="46.0039295" lon="8.65356"><ele>325.83333333333337</ele><time>2026-04-03T14:24:30.348Z</time></trkpt><trkpt lat="46.0040127" lon="8.6535368"><ele>329.0</ele><time>2026-04-03T14:24:31.358Z</time></trkpt><trkpt lat="46.0040997" lon="8.6535078"><ele>331.1666666666667</ele><time>2026-04-03T14:24:32.349Z</time></trkpt><trkpt lat="46.0041835" lon="8.6534842"><ele>333.33333333333337</ele><time>2026-04-03T14:24:33.354Z</time></trkpt><trkpt lat="46.0042677" lon="8.6534661"><ele>335.5</ele><time>2026-04-03T14:24:34.349Z</time></trkpt><trkpt lat="46.0043456" lon="8.6534591"><ele>337.6666666666667</ele><time>2026-04-03T14:24:35.35Z</time></trkpt><trkpt lat="46.00441" lon="8.6534554"><ele>339.8333333333333</ele><time>2026-04-03T14:24:36.344Z</time></trkpt><trkpt lat="46.0045301" lon="8.6535091"><ele>342.0</ele><time>2026-04-03T14:24:38.35Z</time></trkpt><trkpt lat="46.0045906" lon="8.653644"><ele>337.6666666666667</ele><time>2026-04-03T14:24:40.356Z</time></trkpt><trkpt lat="46.0046026" lon="8.6537998"><ele>333.3333333333333</ele><time>2026-04-03T14:24:42.343Z</time></trkpt><trkpt lat="46.0046337" lon="8.6538826"><ele>329.0</ele><time>2026-04-03T14:24:43.343Z</time></trkpt><trkpt lat="46.0047133" lon="8.6540165"><ele>324.66666666666663</ele><time>2026-04-03T14:24:45.339Z</time></trkpt><trkpt lat="46.0047709" lon="8.6540631"><ele>320.3333333333333</ele><time>2026-04-03T14:24:46.342Z</time></trkpt><trkpt lat="46.0048399" lon="8.6541064"><ele>316.0</ele><time>2026-04-03T14:24:47.351Z</time></trkpt><trkpt lat="46.0049088" lon="8.6541337"><ele>316.00000000000006</ele><time>2026-04-03T14:24:48.347Z</time></trkpt><trkpt lat="46.0049784" lon="8.6541493"><ele>316.0</ele><time>2026-04-03T14:24:49.347Z</time></trkpt><trkpt lat="46.0050521" lon="8.6541487"><ele>316.0</ele><time>2026-04-03T14:24:50.347Z</time></trkpt><trkpt lat="46.0051218" lon="8.6541284"><ele>316.0</ele><time>2026-04-03T14:24:51.347Z</time></trkpt><trkpt lat="46.0051833" lon="8.6540821"><ele>316.0</ele><time>2026-04-03T14:24:52.351Z</time></trkpt><trkpt lat="46.0052474" lon="8.6540281"><ele>316.00000000000006</ele><time>2026-04-03T14:24:53.345Z</time></trkpt><trkpt lat="46.0053065" lon="8.6539859"><ele>316.0</ele><time>2026-04-03T14:24:54.342Z</time></trkpt><trkpt lat="46.0053675" lon="8.653962"><ele>314.0</ele><time>2026-04-03T14:24:55.344Z</time></trkpt><trkpt lat="46.0054895" lon="8.6540108"><ele>312.0</ele><time>2026-04-03T14:24:57.345Z</time></trkpt><trkpt lat="46.0055253" lon="8.6540882"><ele>310.0</ele><time>2026-04-03T14:24:58.342Z</time></trkpt><trkpt lat="46.005558" lon="8.6542541"><ele>308.0</ele><time>2026-04-03T14:25:00.343Z</time></trkpt><trkpt lat="46.0056084" lon="8.6543834"><ele>306.0</ele><time>2026-04-03T14:25:02.339Z</time></trkpt><trkpt lat="46.0057176" lon="8.6544924"><ele>306.0</ele><time>2026-04-03T14:25:04.347Z</time></trkpt><trkpt lat="46.0057947" lon="8.654539"><ele>306.0</ele><time>2026-04-03T14:25:05.35Z</time></trkpt><trkpt lat="46.0058764" lon="8.6545884"><ele>306.0</ele><time>2026-04-03T14:25:06.344Z</time></trkpt><trkpt lat="46.0059612" lon="8.6546407"><ele>306.0</ele><time>2026-04-03T14:25:07.347Z</time></trkpt><trkpt lat="46.0060428" lon="8.6546833"><ele>306.0</ele><time>2026-04-03T14:25:08.346Z</time></trkpt><trkpt lat="46.0061189" lon="8.6547206"><ele>306.0</ele><time>2026-04-03T14:25:09.35Z</time></trkpt><trkpt lat="46.0061911" lon="8.6547404"><ele>308.3333333333333</ele><time>2026-04-03T14:25:10.347Z</time></trkpt><trkpt lat="46.0062649" lon="8.6547727"><ele>310.6666666666667</ele><time>2026-04-03T14:25:11.355Z</time></trkpt><trkpt lat="46.0063432" lon="8.6548293"><ele>313.0</ele><time>2026-04-03T14:25:12.343Z</time></trkpt><trkpt lat="46.0064124" lon="8.6549134"><ele>315.33333333333337</ele><time>2026-04-03T14:25:13.341Z</time></trkpt><trkpt lat="46.0064594" lon="8.6550002"><ele>317.6666666666667</ele><time>2026-04-03T14:25:14.34Z</time></trkpt><trkpt lat="46.0065023" lon="8.6550944"><ele>320.0</ele><time>2026-04-03T14:25:15.348Z</time></trkpt><trkpt lat="46.0065497" lon="8.6551831"><ele>320.0</ele><time>2026-04-03T14:25:16.347Z</time></trkpt><trkpt lat="46.0066144" lon="8.6552466"><ele>320.0</ele><time>2026-04-03T14:25:17.348Z</time></trkpt><trkpt lat="46.0066778" lon="8.6552838"><ele>320.0</ele><time>2026-04-03T14:25:18.349Z</time></trkpt><trkpt lat="46.0067506" lon="8.6553127"><ele>320.0</ele><time>2026-04-03T14:25:19.347Z</time></trkpt><trkpt lat="46.0068609" lon="8.6554006"><ele>320.0</ele><time>2026-04-03T14:25:21.344Z</time></trkpt><trkpt lat="46.0069033" lon="8.6554818"><ele>320.0</ele><time>2026-04-03T14:25:22.347Z</time></trkpt><trkpt lat="46.006945" lon="8.6555749"><ele>319.33333333333337</ele><time>2026-04-03T14:25:23.347Z</time></trkpt><trkpt lat="46.0069943" lon="8.6556637"><ele>318.6666666666667</ele><time>2026-04-03T14:25:24.35Z</time></trkpt><trkpt lat="46.0070519" lon="8.6557397"><ele>318.0</ele><time>2026-04-03T14:25:25.35Z</time></trkpt><trkpt lat="46.0071165" lon="8.6558009"><ele>317.3333333333333</ele><time>2026-04-03T14:25:26.35Z</time></trkpt><trkpt lat="46.0071794" lon="8.6558435"><ele>316.66666666666663</ele><time>2026-04-03T14:25:27.35Z</time></trkpt><trkpt lat="46.0072468" lon="8.6558804"><ele>316.0</ele><time>2026-04-03T14:25:28.354Z</time></trkpt><trkpt lat="46.0073185" lon="8.6559116"><ele>316.00000000000006</ele><time>2026-04-03T14:25:29.352Z</time></trkpt><trkpt lat="46.0073898" lon="8.6559477"><ele>316.0</ele><time>2026-04-03T14:25:30.35Z</time></trkpt><trkpt lat="46.0074436" lon="8.6560086"><ele>316.0</ele><time>2026-04-03T14:25:31.357Z</time></trkpt><trkpt lat="46.0074786" lon="8.6560868"><ele>316.0</ele><time>2026-04-03T14:25:32.347Z</time></trkpt><trkpt lat="46.0075016" lon="8.6561757"><ele>316.0</ele><time>2026-04-03T14:25:33.354Z</time></trkpt><trkpt lat="46.0075239" lon="8.6562629"><ele>316.00000000000006</ele><time>2026-04-03T14:25:34.351Z</time></trkpt><trkpt lat="46.0075476" lon="8.6563513"><ele>316.0</ele><time>2026-04-03T14:25:35.346Z</time></trkpt><trkpt lat="46.0075821" lon="8.6564419"><ele>315.8333333333333</ele><time>2026-04-03T14:25:36.351Z</time></trkpt><trkpt lat="46.0076184" lon="8.656534"><ele>315.66666666666663</ele><time>2026-04-03T14:25:37.348Z</time></trkpt><trkpt lat="46.0076572" lon="8.6566206"><ele>315.5</ele><time>2026-04-03T14:25:38.346Z</time></trkpt><trkpt lat="46.0076927" lon="8.6567094"><ele>315.3333333333333</ele><time>2026-04-03T14:25:39.339Z</time></trkpt><trkpt lat="46.0077138" lon="8.6568056"><ele>315.1666666666667</ele><time>2026-04-03T14:25:40.347Z</time></trkpt><trkpt lat="46.0077351" lon="8.6569761"><ele>315.0</ele><time>2026-04-03T14:25:42.359Z</time></trkpt><trkpt lat="46.0077465" lon="8.6571075"><ele>315.0</ele><time>2026-04-03T14:25:44.344Z</time></trkpt><trkpt lat="46.0077362" lon="8.6572135"><ele>315.0</ele><time>2026-04-03T14:25:47.36Z</time></trkpt><trkpt lat="46.0076467" lon="8.6572095"><ele>315.0</ele><time>2026-04-03T14:25:50.358Z</time></trkpt><trkpt lat="46.0075819" lon="8.6571019"><ele>315.0</ele><time>2026-04-03T14:25:52.352Z</time></trkpt><trkpt lat="46.0075521" lon="8.6569315"><ele>315.0</ele><time>2026-04-03T14:25:54.342Z</time></trkpt><trkpt lat="46.0075443" lon="8.6568328"><ele>315.0</ele><time>2026-04-03T14:25:55.341Z</time></trkpt><trkpt lat="46.0074994" lon="8.6566718"><ele>315.0</ele><time>2026-04-03T14:25:57.341Z</time></trkpt><trkpt lat="46.0074537" lon="8.6567776"><ele>315.0</ele><time>2026-04-03T14:26:00.35Z</time></trkpt><trkpt lat="46.0074608" lon="8.6568737"><ele>315.0</ele><time>2026-04-03T14:26:01.356Z</time></trkpt><trkpt lat="46.0074692" lon="8.6569834"><ele>315.0</ele><time>2026-04-03T14:26:02.339Z</time></trkpt><trkpt lat="46.0074693" lon="8.6570848"><ele>315.0</ele><time>2026-04-03T14:26:03.345Z</time></trkpt><trkpt lat="46.0074702" lon="8.657178"><ele>311.6</ele><time>2026-04-03T14:26:04.34Z</time></trkpt><trkpt lat="46.0075044" lon="8.6573193"><ele>308.2</ele><time>2026-04-03T14:26:06.338Z</time></trkpt><trkpt lat="46.007569" lon="8.6574162"><ele>304.8</ele><time>2026-04-03T14:26:08.342Z</time></trkpt><trkpt lat="46.0076541" lon="8.6574794"><ele>301.4</ele><time>2026-04-03T14:26:10.353Z</time></trkpt><trkpt lat="46.0077415" lon="8.6575549"><ele>298.0</ele><time>2026-04-03T14:26:12.342Z</time></trkpt><trkpt lat="46.0078455" lon="8.6576468"><ele>298.0</ele><time>2026-04-03T14:26:14.342Z</time></trkpt><trkpt lat="46.007906" lon="8.6576902"><ele>298.0</ele><time>2026-04-03T14:26:15.343Z</time></trkpt><trkpt lat="46.0079693" lon="8.6577363"><ele>298.0</ele><time>2026-04-03T14:26:16.342Z</time></trkpt><trkpt lat="46.0080299" lon="8.6577801"><ele>298.0</ele><time>2026-04-03T14:26:17.345Z</time></trkpt><trkpt lat="46.0080828" lon="8.6578343"><ele>298.0</ele><time>2026-04-03T14:26:18.343Z</time></trkpt><trkpt lat="46.0081277" lon="8.6579075"><ele>298.0</ele><time>2026-04-03T14:26:19.34Z</time></trkpt><trkpt lat="46.0081636" lon="8.6579879"><ele>298.0</ele><time>2026-04-03T14:26:20.338Z</time></trkpt><trkpt lat="46.0081822" lon="8.658158"><ele>294.6</ele><time>2026-04-03T14:26:22.344Z</time></trkpt><trkpt lat="46.0081852" lon="8.6582515"><ele>291.20000000000005</ele><time>2026-04-03T14:26:23.347Z</time></trkpt><trkpt lat="46.008185" lon="8.658424"><ele>287.8</ele><time>2026-04-03T14:26:25.347Z</time></trkpt><trkpt lat="46.0082088" lon="8.6585698"><ele>284.40000000000003</ele><time>2026-04-03T14:26:27.344Z</time></trkpt><trkpt lat="46.0082773" lon="8.658689"><ele>281.0</ele><time>2026-04-03T14:26:29.353Z</time></trkpt><trkpt lat="46.008352" lon="8.658797"><ele>281.0</ele><time>2026-04-03T14:26:31.36Z</time></trkpt><trkpt lat="46.0084308" lon="8.6589289"><ele>281.0</ele><time>2026-04-03T14:26:33.357Z</time></trkpt><trkpt lat="46.0084842" lon="8.6590533"><ele>281.0</ele><time>2026-04-03T14:26:35.358Z</time></trkpt><trkpt lat="46.0085091" lon="8.659155"><ele>281.0</ele><time>2026-04-03T14:26:41.363Z</time></trkpt><trkpt lat="46.008539" lon="8.6592397"><ele>281.0</ele><time>2026-04-03T14:26:43.363Z</time></trkpt><trkpt lat="46.0085769" lon="8.6593226"><ele>281.0</ele><time>2026-04-03T14:26:45.369Z</time></trkpt><trkpt lat="46.0086379" lon="8.6593796"><ele>281.0</ele><time>2026-04-03T14:26:47.369Z</time></trkpt><trkpt lat="46.008719" lon="8.6594205"><ele>281.0</ele><time>2026-04-03T14:26:50.365Z</time></trkpt><trkpt lat="46.008782" lon="8.6594116"><ele>281.0</ele><time>2026-04-03T14:27:00.371Z</time></trkpt><trkpt lat="46.0088481" lon="8.6594267"><ele>281.0</ele><time>2026-04-03T14:27:02.366Z</time></trkpt><trkpt lat="46.0089125" lon="8.6594419"><ele>281.0</ele><time>2026-04-03T14:27:04.362Z</time></trkpt><trkpt lat="46.008996" lon="8.6594909"><ele>281.0</ele><time>2026-04-03T14:27:07.363Z</time></trkpt><trkpt lat="46.0090685" lon="8.6595561"><ele>280.33333333333337</ele><time>2026-04-03T14:27:10.372Z</time></trkpt><trkpt lat="46.0091203" lon="8.6596125"><ele>279.6666666666667</ele><time>2026-04-03T14:27:12.366Z</time></trkpt><trkpt lat="46.0091603" lon="8.6597146"><ele>279.0</ele><time>2026-04-03T14:27:15.367Z</time></trkpt><trkpt lat="46.0091064" lon="8.6597811"><ele>278.3333333333333</ele><time>2026-04-03T14:27:18.371Z</time></trkpt><trkpt lat="46.0089933" lon="8.6597122"><ele>277.66666666666663</ele><time>2026-04-03T14:27:20.356Z</time></trkpt><trkpt lat="46.0089256" lon="8.6596915"><ele>277.0</ele><time>2026-04-03T14:27:21.353Z</time></trkpt><trkpt lat="46.008857" lon="8.65968"><ele>274.2857142857143</ele><time>2026-04-03T14:27:22.355Z</time></trkpt><trkpt lat="46.0087897" lon="8.6596743"><ele>271.57142857142856</ele><time>2026-04-03T14:27:23.355Z</time></trkpt><trkpt lat="46.0087173" lon="8.6596682"><ele>268.85714285714283</ele><time>2026-04-03T14:27:24.356Z</time></trkpt><trkpt lat="46.0086375" lon="8.6596656"><ele>266.1428571428571</ele><time>2026-04-03T14:27:25.354Z</time></trkpt><trkpt lat="46.008567" lon="8.6596636"><ele>263.42857142857144</ele><time>2026-04-03T14:27:26.359Z</time></trkpt><trkpt lat="46.0084939" lon="8.6596465"><ele>260.71428571428567</ele><time>2026-04-03T14:27:27.359Z</time></trkpt><trkpt lat="46.0084255" lon="8.6596196"><ele>258.0</ele><time>2026-04-03T14:27:28.357Z</time></trkpt><trkpt lat="46.0083669" lon="8.6595809"><ele>258.4</ele><time>2026-04-03T14:27:29.358Z</time></trkpt><trkpt lat="46.0082733" lon="8.6594861"><ele>258.8</ele><time>2026-04-03T14:27:31.362Z</time></trkpt><trkpt lat="46.00818" lon="8.6593958"><ele>259.2</ele><time>2026-04-03T14:27:33.365Z</time></trkpt><trkpt lat="46.0080851" lon="8.6593907"><ele>259.6</ele><time>2026-04-03T14:27:35.353Z</time></trkpt><trkpt lat="46.0079981" lon="8.659433"><ele>260.0</ele><time>2026-04-03T14:27:37.368Z</time></trkpt><trkpt lat="46.0079093" lon="8.6594364"><ele>260.0</ele><time>2026-04-03T14:27:39.367Z</time></trkpt><trkpt lat="46.007794" lon="8.6593777"><ele>260.0</ele><time>2026-04-03T14:27:41.359Z</time></trkpt><trkpt lat="46.0077314" lon="8.6593265"><ele>260.0</ele><time>2026-04-03T14:27:42.356Z</time></trkpt><trkpt lat="46.007662" lon="8.6592744"><ele>260.0</ele><time>2026-04-03T14:27:43.357Z</time></trkpt><trkpt lat="46.0075941" lon="8.6592298"><ele>260.0</ele><time>2026-04-03T14:27:44.357Z</time></trkpt><trkpt lat="46.0075212" lon="8.6591936"><ele>260.0</ele><time>2026-04-03T14:27:45.366Z</time></trkpt><trkpt lat="46.0074435" lon="8.6591601"><ele>255.83333333333334</ele><time>2026-04-03T14:27:46.353Z</time></trkpt><trkpt lat="46.0073735" lon="8.6591255"><ele>251.66666666666669</ele><time>2026-04-03T14:27:47.367Z</time></trkpt><trkpt lat="46.0073112" lon="8.6590747"><ele>247.5</ele><time>2026-04-03T14:27:48.358Z</time></trkpt><trkpt lat="46.0072345" lon="8.6589613"><ele>243.33333333333331</ele><time>2026-04-03T14:27:50.357Z</time></trkpt><trkpt lat="46.0072054" lon="8.6588385"><ele>239.16666666666666</ele><time>2026-04-03T14:27:52.36Z</time></trkpt><trkpt lat="46.0071861" lon="8.6587123"><ele>235.0</ele><time>2026-04-03T14:27:54.363Z</time></trkpt><trkpt lat="46.0071285" lon="8.6586554"><ele>235.0</ele><time>2026-04-03T14:27:56.371Z</time></trkpt><trkpt lat="46.007039" lon="8.6586692"><ele>235.0</ele><time>2026-04-03T14:27:58.374Z</time></trkpt><trkpt lat="46.0069079" lon="8.65869"><ele>235.0</ele><time>2026-04-03T14:28:00.36Z</time></trkpt><trkpt lat="46.006837" lon="8.6586987"><ele>235.0</ele><time>2026-04-03T14:28:01.361Z</time></trkpt><trkpt lat="46.0067711" lon="8.6586972"><ele>235.0</ele><time>2026-04-03T14:28:02.359Z</time></trkpt><trkpt lat="46.0066609" lon="8.6586438"><ele>235.0</ele><time>2026-04-03T14:28:04.359Z</time></trkpt><trkpt lat="46.0066015" lon="8.6586001"><ele>234.99999999999997</ele><time>2026-04-03T14:28:06.363Z</time></trkpt><trkpt lat="46.0065602" lon="8.6585213"><ele>235.0</ele><time>2026-04-03T14:28:24.372Z</time></trkpt><trkpt lat="46.00652" lon="8.6586222"><ele>235.0</ele><time>2026-04-03T14:28:28.38Z</time></trkpt><trkpt lat="46.0065544" lon="8.6587176"><ele>234.99999999999997</ele><time>2026-04-03T14:28:31.383Z</time></trkpt><trkpt lat="46.0066025" lon="8.6588001"><ele>235.0</ele><time>2026-04-03T14:28:34.381Z</time></trkpt><trkpt lat="46.0066589" lon="8.6588449"><ele>235.0</ele><time>2026-04-03T14:28:38.381Z</time></trkpt><trkpt lat="46.0067182" lon="8.65889"><ele>234.99999999999997</ele><time>2026-04-03T14:28:41.389Z</time></trkpt><trkpt lat="46.0067949" lon="8.6589374"><ele>235.0</ele><time>2026-04-03T14:28:43.393Z</time></trkpt><trkpt lat="46.0068801" lon="8.6589615"><ele>235.0</ele><time>2026-04-03T14:28:45.38Z</time></trkpt><trkpt lat="46.0069594" lon="8.6589597"><ele>235.0</ele><time>2026-04-03T14:28:47.4Z</time></trkpt><trkpt lat="46.007027" lon="8.659029"><ele>234.99999999999997</ele><time>2026-04-03T14:28:49.38Z</time></trkpt><trkpt lat="46.0070411" lon="8.6591678"><ele>235.0</ele><time>2026-04-03T14:28:51.383Z</time></trkpt><trkpt lat="46.0070435" lon="8.6593457"><ele>234.99999999999997</ele><time>2026-04-03T14:28:53.377Z</time></trkpt><trkpt lat="46.0070597" lon="8.6594408"><ele>235.0</ele><time>2026-04-03T14:28:54.375Z</time></trkpt><trkpt lat="46.0070845" lon="8.6595357"><ele>235.0</ele><time>2026-04-03T14:28:55.369Z</time></trkpt><trkpt lat="46.0071174" lon="8.6596265"><ele>235.0</ele><time>2026-04-03T14:28:56.364Z</time></trkpt><trkpt lat="46.0071534" lon="8.6597069"><ele>234.99999999999997</ele><time>2026-04-03T14:28:57.378Z</time></trkpt><trkpt lat="46.0072292" lon="8.6598391"><ele>235.0</ele><time>2026-04-03T14:28:59.368Z</time></trkpt><trkpt lat="46.0073175" lon="8.6599385"><ele>231.66666666666666</ele><time>2026-04-03T14:29:01.373Z</time></trkpt><trkpt lat="46.0073746" lon="8.6600022"><ele>228.33333333333331</ele><time>2026-04-03T14:29:03.382Z</time></trkpt><trkpt lat="46.0074359" lon="8.6600478"><ele>225.0</ele><time>2026-04-03T14:29:14.379Z</time></trkpt><trkpt lat="46.0074807" lon="8.6601345"><ele>221.66666666666669</ele><time>2026-04-03T14:29:16.382Z</time></trkpt><trkpt lat="46.0074028" lon="8.6601744"><ele>218.33333333333334</ele><time>2026-04-03T14:29:19.383Z</time></trkpt><trkpt lat="46.0073021" lon="8.6601052"><ele>215.0</ele><time>2026-04-03T14:29:21.387Z</time></trkpt><trkpt lat="46.0072283" lon="8.6600601"><ele>215.0</ele><time>2026-04-03T14:29:23.383Z</time></trkpt><trkpt lat="46.0071537" lon="8.6599905"><ele>215.0</ele><time>2026-04-03T14:29:32.375Z</time></trkpt><trkpt lat="46.0070598" lon="8.6599382"><ele>215.0</ele><time>2026-04-03T14:29:34.372Z</time></trkpt><trkpt lat="46.0069496" lon="8.6598664"><ele>215.0</ele><time>2026-04-03T14:29:36.364Z</time></trkpt><trkpt lat="46.0068879" lon="8.6598353"><ele>215.0</ele><time>2026-04-03T14:29:37.367Z</time></trkpt><trkpt lat="46.0068117" lon="8.6597982"><ele>215.0</ele><time>2026-04-03T14:29:38.365Z</time></trkpt><trkpt lat="46.0067189" lon="8.6597616"><ele>215.0</ele><time>2026-04-03T14:29:39.373Z</time></trkpt><trkpt lat="46.0066328" lon="8.6597301"><ele>215.0</ele><time>2026-04-03T14:29:40.375Z</time></trkpt><trkpt lat="46.006546" lon="8.6596955"><ele>215.0</ele><time>2026-04-03T14:29:41.368Z</time></trkpt><trkpt lat="46.006463" lon="8.6596533"><ele>215.0</ele><time>2026-04-03T14:29:42.375Z</time></trkpt><trkpt lat="46.00638" lon="8.6596078"><ele>215.16666666666669</ele><time>2026-04-03T14:29:43.373Z</time></trkpt><trkpt lat="46.0062945" lon="8.6595652"><ele>215.33333333333334</ele><time>2026-04-03T14:29:44.368Z</time></trkpt><trkpt lat="46.0062129" lon="8.6595282"><ele>215.5</ele><time>2026-04-03T14:29:45.379Z</time></trkpt><trkpt lat="46.0061266" lon="8.6594943"><ele>215.66666666666669</ele><time>2026-04-03T14:29:46.374Z</time></trkpt><trkpt lat="46.0060469" lon="8.6594618"><ele>215.83333333333334</ele><time>2026-04-03T14:29:47.383Z</time></trkpt><trkpt lat="46.0059807" lon="8.6594199"><ele>216.0</ele><time>2026-04-03T14:29:48.378Z</time></trkpt><trkpt lat="46.0059249" lon="8.6593706"><ele>216.0</ele><time>2026-04-03T14:29:49.388Z</time></trkpt><trkpt lat="46.0058683" lon="8.6593166"><ele>216.0</ele><time>2026-04-03T14:29:50.378Z</time></trkpt><trkpt lat="46.0058144" lon="8.6592503"><ele>216.0</ele><time>2026-04-03T14:29:51.375Z</time></trkpt><trkpt lat="46.0057666" lon="8.659166"><ele>216.0</ele><time>2026-04-03T14:29:52.376Z</time></trkpt><trkpt lat="46.0057146" lon="8.6590894"><ele>216.0</ele><time>2026-04-03T14:29:53.372Z</time></trkpt><trkpt lat="46.0056523" lon="8.6590261"><ele>216.0</ele><time>2026-04-03T14:29:54.366Z</time></trkpt><trkpt lat="46.0055829" lon="8.6589821"><ele>216.0</ele><time>2026-04-03T14:29:55.366Z</time></trkpt><trkpt lat="46.0055097" lon="8.6589607"><ele>214.33333333333334</ele><time>2026-04-03T14:29:56.374Z</time></trkpt><trkpt lat="46.0054345" lon="8.6589385"><ele>212.66666666666669</ele><time>2026-04-03T14:29:57.363Z</time></trkpt><trkpt lat="46.0053582" lon="8.6589107"><ele>211.0</ele><time>2026-04-03T14:29:58.362Z</time></trkpt><trkpt lat="46.0052907" lon="8.658882"><ele>209.33333333333334</ele><time>2026-04-03T14:29:59.365Z</time></trkpt><trkpt lat="46.0051901" lon="8.6588314"><ele>207.66666666666669</ele><time>2026-04-03T14:30:01.371Z</time></trkpt><trkpt lat="46.0051192" lon="8.6587397"><ele>206.0</ele><time>2026-04-03T14:30:03.372Z</time></trkpt><trkpt lat="46.005091" lon="8.6586253"><ele>206.00000000000003</ele><time>2026-04-03T14:30:05.376Z</time></trkpt><trkpt lat="46.0050934" lon="8.658521"><ele>206.0</ele><time>2026-04-03T14:30:07.378Z</time></trkpt><trkpt lat="46.0050567" lon="8.6586698"><ele>206.0</ele><time>2026-04-03T14:30:22.368Z</time></trkpt><trkpt lat="46.0050136" lon="8.6587815"><ele>206.0</ele><time>2026-04-03T14:30:24.365Z</time></trkpt><trkpt lat="46.0049674" lon="8.6588478"><ele>206.00000000000003</ele><time>2026-04-03T14:30:26.379Z</time></trkpt><trkpt lat="46.0048856" lon="8.6588885"><ele>206.0</ele><time>2026-04-03T14:30:28.382Z</time></trkpt><trkpt lat="46.0048184" lon="8.6589128"><ele>206.0</ele><time>2026-04-03T14:30:30.373Z</time></trkpt><trkpt lat="46.0047455" lon="8.6589036"><ele>206.0</ele><time>2026-04-03T14:30:33.382Z</time></trkpt><trkpt lat="46.0047954" lon="8.658993"><ele>206.0</ele><time>2026-04-03T14:31:17.38Z</time></trkpt><trkpt lat="46.0049328" lon="8.6590921"><ele>206.0</ele><time>2026-04-03T14:31:19.365Z</time></trkpt><trkpt lat="46.0050257" lon="8.6591485"><ele>206.0</ele><time>2026-04-03T14:31:20.363Z</time></trkpt><trkpt lat="46.0051211" lon="8.6592152"><ele>206.0</ele><time>2026-04-03T14:31:21.366Z</time></trkpt><trkpt lat="46.0052352" lon="8.6593107"><ele>206.0</ele><time>2026-04-03T14:31:22.372Z</time></trkpt><trkpt lat="46.0053551" lon="8.6594222"><ele>206.0</ele><time>2026-04-03T14:31:23.369Z</time></trkpt><trkpt lat="46.0054763" lon="8.6595511"><ele>206.0</ele><time>2026-04-03T14:31:24.372Z</time></trkpt><trkpt lat="46.0055997" lon="8.6596868"><ele>204.66666666666669</ele><time>2026-04-03T14:31:25.375Z</time></trkpt><trkpt lat="46.0057272" lon="8.6598215"><ele>203.33333333333331</ele><time>2026-04-03T14:31:26.366Z</time></trkpt><trkpt lat="46.0058677" lon="8.6599653"><ele>202.0</ele><time>2026-04-03T14:31:27.372Z</time></trkpt><trkpt lat="46.0060054" lon="8.6601067"><ele>201.33333333333331</ele><time>2026-04-03T14:31:28.374Z</time></trkpt><trkpt lat="46.0061346" lon="8.6602265"><ele>200.66666666666669</ele><time>2026-04-03T14:31:29.378Z</time></trkpt><trkpt lat="46.0062643" lon="8.6603472"><ele>200.0</ele><time>2026-04-03T14:31:30.379Z</time></trkpt><trkpt lat="46.0063996" lon="8.6604625"><ele>200.33333333333334</ele><time>2026-04-03T14:31:31.377Z</time></trkpt><trkpt lat="46.0065384" lon="8.6605733"><ele>200.66666666666669</ele><time>2026-04-03T14:31:32.373Z</time></trkpt><trkpt lat="46.0066726" lon="8.6606887"><ele>201.0</ele><time>2026-04-03T14:31:33.373Z</time></trkpt><trkpt lat="46.0068089" lon="8.6608101"><ele>201.0</ele><time>2026-04-03T14:31:34.365Z</time></trkpt><trkpt lat="46.0069777" lon="8.6609542"><ele>201.0</ele><time>2026-04-03T14:31:35.36Z</time></trkpt><trkpt lat="46.0071634" lon="8.6611133"><ele>201.0</ele><time>2026-04-03T14:31:36.365Z</time></trkpt><trkpt lat="46.0073539" lon="8.6612914"><ele>203.0</ele><time>2026-04-03T14:31:37.366Z</time></trkpt><trkpt lat="46.0075419" lon="8.6614714"><ele>205.0</ele><time>2026-04-03T14:31:38.362Z</time></trkpt><trkpt lat="46.0077135" lon="8.6616619"><ele>207.0</ele><time>2026-04-03T14:31:39.365Z</time></trkpt><trkpt lat="46.0078697" lon="8.6618769"><ele>203.33333333333331</ele><time>2026-04-03T14:31:40.364Z</time></trkpt><trkpt lat="46.0079931" lon="8.6621048"><ele>199.66666666666666</ele><time>2026-04-03T14:31:41.364Z</time></trkpt><trkpt lat="46.0081022" lon="8.6623445"><ele>196.0</ele><time>2026-04-03T14:31:42.359Z</time></trkpt><trkpt lat="46.0082001" lon="8.662578"><ele>196.0</ele><time>2026-04-03T14:31:43.366Z</time></trkpt><trkpt lat="46.0083044" lon="8.662803"><ele>196.0</ele><time>2026-04-03T14:31:44.365Z</time></trkpt><trkpt lat="46.0084268" lon="8.6630056"><ele>196.0</ele><time>2026-04-03T14:31:45.363Z</time></trkpt><trkpt lat="46.0085809" lon="8.6631627"><ele>196.0</ele><time>2026-04-03T14:31:46.362Z</time></trkpt><trkpt lat="46.0087528" lon="8.663312"><ele>196.0</ele><time>2026-04-03T14:31:47.357Z</time></trkpt><trkpt lat="46.0089461" lon="8.6634507"><ele>196.0</ele><time>2026-04-03T14:31:48.357Z</time></trkpt><trkpt lat="46.0091365" lon="8.6635915"><ele>200.0</ele><time>2026-04-03T14:31:49.36Z</time></trkpt><trkpt lat="46.0093265" lon="8.6637303"><ele>204.0</ele><time>2026-04-03T14:31:50.354Z</time></trkpt><trkpt lat="46.009522" lon="8.6638837"><ele>208.0</ele><time>2026-04-03T14:31:51.357Z</time></trkpt><trkpt lat="46.0096847" lon="8.6640163"><ele>208.0</ele><time>2026-04-03T14:31:52.353Z</time></trkpt><trkpt lat="46.0098496" lon="8.6641562"><ele>208.0</ele><time>2026-04-03T14:31:53.36Z</time></trkpt><trkpt lat="46.0100044" lon="8.6643103"><ele>208.0</ele><time>2026-04-03T14:31:54.358Z</time></trkpt><trkpt lat="46.0101356" lon="8.6644949"><ele>209.0</ele><time>2026-04-03T14:31:55.357Z</time></trkpt><trkpt lat="46.0102519" lon="8.6647167"><ele>210.0</ele><time>2026-04-03T14:31:56.352Z</time></trkpt><trkpt lat="46.0103517" lon="8.6649524"><ele>211.0</ele><time>2026-04-03T14:31:57.347Z</time></trkpt><trkpt lat="46.0104783" lon="8.6652293"><ele>213.0</ele><time>2026-04-03T14:31:58.356Z</time></trkpt><trkpt lat="46.0105859" lon="8.665492"><ele>215.0</ele><time>2026-04-03T14:31:59.355Z</time></trkpt><trkpt lat="46.0107017" lon="8.6657267"><ele>217.0</ele><time>2026-04-03T14:32:00.359Z</time></trkpt><trkpt lat="46.0108403" lon="8.6659387"><ele>211.66666666666666</ele><time>2026-04-03T14:32:01.368Z</time></trkpt><trkpt lat="46.0109947" lon="8.6661174"><ele>206.33333333333331</ele><time>2026-04-03T14:32:02.364Z</time></trkpt><trkpt lat="46.0111517" lon="8.6662835"><ele>201.0</ele><time>2026-04-03T14:32:03.374Z</time></trkpt><trkpt lat="46.0113188" lon="8.6664646"><ele>201.0</ele><time>2026-04-03T14:32:04.363Z</time></trkpt><trkpt lat="46.0114776" lon="8.6666518"><ele>201.0</ele><time>2026-04-03T14:32:05.368Z</time></trkpt><trkpt lat="46.0116326" lon="8.6668383"><ele>201.0</ele><time>2026-04-03T14:32:06.37Z</time></trkpt><trkpt lat="46.0117824" lon="8.6670103"><ele>203.66666666666669</ele><time>2026-04-03T14:32:07.365Z</time></trkpt><trkpt lat="46.0119277" lon="8.6671776"><ele>206.33333333333334</ele><time>2026-04-03T14:32:08.362Z</time></trkpt><trkpt lat="46.0120581" lon="8.6673314"><ele>209.0</ele><time>2026-04-03T14:32:09.369Z</time></trkpt><trkpt lat="46.0121813" lon="8.6674743"><ele>209.0</ele><time>2026-04-03T14:32:10.367Z</time></trkpt><trkpt lat="46.0122866" lon="8.6676181"><ele>209.0</ele><time>2026-04-03T14:32:11.363Z</time></trkpt><trkpt lat="46.0123734" lon="8.6677659"><ele>209.0</ele><time>2026-04-03T14:32:12.364Z</time></trkpt><trkpt lat="46.0124293" lon="8.6679384"><ele>209.0</ele><time>2026-04-03T14:32:13.365Z</time></trkpt><trkpt lat="46.0124831" lon="8.6681117"><ele>211.25</ele><time>2026-04-03T14:32:14.366Z</time></trkpt><trkpt lat="46.0125215" lon="8.6682859"><ele>213.5</ele><time>2026-04-03T14:32:15.365Z</time></trkpt><trkpt lat="46.0126041" lon="8.668436"><ele>215.75</ele><time>2026-04-03T14:32:16.365Z</time></trkpt><trkpt lat="46.0127146" lon="8.6685801"><ele>218.0</ele><time>2026-04-03T14:32:17.371Z</time></trkpt><trkpt lat="46.0128498" lon="8.6686847"><ele>219.33333333333334</ele><time>2026-04-03T14:32:18.373Z</time></trkpt><trkpt lat="46.0130196" lon="8.6687774"><ele>220.66666666666669</ele><time>2026-04-03T14:32:19.364Z</time></trkpt><trkpt lat="46.0131973" lon="8.6689149"><ele>222.0</ele><time>2026-04-03T14:32:20.362Z</time></trkpt><trkpt lat="46.013358" lon="8.6690616"><ele>222.0</ele><time>2026-04-03T14:32:21.366Z</time></trkpt><trkpt lat="46.0135124" lon="8.6692349"><ele>222.0</ele><time>2026-04-03T14:32:22.368Z</time></trkpt><trkpt lat="46.0136713" lon="8.6694169"><ele>222.0</ele><time>2026-04-03T14:32:23.364Z</time></trkpt><trkpt lat="46.0138406" lon="8.6696092"><ele>222.66666666666669</ele><time>2026-04-03T14:32:24.37Z</time></trkpt><trkpt lat="46.0140001" lon="8.6697868"><ele>223.33333333333334</ele><time>2026-04-03T14:32:25.363Z</time></trkpt><trkpt lat="46.0141514" lon="8.6699239"><ele>224.0</ele><time>2026-04-03T14:32:26.364Z</time></trkpt><trkpt lat="46.0143091" lon="8.6700387"><ele>224.0</ele><time>2026-04-03T14:32:27.356Z</time></trkpt><trkpt lat="46.0144773" lon="8.6701279"><ele>224.0</ele><time>2026-04-03T14:32:28.356Z</time></trkpt><trkpt lat="46.0146541" lon="8.6701579"><ele>224.0</ele><time>2026-04-03T14:32:29.359Z</time></trkpt><trkpt lat="46.0148311" lon="8.6701901"><ele>219.0</ele><time>2026-04-03T14:32:30.36Z</time></trkpt><trkpt lat="46.0150102" lon="8.6702624"><ele>214.0</ele><time>2026-04-03T14:32:31.367Z</time></trkpt><trkpt lat="46.0151818" lon="8.6703343"><ele>209.0</ele><time>2026-04-03T14:32:32.36Z</time></trkpt><trkpt lat="46.015352" lon="8.6704175"><ele>209.0</ele><time>2026-04-03T14:32:33.361Z</time></trkpt><trkpt lat="46.0155086" lon="8.6705298"><ele>209.0</ele><time>2026-04-03T14:32:34.355Z</time></trkpt><trkpt lat="46.0156607" lon="8.6706402"><ele>209.0</ele><time>2026-04-03T14:32:35.366Z</time></trkpt><trkpt lat="46.0157977" lon="8.6707345"><ele>213.25</ele><time>2026-04-03T14:32:36.362Z</time></trkpt><trkpt lat="46.015925" lon="8.6708283"><ele>217.5</ele><time>2026-04-03T14:32:37.355Z</time></trkpt><trkpt lat="46.0160343" lon="8.6709147"><ele>221.75</ele><time>2026-04-03T14:32:38.366Z</time></trkpt><trkpt lat="46.0161447" lon="8.6710014"><ele>226.0</ele><time>2026-04-03T14:32:39.359Z</time></trkpt><trkpt lat="46.0162655" lon="8.671095"><ele>224.75</ele><time>2026-04-03T14:32:40.367Z</time></trkpt><trkpt lat="46.016358" lon="8.6712119"><ele>223.5</ele><time>2026-04-03T14:32:41.362Z</time></trkpt><trkpt lat="46.0164573" lon="8.6713207"><ele>222.25</ele><time>2026-04-03T14:32:42.362Z</time></trkpt><trkpt lat="46.016557" lon="8.6714198"><ele>221.0</ele><time>2026-04-03T14:32:43.36Z</time></trkpt><trkpt lat="46.0166636" lon="8.671513"><ele>221.0</ele><time>2026-04-03T14:32:44.359Z</time></trkpt><trkpt lat="46.016769" lon="8.6715927"><ele>221.00000000000003</ele><time>2026-04-03T14:32:45.366Z</time></trkpt><trkpt lat="46.0168722" lon="8.6716418"><ele>221.00000000000003</ele><time>2026-04-03T14:32:46.357Z</time></trkpt><trkpt lat="46.0169806" lon="8.6716732"><ele>221.0</ele><time>2026-04-03T14:32:47.359Z</time></trkpt><trkpt lat="46.0170862" lon="8.6716914"><ele>221.0</ele><time>2026-04-03T14:32:48.354Z</time></trkpt><trkpt lat="46.0171882" lon="8.6717059"><ele>221.0</ele><time>2026-04-03T14:32:49.361Z</time></trkpt><trkpt lat="46.0172898" lon="8.6717118"><ele>221.00000000000003</ele><time>2026-04-03T14:32:50.356Z</time></trkpt><trkpt lat="46.0173854" lon="8.6717291"><ele>221.00000000000003</ele><time>2026-04-03T14:32:51.359Z</time></trkpt><trkpt lat="46.017476" lon="8.6717364"><ele>221.0</ele><time>2026-04-03T14:32:52.356Z</time></trkpt><trkpt lat="46.0175723" lon="8.6717475"><ele>221.0</ele><time>2026-04-03T14:32:53.359Z</time></trkpt><trkpt lat="46.0176765" lon="8.6717659"><ele>224.4</ele><time>2026-04-03T14:32:54.357Z</time></trkpt><trkpt lat="46.0177795" lon="8.6717742"><ele>227.8</ele><time>2026-04-03T14:32:55.366Z</time></trkpt><trkpt lat="46.0178899" lon="8.671802"><ele>231.20000000000002</ele><time>2026-04-03T14:32:56.361Z</time></trkpt><trkpt lat="46.018001" lon="8.6718272"><ele>234.60000000000002</ele><time>2026-04-03T14:32:57.355Z</time></trkpt><trkpt lat="46.0181186" lon="8.6718593"><ele>238.0</ele><time>2026-04-03T14:32:58.36Z</time></trkpt><trkpt lat="46.0182442" lon="8.6719025"><ele>234.0</ele><time>2026-04-03T14:32:59.362Z</time></trkpt><trkpt lat="46.0183671" lon="8.6719551"><ele>230.0</ele><time>2026-04-03T14:33:00.361Z</time></trkpt><trkpt lat="46.0184914" lon="8.6720223"><ele>226.0</ele><time>2026-04-03T14:33:01.366Z</time></trkpt><trkpt lat="46.0186139" lon="8.6721082"><ele>222.0</ele><time>2026-04-03T14:33:02.361Z</time></trkpt><trkpt lat="46.0187326" lon="8.6722138"><ele>222.0</ele><time>2026-04-03T14:33:03.352Z</time></trkpt><trkpt lat="46.0188442" lon="8.6723335"><ele>222.0</ele><time>2026-04-03T14:33:04.349Z</time></trkpt><trkpt lat="46.0189466" lon="8.6724531"><ele>222.0</ele><time>2026-04-03T14:33:05.352Z</time></trkpt><trkpt lat="46.0190513" lon="8.672583"><ele>222.0</ele><time>2026-04-03T14:33:06.356Z</time></trkpt><trkpt lat="46.0191514" lon="8.6727089"><ele>222.0</ele><time>2026-04-03T14:33:07.349Z</time></trkpt><trkpt lat="46.0192541" lon="8.6728333"><ele>222.0</ele><time>2026-04-03T14:33:08.351Z</time></trkpt><trkpt lat="46.0193504" lon="8.6729501"><ele>222.0</ele><time>2026-04-03T14:33:09.354Z</time></trkpt><trkpt lat="46.0194377" lon="8.6730615"><ele>222.0</ele><time>2026-04-03T14:33:10.349Z</time></trkpt><trkpt lat="46.0195269" lon="8.6731747"><ele>222.0</ele><time>2026-04-03T14:33:11.355Z</time></trkpt><trkpt lat="46.0196078" lon="8.6732975"><ele>222.0</ele><time>2026-04-03T14:33:12.353Z</time></trkpt><trkpt lat="46.0196813" lon="8.6734265"><ele>222.0</ele><time>2026-04-03T14:33:13.351Z</time></trkpt><trkpt lat="46.0197526" lon="8.6735673"><ele>222.0</ele><time>2026-04-03T14:33:14.357Z</time></trkpt><trkpt lat="46.0198286" lon="8.6737111"><ele>223.75</ele><time>2026-04-03T14:33:15.351Z</time></trkpt><trkpt lat="46.019901" lon="8.6738532"><ele>225.5</ele><time>2026-04-03T14:33:16.356Z</time></trkpt><trkpt lat="46.0199745" lon="8.6739932"><ele>227.25</ele><time>2026-04-03T14:33:17.361Z</time></trkpt><trkpt lat="46.0200539" lon="8.6741356"><ele>229.0</ele><time>2026-04-03T14:33:18.354Z</time></trkpt><trkpt lat="46.0201344" lon="8.6742756"><ele>229.0</ele><time>2026-04-03T14:33:19.357Z</time></trkpt><trkpt lat="46.0202144" lon="8.6744075"><ele>229.0</ele><time>2026-04-03T14:33:20.356Z</time></trkpt><trkpt lat="46.0202955" lon="8.6745386"><ele>229.0</ele><time>2026-04-03T14:33:21.358Z</time></trkpt><trkpt lat="46.0203753" lon="8.6746608"><ele>229.0</ele><time>2026-04-03T14:33:22.353Z</time></trkpt><trkpt lat="46.0204539" lon="8.6747801"><ele>223.25</ele><time>2026-04-03T14:33:23.359Z</time></trkpt><trkpt lat="46.0205325" lon="8.6749034"><ele>217.5</ele><time>2026-04-03T14:33:24.36Z</time></trkpt><trkpt lat="46.020615" lon="8.675036"><ele>211.75</ele><time>2026-04-03T14:33:25.359Z</time></trkpt><trkpt lat="46.0206967" lon="8.675173"><ele>206.0</ele><time>2026-04-03T14:33:26.374Z</time></trkpt><trkpt lat="46.0207737" lon="8.675313"><ele>210.75</ele><time>2026-04-03T14:33:27.356Z</time></trkpt><trkpt lat="46.0208483" lon="8.6754566"><ele>215.5</ele><time>2026-04-03T14:33:28.361Z</time></trkpt><trkpt lat="46.020922" lon="8.6756011"><ele>220.25</ele><time>2026-04-03T14:33:29.359Z</time></trkpt><trkpt lat="46.0209921" lon="8.6757533"><ele>225.0</ele><time>2026-04-03T14:33:30.36Z</time></trkpt><trkpt lat="46.0210655" lon="8.675898"><ele>225.0</ele><time>2026-04-03T14:33:31.362Z</time></trkpt><trkpt lat="46.0211366" lon="8.6760453"><ele>225.0</ele><time>2026-04-03T14:33:32.352Z</time></trkpt><trkpt lat="46.0212088" lon="8.6761909"><ele>225.0</ele><time>2026-04-03T14:33:33.366Z</time></trkpt><trkpt lat="46.0212785" lon="8.676331"><ele>225.0</ele><time>2026-04-03T14:33:34.354Z</time></trkpt><trkpt lat="46.0213483" lon="8.6764718"><ele>226.0</ele><time>2026-04-03T14:33:35.355Z</time></trkpt><trkpt lat="46.0214145" lon="8.6766077"><ele>227.0</ele><time>2026-04-03T14:33:36.357Z</time></trkpt><trkpt lat="46.0214764" lon="8.6767419"><ele>228.0</ele><time>2026-04-03T14:33:37.354Z</time></trkpt><trkpt lat="46.0215389" lon="8.6768714"><ele>229.0</ele><time>2026-04-03T14:33:38.352Z</time></trkpt><trkpt lat="46.0216012" lon="8.6770012"><ele>230.0</ele><time>2026-04-03T14:33:39.353Z</time></trkpt><trkpt lat="46.0216669" lon="8.6771283"><ele>230.0</ele><time>2026-04-03T14:33:40.353Z</time></trkpt><trkpt lat="46.0217299" lon="8.6772581"><ele>230.0</ele><time>2026-04-03T14:33:41.352Z</time></trkpt><trkpt lat="46.021791" lon="8.6773838"><ele>230.0</ele><time>2026-04-03T14:33:42.353Z</time></trkpt><trkpt lat="46.0218537" lon="8.6775062"><ele>230.0</ele><time>2026-04-03T14:33:43.351Z</time></trkpt><trkpt lat="46.0219139" lon="8.6776175"><ele>230.0</ele><time>2026-04-03T14:33:44.357Z</time></trkpt><trkpt lat="46.0219657" lon="8.6777143"><ele>228.8</ele><time>2026-04-03T14:33:45.36Z</time></trkpt><trkpt lat="46.0220211" lon="8.6777986"><ele>227.6</ele><time>2026-04-03T14:33:47.364Z</time></trkpt><trkpt lat="46.0220776" lon="8.6779548"><ele>226.39999999999998</ele><time>2026-04-03T14:34:03.362Z</time></trkpt><trkpt lat="46.0221087" lon="8.678066"><ele>225.2</ele><time>2026-04-03T14:34:04.356Z</time></trkpt><trkpt lat="46.0221359" lon="8.6781749"><ele>224.0</ele><time>2026-04-03T14:34:05.352Z</time></trkpt><trkpt lat="46.0221701" lon="8.6782844"><ele>224.00000000000003</ele><time>2026-04-03T14:34:06.356Z</time></trkpt><trkpt lat="46.0222094" lon="8.6783874"><ele>224.0</ele><time>2026-04-03T14:34:07.352Z</time></trkpt><trkpt lat="46.022253" lon="8.6784913"><ele>224.0</ele><time>2026-04-03T14:34:08.352Z</time></trkpt><trkpt lat="46.0222995" lon="8.6785958"><ele>224.0</ele><time>2026-04-03T14:34:09.361Z</time></trkpt><trkpt lat="46.0223461" lon="8.6787047"><ele>224.00000000000003</ele><time>2026-04-03T14:34:10.357Z</time></trkpt><trkpt lat="46.022387" lon="8.6788193"><ele>224.0</ele><time>2026-04-03T14:34:11.356Z</time></trkpt><trkpt lat="46.0224294" lon="8.6789303"><ele>224.66666666666669</ele><time>2026-04-03T14:34:12.359Z</time></trkpt><trkpt lat="46.022466" lon="8.6790308"><ele>225.33333333333334</ele><time>2026-04-03T14:34:13.355Z</time></trkpt><trkpt lat="46.0225094" lon="8.6791321"><ele>226.0</ele><time>2026-04-03T14:34:14.358Z</time></trkpt><trkpt lat="46.0225453" lon="8.679236"><ele>226.66666666666669</ele><time>2026-04-03T14:34:15.36Z</time></trkpt><trkpt lat="46.0225797" lon="8.6793366"><ele>227.33333333333334</ele><time>2026-04-03T14:34:16.353Z</time></trkpt><trkpt lat="46.0226075" lon="8.6794338"><ele>228.0</ele><time>2026-04-03T14:34:17.36Z</time></trkpt><trkpt lat="46.0226306" lon="8.6795287"><ele>229.66666666666666</ele><time>2026-04-03T14:34:18.352Z</time></trkpt><trkpt lat="46.0226575" lon="8.6796923"><ele>231.33333333333331</ele><time>2026-04-03T14:34:20.349Z</time></trkpt><trkpt lat="46.0226762" lon="8.6798155"><ele>233.0</ele><time>2026-04-03T14:34:22.35Z</time></trkpt><trkpt lat="46.0226881" lon="8.6799184"><ele>234.66666666666666</ele><time>2026-04-03T14:34:25.371Z</time></trkpt><trkpt lat="46.0227007" lon="8.6800141"><ele>236.33333333333331</ele><time>2026-04-03T14:34:29.364Z</time></trkpt><trkpt lat="46.0227252" lon="8.6801054"><ele>238.0</ele><time>2026-04-03T14:34:32.367Z</time></trkpt><trkpt lat="46.0227431" lon="8.6802161"><ele>236.49999999999997</ele><time>2026-04-03T14:34:35.367Z</time></trkpt><trkpt lat="46.0227647" lon="8.680334"><ele>235.0</ele><time>2026-04-03T14:34:38.369Z</time></trkpt><trkpt lat="46.0227876" lon="8.6804553"><ele>233.5</ele><time>2026-04-03T14:34:41.366Z</time></trkpt><trkpt lat="46.0228099" lon="8.6805611"><ele>232.0</ele><time>2026-04-03T14:34:43.372Z</time></trkpt><trkpt lat="46.0228365" lon="8.6806871"><ele>230.49999999999997</ele><time>2026-04-03T14:34:45.373Z</time></trkpt><trkpt lat="46.0228564" lon="8.6807947"><ele>229.0</ele><time>2026-04-03T14:34:47.375Z</time></trkpt><trkpt lat="46.0228823" lon="8.6809064"><ele>228.99999999999997</ele><time>2026-04-03T14:34:49.373Z</time></trkpt><trkpt lat="46.0229077" lon="8.6810342"><ele>229.0</ele><time>2026-04-03T14:34:51.376Z</time></trkpt><trkpt lat="46.0229262" lon="8.6811303"><ele>229.0</ele><time>2026-04-03T14:34:53.372Z</time></trkpt><trkpt lat="46.0229379" lon="8.6812424"><ele>229.0</ele><time>2026-04-03T14:34:57.373Z</time></trkpt><trkpt lat="46.0229342" lon="8.6813364"><ele>228.99999999999997</ele><time>2026-04-03T14:34:59.382Z</time></trkpt><trkpt lat="46.022889" lon="8.6814608"><ele>229.0</ele><time>2026-04-03T14:35:01.37Z</time></trkpt><trkpt lat="46.0227975" lon="8.6815706"><ele>229.16666666666666</ele><time>2026-04-03T14:35:03.359Z</time></trkpt><trkpt lat="46.0227348" lon="8.6816206"><ele>229.33333333333331</ele><time>2026-04-03T14:35:04.356Z</time></trkpt><trkpt lat="46.0226735" lon="8.6816712"><ele>229.5</ele><time>2026-04-03T14:35:05.357Z</time></trkpt><trkpt lat="46.0226141" lon="8.6817345"><ele>229.66666666666669</ele><time>2026-04-03T14:35:06.352Z</time></trkpt><trkpt lat="46.0225542" lon="8.6817999"><ele>229.83333333333334</ele><time>2026-04-03T14:35:07.354Z</time></trkpt><trkpt lat="46.0224887" lon="8.6818615"><ele>230.0</ele><time>2026-04-03T14:35:08.353Z</time></trkpt><trkpt lat="46.0224205" lon="8.6819278"><ele>228.33333333333334</ele><time>2026-04-03T14:35:09.352Z</time></trkpt><trkpt lat="46.0223489" lon="8.6819924"><ele>226.66666666666669</ele><time>2026-04-03T14:35:10.358Z</time></trkpt><trkpt lat="46.0222748" lon="8.6820613"><ele>225.0</ele><time>2026-04-03T14:35:11.359Z</time></trkpt><trkpt lat="46.0221996" lon="8.6821246"><ele>223.33333333333331</ele><time>2026-04-03T14:35:12.359Z</time></trkpt><trkpt lat="46.022125" lon="8.6821784"><ele>221.66666666666666</ele><time>2026-04-03T14:35:13.359Z</time></trkpt><trkpt lat="46.0220493" lon="8.6822266"><ele>220.0</ele><time>2026-04-03T14:35:14.359Z</time></trkpt><trkpt lat="46.0219793" lon="8.6822711"><ele>219.99999999999997</ele><time>2026-04-03T14:35:15.361Z</time></trkpt><trkpt lat="46.0219115" lon="8.6823049"><ele>220.0</ele><time>2026-04-03T14:35:16.359Z</time></trkpt><trkpt lat="46.0218455" lon="8.6823386"><ele>220.0</ele><time>2026-04-03T14:35:17.359Z</time></trkpt><trkpt lat="46.0217821" lon="8.6823703"><ele>220.0</ele><time>2026-04-03T14:35:18.36Z</time></trkpt><trkpt lat="46.0217218" lon="8.682406"><ele>219.99999999999997</ele><time>2026-04-03T14:35:19.358Z</time></trkpt><trkpt lat="46.0216069" lon="8.6824712"><ele>220.0</ele><time>2026-04-03T14:35:21.361Z</time></trkpt><trkpt lat="46.021513" lon="8.6825263"><ele>218.83333333333331</ele><time>2026-04-03T14:35:23.361Z</time></trkpt><trkpt lat="46.0214366" lon="8.6825801"><ele>217.66666666666666</ele><time>2026-04-03T14:35:25.376Z</time></trkpt><trkpt lat="46.0213584" lon="8.682614"><ele>216.5</ele><time>2026-04-03T14:35:28.372Z</time></trkpt><trkpt lat="46.0212767" lon="8.6825853"><ele>215.33333333333331</ele><time>2026-04-03T14:35:32.374Z</time></trkpt><trkpt lat="46.0212303" lon="8.6824766"><ele>214.16666666666666</ele><time>2026-04-03T14:35:34.371Z</time></trkpt><trkpt lat="46.0212092" lon="8.6823256"><ele>213.0</ele><time>2026-04-03T14:35:36.374Z</time></trkpt><trkpt lat="46.0211997" lon="8.682234"><ele>213.0</ele><time>2026-04-03T14:35:37.36Z</time></trkpt><trkpt lat="46.0211865" lon="8.6821371"><ele>213.0</ele><time>2026-04-03T14:35:38.366Z</time></trkpt><trkpt lat="46.0211705" lon="8.6820438"><ele>213.0</ele><time>2026-04-03T14:35:39.366Z</time></trkpt><trkpt lat="46.0211483" lon="8.6818887"><ele>213.0</ele><time>2026-04-03T14:35:41.366Z</time></trkpt><trkpt lat="46.0211217" lon="8.6817526"><ele>213.0</ele><time>2026-04-03T14:35:43.366Z</time></trkpt><trkpt lat="46.0210808" lon="8.6816774"><ele>213.0</ele><time>2026-04-03T14:35:45.372Z</time></trkpt><trkpt lat="46.0209744" lon="8.6817186"><ele>212.85714285714283</ele><time>2026-04-03T14:35:47.368Z</time></trkpt><trkpt lat="46.0209111" lon="8.6817522"><ele>212.71428571428572</ele><time>2026-04-03T14:35:48.362Z</time></trkpt><trkpt lat="46.0208418" lon="8.6817871"><ele>212.57142857142856</ele><time>2026-04-03T14:35:49.36Z</time></trkpt><trkpt lat="46.020773" lon="8.6818224"><ele>212.42857142857142</ele><time>2026-04-03T14:35:50.361Z</time></trkpt><trkpt lat="46.0207077" lon="8.6818563"><ele>212.28571428571428</ele><time>2026-04-03T14:35:51.36Z</time></trkpt><trkpt lat="46.020647" lon="8.6818875"><ele>212.14285714285714</ele><time>2026-04-03T14:35:52.361Z</time></trkpt><trkpt lat="46.020558" lon="8.6819383"><ele>212.0</ele><time>2026-04-03T14:35:54.362Z</time></trkpt><trkpt lat="46.0204848" lon="8.6818769"><ele>211.0</ele><time>2026-04-03T14:35:58.362Z</time></trkpt><trkpt lat="46.0204665" lon="8.6817448"><ele>210.0</ele><time>2026-04-03T14:36:00.37Z</time></trkpt><trkpt lat="46.0204258" lon="8.6816694"><ele>209.0</ele><time>2026-04-03T14:36:02.364Z</time></trkpt><trkpt lat="46.0203643" lon="8.6816894"><ele>208.0</ele><time>2026-04-03T14:36:05.37Z</time></trkpt><trkpt lat="46.0202977" lon="8.6817001"><ele>207.0</ele><time>2026-04-03T14:36:07.36Z</time></trkpt><trkpt lat="46.0203554" lon="8.6822247"><ele>206.0</ele><time>2026-04-03T14:36:57.327Z</time></trkpt></trkseg></trk></gpx>